<?xml version='1.0' encoding='UTF-8'?><gpx version="1.1" creator="JPX - https://github.com/jenetics/jpx" xmlns="http://www.topografix.com/GPX/1/1"><trk><trkseg><trkpt lat="42.81353654160353" lon="12.914213335485229"><ele>369.0</ele><time>2026-04-04T08:38:22Z</time></trkpt><trkpt lat="42.813570781401594" lon="12.91412405704391"><ele>369.0</ele><time>2026-04-04T08:38:29Z</time></trkpt><trkpt lat="42.813487780126074" lon="12.91400492435832"><ele>369.0</ele><time>2026-04-04T08:38:33Z</time></trkpt><trkpt lat="42.81340611888117" lon="12.914012111254161"><ele>369.0</ele><time>2026-04-04T08:38:34Z</time></trkpt><trkpt lat="42.81331505144699" lon="12.913991765324628"><ele>369.0</ele><time>2026-04-04T08:38:35Z</time></trkpt><trkpt lat="42.81319352082017" lon="12.91394556209624"><ele>368.3333333333333</ele><time>2026-04-04T08:38:36Z</time></trkpt><trkpt lat="42.81302083252485" lon="12.913885484883597"><ele>367.66666666666663</ele><time>2026-04-04T08:38:37Z</time></trkpt><trkpt lat="42.81287053336317" lon="12.913828975485442"><ele>367.0</ele><time>2026-04-04T08:38:38Z</time></trkpt><trkpt lat="42.812738428687005" lon="12.913770848031339"><ele>364.75</ele><time>2026-04-04T08:38:39Z</time></trkpt><trkpt lat="42.812611973781955" lon="12.913725871024674"><ele>362.5</ele><time>2026-04-04T08:38:40Z</time></trkpt><trkpt lat="42.812479629636535" lon="12.91368214599565"><ele>360.25</ele><time>2026-04-04T08:38:41Z</time></trkpt><trkpt lat="42.81232382831625" lon="12.913618489360795"><ele>358.0</ele><time>2026-04-04T08:38:42Z</time></trkpt><trkpt lat="42.81216495854245" lon="12.913556050882605"><ele>358.0</ele><time>2026-04-04T08:38:43Z</time></trkpt><trkpt lat="42.81200731713569" lon="12.913497948847734"><ele>358.0</ele><time>2026-04-04T08:38:44Z</time></trkpt><trkpt lat="42.81184925516796" lon="12.913427629160346"><ele>358.0</ele><time>2026-04-04T08:38:45Z</time></trkpt><trkpt lat="42.81171290409839" lon="12.913297190456808"><ele>360.66666666666663</ele><time>2026-04-04T08:38:46Z</time></trkpt><trkpt lat="42.81158807479131" lon="12.913146708537736"><ele>363.3333333333333</ele><time>2026-04-04T08:38:47Z</time></trkpt><trkpt lat="42.81143793814432" lon="12.91298171572986"><ele>366.0</ele><time>2026-04-04T08:38:48Z</time></trkpt><trkpt lat="42.811271121745634" lon="12.912761988428988"><ele>365.6666666666667</ele><time>2026-04-04T08:38:49Z</time></trkpt><trkpt lat="42.81110424104177" lon="12.91256917336456"><ele>365.33333333333337</ele><time>2026-04-04T08:38:50Z</time></trkpt><trkpt lat="42.81093009955921" lon="12.912427385409938"><ele>365.0</ele><time>2026-04-04T08:38:51Z</time></trkpt><trkpt lat="42.81075752893057" lon="12.912320056899109"><ele>365.0</ele><time>2026-04-04T08:38:52Z</time></trkpt><trkpt lat="42.81059834472525" lon="12.912229646311266"><ele>365.0</ele><time>2026-04-04T08:38:53Z</time></trkpt><trkpt lat="42.810474611858744" lon="12.912133795566774"><ele>365.0</ele><time>2026-04-04T08:38:54Z</time></trkpt><trkpt lat="42.810414188044874" lon="12.911965908134787"><ele>365.0</ele><time>2026-04-04T08:38:55Z</time></trkpt><trkpt lat="42.810407018541575" lon="12.911780613373873"><ele>365.0</ele><time>2026-04-04T08:38:56Z</time></trkpt><trkpt lat="42.81040975235776" lon="12.911588747620787"><ele>365.0</ele><time>2026-04-04T08:38:57Z</time></trkpt><trkpt lat="42.81041170975506" lon="12.911380780272133"><ele>365.0</ele><time>2026-04-04T08:38:58Z</time></trkpt><trkpt lat="42.810417427370716" lon="12.911153841114714"><ele>369.0</ele><time>2026-04-04T08:38:59Z</time></trkpt><trkpt lat="42.810439632603206" lon="12.91093497775762"><ele>373.0</ele><time>2026-04-04T08:39:00Z</time></trkpt><trkpt lat="42.81047820161907" lon="12.910710980154597"><ele>377.0</ele><time>2026-04-04T08:39:01Z</time></trkpt><trkpt lat="42.81052136658873" lon="12.910480019357298"><ele>378.0</ele><time>2026-04-04T08:39:02Z</time></trkpt><trkpt lat="42.810541933364135" lon="12.910245624119806"><ele>379.0</ele><time>2026-04-04T08:39:03Z</time></trkpt><trkpt lat="42.810556662110145" lon="12.910017100704616"><ele>380.0</ele><time>2026-04-04T08:39:04Z</time></trkpt><trkpt lat="42.81052585107736" lon="12.909800612614283"><ele>383.33333333333337</ele><time>2026-04-04T08:39:05Z</time></trkpt><trkpt lat="42.81045012436159" lon="12.909599201425012"><ele>386.6666666666667</ele><time>2026-04-04T08:39:06Z</time></trkpt><trkpt lat="42.81032572257962" lon="12.90940277198938"><ele>390.0</ele><time>2026-04-04T08:39:07Z</time></trkpt><trkpt lat="42.81016947849472" lon="12.909232006270248"><ele>381.3333333333333</ele><time>2026-04-04T08:39:08Z</time></trkpt><trkpt lat="42.81001882564589" lon="12.909066078169898"><ele>372.66666666666663</ele><time>2026-04-04T08:39:09Z</time></trkpt><trkpt lat="42.80991089302243" lon="12.90886881079705"><ele>364.0</ele><time>2026-04-04T08:39:10Z</time></trkpt><trkpt lat="42.8098474866497" lon="12.908674463511906"><ele>364.0</ele><time>2026-04-04T08:39:11Z</time></trkpt><trkpt lat="42.809832502535606" lon="12.908472045704867"><ele>364.0</ele><time>2026-04-04T08:39:12Z</time></trkpt><trkpt lat="42.80981789979044" lon="12.908253765620735"><ele>364.0</ele><time>2026-04-04T08:39:13Z</time></trkpt><trkpt lat="42.80978743522551" lon="12.908029198727109"><ele>366.66666666666663</ele><time>2026-04-04T08:39:14Z</time></trkpt><trkpt lat="42.80975262004699" lon="12.907797461574258"><ele>369.3333333333333</ele><time>2026-04-04T08:39:15Z</time></trkpt><trkpt lat="42.80971595427479" lon="12.907590952618776"><ele>372.0</ele><time>2026-04-04T08:39:16Z</time></trkpt><trkpt lat="42.8096782649565" lon="12.907357449796642"><ele>374.3333333333333</ele><time>2026-04-04T08:39:17Z</time></trkpt><trkpt lat="42.80964547978119" lon="12.907136135655549"><ele>376.66666666666663</ele><time>2026-04-04T08:39:18Z</time></trkpt><trkpt lat="42.80960302732082" lon="12.906892645285872"><ele>379.0</ele><time>2026-04-04T08:39:19Z</time></trkpt><trkpt lat="42.80954133429294" lon="12.906658943791806"><ele>371.66666666666663</ele><time>2026-04-04T08:39:20Z</time></trkpt><trkpt lat="42.809472576196505" lon="12.906441452670267"><ele>364.3333333333333</ele><time>2026-04-04T08:39:21Z</time></trkpt><trkpt lat="42.809372193741915" lon="12.906252884584337"><ele>357.0</ele><time>2026-04-04T08:39:22Z</time></trkpt><trkpt lat="42.80927194368489" lon="12.906090634845087"><ele>357.0</ele><time>2026-04-04T08:39:23Z</time></trkpt><trkpt lat="42.80917842576198" lon="12.905934253120396"><ele>357.0</ele><time>2026-04-04T08:39:24Z</time></trkpt><trkpt lat="42.809089219989765" lon="12.905776006463782"><ele>357.0</ele><time>2026-04-04T08:39:25Z</time></trkpt><trkpt lat="42.80902573758963" lon="12.905636330799224"><ele>357.0</ele><time>2026-04-04T08:39:26Z</time></trkpt><trkpt lat="42.80897656354615" lon="12.90550296461797"><ele>358.6666666666667</ele><time>2026-04-04T08:39:27Z</time></trkpt><trkpt lat="42.808939667804225" lon="12.905354421544239"><ele>360.3333333333333</ele><time>2026-04-04T08:39:28Z</time></trkpt><trkpt lat="42.808914101196045" lon="12.905224623260867"><ele>362.0</ele><time>2026-04-04T08:39:29Z</time></trkpt><trkpt lat="42.8088950059089" lon="12.905117827893644"><ele>363.66666666666663</ele><time>2026-04-04T08:39:30Z</time></trkpt><trkpt lat="42.808878271511674" lon="12.905018969700501"><ele>365.3333333333333</ele><time>2026-04-04T08:39:31Z</time></trkpt><trkpt lat="42.80885599819718" lon="12.904930079486165"><ele>367.0</ele><time>2026-04-04T08:39:32Z</time></trkpt><trkpt lat="42.808901266252605" lon="12.904844487712527"><ele>368.5</ele><time>2026-04-04T08:39:34Z</time></trkpt><trkpt lat="42.808717581107125" lon="12.904843516662751"><ele>370.0</ele><time>2026-04-04T08:39:36Z</time></trkpt><trkpt lat="42.80863910135228" lon="12.90497264917326"><ele>371.5</ele><time>2026-04-04T08:39:38Z</time></trkpt><trkpt lat="42.80854486536093" lon="12.905076356598622"><ele>373.0</ele><time>2026-04-04T08:39:40Z</time></trkpt><trkpt lat="42.80847525947565" lon="12.905148509357144"><ele>368.2</ele><time>2026-04-04T08:39:41Z</time></trkpt><trkpt lat="42.80838293962681" lon="12.905155046902964"><ele>363.4</ele><time>2026-04-04T08:39:43Z</time></trkpt><trkpt lat="42.8083312434924" lon="12.905337834817653"><ele>358.59999999999997</ele><time>2026-04-04T08:39:45Z</time></trkpt><trkpt lat="42.80826659062422" lon="12.905301350282029"><ele>353.79999999999995</ele><time>2026-04-04T08:39:46Z</time></trkpt><trkpt lat="42.80819604894907" lon="12.905244695965205"><ele>349.0</ele><time>2026-04-04T08:39:47Z</time></trkpt><trkpt lat="42.808117826294385" lon="12.905193831693778"><ele>349.0</ele><time>2026-04-04T08:39:48Z</time></trkpt><trkpt lat="42.808032112399566" lon="12.905136519994995"><ele>349.0</ele><time>2026-04-04T08:39:49Z</time></trkpt><trkpt lat="42.80794127418092" lon="12.90509193953059"><ele>349.0</ele><time>2026-04-04T08:39:50Z</time></trkpt><trkpt lat="42.807851010885685" lon="12.905052690066443"><ele>349.0</ele><time>2026-04-04T08:39:51Z</time></trkpt><trkpt lat="42.80775190284818" lon="12.905007025872019"><ele>349.0</ele><time>2026-04-04T08:39:52Z</time></trkpt><trkpt lat="42.807684491312486" lon="12.904968553488867"><ele>349.79999999999995</ele><time>2026-04-04T08:39:53Z</time></trkpt><trkpt lat="42.807610301829946" lon="12.904850649622773"><ele>350.59999999999997</ele><time>2026-04-04T08:39:55Z</time></trkpt><trkpt lat="42.807596812206675" lon="12.904754150842741"><ele>351.4</ele><time>2026-04-04T08:39:56Z</time></trkpt><trkpt lat="42.80757542150855" lon="12.904585788711538"><ele>352.2</ele><time>2026-04-04T08:39:58Z</time></trkpt><trkpt lat="42.80759242327205" lon="12.904472344633069"><ele>353.0</ele><time>2026-04-04T08:39:59Z</time></trkpt><trkpt lat="42.80762311432342" lon="12.904316794010446"><ele>352.0</ele><time>2026-04-04T08:40:00Z</time></trkpt><trkpt lat="42.80766717523591" lon="12.904152059355475"><ele>351.0</ele><time>2026-04-04T08:40:01Z</time></trkpt><trkpt lat="42.8077031541928" lon="12.903985657750116"><ele>350.0</ele><time>2026-04-04T08:40:02Z</time></trkpt><trkpt lat="42.80773839504778" lon="12.903836993925125"><ele>349.0</ele><time>2026-04-04T08:40:03Z</time></trkpt><trkpt lat="42.80775708146647" lon="12.903708202376414"><ele>349.0</ele><time>2026-04-04T08:40:04Z</time></trkpt><trkpt lat="42.80777608519089" lon="12.903588228643857"><ele>349.0</ele><time>2026-04-04T08:40:05Z</time></trkpt><trkpt lat="42.807791384567224" lon="12.903466582989441"><ele>349.0</ele><time>2026-04-04T08:40:06Z</time></trkpt><trkpt lat="42.807824221914785" lon="12.903328984853397"><ele>349.0</ele><time>2026-04-04T08:40:07Z</time></trkpt><trkpt lat="42.80785421304899" lon="12.9031932406285"><ele>349.0</ele><time>2026-04-04T08:40:08Z</time></trkpt><trkpt lat="42.80786983097013" lon="12.903077504291735"><ele>349.16666666666663</ele><time>2026-04-04T08:40:09Z</time></trkpt><trkpt lat="42.807887232912435" lon="12.902989000841579"><ele>349.3333333333333</ele><time>2026-04-04T08:40:10Z</time></trkpt><trkpt lat="42.80790753647092" lon="12.902895065119882"><ele>349.5</ele><time>2026-04-04T08:40:12Z</time></trkpt><trkpt lat="42.80784988320315" lon="12.902850237121667"><ele>349.6666666666667</ele><time>2026-04-04T08:40:14Z</time></trkpt><trkpt lat="42.807779302573365" lon="12.902853236843338"><ele>349.83333333333337</ele><time>2026-04-04T08:40:16Z</time></trkpt><trkpt lat="42.807689305711996" lon="12.902814840734026"><ele>350.0</ele><time>2026-04-04T08:40:19Z</time></trkpt><trkpt lat="42.80758810796402" lon="12.902786288184991"><ele>349.6</ele><time>2026-04-04T08:40:21Z</time></trkpt><trkpt lat="42.8075048750018" lon="12.902744970351728"><ele>349.2</ele><time>2026-04-04T08:40:22Z</time></trkpt><trkpt lat="42.80739205387004" lon="12.902682384996915"><ele>348.79999999999995</ele><time>2026-04-04T08:40:23Z</time></trkpt><trkpt lat="42.80729842153279" lon="12.902628963927425"><ele>348.4</ele><time>2026-04-04T08:40:24Z</time></trkpt><trkpt lat="42.80718841784246" lon="12.902587469649045"><ele>348.0</ele><time>2026-04-04T08:40:25Z</time></trkpt><trkpt lat="42.80708852959946" lon="12.902562900878852"><ele>348.1666666666667</ele><time>2026-04-04T08:40:26Z</time></trkpt><trkpt lat="42.80700465359344" lon="12.902554324442807"><ele>348.3333333333333</ele><time>2026-04-04T08:40:27Z</time></trkpt><trkpt lat="42.806902930730274" lon="12.902569982211649"><ele>348.5</ele><time>2026-04-04T08:40:28Z</time></trkpt><trkpt lat="42.80680571033962" lon="12.90258868667628"><ele>348.66666666666663</ele><time>2026-04-04T08:40:29Z</time></trkpt><trkpt lat="42.80672964264439" lon="12.902626806850327"><ele>348.8333333333333</ele><time>2026-04-04T08:40:30Z</time></trkpt><trkpt lat="42.80667082309522" lon="12.902675318681048"><ele>349.0</ele><time>2026-04-04T08:40:31Z</time></trkpt><trkpt lat="42.80661358330977" lon="12.902731835137512"><ele>349.0</ele><time>2026-04-04T08:40:32Z</time></trkpt><trkpt lat="42.80654963918644" lon="12.902775617910905"><ele>349.0</ele><time>2026-04-04T08:40:33Z</time></trkpt><trkpt lat="42.80647011009761" lon="12.902809866528631"><ele>349.0</ele><time>2026-04-04T08:40:36Z</time></trkpt><trkpt lat="42.8064027542512" lon="12.902844959799053"><ele>349.0</ele><time>2026-04-04T08:40:38Z</time></trkpt><trkpt lat="42.80639588617808" lon="12.90299531533645"><ele>349.0</ele><time>2026-04-04T08:40:39Z</time></trkpt><trkpt lat="42.80633575445631" lon="12.903033809406747"><ele>349.0</ele><time>2026-04-04T08:40:40Z</time></trkpt><trkpt lat="42.80625173445743" lon="12.90308759481864"><ele>349.0</ele><time>2026-04-04T08:40:42Z</time></trkpt><trkpt lat="42.806164665978784" lon="12.903149775225984"><ele>349.0</ele><time>2026-04-04T08:40:44Z</time></trkpt><trkpt lat="42.806050949192766" lon="12.90323701286994"><ele>349.0</ele><time>2026-04-04T08:40:46Z</time></trkpt><trkpt lat="42.805927055849324" lon="12.903339391173771"><ele>349.0</ele><time>2026-04-04T08:40:48Z</time></trkpt><trkpt lat="42.80584442103691" lon="12.903414858988164"><ele>349.6</ele><time>2026-04-04T08:40:49Z</time></trkpt><trkpt lat="42.80573708444295" lon="12.903524281411794"><ele>350.2</ele><time>2026-04-04T08:40:51Z</time></trkpt><trkpt lat="42.805676509063154" lon="12.903612668023413"><ele>350.8</ele><time>2026-04-04T08:40:52Z</time></trkpt><trkpt lat="42.80562027137096" lon="12.90370752253206"><ele>351.40000000000003</ele><time>2026-04-04T08:40:53Z</time></trkpt><trkpt lat="42.805567277927736" lon="12.903800392010835"><ele>352.0</ele><time>2026-04-04T08:40:54Z</time></trkpt><trkpt lat="42.80552538674443" lon="12.903879350845953"><ele>352.0</ele><time>2026-04-04T08:40:55Z</time></trkpt><trkpt lat="42.80548509244251" lon="12.903958839465632"><ele>352.0</ele><time>2026-04-04T08:40:56Z</time></trkpt><trkpt lat="42.80543852991253" lon="12.904062539860147"><ele>352.0</ele><time>2026-04-04T08:40:57Z</time></trkpt><trkpt lat="42.805384013730766" lon="12.904193261238948"><ele>352.0</ele><time>2026-04-04T08:40:59Z</time></trkpt><trkpt lat="42.805352488678906" lon="12.904272870658005"><ele>352.0</ele><time>2026-04-04T08:41:00Z</time></trkpt><trkpt lat="42.80530804015305" lon="12.904386533506422"><ele>352.0</ele><time>2026-04-04T08:41:01Z</time></trkpt><trkpt lat="42.805269555511195" lon="12.904486698525636"><ele>353.20000000000005</ele><time>2026-04-04T08:41:02Z</time></trkpt><trkpt lat="42.80523827321596" lon="12.904567809512914"><ele>354.4</ele><time>2026-04-04T08:41:03Z</time></trkpt><trkpt lat="42.8051903401005" lon="12.904692093984"><ele>355.6</ele><time>2026-04-04T08:41:04Z</time></trkpt><trkpt lat="42.8051349991924" lon="12.904837522354315"><ele>356.79999999999995</ele><time>2026-04-04T08:41:05Z</time></trkpt><trkpt lat="42.80508209473312" lon="12.904982986840338"><ele>358.0</ele><time>2026-04-04T08:41:06Z</time></trkpt><trkpt lat="42.80504276791862" lon="12.905107360212126"><ele>358.0</ele><time>2026-04-04T08:41:07Z</time></trkpt><trkpt lat="42.80502436701667" lon="12.905192597957617"><ele>358.0</ele><time>2026-04-04T08:41:08Z</time></trkpt><trkpt lat="42.80500617000878" lon="12.90532485562751"><ele>358.0</ele><time>2026-04-04T08:41:09Z</time></trkpt><trkpt lat="42.8049921957668" lon="12.905444713912798"><ele>358.0</ele><time>2026-04-04T08:41:10Z</time></trkpt><trkpt lat="42.80498378409951" lon="12.905554534312385"><ele>358.0</ele><time>2026-04-04T08:41:11Z</time></trkpt><trkpt lat="42.804989442012236" lon="12.905693225508392"><ele>358.0</ele><time>2026-04-04T08:41:12Z</time></trkpt><trkpt lat="42.80500757307631" lon="12.905792814611436"><ele>358.0</ele><time>2026-04-04T08:41:13Z</time></trkpt><trkpt lat="42.80502277366281" lon="12.905883028067452"><ele>358.0</ele><time>2026-04-04T08:41:14Z</time></trkpt><trkpt lat="42.80507502947525" lon="12.906010911040871"><ele>358.0</ele><time>2026-04-04T08:41:16Z</time></trkpt><trkpt lat="42.805090636833675" lon="12.90616320777241"><ele>358.0</ele><time>2026-04-04T08:41:18Z</time></trkpt><trkpt lat="42.80492529719609" lon="12.906767997889112"><ele>359.0</ele><time>2026-04-04T08:41:24Z</time></trkpt><trkpt lat="42.804951673581904" lon="12.906850595997682"><ele>360.0</ele><time>2026-04-04T08:41:27Z</time></trkpt><trkpt lat="42.80500908394315" lon="12.906962377989158"><ele>361.0</ele><time>2026-04-04T08:42:07Z</time></trkpt><trkpt lat="42.80503898315688" lon="12.907061873234872"><ele>362.0</ele><time>2026-04-04T08:42:09Z</time></trkpt><trkpt lat="42.805077289761655" lon="12.907130410069263"><ele>363.0</ele><time>2026-04-04T08:42:12Z</time></trkpt><trkpt lat="42.805126754767336" lon="12.90720298803794"><ele>364.0</ele><time>2026-04-04T08:42:15Z</time></trkpt><trkpt lat="42.80520319240015" lon="12.907295115881332"><ele>372.6</ele><time>2026-04-04T08:42:17Z</time></trkpt><trkpt lat="42.80521672456492" lon="12.907436199210098"><ele>381.2</ele><time>2026-04-04T08:42:19Z</time></trkpt><trkpt lat="42.80523093362726" lon="12.907561932089513"><ele>389.8</ele><time>2026-04-04T08:42:21Z</time></trkpt><trkpt lat="42.80522602224799" lon="12.90770987292142"><ele>398.40000000000003</ele><time>2026-04-04T08:42:23Z</time></trkpt><trkpt lat="42.80522907760885" lon="12.90785325500128"><ele>407.0</ele><time>2026-04-04T08:42:25Z</time></trkpt><trkpt lat="42.80524012934308" lon="12.907940042604649"><ele>409.3333333333333</ele><time>2026-04-04T08:42:26Z</time></trkpt><trkpt lat="42.80525387338386" lon="12.908048169873314"><ele>411.66666666666663</ele><time>2026-04-04T08:42:27Z</time></trkpt><trkpt lat="42.80527317341631" lon="12.908187607100402"><ele>414.0</ele><time>2026-04-04T08:42:28Z</time></trkpt><trkpt lat="42.80527772210779" lon="12.908291278310989"><ele>416.33333333333337</ele><time>2026-04-04T08:42:29Z</time></trkpt><trkpt lat="42.80528434013133" lon="12.908410066739362"><ele>418.6666666666667</ele><time>2026-04-04T08:42:30Z</time></trkpt><trkpt lat="42.80529552329178" lon="12.908509774099336"><ele>421.0</ele><time>2026-04-04T08:42:31Z</time></trkpt><trkpt lat="42.80529476933734" lon="12.908629562408061"><ele>421.0</ele><time>2026-04-04T08:42:32Z</time></trkpt><trkpt lat="42.80529277083232" lon="12.908731079697098"><ele>421.0</ele><time>2026-04-04T08:42:33Z</time></trkpt><trkpt lat="42.805323788265106" lon="12.908877846992715"><ele>421.0</ele><time>2026-04-04T08:42:35Z</time></trkpt><trkpt lat="42.80536108712637" lon="12.909011895624971"><ele>421.0</ele><time>2026-04-04T08:42:37Z</time></trkpt><trkpt lat="42.80535490215387" lon="12.90913495333236"><ele>421.0</ele><time>2026-04-04T08:42:40Z</time></trkpt><trkpt lat="42.80538033737561" lon="12.909237129445328"><ele>419.00000000000006</ele><time>2026-04-04T08:42:42Z</time></trkpt><trkpt lat="42.805387401518885" lon="12.909359591043511"><ele>417.0</ele><time>2026-04-04T08:42:44Z</time></trkpt><trkpt lat="42.80538010209485" lon="12.90946291535555"><ele>415.0</ele><time>2026-04-04T08:42:45Z</time></trkpt><trkpt lat="42.8053628750326" lon="12.909575601116371"><ele>413.0</ele><time>2026-04-04T08:42:46Z</time></trkpt><trkpt lat="42.805324333147844" lon="12.909688003310238"><ele>411.00000000000006</ele><time>2026-04-04T08:42:48Z</time></trkpt><trkpt lat="42.80529987341973" lon="12.909793818234386"><ele>409.0</ele><time>2026-04-04T08:42:50Z</time></trkpt><trkpt lat="42.805284696460895" lon="12.909931018229882"><ele>409.00000000000006</ele><time>2026-04-04T08:42:52Z</time></trkpt><trkpt lat="42.80527531004282" lon="12.91002384395444"><ele>409.0</ele><time>2026-04-04T08:42:53Z</time></trkpt><trkpt lat="42.80525695249503" lon="12.910108284164448"><ele>409.0</ele><time>2026-04-04T08:42:54Z</time></trkpt><trkpt lat="42.80521828686423" lon="12.910195798946054"><ele>409.0</ele><time>2026-04-04T08:42:56Z</time></trkpt><trkpt lat="42.805155160120286" lon="12.910267539276747"><ele>409.00000000000006</ele><time>2026-04-04T08:42:58Z</time></trkpt><trkpt lat="42.80511570323192" lon="12.9103892780923"><ele>409.0</ele><time>2026-04-04T08:43:01Z</time></trkpt><trkpt lat="42.80509304354505" lon="12.910473620060582"><ele>405.33333333333337</ele><time>2026-04-04T08:43:03Z</time></trkpt><trkpt lat="42.8050836711721" lon="12.910570779131254"><ele>401.6666666666667</ele><time>2026-04-04T08:43:05Z</time></trkpt><trkpt lat="42.8050533839455" lon="12.910710621849258"><ele>398.0</ele><time>2026-04-04T08:43:07Z</time></trkpt><trkpt lat="42.80503166477863" lon="12.910807525340445"><ele>394.33333333333337</ele><time>2026-04-04T08:43:08Z</time></trkpt><trkpt lat="42.805019392327" lon="12.91089440285954"><ele>390.6666666666667</ele><time>2026-04-04T08:43:09Z</time></trkpt><trkpt lat="42.80500567410207" lon="12.910994078690623"><ele>387.0</ele><time>2026-04-04T08:43:10Z</time></trkpt><trkpt lat="42.80499045469043" lon="12.911098539802742"><ele>387.0</ele><time>2026-04-04T08:43:11Z</time></trkpt><trkpt lat="42.80498765775084" lon="12.91120233914637"><ele>387.0</ele><time>2026-04-04T08:43:12Z</time></trkpt><trkpt lat="42.80496516920225" lon="12.911335771298432"><ele>387.0</ele><time>2026-04-04T08:43:14Z</time></trkpt><trkpt lat="42.80492088469688" lon="12.911420003908319"><ele>387.0</ele><time>2026-04-04T08:43:17Z</time></trkpt><trkpt lat="42.80489124272373" lon="12.911500043417261"><ele>387.0</ele><time>2026-04-04T08:46:16Z</time></trkpt><trkpt lat="42.80483972358847" lon="12.911580324830757"><ele>387.0</ele><time>2026-04-04T08:46:18Z</time></trkpt><trkpt lat="42.8047582631933" lon="12.911710108651699"><ele>389.8</ele><time>2026-04-04T08:46:20Z</time></trkpt><trkpt lat="42.8046926640424" lon="12.911813204362591"><ele>392.6</ele><time>2026-04-04T08:46:21Z</time></trkpt><trkpt lat="42.804646152649276" lon="12.911879935067793"><ele>395.40000000000003</ele><time>2026-04-04T08:46:22Z</time></trkpt><trkpt lat="42.804580305991365" lon="12.911974100055172"><ele>398.20000000000005</ele><time>2026-04-04T08:46:24Z</time></trkpt><trkpt lat="42.80453147209349" lon="12.912108176944015"><ele>401.0</ele><time>2026-04-04T08:46:26Z</time></trkpt><trkpt lat="42.80450225533302" lon="12.912221744429802"><ele>400.99999999999994</ele><time>2026-04-04T08:46:27Z</time></trkpt><trkpt lat="42.80444861159006" lon="12.912326058007071"><ele>401.0</ele><time>2026-04-04T08:46:28Z</time></trkpt><trkpt lat="42.80439988507689" lon="12.912427772419177"><ele>401.0</ele><time>2026-04-04T08:46:29Z</time></trkpt><trkpt lat="42.804355047688674" lon="12.912530001790836"><ele>401.0</ele><time>2026-04-04T08:46:30Z</time></trkpt><trkpt lat="42.804328246916846" lon="12.912657186831698"><ele>400.99999999999994</ele><time>2026-04-04T08:46:32Z</time></trkpt><trkpt lat="42.804278547671856" lon="12.912727721684497"><ele>401.0</ele><time>2026-04-04T08:46:33Z</time></trkpt><trkpt lat="42.804278547673036" lon="12.912822160846751"><ele>397.6</ele><time>2026-04-04T08:46:34Z</time></trkpt><trkpt lat="42.804278547676006" lon="12.912940829628733"><ele>394.20000000000005</ele><time>2026-04-04T08:46:35Z</time></trkpt><trkpt lat="42.80426037536693" lon="12.913084459219643"><ele>390.79999999999995</ele><time>2026-04-04T08:46:37Z</time></trkpt><trkpt lat="42.80420115191332" lon="12.913210790863717"><ele>387.4</ele><time>2026-04-04T08:46:39Z</time></trkpt><trkpt lat="42.80411434234383" lon="12.91323869540331"><ele>384.0</ele><time>2026-04-04T08:46:41Z</time></trkpt><trkpt lat="42.80403944428968" lon="12.913269744751739"><ele>384.0</ele><time>2026-04-04T08:47:20Z</time></trkpt><trkpt lat="42.80411713721849" lon="12.913190937997859"><ele>384.0</ele><time>2026-04-04T08:47:23Z</time></trkpt><trkpt lat="42.804181129401286" lon="12.913226458515584"><ele>384.0</ele><time>2026-04-04T08:47:25Z</time></trkpt><trkpt lat="42.8042573065309" lon="12.913228214318446"><ele>384.0</ele><time>2026-04-04T08:47:27Z</time></trkpt><trkpt lat="42.80430467018592" lon="12.912980312681842"><ele>384.0</ele><time>2026-04-04T08:47:29Z</time></trkpt><trkpt lat="42.80431369018374" lon="12.912867067031526"><ele>384.0</ele><time>2026-04-04T08:47:30Z</time></trkpt><trkpt lat="42.804329176975756" lon="12.912750899944212"><ele>384.0</ele><time>2026-04-04T08:47:31Z</time></trkpt><trkpt lat="42.80435270006228" lon="12.912613818584868"><ele>384.0</ele><time>2026-04-04T08:47:33Z</time></trkpt><trkpt lat="42.80433376400266" lon="12.912467829207932"><ele>384.0</ele><time>2026-04-04T08:47:35Z</time></trkpt><trkpt lat="42.80430999262531" lon="12.912370980445159"><ele>384.0</ele><time>2026-04-04T08:47:37Z</time></trkpt><trkpt lat="42.804298578375416" lon="12.912269733927536"><ele>384.0</ele><time>2026-04-04T08:47:41Z</time></trkpt><trkpt lat="42.804285153104075" lon="12.91214060499265"><ele>384.1666666666667</ele><time>2026-04-04T08:47:43Z</time></trkpt><trkpt lat="42.80427963786973" lon="12.91203411212443"><ele>384.33333333333337</ele><time>2026-04-04T08:47:44Z</time></trkpt><trkpt lat="42.80424918583669" lon="12.911947668524054"><ele>384.5</ele><time>2026-04-04T08:47:45Z</time></trkpt><trkpt lat="42.80420047642189" lon="12.911849971815812"><ele>384.6666666666667</ele><time>2026-04-04T08:47:46Z</time></trkpt><trkpt lat="42.80414500903806" lon="12.911739854228017"><ele>384.83333333333337</ele><time>2026-04-04T08:47:47Z</time></trkpt><trkpt lat="42.804091859535106" lon="12.911618929153244"><ele>385.0</ele><time>2026-04-04T08:47:48Z</time></trkpt><trkpt lat="42.80403191024856" lon="12.911520710390844"><ele>385.0</ele><time>2026-04-04T08:47:49Z</time></trkpt><trkpt lat="42.803972006160066" lon="12.911441731380126"><ele>385.0</ele><time>2026-04-04T08:47:50Z</time></trkpt><trkpt lat="42.80391158982266" lon="12.911319585349212"><ele>385.0</ele><time>2026-04-04T08:47:51Z</time></trkpt><trkpt lat="42.803876614494165" lon="12.911165844154299"><ele>385.0</ele><time>2026-04-04T08:47:52Z</time></trkpt><trkpt lat="42.803838383034396" lon="12.911018094310164"><ele>385.0</ele><time>2026-04-04T08:47:53Z</time></trkpt><trkpt lat="42.803800383375105" lon="12.91087500327505"><ele>385.25</ele><time>2026-04-04T08:47:54Z</time></trkpt><trkpt lat="42.8037841740929" lon="12.91072088088527"><ele>385.5</ele><time>2026-04-04T08:47:55Z</time></trkpt><trkpt lat="42.803798918983034" lon="12.910561032262384"><ele>385.75</ele><time>2026-04-04T08:47:56Z</time></trkpt><trkpt lat="42.80379469553806" lon="12.910387427000927"><ele>386.0</ele><time>2026-04-04T08:47:58Z</time></trkpt><trkpt lat="42.803772937542476" lon="12.910260264965963"><ele>386.0</ele><time>2026-04-04T08:47:59Z</time></trkpt><trkpt lat="42.80377035063503" lon="12.910125284838037"><ele>386.0</ele><time>2026-04-04T08:48:00Z</time></trkpt><trkpt lat="42.80377463899664" lon="12.91000142768149"><ele>386.0</ele><time>2026-04-04T08:48:01Z</time></trkpt><trkpt lat="42.80380470010858" lon="12.909861896574089"><ele>386.0</ele><time>2026-04-04T08:48:02Z</time></trkpt><trkpt lat="42.80384923202557" lon="12.909730374146246"><ele>386.0</ele><time>2026-04-04T08:48:03Z</time></trkpt><trkpt lat="42.803892535058026" lon="12.909618844365905"><ele>387.8333333333333</ele><time>2026-04-04T08:48:04Z</time></trkpt><trkpt lat="42.80390608904884" lon="12.909530902116641"><ele>389.66666666666663</ele><time>2026-04-04T08:48:05Z</time></trkpt><trkpt lat="42.80389402387435" lon="12.909415461410576"><ele>391.5</ele><time>2026-04-04T08:48:06Z</time></trkpt><trkpt lat="42.80388265932426" lon="12.90929013226153"><ele>393.33333333333337</ele><time>2026-04-04T08:48:07Z</time></trkpt><trkpt lat="42.80387028495738" lon="12.90918974347821"><ele>395.1666666666667</ele><time>2026-04-04T08:48:08Z</time></trkpt><trkpt lat="42.803853490349525" lon="12.909103224168906"><ele>397.0</ele><time>2026-04-04T08:48:09Z</time></trkpt><trkpt lat="42.803777538943876" lon="12.90906779165709"><ele>397.00000000000006</ele><time>2026-04-04T08:48:16Z</time></trkpt><trkpt lat="42.80374018693906" lon="12.90917699443927"><ele>397.0</ele><time>2026-04-04T08:48:18Z</time></trkpt><trkpt lat="42.803740494494484" lon="12.909263834633972"><ele>397.0</ele><time>2026-04-04T08:48:19Z</time></trkpt><trkpt lat="42.80372643458464" lon="12.90935395685982"><ele>397.0</ele><time>2026-04-04T08:48:20Z</time></trkpt><trkpt lat="42.803693885855495" lon="12.909442826016154"><ele>397.00000000000006</ele><time>2026-04-04T08:48:21Z</time></trkpt><trkpt lat="42.803642660616404" lon="12.90952636537222"><ele>397.0</ele><time>2026-04-04T08:48:22Z</time></trkpt><trkpt lat="42.803572949174324" lon="12.90962268232602"><ele>397.0</ele><time>2026-04-04T08:48:23Z</time></trkpt><trkpt lat="42.80349822198833" lon="12.909741652543527"><ele>397.0</ele><time>2026-04-04T08:48:24Z</time></trkpt><trkpt lat="42.80342810719593" lon="12.909856161414103"><ele>397.0</ele><time>2026-04-04T08:48:25Z</time></trkpt><trkpt lat="42.8033545597354" lon="12.909955998065135"><ele>397.0</ele><time>2026-04-04T08:48:26Z</time></trkpt><trkpt lat="42.80328990033283" lon="12.910048414594824"><ele>397.0</ele><time>2026-04-04T08:48:27Z</time></trkpt><trkpt lat="42.80321635355196" lon="12.910130854215238"><ele>403.33333333333337</ele><time>2026-04-04T08:48:28Z</time></trkpt><trkpt lat="42.80314601052417" lon="12.910236345045167"><ele>409.6666666666667</ele><time>2026-04-04T08:48:29Z</time></trkpt><trkpt lat="42.80312259066784" lon="12.910338767247227"><ele>416.0</ele><time>2026-04-04T08:48:30Z</time></trkpt><trkpt lat="42.803103869040676" lon="12.910428678495746"><ele>422.33333333333337</ele><time>2026-04-04T08:48:31Z</time></trkpt><trkpt lat="42.803050700127685" lon="12.91047984821065"><ele>428.6666666666667</ele><time>2026-04-04T08:48:32Z</time></trkpt><trkpt lat="42.80297733060701" lon="12.910514154447657"><ele>435.0</ele><time>2026-04-04T08:48:33Z</time></trkpt><trkpt lat="42.80288805289991" lon="12.910590818322861"><ele>435.0</ele><time>2026-04-04T08:48:34Z</time></trkpt><trkpt lat="42.80279480533766" lon="12.910707214587989"><ele>435.0</ele><time>2026-04-04T08:48:35Z</time></trkpt><trkpt lat="42.80272177085689" lon="12.910817306586695"><ele>435.0</ele><time>2026-04-04T08:48:36Z</time></trkpt><trkpt lat="42.802678926461546" lon="12.910896747659248"><ele>435.0</ele><time>2026-04-04T08:48:37Z</time></trkpt><trkpt lat="42.802651675544794" lon="12.911030054138495"><ele>435.0</ele><time>2026-04-04T08:48:38Z</time></trkpt><trkpt lat="42.80265178886406" lon="12.911162481158279"><ele>435.6666666666667</ele><time>2026-04-04T08:48:39Z</time></trkpt><trkpt lat="42.8026612024073" lon="12.91128030446248"><ele>436.33333333333337</ele><time>2026-04-04T08:48:40Z</time></trkpt><trkpt lat="42.802678790176635" lon="12.911406076396956"><ele>437.0</ele><time>2026-04-04T08:48:41Z</time></trkpt><trkpt lat="42.80262709905812" lon="12.91145608070778"><ele>437.6666666666667</ele><time>2026-04-04T08:48:43Z</time></trkpt><trkpt lat="42.80255188840706" lon="12.911339940327878"><ele>438.33333333333337</ele><time>2026-04-04T08:48:45Z</time></trkpt><trkpt lat="42.802505288247424" lon="12.911262001937681"><ele>439.0</ele><time>2026-04-04T08:48:47Z</time></trkpt><trkpt lat="42.8024634477239" lon="12.911402359106482"><ele>446.33333333333337</ele><time>2026-04-04T08:48:49Z</time></trkpt><trkpt lat="42.80245787863595" lon="12.911500030735624"><ele>453.6666666666667</ele><time>2026-04-04T08:48:50Z</time></trkpt><trkpt lat="42.802453239907784" lon="12.911602565101438"><ele>461.0</ele><time>2026-04-04T08:48:51Z</time></trkpt><trkpt lat="42.80245893547759" lon="12.911728176540764"><ele>468.33333333333337</ele><time>2026-04-04T08:48:52Z</time></trkpt><trkpt lat="42.802457434576944" lon="12.911816869769842"><ele>475.6666666666667</ele><time>2026-04-04T08:48:53Z</time></trkpt><trkpt lat="42.802429966257556" lon="12.911901243092533"><ele>483.0</ele><time>2026-04-04T08:48:54Z</time></trkpt><trkpt lat="42.80233029299874" lon="12.911919726611847"><ele>483.0</ele><time>2026-04-04T08:48:56Z</time></trkpt><trkpt lat="42.80220089864047" lon="12.911914775572335"><ele>482.99999999999994</ele><time>2026-04-04T08:48:58Z</time></trkpt><trkpt lat="42.802132900193314" lon="12.911954318939072"><ele>482.99999999999994</ele><time>2026-04-04T08:48:59Z</time></trkpt><trkpt lat="42.802055156070196" lon="12.912001208068542"><ele>483.0</ele><time>2026-04-04T08:49:00Z</time></trkpt><trkpt lat="42.801987235259894" lon="12.912024730740882"><ele>483.0</ele><time>2026-04-04T08:49:01Z</time></trkpt><trkpt lat="42.80187034647218" lon="12.91201512448845"><ele>488.0</ele><time>2026-04-04T08:49:03Z</time></trkpt><trkpt lat="42.80175485774957" lon="12.911962894197837"><ele>493.0</ele><time>2026-04-04T08:49:05Z</time></trkpt><trkpt lat="42.80169860196026" lon="12.912001527168401"><ele>498.0</ele><time>2026-04-04T08:49:06Z</time></trkpt><trkpt lat="42.80165308430511" lon="12.912071094494166"><ele>503.0</ele><time>2026-04-04T08:49:07Z</time></trkpt><trkpt lat="42.80160789309307" lon="12.912132188612153"><ele>508.0</ele><time>2026-04-04T08:49:08Z</time></trkpt><trkpt lat="42.80152406269882" lon="12.912171369667803"><ele>513.0</ele><time>2026-04-04T08:49:10Z</time></trkpt><trkpt lat="42.80146557571862" lon="12.912223037594146"><ele>513.0</ele><time>2026-04-04T08:49:11Z</time></trkpt><trkpt lat="42.801400208498364" lon="12.912296823359645"><ele>513.0</ele><time>2026-04-04T08:49:12Z</time></trkpt><trkpt lat="42.801319764907355" lon="12.912360120097114"><ele>513.0</ele><time>2026-04-04T08:49:13Z</time></trkpt><trkpt lat="42.801236011947" lon="12.91239726645149"><ele>513.0</ele><time>2026-04-04T08:49:14Z</time></trkpt><trkpt lat="42.801157540364436" lon="12.912390831917048"><ele>513.0</ele><time>2026-04-04T08:49:15Z</time></trkpt><trkpt lat="42.80108792542313" lon="12.912364715205491"><ele>513.0</ele><time>2026-04-04T08:49:16Z</time></trkpt><trkpt lat="42.80100823198637" lon="12.912340994286813"><ele>518.0</ele><time>2026-04-04T08:49:17Z</time></trkpt><trkpt lat="42.80090031350839" lon="12.912322889731419"><ele>523.0</ele><time>2026-04-04T08:49:18Z</time></trkpt><trkpt lat="42.80079016783905" lon="12.91230602579497"><ele>528.0</ele><time>2026-04-04T08:49:19Z</time></trkpt><trkpt lat="42.80067636916812" lon="12.912307250317882"><ele>533.0</ele><time>2026-04-04T08:49:20Z</time></trkpt><trkpt lat="42.80056791522934" lon="12.91235057244204"><ele>538.0</ele><time>2026-04-04T08:49:21Z</time></trkpt><trkpt lat="42.80045913964528" lon="12.912400064555072"><ele>538.0</ele><time>2026-04-04T08:49:22Z</time></trkpt><trkpt lat="42.800343957028666" lon="12.912472732975964"><ele>538.0</ele><time>2026-04-04T08:49:23Z</time></trkpt><trkpt lat="42.80026815139109" lon="12.912528217269205"><ele>538.0</ele><time>2026-04-04T08:49:24Z</time></trkpt><trkpt lat="42.800187276956095" lon="12.91259147991611"><ele>538.0</ele><time>2026-04-04T08:49:25Z</time></trkpt><trkpt lat="42.80011420323511" lon="12.912615248223277"><ele>538.0</ele><time>2026-04-04T08:49:26Z</time></trkpt><trkpt lat="42.80001489846777" lon="12.912593032718693"><ele>542.0</ele><time>2026-04-04T08:49:28Z</time></trkpt><trkpt lat="42.79995428051991" lon="12.912509190633779"><ele>546.0</ele><time>2026-04-04T08:49:30Z</time></trkpt><trkpt lat="42.79986493316848" lon="12.912363333724876"><ele>550.0</ele><time>2026-04-04T08:49:32Z</time></trkpt><trkpt lat="42.79979722215833" lon="12.912260485265024"><ele>554.0</ele><time>2026-04-04T08:49:33Z</time></trkpt><trkpt lat="42.79973503845771" lon="12.912176446292024"><ele>558.0</ele><time>2026-04-04T08:49:34Z</time></trkpt><trkpt lat="42.79969247756184" lon="12.912107554898029"><ele>558.0</ele><time>2026-04-04T08:49:35Z</time></trkpt><trkpt lat="42.79966811319269" lon="12.912027976099088"><ele>558.0</ele><time>2026-04-04T08:49:36Z</time></trkpt><trkpt lat="42.79963286936072" lon="12.911933014349072"><ele>558.0</ele><time>2026-04-04T08:49:37Z</time></trkpt><trkpt lat="42.79957631261813" lon="12.911851354979396"><ele>558.0</ele><time>2026-04-04T08:49:38Z</time></trkpt><trkpt lat="42.799522261469974" lon="12.91174338874098"><ele>558.0</ele><time>2026-04-04T08:49:39Z</time></trkpt><trkpt lat="42.799464634709366" lon="12.911692723504972"><ele>558.0</ele><time>2026-04-04T08:49:40Z</time></trkpt><trkpt lat="42.79939102324745" lon="12.911614987583443"><ele>564.4</ele><time>2026-04-04T08:49:42Z</time></trkpt><trkpt lat="42.79928961815388" lon="12.911598292845214"><ele>570.8</ele><time>2026-04-04T08:49:46Z</time></trkpt><trkpt lat="42.79920830060562" lon="12.911592661784496"><ele>577.2</ele><time>2026-04-04T08:49:47Z</time></trkpt><trkpt lat="42.79909562361368" lon="12.911591965818781"><ele>583.6</ele><time>2026-04-04T08:49:48Z</time></trkpt><trkpt lat="42.798990145438154" lon="12.911610751123415"><ele>590.0</ele><time>2026-04-04T08:49:49Z</time></trkpt><trkpt lat="42.798907961951144" lon="12.911575112379357"><ele>590.0</ele><time>2026-04-04T08:49:51Z</time></trkpt><trkpt lat="42.79879851605839" lon="12.911506541000264"><ele>590.0</ele><time>2026-04-04T08:49:53Z</time></trkpt><trkpt lat="42.79872998445265" lon="12.91146801782488"><ele>590.0</ele><time>2026-04-04T08:49:54Z</time></trkpt><trkpt lat="42.798648948898524" lon="12.911450792901588"><ele>590.0</ele><time>2026-04-04T08:49:55Z</time></trkpt><trkpt lat="42.79857906926313" lon="12.911441518708058"><ele>590.0</ele><time>2026-04-04T08:49:56Z</time></trkpt><trkpt lat="42.7984812665776" lon="12.91143235741039"><ele>590.0</ele><time>2026-04-04T08:49:57Z</time></trkpt><trkpt lat="42.79837205463693" lon="12.911426477906762"><ele>594.75</ele><time>2026-04-04T08:49:58Z</time></trkpt><trkpt lat="42.79827074210846" lon="12.911410131084583"><ele>599.5</ele><time>2026-04-04T08:49:59Z</time></trkpt><trkpt lat="42.79813683276401" lon="12.911369494666017"><ele>604.25</ele><time>2026-04-04T08:50:01Z</time></trkpt><trkpt lat="42.7980425178357" lon="12.911346584504862"><ele>609.0</ele><time>2026-04-04T08:50:02Z</time></trkpt><trkpt lat="42.79792055840725" lon="12.911359131436331"><ele>609.0</ele><time>2026-04-04T08:50:03Z</time></trkpt><trkpt lat="42.797826021534085" lon="12.911383024635603"><ele>609.0</ele><time>2026-04-04T08:50:04Z</time></trkpt><trkpt lat="42.7977435690042" lon="12.911391587400434"><ele>609.0</ele><time>2026-04-04T08:50:05Z</time></trkpt><trkpt lat="42.79764404146364" lon="12.911391587410074"><ele>609.0</ele><time>2026-04-04T08:50:07Z</time></trkpt><trkpt lat="42.797578265942825" lon="12.911393472817442"><ele>609.0</ele><time>2026-04-04T08:50:20Z</time></trkpt><trkpt lat="42.79756323696128" lon="12.911303827828295"><ele>609.0</ele><time>2026-04-04T08:53:29Z</time></trkpt><trkpt lat="42.79750307147719" lon="12.911334039471125"><ele>614.2</ele><time>2026-04-04T08:53:44Z</time></trkpt><trkpt lat="42.79740836369972" lon="12.911336038958286"><ele>619.4</ele><time>2026-04-04T08:53:48Z</time></trkpt><trkpt lat="42.79733193884821" lon="12.91131647866678"><ele>624.6</ele><time>2026-04-04T08:53:50Z</time></trkpt><trkpt lat="42.79723397651799" lon="12.91131835054985"><ele>629.8</ele><time>2026-04-04T08:53:52Z</time></trkpt><trkpt lat="42.797162399957585" lon="12.911321589141153"><ele>635.0</ele><time>2026-04-04T08:53:53Z</time></trkpt><trkpt lat="42.797053692773886" lon="12.9112409956268"><ele>635.0</ele><time>2026-04-04T08:53:55Z</time></trkpt><trkpt lat="42.79695028430719" lon="12.911234311317255"><ele>635.0</ele><time>2026-04-04T08:53:57Z</time></trkpt><trkpt lat="42.796823046196565" lon="12.911221897849789"><ele>635.0</ele><time>2026-04-04T08:53:59Z</time></trkpt><trkpt lat="42.796723540550595" lon="12.911207878130753"><ele>635.0</ele><time>2026-04-04T08:54:01Z</time></trkpt><trkpt lat="42.79663325409944" lon="12.911190279935319"><ele>635.0</ele><time>2026-04-04T08:54:03Z</time></trkpt><trkpt lat="42.79659220820721" lon="12.911259603397781"><ele>640.1666666666666</ele><time>2026-04-04T08:54:32Z</time></trkpt><trkpt lat="42.79650065226099" lon="12.911272945050417"><ele>645.3333333333333</ele><time>2026-04-04T08:56:03Z</time></trkpt><trkpt lat="42.796439059131366" lon="12.91123498571393"><ele>650.5</ele><time>2026-04-04T08:56:05Z</time></trkpt><trkpt lat="42.796343888649375" lon="12.911231080478402"><ele>655.6666666666666</ele><time>2026-04-04T08:56:07Z</time></trkpt><trkpt lat="42.796276050759786" lon="12.911218948777131"><ele>660.8333333333334</ele><time>2026-04-04T08:56:09Z</time></trkpt><trkpt lat="42.796219065664516" lon="12.911158050394354"><ele>666.0</ele><time>2026-04-04T08:56:11Z</time></trkpt><trkpt lat="42.79614826517931" lon="12.911147766291695"><ele>666.0</ele><time>2026-04-04T08:56:13Z</time></trkpt><trkpt lat="42.796057619968096" lon="12.91109191722784"><ele>666.0</ele><time>2026-04-04T08:56:16Z</time></trkpt><trkpt lat="42.79595893912832" lon="12.911047396675045"><ele>666.0</ele><time>2026-04-04T08:56:18Z</time></trkpt><trkpt lat="42.79587830131006" lon="12.910905767790547"><ele>666.0</ele><time>2026-04-04T08:56:20Z</time></trkpt><trkpt lat="42.79576550185742" lon="12.910841479445576"><ele>677.8</ele><time>2026-04-04T08:56:22Z</time></trkpt><trkpt lat="42.79563824206054" lon="12.91077653103664"><ele>689.5999999999999</ele><time>2026-04-04T08:56:24Z</time></trkpt><trkpt lat="42.79557395961938" lon="12.910749309577518"><ele>701.4</ele><time>2026-04-04T08:56:25Z</time></trkpt><trkpt lat="42.7954687517356" lon="12.910711230494142"><ele>713.2</ele><time>2026-04-04T08:56:27Z</time></trkpt><trkpt lat="42.795354645701906" lon="12.91067828258352"><ele>725.0</ele><time>2026-04-04T08:56:29Z</time></trkpt><trkpt lat="42.795286519619175" lon="12.91066137142532"><ele>725.0</ele><time>2026-04-04T08:56:30Z</time></trkpt><trkpt lat="42.79520966748022" lon="12.910643757095583"><ele>725.0</ele><time>2026-04-04T08:56:31Z</time></trkpt><trkpt lat="42.79513210694865" lon="12.910634116664125"><ele>725.0</ele><time>2026-04-04T08:56:32Z</time></trkpt><trkpt lat="42.79500647507266" lon="12.910628867837241"><ele>725.0</ele><time>2026-04-04T08:56:34Z</time></trkpt><trkpt lat="42.79494134258911" lon="12.91061444789181"><ele>725.0</ele><time>2026-04-04T08:56:35Z</time></trkpt><trkpt lat="42.7948735391313" lon="12.91060027149791"><ele>725.0</ele><time>2026-04-04T08:56:36Z</time></trkpt><trkpt lat="42.79477658126584" lon="12.910610335805904"><ele>728.4</ele><time>2026-04-04T08:56:37Z</time></trkpt><trkpt lat="42.79468793035695" lon="12.910632373881027"><ele>731.8</ele><time>2026-04-04T08:56:38Z</time></trkpt><trkpt lat="42.79460978931758" lon="12.910652940097197"><ele>735.2</ele><time>2026-04-04T08:56:39Z</time></trkpt><trkpt lat="42.79451791446245" lon="12.910671021418162"><ele>738.6</ele><time>2026-04-04T08:56:41Z</time></trkpt><trkpt lat="42.79440178172979" lon="12.910691670096297"><ele>742.0</ele><time>2026-04-04T08:56:43Z</time></trkpt><trkpt lat="42.79431880749521" lon="12.910706936474593"><ele>746.8</ele><time>2026-04-04T08:56:44Z</time></trkpt><trkpt lat="42.79422651533237" lon="12.910724438646014"><ele>751.6</ele><time>2026-04-04T08:56:45Z</time></trkpt><trkpt lat="42.794109894160876" lon="12.910748535041375"><ele>756.4</ele><time>2026-04-04T08:56:47Z</time></trkpt><trkpt lat="42.794061260972605" lon="12.910704668244296"><ele>761.1999999999999</ele><time>2026-04-04T09:05:48Z</time></trkpt><trkpt lat="42.793965771304386" lon="12.910751713117332"><ele>766.0</ele><time>2026-04-04T09:05:58Z</time></trkpt><trkpt lat="42.793900371867636" lon="12.910811953051676"><ele>766.0</ele><time>2026-04-04T09:06:00Z</time></trkpt><trkpt lat="42.79381992171483" lon="12.910867648113005"><ele>766.0</ele><time>2026-04-04T09:06:02Z</time></trkpt><trkpt lat="42.793756150432145" lon="12.910889344536585"><ele>766.0</ele><time>2026-04-04T09:06:03Z</time></trkpt><trkpt lat="42.79368356849723" lon="12.910933486607815"><ele>766.0</ele><time>2026-04-04T09:06:04Z</time></trkpt><trkpt lat="42.793600523127814" lon="12.91096432780029"><ele>766.0</ele><time>2026-04-04T09:06:05Z</time></trkpt><trkpt lat="42.79352112194966" lon="12.910984872020704"><ele>766.0</ele><time>2026-04-04T09:06:06Z</time></trkpt><trkpt lat="42.79342609117844" lon="12.910937622862662"><ele>766.25</ele><time>2026-04-04T09:06:07Z</time></trkpt><trkpt lat="42.793310527032844" lon="12.910964373452304"><ele>766.5</ele><time>2026-04-04T09:06:08Z</time></trkpt><trkpt lat="42.79319731859415" lon="12.91097791817023"><ele>766.75</ele><time>2026-04-04T09:06:09Z</time></trkpt><trkpt lat="42.793075974723635" lon="12.911007524359837"><ele>767.0</ele><time>2026-04-04T09:06:10Z</time></trkpt><trkpt lat="42.792950558930855" lon="12.911041969952716"><ele>767.0</ele><time>2026-04-04T09:06:11Z</time></trkpt><trkpt lat="42.7928241437961" lon="12.91107928889336"><ele>767.0</ele><time>2026-04-04T09:06:12Z</time></trkpt><trkpt lat="42.7927012377621" lon="12.911126602654303"><ele>767.0</ele><time>2026-04-04T09:06:13Z</time></trkpt><trkpt lat="42.79257591999534" lon="12.911176568412971"><ele>767.0</ele><time>2026-04-04T09:06:14Z</time></trkpt><trkpt lat="42.79246043356725" lon="12.91121286039779"><ele>772.2</ele><time>2026-04-04T09:06:15Z</time></trkpt><trkpt lat="42.79236043227006" lon="12.911228003044737"><ele>777.4000000000001</ele><time>2026-04-04T09:06:16Z</time></trkpt><trkpt lat="42.79225744536012" lon="12.91123068978991"><ele>782.5999999999999</ele><time>2026-04-04T09:06:17Z</time></trkpt><trkpt lat="42.79216107529198" lon="12.911224311860483"><ele>787.8</ele><time>2026-04-04T09:06:18Z</time></trkpt><trkpt lat="42.79206999141749" lon="12.911179015000057"><ele>793.0</ele><time>2026-04-04T09:06:19Z</time></trkpt><trkpt lat="42.79197296487294" lon="12.911117351430992"><ele>793.0</ele><time>2026-04-04T09:06:20Z</time></trkpt><trkpt lat="42.79184878819166" lon="12.911084027171329"><ele>793.0</ele><time>2026-04-04T09:06:21Z</time></trkpt><trkpt lat="42.791710588858386" lon="12.911081442281171"><ele>793.0</ele><time>2026-04-04T09:06:22Z</time></trkpt><trkpt lat="42.79157215774869" lon="12.911098060435243"><ele>793.0</ele><time>2026-04-04T09:06:23Z</time></trkpt><trkpt lat="42.791445754045974" lon="12.911144245304435"><ele>798.0</ele><time>2026-04-04T09:06:24Z</time></trkpt><trkpt lat="42.79130608861207" lon="12.911193678597348"><ele>803.0</ele><time>2026-04-04T09:06:25Z</time></trkpt><trkpt lat="42.79115881856786" lon="12.91126618577097"><ele>808.0</ele><time>2026-04-04T09:06:26Z</time></trkpt><trkpt lat="42.79107293686577" lon="12.911322298747434"><ele>813.0</ele><time>2026-04-04T09:06:27Z</time></trkpt><trkpt lat="42.790986989968296" lon="12.911361562525649"><ele>816.5999999999999</ele><time>2026-04-04T09:06:28Z</time></trkpt><trkpt lat="42.79091052647631" lon="12.911367978722273"><ele>820.1999999999999</ele><time>2026-04-04T09:06:29Z</time></trkpt><trkpt lat="42.79081428403983" lon="12.911352688211757"><ele>823.8</ele><time>2026-04-04T09:06:30Z</time></trkpt><trkpt lat="42.790707810715034" lon="12.91131021990215"><ele>827.4</ele><time>2026-04-04T09:06:31Z</time></trkpt><trkpt lat="42.79059053150267" lon="12.911280153872372"><ele>831.0</ele><time>2026-04-04T09:06:32Z</time></trkpt><trkpt lat="42.79048509287042" lon="12.911280291613913"><ele>831.0</ele><time>2026-04-04T09:06:33Z</time></trkpt><trkpt lat="42.79035457481983" lon="12.911293636381423"><ele>831.0</ele><time>2026-04-04T09:06:34Z</time></trkpt><trkpt lat="42.79022601624514" lon="12.911322076256665"><ele>831.0</ele><time>2026-04-04T09:06:35Z</time></trkpt><trkpt lat="42.79010644656387" lon="12.911374084112849"><ele>831.0</ele><time>2026-04-04T09:06:36Z</time></trkpt><trkpt lat="42.78998901447393" lon="12.911438852206507"><ele>833.4</ele><time>2026-04-04T09:06:37Z</time></trkpt><trkpt lat="42.78986748702986" lon="12.911506000898981"><ele>835.8</ele><time>2026-04-04T09:06:38Z</time></trkpt><trkpt lat="42.78976886691762" lon="12.911549009010573"><ele>838.1999999999999</ele><time>2026-04-04T09:06:39Z</time></trkpt><trkpt lat="42.78968004548835" lon="12.9115735985206"><ele>840.5999999999999</ele><time>2026-04-04T09:06:40Z</time></trkpt><trkpt lat="42.78960163020297" lon="12.911568396305519"><ele>843.0</ele><time>2026-04-04T09:06:41Z</time></trkpt><trkpt lat="42.78951769932507" lon="12.911576202124245"><ele>843.0</ele><time>2026-04-04T09:06:42Z</time></trkpt><trkpt lat="42.78942937261043" lon="12.911608180165604"><ele>843.0</ele><time>2026-04-04T09:06:43Z</time></trkpt><trkpt lat="42.789330040112404" lon="12.911655580288867"><ele>843.0</ele><time>2026-04-04T09:06:44Z</time></trkpt><trkpt lat="42.78921619809636" lon="12.911682058063171"><ele>843.0</ele><time>2026-04-04T09:06:45Z</time></trkpt><trkpt lat="42.789092777443635" lon="12.911668818184829"><ele>843.0</ele><time>2026-04-04T09:06:46Z</time></trkpt><trkpt lat="42.78893799037232" lon="12.911645840049168"><ele>847.75</ele><time>2026-04-04T09:06:47Z</time></trkpt><trkpt lat="42.78880696404934" lon="12.911642510996122"><ele>852.5</ele><time>2026-04-04T09:06:48Z</time></trkpt><trkpt lat="42.788690653389786" lon="12.91163461216349"><ele>857.25</ele><time>2026-04-04T09:06:49Z</time></trkpt><trkpt lat="42.78858234441738" lon="12.91160782171539"><ele>862.0</ele><time>2026-04-04T09:06:50Z</time></trkpt><trkpt lat="42.788466928541155" lon="12.911573082315421"><ele>862.0</ele><time>2026-04-04T09:06:51Z</time></trkpt><trkpt lat="42.788337194527124" lon="12.911539625173475"><ele>862.0</ele><time>2026-04-04T09:06:52Z</time></trkpt><trkpt lat="42.78818512098426" lon="12.91150465658584"><ele>862.0</ele><time>2026-04-04T09:06:53Z</time></trkpt><trkpt lat="42.788035000607785" lon="12.911505404086542"><ele>862.0</ele><time>2026-04-04T09:06:54Z</time></trkpt><trkpt lat="42.78788366472539" lon="12.911485068596756"><ele>862.0</ele><time>2026-04-04T09:06:55Z</time></trkpt><trkpt lat="42.78774573102845" lon="12.911512708567132"><ele>862.0</ele><time>2026-04-04T09:06:56Z</time></trkpt><trkpt lat="42.7876139811245" lon="12.911565285914826"><ele>862.0</ele><time>2026-04-04T09:06:57Z</time></trkpt><trkpt lat="42.78751520119267" lon="12.91160915267318"><ele>862.0</ele><time>2026-04-04T09:06:58Z</time></trkpt><trkpt lat="42.78742763285416" lon="12.91166373577603"><ele>864.0</ele><time>2026-04-04T09:06:59Z</time></trkpt><trkpt lat="42.78730727965326" lon="12.911738088884338"><ele>866.0</ele><time>2026-04-04T09:07:00Z</time></trkpt><trkpt lat="42.787166285863165" lon="12.911798488359803"><ele>868.0</ele><time>2026-04-04T09:07:01Z</time></trkpt><trkpt lat="42.787074179098695" lon="12.91184401890473"><ele>870.0</ele><time>2026-04-04T09:07:02Z</time></trkpt><trkpt lat="42.78698748513206" lon="12.911871055809074"><ele>870.0</ele><time>2026-04-04T09:07:03Z</time></trkpt><trkpt lat="42.78690531159585" lon="12.911893101810891"><ele>870.0</ele><time>2026-04-04T09:07:04Z</time></trkpt><trkpt lat="42.78681609418201" lon="12.911916468538633"><ele>870.0</ele><time>2026-04-04T09:07:05Z</time></trkpt><trkpt lat="42.78671301707194" lon="12.91194072796921"><ele>870.0</ele><time>2026-04-04T09:07:06Z</time></trkpt><trkpt lat="42.78661485819938" lon="12.911995531410854"><ele>870.0</ele><time>2026-04-04T09:07:07Z</time></trkpt><trkpt lat="42.78652839746372" lon="12.91208475122308"><ele>870.0</ele><time>2026-04-04T09:07:08Z</time></trkpt><trkpt lat="42.78643379756567" lon="12.912227674180025"><ele>870.0</ele><time>2026-04-04T09:07:09Z</time></trkpt><trkpt lat="42.786359660643164" lon="12.91233956232641"><ele>870.0</ele><time>2026-04-04T09:07:10Z</time></trkpt><trkpt lat="42.78627488363756" lon="12.912452084385299"><ele>870.0</ele><time>2026-04-04T09:07:11Z</time></trkpt><trkpt lat="42.78618876982201" lon="12.912536233576887"><ele>872.6</ele><time>2026-04-04T09:07:12Z</time></trkpt><trkpt lat="42.786098330863425" lon="12.912600507950424"><ele>875.2</ele><time>2026-04-04T09:07:13Z</time></trkpt><trkpt lat="42.78599492739922" lon="12.912667176172024"><ele>877.8</ele><time>2026-04-04T09:07:14Z</time></trkpt><trkpt lat="42.785902302552664" lon="12.912708729165637"><ele>880.4</ele><time>2026-04-04T09:07:15Z</time></trkpt><trkpt lat="42.78580915975774" lon="12.912741183483115"><ele>883.0</ele><time>2026-04-04T09:07:16Z</time></trkpt><trkpt lat="42.785698383192006" lon="12.912755752162237"><ele>883.0</ele><time>2026-04-04T09:07:17Z</time></trkpt><trkpt lat="42.78558924118881" lon="12.912752434279911"><ele>883.0</ele><time>2026-04-04T09:07:18Z</time></trkpt><trkpt lat="42.785488222950086" lon="12.912782069951447"><ele>883.0</ele><time>2026-04-04T09:07:19Z</time></trkpt><trkpt lat="42.78536987609935" lon="12.912840021764525"><ele>883.0</ele><time>2026-04-04T09:07:20Z</time></trkpt><trkpt lat="42.78524858425356" lon="12.91290828960497"><ele>890.5</ele><time>2026-04-04T09:07:21Z</time></trkpt><trkpt lat="42.78512028810896" lon="12.912958711725723"><ele>898.0</ele><time>2026-04-04T09:07:22Z</time></trkpt><trkpt lat="42.78498661527586" lon="12.913021524242636"><ele>905.5</ele><time>2026-04-04T09:07:23Z</time></trkpt><trkpt lat="42.78486636982209" lon="12.913093545700132"><ele>913.0</ele><time>2026-04-04T09:07:24Z</time></trkpt><trkpt lat="42.78475997283051" lon="12.913109727543672"><ele>913.0</ele><time>2026-04-04T09:07:25Z</time></trkpt><trkpt lat="42.784653536006815" lon="12.913115150163629"><ele>913.0</ele><time>2026-04-04T09:07:26Z</time></trkpt><trkpt lat="42.784536909885695" lon="12.913110805460915"><ele>913.0</ele><time>2026-04-04T09:07:27Z</time></trkpt><trkpt lat="42.784400937282676" lon="12.913135211274763"><ele>913.0</ele><time>2026-04-04T09:07:28Z</time></trkpt><trkpt lat="42.7842838132046" lon="12.913173914202732"><ele>916.4</ele><time>2026-04-04T09:07:29Z</time></trkpt><trkpt lat="42.78418299613362" lon="12.91319842524935"><ele>919.8</ele><time>2026-04-04T09:07:30Z</time></trkpt><trkpt lat="42.78409456135589" lon="12.91319779037562"><ele>923.2</ele><time>2026-04-04T09:07:31Z</time></trkpt><trkpt lat="42.783999675412424" lon="12.913163427007195"><ele>926.6</ele><time>2026-04-04T09:07:32Z</time></trkpt><trkpt lat="42.783891808368274" lon="12.913127201284043"><ele>930.0</ele><time>2026-04-04T09:07:33Z</time></trkpt><trkpt lat="42.783768763230285" lon="12.913133020528699"><ele>930.0</ele><time>2026-04-04T09:07:34Z</time></trkpt><trkpt lat="42.78363051796824" lon="12.913209134268165"><ele>930.0</ele><time>2026-04-04T09:07:35Z</time></trkpt><trkpt lat="42.78348097295575" lon="12.913202083925833"><ele>930.0</ele><time>2026-04-04T09:07:36Z</time></trkpt><trkpt lat="42.783305061929774" lon="12.913197845761216"><ele>932.6666666666667</ele><time>2026-04-04T09:07:37Z</time></trkpt><trkpt lat="42.78312017386913" lon="12.913222305589919"><ele>935.3333333333334</ele><time>2026-04-04T09:07:38Z</time></trkpt><trkpt lat="42.78294327976842" lon="12.913233859480535"><ele>938.0</ele><time>2026-04-04T09:07:39Z</time></trkpt><trkpt lat="42.78280185726221" lon="12.913228823637315"><ele>938.0</ele><time>2026-04-04T09:07:40Z</time></trkpt><trkpt lat="42.78268150086122" lon="12.913238791520925"><ele>938.0</ele><time>2026-04-04T09:07:41Z</time></trkpt><trkpt lat="42.78257619961585" lon="12.913232047018205"><ele>938.0</ele><time>2026-04-04T09:07:42Z</time></trkpt><trkpt lat="42.782467867542614" lon="12.913194383941978"><ele>938.0</ele><time>2026-04-04T09:07:43Z</time></trkpt><trkpt lat="42.782357457717225" lon="12.91314411685806"><ele>939.5</ele><time>2026-04-04T09:07:44Z</time></trkpt><trkpt lat="42.782228125151015" lon="12.91306052410315"><ele>941.0</ele><time>2026-04-04T09:07:45Z</time></trkpt><trkpt lat="42.78210431012396" lon="12.912950390890966"><ele>942.5</ele><time>2026-04-04T09:07:46Z</time></trkpt><trkpt lat="42.78198016995392" lon="12.912848742817191"><ele>944.0</ele><time>2026-04-04T09:07:47Z</time></trkpt><trkpt lat="42.781856802681794" lon="12.912770500710003"><ele>944.2</ele><time>2026-04-04T09:07:48Z</time></trkpt><trkpt lat="42.781757068071" lon="12.912720484987414"><ele>944.4000000000001</ele><time>2026-04-04T09:07:49Z</time></trkpt><trkpt lat="42.78166707199778" lon="12.91270169458437"><ele>944.6</ele><time>2026-04-04T09:07:50Z</time></trkpt><trkpt lat="42.781573083663936" lon="12.912715533607162"><ele>944.8</ele><time>2026-04-04T09:07:51Z</time></trkpt><trkpt lat="42.781478099995724" lon="12.912732866865928"><ele>945.0</ele><time>2026-04-04T09:07:52Z</time></trkpt><trkpt lat="42.78137668136677" lon="12.912771484046546"><ele>945.0</ele><time>2026-04-04T09:07:53Z</time></trkpt><trkpt lat="42.78125399123694" lon="12.91279189378913"><ele>945.0</ele><time>2026-04-04T09:07:55Z</time></trkpt><trkpt lat="42.78118187478026" lon="12.912745360125818"><ele>945.0</ele><time>2026-04-04T09:07:56Z</time></trkpt><trkpt lat="42.781091616570535" lon="12.912692757622201"><ele>945.0</ele><time>2026-04-04T09:07:57Z</time></trkpt><trkpt lat="42.78099478989714" lon="12.912627831943006"><ele>945.0</ele><time>2026-04-04T09:07:58Z</time></trkpt><trkpt lat="42.78087819366935" lon="12.912541260055018"><ele>950.4</ele><time>2026-04-04T09:07:59Z</time></trkpt><trkpt lat="42.78074937631624" lon="12.912501495952759"><ele>955.8</ele><time>2026-04-04T09:08:00Z</time></trkpt><trkpt lat="42.780624500087164" lon="12.912429757258641"><ele>961.2</ele><time>2026-04-04T09:08:01Z</time></trkpt><trkpt lat="42.78053860280564" lon="12.912375514043378"><ele>966.6</ele><time>2026-04-04T09:08:02Z</time></trkpt><trkpt lat="42.78047261473712" lon="12.912311041051568"><ele>972.0</ele><time>2026-04-04T09:08:03Z</time></trkpt><trkpt lat="42.780415794531805" lon="12.912212955679612"><ele>972.0</ele><time>2026-04-04T09:08:04Z</time></trkpt><trkpt lat="42.78036783759408" lon="12.912079853087937"><ele>972.0</ele><time>2026-04-04T09:08:05Z</time></trkpt><trkpt lat="42.780317919944856" lon="12.911914070177149"><ele>972.0</ele><time>2026-04-04T09:08:06Z</time></trkpt><trkpt lat="42.780265608407724" lon="12.911717211394011"><ele>972.0</ele><time>2026-04-04T09:08:07Z</time></trkpt><trkpt lat="42.78019824968293" lon="12.911534440862864"><ele>971.0</ele><time>2026-04-04T09:08:08Z</time></trkpt><trkpt lat="42.780153459125835" lon="12.91139292469857"><ele>970.0</ele><time>2026-04-04T09:08:09Z</time></trkpt><trkpt lat="42.78014242427631" lon="12.9112757694561"><ele>969.0</ele><time>2026-04-04T09:08:10Z</time></trkpt><trkpt lat="42.780091593854024" lon="12.91120269372383"><ele>968.0</ele><time>2026-04-04T09:08:11Z</time></trkpt><trkpt lat="42.780031364403555" lon="12.911036843313507"><ele>967.0</ele><time>2026-04-04T09:08:13Z</time></trkpt><trkpt lat="42.77998002309525" lon="12.910955015785758"><ele>974.0</ele><time>2026-04-04T09:08:14Z</time></trkpt><trkpt lat="42.779941515231556" lon="12.910856630903755"><ele>981.0</ele><time>2026-04-04T09:08:15Z</time></trkpt><trkpt lat="42.779865136229105" lon="12.910766299408408"><ele>988.0</ele><time>2026-04-04T09:08:16Z</time></trkpt><trkpt lat="42.77979015616727" lon="12.910648842481566"><ele>995.0</ele><time>2026-04-04T09:08:17Z</time></trkpt><trkpt lat="42.77969926511432" lon="12.910563499883109"><ele>1002.0</ele><time>2026-04-04T09:08:18Z</time></trkpt><trkpt lat="42.77960127648227" lon="12.910507589849248"><ele>1002.0</ele><time>2026-04-04T09:08:19Z</time></trkpt><trkpt lat="42.779496663050665" lon="12.910474148848223"><ele>1002.0</ele><time>2026-04-04T09:08:20Z</time></trkpt><trkpt lat="42.77937907222396" lon="12.910446057598643"><ele>1002.0</ele><time>2026-04-04T09:08:21Z</time></trkpt><trkpt lat="42.779246631445815" lon="12.910433549448012"><ele>1002.0</ele><time>2026-04-04T09:08:22Z</time></trkpt><trkpt lat="42.77914898459871" lon="12.910432377318472"><ele>997.8</ele><time>2026-04-04T09:08:23Z</time></trkpt><trkpt lat="42.77906422675658" lon="12.91044137509846"><ele>993.6</ele><time>2026-04-04T09:08:24Z</time></trkpt><trkpt lat="42.77896801234594" lon="12.91047086878635"><ele>989.3999999999999</ele><time>2026-04-04T09:08:25Z</time></trkpt><trkpt lat="42.77887373969867" lon="12.910531300931204"><ele>985.1999999999999</ele><time>2026-04-04T09:08:26Z</time></trkpt><trkpt lat="42.778800437129284" lon="12.910581687375842"><ele>981.0</ele><time>2026-04-04T09:08:27Z</time></trkpt><trkpt lat="42.778721176123774" lon="12.910646106683844"><ele>981.0</ele><time>2026-04-04T09:08:28Z</time></trkpt><trkpt lat="42.77863901160674" lon="12.910708996957181"><ele>980.9999999999999</ele><time>2026-04-04T09:08:29Z</time></trkpt><trkpt lat="42.77856497772801" lon="12.910745940979282"><ele>980.9999999999999</ele><time>2026-04-04T09:08:30Z</time></trkpt><trkpt lat="42.77849272753472" lon="12.910765289369015"><ele>981.0</ele><time>2026-04-04T09:08:31Z</time></trkpt><trkpt lat="42.778400820082204" lon="12.910780882331917"><ele>981.0</ele><time>2026-04-04T09:08:32Z</time></trkpt><trkpt lat="42.77828247384065" lon="12.910808772841193"><ele>989.3333333333333</ele><time>2026-04-04T09:08:33Z</time></trkpt><trkpt lat="42.77814296695689" lon="12.910816018404441"><ele>997.6666666666666</ele><time>2026-04-04T09:08:34Z</time></trkpt><trkpt lat="42.77798493186222" lon="12.9108482507305"><ele>1006.0</ele><time>2026-04-04T09:08:35Z</time></trkpt><trkpt lat="42.77781836040785" lon="12.910879415185454"><ele>1006.0</ele><time>2026-04-04T09:08:36Z</time></trkpt><trkpt lat="42.777702654586534" lon="12.910898702901793"><ele>1005.9999999999999</ele><time>2026-04-04T09:08:37Z</time></trkpt><trkpt lat="42.77761647333107" lon="12.910917758874206"><ele>1005.9999999999999</ele><time>2026-04-04T09:08:38Z</time></trkpt><trkpt lat="42.77750672229695" lon="12.910931361022403"><ele>1006.0</ele><time>2026-04-04T09:08:40Z</time></trkpt><trkpt lat="42.777384080656006" lon="12.910864047757658"><ele>1006.0</ele><time>2026-04-04T09:08:42Z</time></trkpt><trkpt lat="42.77729529682854" lon="12.910777855750553"><ele>1007.5</ele><time>2026-04-04T09:08:43Z</time></trkpt><trkpt lat="42.77720029040051" lon="12.910674208272958"><ele>1009.0</ele><time>2026-04-04T09:08:44Z</time></trkpt><trkpt lat="42.777095907483044" lon="12.91061306943531"><ele>1010.5</ele><time>2026-04-04T09:08:45Z</time></trkpt><trkpt lat="42.77696715987094" lon="12.910576222370562"><ele>1012.0</ele><time>2026-04-04T09:08:46Z</time></trkpt><trkpt lat="42.7768598856942" lon="12.910566386777482"><ele>1011.0</ele><time>2026-04-04T09:08:47Z</time></trkpt><trkpt lat="42.776765478087945" lon="12.910577775240727"><ele>1010.0</ele><time>2026-04-04T09:08:48Z</time></trkpt><trkpt lat="42.77666786487342" lon="12.910631707784658"><ele>1009.0</ele><time>2026-04-04T09:08:49Z</time></trkpt><trkpt lat="42.776559556202564" lon="12.910668657464837"><ele>1008.0</ele><time>2026-04-04T09:08:50Z</time></trkpt><trkpt lat="42.776445254849975" lon="12.91069507384294"><ele>1007.0</ele><time>2026-04-04T09:08:51Z</time></trkpt><trkpt lat="42.77633315170324" lon="12.910728682585034"><ele>1007.0</ele><time>2026-04-04T09:08:52Z</time></trkpt><trkpt lat="42.77623188195091" lon="12.91075692939106"><ele>1007.0</ele><time>2026-04-04T09:08:53Z</time></trkpt><trkpt lat="42.77611011533031" lon="12.910738296132891"><ele>1007.0</ele><time>2026-04-04T09:08:55Z</time></trkpt><trkpt lat="42.776053203456634" lon="12.910690961054629"><ele>1007.0</ele><time>2026-04-04T09:08:56Z</time></trkpt><trkpt lat="42.77599932934438" lon="12.910587547247612"><ele>1007.0</ele><time>2026-04-04T09:08:57Z</time></trkpt><trkpt lat="42.775929032337146" lon="12.910517339898014"><ele>1007.4000000000001</ele><time>2026-04-04T09:08:58Z</time></trkpt><trkpt lat="42.775856667857695" lon="12.910496622973614"><ele>1007.8000000000001</ele><time>2026-04-04T09:08:59Z</time></trkpt><trkpt lat="42.775763201440775" lon="12.910448436177667"><ele>1008.2</ele><time>2026-04-04T09:09:00Z</time></trkpt><trkpt lat="42.775663481466886" lon="12.910463317079651"><ele>1008.6</ele><time>2026-04-04T09:09:01Z</time></trkpt><trkpt lat="42.77555640477118" lon="12.910467516990193"><ele>1009.0</ele><time>2026-04-04T09:09:02Z</time></trkpt><trkpt lat="42.77543328860185" lon="12.910508134217201"><ele>1009.0</ele><time>2026-04-04T09:09:03Z</time></trkpt><trkpt lat="42.77534207658041" lon="12.910548855963711"><ele>1009.0000000000001</ele><time>2026-04-04T09:09:04Z</time></trkpt><trkpt lat="42.775254275566105" lon="12.910565203501678"><ele>1009.0000000000001</ele><time>2026-04-04T09:09:05Z</time></trkpt><trkpt lat="42.77517372206701" lon="12.91054271553575"><ele>1009.0</ele><time>2026-04-04T09:09:06Z</time></trkpt><trkpt lat="42.77507117831919" lon="12.910525457412165"><ele>1009.0</ele><time>2026-04-04T09:09:07Z</time></trkpt><trkpt lat="42.774974757815826" lon="12.910530983074171"><ele>1008.6</ele><time>2026-04-04T09:09:08Z</time></trkpt><trkpt lat="42.77490361232203" lon="12.910490312750719"><ele>1008.2</ele><time>2026-04-04T09:09:09Z</time></trkpt><trkpt lat="42.774834058259366" lon="12.910398888882971"><ele>1007.8000000000001</ele><time>2026-04-04T09:09:10Z</time></trkpt><trkpt lat="42.77471587428601" lon="12.910286493335006"><ele>1007.4000000000001</ele><time>2026-04-04T09:09:11Z</time></trkpt><trkpt lat="42.77461455448516" lon="12.910208561135741"><ele>1007.0</ele><time>2026-04-04T09:09:12Z</time></trkpt><trkpt lat="42.774517710059584" lon="12.910195180725589"><ele>1007.0</ele><time>2026-04-04T09:09:13Z</time></trkpt><trkpt lat="42.77440702560437" lon="12.910157064585563"><ele>1007.0</ele><time>2026-04-04T09:09:14Z</time></trkpt><trkpt lat="42.77427270175972" lon="12.910127526933294"><ele>1007.0</ele><time>2026-04-04T09:09:15Z</time></trkpt><trkpt lat="42.77416147381225" lon="12.910095009685374"><ele>1007.0</ele><time>2026-04-04T09:09:16Z</time></trkpt><trkpt lat="42.77408580361169" lon="12.91003861876209"><ele>1013.75</ele><time>2026-04-04T09:09:17Z</time></trkpt><trkpt lat="42.77401341117605" lon="12.909932030175579"><ele>1020.5</ele><time>2026-04-04T09:09:18Z</time></trkpt><trkpt lat="42.773885644383085" lon="12.909816191656798"><ele>1027.25</ele><time>2026-04-04T09:09:19Z</time></trkpt><trkpt lat="42.77376227608682" lon="12.909671857951022"><ele>1034.0</ele><time>2026-04-04T09:09:20Z</time></trkpt><trkpt lat="42.77361477889384" lon="12.909563706495005"><ele>1030.25</ele><time>2026-04-04T09:09:21Z</time></trkpt><trkpt lat="42.77349086073823" lon="12.909500764268268"><ele>1026.5</ele><time>2026-04-04T09:09:22Z</time></trkpt><trkpt lat="42.773389888954725" lon="12.90945714887222"><ele>1022.75</ele><time>2026-04-04T09:09:23Z</time></trkpt><trkpt lat="42.773271493595516" lon="12.909441885980758"><ele>1019.0</ele><time>2026-04-04T09:09:24Z</time></trkpt><trkpt lat="42.77314194059888" lon="12.909460550607205"><ele>1019.0</ele><time>2026-04-04T09:09:25Z</time></trkpt><trkpt lat="42.773002289297864" lon="12.90949879786757"><ele>1019.0000000000001</ele><time>2026-04-04T09:09:26Z</time></trkpt><trkpt lat="42.772895454202256" lon="12.90953122806206"><ele>1019.0000000000001</ele><time>2026-04-04T09:09:27Z</time></trkpt><trkpt lat="42.77282652388533" lon="12.909539187892547"><ele>1019.0</ele><time>2026-04-04T09:09:28Z</time></trkpt><trkpt lat="42.77275534345005" lon="12.909494761845577"><ele>1019.0</ele><time>2026-04-04T09:09:30Z</time></trkpt><trkpt lat="42.772650693647456" lon="12.909332394328494"><ele>1014.0</ele><time>2026-04-04T09:09:32Z</time></trkpt><trkpt lat="42.772536655277726" lon="12.909278076569565"><ele>1009.0</ele><time>2026-04-04T09:09:33Z</time></trkpt><trkpt lat="42.77242543360741" lon="12.909179602542565"><ele>1004.0</ele><time>2026-04-04T09:09:34Z</time></trkpt><trkpt lat="42.77231505416097" lon="12.909083804621776"><ele>999.0</ele><time>2026-04-04T09:09:35Z</time></trkpt><trkpt lat="42.772188742608805" lon="12.908991799044003"><ele>1002.8333333333334</ele><time>2026-04-04T09:09:36Z</time></trkpt><trkpt lat="42.77209443377571" lon="12.908906783125213"><ele>1006.6666666666667</ele><time>2026-04-04T09:09:37Z</time></trkpt><trkpt lat="42.77201129087486" lon="12.908844465954454"><ele>1010.5</ele><time>2026-04-04T09:09:38Z</time></trkpt><trkpt lat="42.77195704351369" lon="12.908790027828472"><ele>1014.3333333333334</ele><time>2026-04-04T09:09:39Z</time></trkpt><trkpt lat="42.77189527525146" lon="12.908752496657522"><ele>1018.1666666666667</ele><time>2026-04-04T09:09:40Z</time></trkpt><trkpt lat="42.7718387662564" lon="12.908664319251855"><ele>1022.0</ele><time>2026-04-04T09:09:42Z</time></trkpt><trkpt lat="42.77186315500342" lon="12.908578476621145"><ele>1026.8</ele><time>2026-04-04T09:09:43Z</time></trkpt><trkpt lat="42.771911514525215" lon="12.908490258961967"><ele>1031.6</ele><time>2026-04-04T09:09:44Z</time></trkpt><trkpt lat="42.77196732749749" lon="12.908375451116038"><ele>1036.3999999999999</ele><time>2026-04-04T09:09:45Z</time></trkpt><trkpt lat="42.772019833071845" lon="12.908245567313507"><ele>1041.2</ele><time>2026-04-04T09:09:46Z</time></trkpt><trkpt lat="42.77206307513063" lon="12.908098515470122"><ele>1046.0</ele><time>2026-04-04T09:09:47Z</time></trkpt><trkpt lat="42.772114027817366" lon="12.907947806229378"><ele>1051.75</ele><time>2026-04-04T09:09:48Z</time></trkpt><trkpt lat="42.772147407357934" lon="12.907781021497128"><ele>1057.5</ele><time>2026-04-04T09:09:49Z</time></trkpt><trkpt lat="42.77220235411053" lon="12.907603001436035"><ele>1063.25</ele><time>2026-04-04T09:09:50Z</time></trkpt><trkpt lat="42.77227124522241" lon="12.907422829019115"><ele>1069.0</ele><time>2026-04-04T09:09:51Z</time></trkpt><trkpt lat="42.77230742876038" lon="12.907255750227812"><ele>1069.0</ele><time>2026-04-04T09:09:52Z</time></trkpt><trkpt lat="42.77236540104247" lon="12.907098790845312"><ele>1069.0</ele><time>2026-04-04T09:09:53Z</time></trkpt><trkpt lat="42.77242179881211" lon="12.906953238310837"><ele>1069.0</ele><time>2026-04-04T09:09:54Z</time></trkpt><trkpt lat="42.77245574437325" lon="12.906812674180127"><ele>1069.0</ele><time>2026-04-04T09:09:55Z</time></trkpt><trkpt lat="42.77248601056214" lon="12.906690856364666"><ele>1068.3333333333333</ele><time>2026-04-04T09:09:56Z</time></trkpt><trkpt lat="42.772468557366615" lon="12.906587407783965"><ele>1067.6666666666665</ele><time>2026-04-04T09:09:57Z</time></trkpt><trkpt lat="42.772409801479384" lon="12.906515592646473"><ele>1067.0</ele><time>2026-04-04T09:09:58Z</time></trkpt><trkpt lat="42.772328425056024" lon="12.906452156296353"><ele>1066.3333333333333</ele><time>2026-04-04T09:09:59Z</time></trkpt><trkpt lat="42.772240564553584" lon="12.90639568623654"><ele>1065.6666666666667</ele><time>2026-04-04T09:10:00Z</time></trkpt><trkpt lat="42.77217878533823" lon="12.906332956629647"><ele>1065.0</ele><time>2026-04-04T09:10:01Z</time></trkpt><trkpt lat="42.772113635085546" lon="12.906190194367955"><ele>1065.0</ele><time>2026-04-04T09:10:03Z</time></trkpt><trkpt lat="42.77208102825647" lon="12.906062403563068"><ele>1065.0</ele><time>2026-04-04T09:10:04Z</time></trkpt><trkpt lat="42.772013445341145" lon="12.905902754665824"><ele>1065.0</ele><time>2026-04-04T09:10:05Z</time></trkpt><trkpt lat="42.77193412700997" lon="12.905755132295079"><ele>1065.0</ele><time>2026-04-04T09:10:06Z</time></trkpt><trkpt lat="42.771900318820116" lon="12.905619238297035"><ele>1065.4</ele><time>2026-04-04T09:10:07Z</time></trkpt><trkpt lat="42.77186189398974" lon="12.905506158323872"><ele>1065.8</ele><time>2026-04-04T09:10:08Z</time></trkpt><trkpt lat="42.771808444501055" lon="12.90539874431045"><ele>1066.2</ele><time>2026-04-04T09:10:09Z</time></trkpt><trkpt lat="42.77175059626778" lon="12.905274718449293"><ele>1066.6</ele><time>2026-04-04T09:10:10Z</time></trkpt><trkpt lat="42.77172085005776" lon="12.905108690941335"><ele>1067.0</ele><time>2026-04-04T09:10:11Z</time></trkpt><trkpt lat="42.771660313944345" lon="12.904927963190792"><ele>1067.75</ele><time>2026-04-04T09:10:12Z</time></trkpt><trkpt lat="42.771596138573415" lon="12.904742225196575"><ele>1068.5</ele><time>2026-04-04T09:10:13Z</time></trkpt><trkpt lat="42.771534010418215" lon="12.904576240637141"><ele>1069.25</ele><time>2026-04-04T09:10:14Z</time></trkpt><trkpt lat="42.77147229910895" lon="12.904446133630698"><ele>1070.0</ele><time>2026-04-04T09:10:15Z</time></trkpt><trkpt lat="42.77142311138235" lon="12.904341069626089"><ele>1071.8</ele><time>2026-04-04T09:10:16Z</time></trkpt><trkpt lat="42.77136566477234" lon="12.904208327915565"><ele>1073.6</ele><time>2026-04-04T09:10:17Z</time></trkpt><trkpt lat="42.771320723147646" lon="12.904046173345092"><ele>1075.4</ele><time>2026-04-04T09:10:18Z</time></trkpt><trkpt lat="42.77128590461393" lon="12.903903707696594"><ele>1077.2</ele><time>2026-04-04T09:10:19Z</time></trkpt><trkpt lat="42.77124968892914" lon="12.903797029034749"><ele>1079.0</ele><time>2026-04-04T09:10:20Z</time></trkpt><trkpt lat="42.77125160413327" lon="12.90366191131642"><ele>1079.0</ele><time>2026-04-04T09:10:21Z</time></trkpt><trkpt lat="42.77131360257416" lon="12.903539336157944"><ele>1079.0</ele><time>2026-04-04T09:10:22Z</time></trkpt><trkpt lat="42.771329511093015" lon="12.903407142171519"><ele>1079.0</ele><time>2026-04-04T09:10:23Z</time></trkpt><trkpt lat="42.771289171503135" lon="12.90328830916175"><ele>1079.0</ele><time>2026-04-04T09:10:24Z</time></trkpt><trkpt lat="42.77125419790725" lon="12.903158533894892"><ele>1079.0</ele><time>2026-04-04T09:10:25Z</time></trkpt><trkpt lat="42.771170831079154" lon="12.903024204032077"><ele>1080.75</ele><time>2026-04-04T09:10:26Z</time></trkpt><trkpt lat="42.77110252639832" lon="12.902850561485856"><ele>1082.5</ele><time>2026-04-04T09:10:27Z</time></trkpt><trkpt lat="42.77103554078685" lon="12.90268039129366"><ele>1084.25</ele><time>2026-04-04T09:10:28Z</time></trkpt><trkpt lat="42.77098486146695" lon="12.902549962534696"><ele>1086.0</ele><time>2026-04-04T09:10:29Z</time></trkpt><trkpt lat="42.77099215494386" lon="12.90245350201435"><ele>1087.2</ele><time>2026-04-04T09:10:30Z</time></trkpt><trkpt lat="42.77100353912907" lon="12.902277546540988"><ele>1088.3999999999999</ele><time>2026-04-04T09:10:32Z</time></trkpt><trkpt lat="42.77100931942343" lon="12.90214178602052"><ele>1089.6</ele><time>2026-04-04T09:10:33Z</time></trkpt><trkpt lat="42.77100788603463" lon="12.902052612201661"><ele>1090.8</ele><time>2026-04-04T09:10:34Z</time></trkpt><trkpt lat="42.77098960602357" lon="12.901969039962388"><ele>1092.0</ele><time>2026-04-04T09:10:35Z</time></trkpt><trkpt lat="42.77091510591024" lon="12.901877928526126"><ele>1092.0</ele><time>2026-04-04T09:10:36Z</time></trkpt><trkpt lat="42.770826080211044" lon="12.901790970257244"><ele>1092.0</ele><time>2026-04-04T09:10:37Z</time></trkpt><trkpt lat="42.77071871979365" lon="12.901681179528715"><ele>1092.0</ele><time>2026-04-04T09:10:38Z</time></trkpt><trkpt lat="42.77060755017039" lon="12.901589554890469"><ele>1092.0</ele><time>2026-04-04T09:10:39Z</time></trkpt><trkpt lat="42.77054369631894" lon="12.901473780538524"><ele>1092.0</ele><time>2026-04-04T09:10:40Z</time></trkpt><trkpt lat="42.77047372829275" lon="12.901357593113557"><ele>1092.0</ele><time>2026-04-04T09:10:41Z</time></trkpt><trkpt lat="42.77039070357485" lon="12.901256997534789"><ele>1092.0</ele><time>2026-04-04T09:10:42Z</time></trkpt><trkpt lat="42.77033069145811" lon="12.901162764508108"><ele>1092.0</ele><time>2026-04-04T09:10:43Z</time></trkpt><trkpt lat="42.770280562817106" lon="12.901090374153155"><ele>1092.0</ele><time>2026-04-04T09:10:44Z</time></trkpt><trkpt lat="42.77023047763838" lon="12.901026704544739"><ele>1093.6</ele><time>2026-04-04T09:10:45Z</time></trkpt><trkpt lat="42.77013986112929" lon="12.900975062017405"><ele>1095.2</ele><time>2026-04-04T09:10:46Z</time></trkpt><trkpt lat="42.77004573848573" lon="12.900972332250232"><ele>1096.8</ele><time>2026-04-04T09:10:47Z</time></trkpt><trkpt lat="42.76996007146098" lon="12.901016851772306"><ele>1098.4</ele><time>2026-04-04T09:10:48Z</time></trkpt><trkpt lat="42.76985943201012" lon="12.90102251863696"><ele>1100.0</ele><time>2026-04-04T09:10:49Z</time></trkpt><trkpt lat="42.76975130724198" lon="12.90100700159643"><ele>1100.0</ele><time>2026-04-04T09:10:50Z</time></trkpt><trkpt lat="42.769663741899386" lon="12.901001382524635"><ele>1100.0</ele><time>2026-04-04T09:10:51Z</time></trkpt><trkpt lat="42.769566299966804" lon="12.900986646791084"><ele>1100.0</ele><time>2026-04-04T09:10:52Z</time></trkpt><trkpt lat="42.76946933779393" lon="12.900980379831523"><ele>1100.0</ele><time>2026-04-04T09:10:53Z</time></trkpt><trkpt lat="42.76937458732395" lon="12.900952590531714"><ele>1100.0</ele><time>2026-04-04T09:10:54Z</time></trkpt><trkpt lat="42.76926984855283" lon="12.900975306862927"><ele>1103.0</ele><time>2026-04-04T09:10:55Z</time></trkpt><trkpt lat="42.76917225529287" lon="12.900980369539122"><ele>1106.0</ele><time>2026-04-04T09:10:56Z</time></trkpt><trkpt lat="42.76906121617584" lon="12.90101976489863"><ele>1109.0</ele><time>2026-04-04T09:10:57Z</time></trkpt><trkpt lat="42.768921016107264" lon="12.90104961471785"><ele>1112.0</ele><time>2026-04-04T09:10:58Z</time></trkpt><trkpt lat="42.76878648559488" lon="12.900972541188475"><ele>1112.0</ele><time>2026-04-04T09:10:59Z</time></trkpt><trkpt lat="42.768677228943886" lon="12.900948592862628"><ele>1112.0</ele><time>2026-04-04T09:11:00Z</time></trkpt><trkpt lat="42.768573835302796" lon="12.900903990194358"><ele>1112.0</ele><time>2026-04-04T09:11:01Z</time></trkpt><trkpt lat="42.76849163975218" lon="12.900831405783828"><ele>1112.0</ele><time>2026-04-04T09:11:02Z</time></trkpt><trkpt lat="42.76839138969958" lon="12.900738770651817"><ele>1112.0</ele><time>2026-04-04T09:11:03Z</time></trkpt><trkpt lat="42.76830463062364" lon="12.900707213339217"><ele>1114.6</ele><time>2026-04-04T09:11:04Z</time></trkpt><trkpt lat="42.76821263799443" lon="12.900727157481413"><ele>1117.2</ele><time>2026-04-04T09:11:05Z</time></trkpt><trkpt lat="42.76809063062262" lon="12.900740315427145"><ele>1119.8</ele><time>2026-04-04T09:11:06Z</time></trkpt><trkpt lat="42.767959434954356" lon="12.900741899759236"><ele>1122.4</ele><time>2026-04-04T09:11:07Z</time></trkpt><trkpt lat="42.76786980286624" lon="12.900706834913711"><ele>1125.0</ele><time>2026-04-04T09:11:08Z</time></trkpt><trkpt lat="42.76778834804301" lon="12.900673920284776"><ele>1125.0</ele><time>2026-04-04T09:11:09Z</time></trkpt><trkpt lat="42.76770505705186" lon="12.900698235730149"><ele>1125.0</ele><time>2026-04-04T09:11:10Z</time></trkpt><trkpt lat="42.76764072678712" lon="12.900781456806268"><ele>1125.0</ele><time>2026-04-04T09:11:11Z</time></trkpt><trkpt lat="42.767563466066974" lon="12.90079660411845"><ele>1125.0</ele><time>2026-04-04T09:11:12Z</time></trkpt><trkpt lat="42.76747980565752" lon="12.900786615504762"><ele>1125.0</ele><time>2026-04-04T09:11:13Z</time></trkpt><trkpt lat="42.767392570311344" lon="12.90076437917616"><ele>1125.0</ele><time>2026-04-04T09:11:14Z</time></trkpt><trkpt lat="42.767306994631966" lon="12.900761970401106"><ele>1125.1666666666667</ele><time>2026-04-04T09:11:15Z</time></trkpt><trkpt lat="42.767221890472086" lon="12.90072947181589"><ele>1125.3333333333333</ele><time>2026-04-04T09:11:17Z</time></trkpt><trkpt lat="42.76715581156122" lon="12.900687602996726"><ele>1125.5</ele><time>2026-04-04T09:11:19Z</time></trkpt><trkpt lat="42.76707503234276" lon="12.900652237992146"><ele>1125.6666666666665</ele><time>2026-04-04T09:11:21Z</time></trkpt><trkpt lat="42.767002772788274" lon="12.900637015571307"><ele>1125.8333333333333</ele><time>2026-04-04T09:11:23Z</time></trkpt><trkpt lat="42.766929009446564" lon="12.900635292402328"><ele>1126.0</ele><time>2026-04-04T09:11:25Z</time></trkpt><trkpt lat="42.766856988457704" lon="12.900643566460202"><ele>1125.3999999999999</ele><time>2026-04-04T09:11:28Z</time></trkpt><trkpt lat="42.766823440623114" lon="12.90074791689516"><ele>1124.8</ele><time>2026-04-04T09:13:13Z</time></trkpt><trkpt lat="42.766734353477965" lon="12.900784065734738"><ele>1124.1999999999998</ele><time>2026-04-04T09:13:15Z</time></trkpt><trkpt lat="42.7666694103958" lon="12.900710278831275"><ele>1123.6</ele><time>2026-04-04T09:13:16Z</time></trkpt><trkpt lat="42.766567573496246" lon="12.900756109712871"><ele>1123.0</ele><time>2026-04-04T09:13:18Z</time></trkpt><trkpt lat="42.76648673480447" lon="12.900786023828294"><ele>1123.0</ele><time>2026-04-04T09:13:20Z</time></trkpt><trkpt lat="42.766380079784376" lon="12.900797667615414"><ele>1123.0</ele><time>2026-04-04T09:13:22Z</time></trkpt><trkpt lat="42.766330767631565" lon="12.900708873820449"><ele>1123.0</ele><time>2026-04-04T09:13:24Z</time></trkpt><trkpt lat="42.76626885500383" lon="12.900676652036987"><ele>1123.0</ele><time>2026-04-04T09:13:25Z</time></trkpt><trkpt lat="42.766189200728036" lon="12.900567102375959"><ele>1123.0</ele><time>2026-04-04T09:13:27Z</time></trkpt><trkpt lat="42.766127014043064" lon="12.9005039826014"><ele>1123.0</ele><time>2026-04-04T09:13:28Z</time></trkpt><trkpt lat="42.76604923063311" lon="12.900430627547127"><ele>1122.8</ele><time>2026-04-04T09:13:29Z</time></trkpt><trkpt lat="42.765950263971796" lon="12.900348831948167"><ele>1122.6</ele><time>2026-04-04T09:13:30Z</time></trkpt><trkpt lat="42.76586923968656" lon="12.900284554543076"><ele>1122.4</ele><time>2026-04-04T09:13:31Z</time></trkpt><trkpt lat="42.76578912249031" lon="12.900220210479343"><ele>1122.2</ele><time>2026-04-04T09:13:32Z</time></trkpt><trkpt lat="42.765715171471264" lon="12.900158470091034"><ele>1122.0</ele><time>2026-04-04T09:13:33Z</time></trkpt><trkpt lat="42.76563322136066" lon="12.900086883608832"><ele>1122.4</ele><time>2026-04-04T09:13:34Z</time></trkpt><trkpt lat="42.76555955146059" lon="12.900019391747373"><ele>1122.8000000000002</ele><time>2026-04-04T09:13:35Z</time></trkpt><trkpt lat="42.76550565097841" lon="12.899940644906822"><ele>1123.2</ele><time>2026-04-04T09:13:36Z</time></trkpt><trkpt lat="42.7655205401968" lon="12.899795510712805"><ele>1123.6000000000001</ele><time>2026-04-04T09:13:38Z</time></trkpt><trkpt lat="42.76553800451053" lon="12.899640235143552"><ele>1124.0</ele><time>2026-04-04T09:13:39Z</time></trkpt><trkpt lat="42.76553052060558" lon="12.89950325240658"><ele>1124.0</ele><time>2026-04-04T09:13:40Z</time></trkpt><trkpt lat="42.765522826081465" lon="12.899363028642032"><ele>1124.0</ele><time>2026-04-04T09:13:41Z</time></trkpt><trkpt lat="42.765507292164955" lon="12.89924823573458"><ele>1124.0</ele><time>2026-04-04T09:13:42Z</time></trkpt><trkpt lat="42.76545775510894" lon="12.899135211403188"><ele>1124.0</ele><time>2026-04-04T09:13:44Z</time></trkpt><trkpt lat="42.76530484160236" lon="12.899104029298663"><ele>1124.0</ele><time>2026-04-04T09:13:46Z</time></trkpt><trkpt lat="42.76522215364551" lon="12.89910580011952"><ele>1125.3333333333335</ele><time>2026-04-04T09:13:47Z</time></trkpt><trkpt lat="42.76515152961562" lon="12.899072429771067"><ele>1126.6666666666667</ele><time>2026-04-04T09:13:48Z</time></trkpt><trkpt lat="42.76507908776144" lon="12.899059869757458"><ele>1128.0</ele><time>2026-04-04T09:13:49Z</time></trkpt><trkpt lat="42.76499230824069" lon="12.899063426146123"><ele>1129.3333333333333</ele><time>2026-04-04T09:13:50Z</time></trkpt><trkpt lat="42.764920482456965" lon="12.899106828425525"><ele>1130.6666666666665</ele><time>2026-04-04T09:13:51Z</time></trkpt><trkpt lat="42.76485541870698" lon="12.899124195847428"><ele>1132.0</ele><time>2026-04-04T09:13:52Z</time></trkpt><trkpt lat="42.76477911369712" lon="12.899128862404519"><ele>1132.0</ele><time>2026-04-04T09:13:54Z</time></trkpt><trkpt lat="42.76471412570943" lon="12.899089280768939"><ele>1132.0</ele><time>2026-04-04T09:13:56Z</time></trkpt><trkpt lat="42.764621964795566" lon="12.899024303448664"><ele>1132.0</ele><time>2026-04-04T09:13:58Z</time></trkpt><trkpt lat="42.764521551852745" lon="12.898980449768766"><ele>1132.0</ele><time>2026-04-04T09:14:00Z</time></trkpt><trkpt lat="42.764452764707634" lon="12.898959337665673"><ele>1132.0</ele><time>2026-04-04T09:14:01Z</time></trkpt><trkpt lat="42.76435684261023" lon="12.898929897249225"><ele>1132.0</ele><time>2026-04-04T09:14:02Z</time></trkpt><trkpt lat="42.76423035816294" lon="12.898888184414922"><ele>1132.4</ele><time>2026-04-04T09:14:03Z</time></trkpt><trkpt lat="42.76412610962285" lon="12.898843547488399"><ele>1132.8000000000002</ele><time>2026-04-04T09:14:04Z</time></trkpt><trkpt lat="42.764043645113624" lon="12.898794120554872"><ele>1133.2</ele><time>2026-04-04T09:14:05Z</time></trkpt><trkpt lat="42.763957533887975" lon="12.89874013339752"><ele>1133.6000000000001</ele><time>2026-04-04T09:14:06Z</time></trkpt><trkpt lat="42.76388026196479" lon="12.898716802185119"><ele>1134.0</ele><time>2026-04-04T09:14:07Z</time></trkpt><trkpt lat="42.76378618742081" lon="12.898727005571146"><ele>1134.0</ele><time>2026-04-04T09:14:08Z</time></trkpt><trkpt lat="42.76368645533242" lon="12.898759537970466"><ele>1134.0</ele><time>2026-04-04T09:14:09Z</time></trkpt><trkpt lat="42.763623560820804" lon="12.898775453837503"><ele>1134.0</ele><time>2026-04-04T09:14:10Z</time></trkpt><trkpt lat="42.76352912232941" lon="12.898799351668377"><ele>1134.0</ele><time>2026-04-04T09:14:11Z</time></trkpt><trkpt lat="42.76344961840851" lon="12.89882109750585"><ele>1134.0</ele><time>2026-04-04T09:14:12Z</time></trkpt><trkpt lat="42.763369685692055" lon="12.898856855231422"><ele>1134.0</ele><time>2026-04-04T09:14:13Z</time></trkpt><trkpt lat="42.76330732787234" lon="12.898897523651225"><ele>1136.5</ele><time>2026-04-04T09:14:14Z</time></trkpt><trkpt lat="42.763222370443856" lon="12.898954173178716"><ele>1139.0</ele><time>2026-04-04T09:14:15Z</time></trkpt><trkpt lat="42.76310988894312" lon="12.899016083319498"><ele>1141.5</ele><time>2026-04-04T09:14:16Z</time></trkpt><trkpt lat="42.76295746664699" lon="12.899093500577752"><ele>1144.0</ele><time>2026-04-04T09:14:17Z</time></trkpt><trkpt lat="42.76279790074119" lon="12.899196450723675"><ele>1144.2</ele><time>2026-04-04T09:14:18Z</time></trkpt><trkpt lat="42.76267626229618" lon="12.899265515647102"><ele>1144.4</ele><time>2026-04-04T09:14:19Z</time></trkpt><trkpt lat="42.76258730879165" lon="12.899336280773946"><ele>1144.6</ele><time>2026-04-04T09:14:20Z</time></trkpt><trkpt lat="42.76249963190666" lon="12.899408728637653"><ele>1144.8</ele><time>2026-04-04T09:14:21Z</time></trkpt><trkpt lat="42.762422727919905" lon="12.899510769835471"><ele>1145.0</ele><time>2026-04-04T09:14:22Z</time></trkpt><trkpt lat="42.76234074535252" lon="12.899559871377766"><ele>1145.0</ele><time>2026-04-04T09:14:23Z</time></trkpt><trkpt lat="42.76225147068287" lon="12.899623130961011"><ele>1145.0</ele><time>2026-04-04T09:14:24Z</time></trkpt><trkpt lat="42.762177817327604" lon="12.899709512076289"><ele>1145.0</ele><time>2026-04-04T09:14:25Z</time></trkpt><trkpt lat="42.762108703272915" lon="12.899801332024017"><ele>1145.0</ele><time>2026-04-04T09:14:26Z</time></trkpt><trkpt lat="42.76202505394589" lon="12.899909340314224"><ele>1145.0</ele><time>2026-04-04T09:14:27Z</time></trkpt><trkpt lat="42.761920641815905" lon="12.900029198158718"><ele>1145.25</ele><time>2026-04-04T09:14:28Z</time></trkpt><trkpt lat="42.761814044375214" lon="12.900140249283838"><ele>1145.5</ele><time>2026-04-04T09:14:29Z</time></trkpt><trkpt lat="42.76168272730935" lon="12.900258016658276"><ele>1145.75</ele><time>2026-04-04T09:14:30Z</time></trkpt><trkpt lat="42.761568942567266" lon="12.90038852937708"><ele>1146.0</ele><time>2026-04-04T09:14:31Z</time></trkpt><trkpt lat="42.76146864900149" lon="12.900479524687874"><ele>1146.0</ele><time>2026-04-04T09:14:32Z</time></trkpt><trkpt lat="42.76138012691884" lon="12.90060636295841"><ele>1146.0</ele><time>2026-04-04T09:14:33Z</time></trkpt><trkpt lat="42.761280330059826" lon="12.90072717111489"><ele>1146.0</ele><time>2026-04-04T09:14:34Z</time></trkpt><trkpt lat="42.76119923145548" lon="12.900825852958665"><ele>1146.0</ele><time>2026-04-04T09:14:35Z</time></trkpt><trkpt lat="42.761122716916994" lon="12.900931976444415"><ele>1145.75</ele><time>2026-04-04T09:14:36Z</time></trkpt><trkpt lat="42.761081235103696" lon="12.901050618841426"><ele>1145.5</ele><time>2026-04-04T09:14:37Z</time></trkpt><trkpt lat="42.7610266000668" lon="12.901150929220538"><ele>1145.25</ele><time>2026-04-04T09:14:38Z</time></trkpt><trkpt lat="42.760972233599205" lon="12.901297687616955"><ele>1145.0</ele><time>2026-04-04T09:14:39Z</time></trkpt><trkpt lat="42.76088843128535" lon="12.90145363770211"><ele>1145.0</ele><time>2026-04-04T09:14:40Z</time></trkpt><trkpt lat="42.760801147049484" lon="12.901583707690445"><ele>1145.0</ele><time>2026-04-04T09:14:41Z</time></trkpt><trkpt lat="42.76069068920966" lon="12.901704133033494"><ele>1145.0</ele><time>2026-04-04T09:14:42Z</time></trkpt><trkpt lat="42.76055691777991" lon="12.90182075964629"><ele>1145.0</ele><time>2026-04-04T09:14:43Z</time></trkpt><trkpt lat="42.76043884604605" lon="12.901941392091668"><ele>1144.6</ele><time>2026-04-04T09:14:44Z</time></trkpt><trkpt lat="42.76036003848567" lon="12.902068634463019"><ele>1144.2</ele><time>2026-04-04T09:14:45Z</time></trkpt><trkpt lat="42.76027868195886" lon="12.902124344619757"><ele>1143.8</ele><time>2026-04-04T09:14:46Z</time></trkpt><trkpt lat="42.76020453202205" lon="12.902182567452945"><ele>1143.4</ele><time>2026-04-04T09:14:47Z</time></trkpt><trkpt lat="42.76011636992528" lon="12.902233355419149"><ele>1143.0</ele><time>2026-04-04T09:14:48Z</time></trkpt><trkpt lat="42.759982404910566" lon="12.902277273419333"><ele>1143.0</ele><time>2026-04-04T09:14:49Z</time></trkpt><trkpt lat="42.759895162209794" lon="12.902365353851497"><ele>1143.0</ele><time>2026-04-04T09:14:50Z</time></trkpt><trkpt lat="42.759814005435935" lon="12.90246369564923"><ele>1143.0</ele><time>2026-04-04T09:14:51Z</time></trkpt><trkpt lat="42.75972997503371" lon="12.902576995404655"><ele>1143.0</ele><time>2026-04-04T09:14:52Z</time></trkpt><trkpt lat="42.75964612487801" lon="12.90274774550353"><ele>1143.4</ele><time>2026-04-04T09:14:53Z</time></trkpt><trkpt lat="42.75960413292364" lon="12.902900357748651"><ele>1143.8</ele><time>2026-04-04T09:14:54Z</time></trkpt><trkpt lat="42.75958604613191" lon="12.90303312955586"><ele>1144.2</ele><time>2026-04-04T09:14:55Z</time></trkpt><trkpt lat="42.759545458150505" lon="12.903113551751982"><ele>1144.6</ele><time>2026-04-04T09:14:56Z</time></trkpt><trkpt lat="42.759436162556" lon="12.903223513059201"><ele>1145.0</ele><time>2026-04-04T09:14:58Z</time></trkpt><trkpt lat="42.759372286267755" lon="12.9033027384781"><ele>1145.0</ele><time>2026-04-04T09:14:59Z</time></trkpt><trkpt lat="42.7593083648145" lon="12.90339798839689"><ele>1145.0</ele><time>2026-04-04T09:15:00Z</time></trkpt><trkpt lat="42.759244151198956" lon="12.903514915148069"><ele>1145.0</ele><time>2026-04-04T09:15:01Z</time></trkpt><trkpt lat="42.759166392166385" lon="12.903626048208372"><ele>1145.0</ele><time>2026-04-04T09:15:02Z</time></trkpt><trkpt lat="42.75908684983297" lon="12.9037352173363"><ele>1145.0</ele><time>2026-04-04T09:15:03Z</time></trkpt><trkpt lat="42.75899140678746" lon="12.903838745109953"><ele>1145.4</ele><time>2026-04-04T09:15:04Z</time></trkpt><trkpt lat="42.75890302235059" lon="12.90392258298853"><ele>1145.8</ele><time>2026-04-04T09:15:05Z</time></trkpt><trkpt lat="42.75883354779767" lon="12.903980392332294"><ele>1146.2</ele><time>2026-04-04T09:15:06Z</time></trkpt><trkpt lat="42.75873658011282" lon="12.904037983348962"><ele>1146.6</ele><time>2026-04-04T09:15:07Z</time></trkpt><trkpt lat="42.75867952260956" lon="12.904141180436755"><ele>1147.0</ele><time>2026-04-04T09:15:08Z</time></trkpt><trkpt lat="42.75859506450322" lon="12.90426239520734"><ele>1146.4</ele><time>2026-04-04T09:15:09Z</time></trkpt><trkpt lat="42.758514244233496" lon="12.904411993445047"><ele>1145.8000000000002</ele><time>2026-04-04T09:15:10Z</time></trkpt><trkpt lat="42.75843540806401" lon="12.904539667040625"><ele>1145.2</ele><time>2026-04-04T09:15:11Z</time></trkpt><trkpt lat="42.75835602944733" lon="12.9046477741957"><ele>1144.6000000000001</ele><time>2026-04-04T09:15:12Z</time></trkpt><trkpt lat="42.75828208307853" lon="12.90466580945361"><ele>1144.0</ele><time>2026-04-04T09:15:13Z</time></trkpt><trkpt lat="42.758220055924035" lon="12.904636689495623"><ele>1144.0</ele><time>2026-04-04T09:15:14Z</time></trkpt><trkpt lat="42.75814563536817" lon="12.904603514542265"><ele>1144.0</ele><time>2026-04-04T09:15:15Z</time></trkpt><trkpt lat="42.758037164739996" lon="12.904554188567687"><ele>1144.0</ele><time>2026-04-04T09:15:16Z</time></trkpt><trkpt lat="42.75792585282168" lon="12.904476788695556"><ele>1144.0</ele><time>2026-04-04T09:15:17Z</time></trkpt><trkpt lat="42.757830640874786" lon="12.904415471347537"><ele>1144.0</ele><time>2026-04-04T09:15:18Z</time></trkpt><trkpt lat="42.7577205578095" lon="12.90437189061996"><ele>1142.0</ele><time>2026-04-04T09:15:19Z</time></trkpt><trkpt lat="42.757649010747684" lon="12.904356459817059"><ele>1140.0</ele><time>2026-04-04T09:15:20Z</time></trkpt><trkpt lat="42.75755435655981" lon="12.904343345397441"><ele>1138.0</ele><time>2026-04-04T09:15:21Z</time></trkpt><trkpt lat="42.757468778849415" lon="12.904337651179626"><ele>1136.0</ele><time>2026-04-04T09:15:22Z</time></trkpt><trkpt lat="42.757379654367895" lon="12.90433371508445"><ele>1134.0</ele><time>2026-04-04T09:15:23Z</time></trkpt><trkpt lat="42.75727123193874" lon="12.904316713768146"><ele>1134.0</ele><time>2026-04-04T09:15:24Z</time></trkpt><trkpt lat="42.75715775154049" lon="12.904322397281847"><ele>1134.0</ele><time>2026-04-04T09:15:25Z</time></trkpt><trkpt lat="42.75704331564177" lon="12.90427429981718"><ele>1134.0</ele><time>2026-04-04T09:15:26Z</time></trkpt><trkpt lat="42.75694474496601" lon="12.90423658739322"><ele>1134.0</ele><time>2026-04-04T09:15:27Z</time></trkpt><trkpt lat="42.7568673780816" lon="12.904193318143639"><ele>1134.0</ele><time>2026-04-04T09:15:28Z</time></trkpt><trkpt lat="42.75680886503295" lon="12.904113669612391"><ele>1133.6666666666667</ele><time>2026-04-04T09:15:29Z</time></trkpt><trkpt lat="42.75675621071143" lon="12.904010961343525"><ele>1133.3333333333333</ele><time>2026-04-04T09:15:30Z</time></trkpt><trkpt lat="42.756718626282215" lon="12.903879993352364"><ele>1133.0</ele><time>2026-04-04T09:15:31Z</time></trkpt><trkpt lat="42.756677823236615" lon="12.903752998736554"><ele>1132.6666666666665</ele><time>2026-04-04T09:15:33Z</time></trkpt><trkpt lat="42.75663440615233" lon="12.903686253887638"><ele>1132.3333333333333</ele><time>2026-04-04T09:15:34Z</time></trkpt><trkpt lat="42.75660273553042" lon="12.903608061848077"><ele>1132.0</ele><time>2026-04-04T09:15:35Z</time></trkpt><trkpt lat="42.75650149530889" lon="12.903548466673744"><ele>1132.0</ele><time>2026-04-04T09:15:37Z</time></trkpt><trkpt lat="42.75642718698787" lon="12.903549965880565"><ele>1132.0</ele><time>2026-04-04T09:15:38Z</time></trkpt><trkpt lat="42.75632519306108" lon="12.903622866291068"><ele>1132.0</ele><time>2026-04-04T09:15:39Z</time></trkpt><trkpt lat="42.75624588457583" lon="12.903702055854128"><ele>1132.0</ele><time>2026-04-04T09:15:40Z</time></trkpt><trkpt lat="42.756183135712696" lon="12.903780015062656"><ele>1132.0</ele><time>2026-04-04T09:15:41Z</time></trkpt><trkpt lat="42.756152035652256" lon="12.903895743335712"><ele>1132.0</ele><time>2026-04-04T09:15:43Z</time></trkpt><trkpt lat="42.756159289332196" lon="12.904021900915202"><ele>1132.0</ele><time>2026-04-04T09:15:44Z</time></trkpt><trkpt lat="42.756106842133626" lon="12.904147444832564"><ele>1132.0</ele><time>2026-04-04T09:15:45Z</time></trkpt><trkpt lat="42.756054255772746" lon="12.904260365357567"><ele>1132.0</ele><time>2026-04-04T09:15:46Z</time></trkpt><trkpt lat="42.75598567339478" lon="12.904381908926155"><ele>1132.0</ele><time>2026-04-04T09:15:47Z</time></trkpt><trkpt lat="42.75591196758348" lon="12.90452612666399"><ele>1132.0</ele><time>2026-04-04T09:15:48Z</time></trkpt><trkpt lat="42.755868585835074" lon="12.904658536314509"><ele>1132.0</ele><time>2026-04-04T09:15:49Z</time></trkpt><trkpt lat="42.75582055864482" lon="12.904794424100368"><ele>1132.0</ele><time>2026-04-04T09:15:50Z</time></trkpt><trkpt lat="42.75578238109095" lon="12.904888971268138"><ele>1132.0</ele><time>2026-04-04T09:15:51Z</time></trkpt><trkpt lat="42.75573474684953" lon="12.904988065949711"><ele>1132.0</ele><time>2026-04-04T09:15:52Z</time></trkpt><trkpt lat="42.755658708322784" lon="12.905126968013931"><ele>1131.0</ele><time>2026-04-04T09:15:53Z</time></trkpt><trkpt lat="42.75558504248166" lon="12.905249773252605"><ele>1130.0</ele><time>2026-04-04T09:15:54Z</time></trkpt><trkpt lat="42.75553551981207" lon="12.905342576585767"><ele>1129.0</ele><time>2026-04-04T09:15:55Z</time></trkpt><trkpt lat="42.755487436057315" lon="12.905428800924135"><ele>1128.0</ele><time>2026-04-04T09:15:56Z</time></trkpt><trkpt lat="42.75544205580581" lon="12.905500752653353"><ele>1127.0</ele><time>2026-04-04T09:15:57Z</time></trkpt><trkpt lat="42.755361485916765" lon="12.90563729530262"><ele>1127.0</ele><time>2026-04-04T09:15:59Z</time></trkpt><trkpt lat="42.755335642525495" lon="12.905735117075853"><ele>1127.0</ele><time>2026-04-04T09:16:00Z</time></trkpt><trkpt lat="42.75529142711499" lon="12.905864837558841"><ele>1127.0</ele><time>2026-04-04T09:16:01Z</time></trkpt><trkpt lat="42.75528709008433" lon="12.906013123046304"><ele>1127.0</ele><time>2026-04-04T09:16:02Z</time></trkpt><trkpt lat="42.75529818559694" lon="12.90614018998405"><ele>1127.0</ele><time>2026-04-04T09:16:03Z</time></trkpt><trkpt lat="42.75530256851194" lon="12.906277657142711"><ele>1128.2</ele><time>2026-04-04T09:16:04Z</time></trkpt><trkpt lat="42.75532536125919" lon="12.906447657105458"><ele>1129.4</ele><time>2026-04-04T09:16:05Z</time></trkpt><trkpt lat="42.75532165164238" lon="12.906578056028668"><ele>1130.6</ele><time>2026-04-04T09:16:06Z</time></trkpt><trkpt lat="42.75527144933564" lon="12.90665378795384"><ele>1131.8</ele><time>2026-04-04T09:16:07Z</time></trkpt><trkpt lat="42.75521001266564" lon="12.906732621940854"><ele>1133.0</ele><time>2026-04-04T09:16:08Z</time></trkpt><trkpt lat="42.755120302533754" lon="12.906676702159883"><ele>1133.0</ele><time>2026-04-04T09:16:10Z</time></trkpt><trkpt lat="42.755129304914995" lon="12.90657758632612"><ele>1133.0</ele><time>2026-04-04T09:16:11Z</time></trkpt><trkpt lat="42.755058631729824" lon="12.906493832074801"><ele>1133.0</ele><time>2026-04-04T09:16:12Z</time></trkpt><trkpt lat="42.754960329568085" lon="12.906412128322186"><ele>1133.0</ele><time>2026-04-04T09:16:13Z</time></trkpt><trkpt lat="42.75489455530224" lon="12.906337437246018"><ele>1133.0</ele><time>2026-04-04T09:16:14Z</time></trkpt><trkpt lat="42.75488551306862" lon="12.906247205831308"><ele>1133.0</ele><time>2026-04-04T09:16:15Z</time></trkpt><trkpt lat="42.75482996452946" lon="12.906150065173527"><ele>1133.0</ele><time>2026-04-04T09:16:16Z</time></trkpt><trkpt lat="42.7547456110433" lon="12.906038954464124"><ele>1133.0</ele><time>2026-04-04T09:16:17Z</time></trkpt><trkpt lat="42.75467562923484" lon="12.905886971773667"><ele>1133.0</ele><time>2026-04-04T09:16:18Z</time></trkpt><trkpt lat="42.754600998351805" lon="12.905737548162428"><ele>1133.0</ele><time>2026-04-04T09:16:19Z</time></trkpt><trkpt lat="42.75453867505983" lon="12.905626391338135"><ele>1133.2</ele><time>2026-04-04T09:16:20Z</time></trkpt><trkpt lat="42.75450037435396" lon="12.905550383572509"><ele>1133.4</ele><time>2026-04-04T09:16:21Z</time></trkpt><trkpt lat="42.75445771187816" lon="12.905483807341037"><ele>1133.6000000000001</ele><time>2026-04-04T09:16:22Z</time></trkpt><trkpt lat="42.754374884020365" lon="12.905397589714374"><ele>1133.8</ele><time>2026-04-04T09:16:23Z</time></trkpt><trkpt lat="42.7543429941633" lon="12.9052465350113"><ele>1134.0</ele><time>2026-04-04T09:16:24Z</time></trkpt><trkpt lat="42.754368357850154" lon="12.90511402862357"><ele>1134.75</ele><time>2026-04-04T09:16:25Z</time></trkpt><trkpt lat="42.754336513011765" lon="12.904980219817475"><ele>1135.5</ele><time>2026-04-04T09:16:26Z</time></trkpt><trkpt lat="42.75428651715537" lon="12.90482769841283"><ele>1136.25</ele><time>2026-04-04T09:16:27Z</time></trkpt><trkpt lat="42.75420308064458" lon="12.904681543288186"><ele>1137.0</ele><time>2026-04-04T09:16:28Z</time></trkpt><trkpt lat="42.754138970275534" lon="12.9044914610164"><ele>1137.0</ele><time>2026-04-04T09:16:29Z</time></trkpt><trkpt lat="42.75405743513661" lon="12.904302019428522"><ele>1137.0</ele><time>2026-04-04T09:16:30Z</time></trkpt><trkpt lat="42.753998960805085" lon="12.904105221671562"><ele>1137.0</ele><time>2026-04-04T09:16:31Z</time></trkpt><trkpt lat="42.75397024461692" lon="12.903926337028889"><ele>1137.3333333333333</ele><time>2026-04-04T09:16:32Z</time></trkpt><trkpt lat="42.753941964743724" lon="12.903726515728954"><ele>1137.6666666666665</ele><time>2026-04-04T09:16:33Z</time></trkpt><trkpt lat="42.753875315382786" lon="12.903535175268962"><ele>1138.0</ele><time>2026-04-04T09:16:34Z</time></trkpt><trkpt lat="42.753801030187844" lon="12.903364697522989"><ele>1138.0</ele><time>2026-04-04T09:16:35Z</time></trkpt><trkpt lat="42.753720707802" lon="12.903193601302023"><ele>1138.0</ele><time>2026-04-04T09:16:36Z</time></trkpt><trkpt lat="42.753626187913284" lon="12.903007614292614"><ele>1138.0</ele><time>2026-04-04T09:16:37Z</time></trkpt><trkpt lat="42.7535602190728" lon="12.902852302835745"><ele>1138.0</ele><time>2026-04-04T09:16:38Z</time></trkpt><trkpt lat="42.753506102093155" lon="12.90270531086697"><ele>1140.4</ele><time>2026-04-04T09:16:39Z</time></trkpt><trkpt lat="42.75346137570906" lon="12.902578258176058"><ele>1142.8</ele><time>2026-04-04T09:16:40Z</time></trkpt><trkpt lat="42.75340623665241" lon="12.902487651965249"><ele>1145.2</ele><time>2026-04-04T09:16:41Z</time></trkpt><trkpt lat="42.7533298438301" lon="12.902431531354164"><ele>1147.6</ele><time>2026-04-04T09:16:42Z</time></trkpt><trkpt lat="42.753229198304574" lon="12.902409679736413"><ele>1150.0</ele><time>2026-04-04T09:16:43Z</time></trkpt><trkpt lat="42.7531533743034" lon="12.902357665949152"><ele>1150.0</ele><time>2026-04-04T09:16:44Z</time></trkpt><trkpt lat="42.75309797381816" lon="12.902295396319701"><ele>1150.0</ele><time>2026-04-04T09:16:45Z</time></trkpt><trkpt lat="42.753043972436245" lon="12.90219297738101"><ele>1150.0</ele><time>2026-04-04T09:16:46Z</time></trkpt><trkpt lat="42.752994115571724" lon="12.902044277475628"><ele>1150.0</ele><time>2026-04-04T09:16:47Z</time></trkpt><trkpt lat="42.75292118984073" lon="12.901849546689217"><ele>1150.0</ele><time>2026-04-04T09:16:48Z</time></trkpt><trkpt lat="42.75285793759074" lon="12.901699057296504"><ele>1149.6</ele><time>2026-04-04T09:16:49Z</time></trkpt><trkpt lat="42.75281966608762" lon="12.901564564369899"><ele>1149.2</ele><time>2026-04-04T09:16:50Z</time></trkpt><trkpt lat="42.7527969866991" lon="12.901451757115513"><ele>1148.8</ele><time>2026-04-04T09:16:51Z</time></trkpt><trkpt lat="42.752780868730774" lon="12.90131952760816"><ele>1148.4</ele><time>2026-04-04T09:16:52Z</time></trkpt><trkpt lat="42.752758647711865" lon="12.901169870874504"><ele>1148.0</ele><time>2026-04-04T09:16:53Z</time></trkpt><trkpt lat="42.75273891490215" lon="12.901021208396305"><ele>1148.75</ele><time>2026-04-04T09:16:54Z</time></trkpt><trkpt lat="42.752744691341036" lon="12.900877786704418"><ele>1149.5</ele><time>2026-04-04T09:16:55Z</time></trkpt><trkpt lat="42.752699488385915" lon="12.90073589536972"><ele>1150.25</ele><time>2026-04-04T09:16:56Z</time></trkpt><trkpt lat="42.752623495319995" lon="12.900562228674776"><ele>1151.0</ele><time>2026-04-04T09:16:57Z</time></trkpt><trkpt lat="42.75256169366567" lon="12.900372831579514"><ele>1151.0</ele><time>2026-04-04T09:16:58Z</time></trkpt><trkpt lat="42.75250283990152" lon="12.90024412369447"><ele>1151.0</ele><time>2026-04-04T09:16:59Z</time></trkpt><trkpt lat="42.75243580244233" lon="12.90015927221445"><ele>1151.0</ele><time>2026-04-04T09:17:00Z</time></trkpt><trkpt lat="42.7523858013191" lon="12.900084639476367"><ele>1151.0</ele><time>2026-04-04T09:17:01Z</time></trkpt><trkpt lat="42.752331334878434" lon="12.899951494271013"><ele>1151.0</ele><time>2026-04-04T09:17:03Z</time></trkpt><trkpt lat="42.75228195557947" lon="12.899845947870473"><ele>1151.2</ele><time>2026-04-04T09:17:06Z</time></trkpt><trkpt lat="42.75224089555789" lon="12.899721356028852"><ele>1151.3999999999999</ele><time>2026-04-04T09:17:09Z</time></trkpt><trkpt lat="42.75220741873243" lon="12.899620383219425"><ele>1151.6</ele><time>2026-04-04T09:17:11Z</time></trkpt><trkpt lat="42.75211566507143" lon="12.89962281702161"><ele>1151.8</ele><time>2026-04-04T09:17:13Z</time></trkpt><trkpt lat="42.75200472442731" lon="12.899604934862868"><ele>1152.0</ele><time>2026-04-04T09:17:28Z</time></trkpt><trkpt lat="42.75188621096513" lon="12.89962761098712"><ele>1151.6</ele><time>2026-04-04T09:17:30Z</time></trkpt><trkpt lat="42.75181734881913" lon="12.899622130667655"><ele>1151.2</ele><time>2026-04-04T09:17:31Z</time></trkpt><trkpt lat="42.75175729997097" lon="12.899535367245791"><ele>1150.8</ele><time>2026-04-04T09:17:32Z</time></trkpt><trkpt lat="42.75168123791436" lon="12.899500233374546"><ele>1150.4</ele><time>2026-04-04T09:17:33Z</time></trkpt><trkpt lat="42.75158849177003" lon="12.899446096909264"><ele>1150.0</ele><time>2026-04-04T09:17:34Z</time></trkpt><trkpt lat="42.75148191872463" lon="12.89937430854825"><ele>1150.0</ele><time>2026-04-04T09:17:35Z</time></trkpt><trkpt lat="42.75135185453964" lon="12.89928881183887"><ele>1150.0</ele><time>2026-04-04T09:17:36Z</time></trkpt><trkpt lat="42.75120894655689" lon="12.899210101315067"><ele>1150.0</ele><time>2026-04-04T09:17:37Z</time></trkpt><trkpt lat="42.7510919190146" lon="12.899161581213399"><ele>1150.0</ele><time>2026-04-04T09:17:38Z</time></trkpt><trkpt lat="42.750953506871156" lon="12.899117637445924"><ele>1153.0</ele><time>2026-04-04T09:17:39Z</time></trkpt><trkpt lat="42.75078987670957" lon="12.89907340126209"><ele>1156.0</ele><time>2026-04-04T09:17:40Z</time></trkpt><trkpt lat="42.75061406597172" lon="12.899030226379425"><ele>1159.0</ele><time>2026-04-04T09:17:41Z</time></trkpt><trkpt lat="42.75043712867834" lon="12.89899265169085"><ele>1159.0</ele><time>2026-04-04T09:17:42Z</time></trkpt><trkpt lat="42.750257971468365" lon="12.898972164908903"><ele>1159.0</ele><time>2026-04-04T09:17:43Z</time></trkpt><trkpt lat="42.75007833109426" lon="12.898940296925494"><ele>1159.0</ele><time>2026-04-04T09:17:44Z</time></trkpt><trkpt lat="42.749929761706206" lon="12.89892210647652"><ele>1159.3333333333333</ele><time>2026-04-04T09:17:45Z</time></trkpt><trkpt lat="42.74976787231613" lon="12.898910484314245"><ele>1159.6666666666667</ele><time>2026-04-04T09:17:46Z</time></trkpt><trkpt lat="42.74962071417616" lon="12.89884667341862"><ele>1160.0</ele><time>2026-04-04T09:17:47Z</time></trkpt><trkpt lat="42.749468225978255" lon="12.898799601760997"><ele>1160.75</ele><time>2026-04-04T09:17:48Z</time></trkpt><trkpt lat="42.749338242985914" lon="12.898780285561722"><ele>1161.5</ele><time>2026-04-04T09:17:49Z</time></trkpt><trkpt lat="42.74919376405019" lon="12.898805393065839"><ele>1162.25</ele><time>2026-04-04T09:17:50Z</time></trkpt><trkpt lat="42.74905241905835" lon="12.898827107783944"><ele>1163.0</ele><time>2026-04-04T09:17:51Z</time></trkpt><trkpt lat="42.748900513160805" lon="12.898836270100897"><ele>1163.0</ele><time>2026-04-04T09:17:52Z</time></trkpt><trkpt lat="42.7487460578068" lon="12.898844131390243"><ele>1163.0</ele><time>2026-04-04T09:17:53Z</time></trkpt><trkpt lat="42.74857828512056" lon="12.898850981146115"><ele>1163.0</ele><time>2026-04-04T09:17:54Z</time></trkpt><trkpt lat="42.74840329387888" lon="12.898858072499033"><ele>1163.0</ele><time>2026-04-04T09:17:55Z</time></trkpt><trkpt lat="42.74825583918584" lon="12.8988635680252"><ele>1163.0</ele><time>2026-04-04T09:17:56Z</time></trkpt><trkpt lat="42.74812367559444" lon="12.898868493654703"><ele>1163.0</ele><time>2026-04-04T09:17:57Z</time></trkpt><trkpt lat="42.747995618275446" lon="12.898873266257308"><ele>1163.0</ele><time>2026-04-04T09:17:58Z</time></trkpt><trkpt lat="42.7478831931206" lon="12.89887745625141"><ele>1163.0</ele><time>2026-04-04T09:17:59Z</time></trkpt><trkpt lat="42.74777840653741" lon="12.898882351045277"><ele>1163.0</ele><time>2026-04-04T09:18:00Z</time></trkpt><trkpt lat="42.74768287654039" lon="12.898887353534208"><ele>1163.0</ele><time>2026-04-04T09:18:01Z</time></trkpt><trkpt lat="42.74759775878866" lon="12.898891812469756"><ele>1163.0</ele><time>2026-04-04T09:18:02Z</time></trkpt><trkpt lat="42.74752364552381" lon="12.89889569346098"><ele>1163.0</ele><time>2026-04-04T09:18:03Z</time></trkpt><trkpt lat="42.747437927317506" lon="12.8989001821485"><ele>1163.0</ele><time>2026-04-04T09:18:05Z</time></trkpt><trkpt lat="42.74737875458506" lon="12.898717013997393"><ele>1162.6666666666667</ele><time>2026-04-04T09:18:17Z</time></trkpt><trkpt lat="42.74736462669003" lon="12.898630143054936"><ele>1162.3333333333335</ele><time>2026-04-04T09:18:18Z</time></trkpt><trkpt lat="42.74734067358112" lon="12.898520077225996"><ele>1162.0</ele><time>2026-04-04T09:18:19Z</time></trkpt><trkpt lat="42.74731006891025" lon="12.898424639415222"><ele>1161.6666666666667</ele><time>2026-04-04T09:18:20Z</time></trkpt><trkpt lat="42.74721306905035" lon="12.898316401176146"><ele>1161.3333333333333</ele><time>2026-04-04T09:18:22Z</time></trkpt><trkpt lat="42.74714275632818" lon="12.898317118957351"><ele>1161.0</ele><time>2026-04-04T09:18:23Z</time></trkpt><trkpt lat="42.7470707305991" lon="12.898325185693276"><ele>1162.3999999999999</ele><time>2026-04-04T09:18:24Z</time></trkpt><trkpt lat="42.746966244008455" lon="12.898358316943412"><ele>1163.8</ele><time>2026-04-04T09:18:25Z</time></trkpt><trkpt lat="42.746867608409026" lon="12.898380689619529"><ele>1165.1999999999998</ele><time>2026-04-04T09:18:26Z</time></trkpt><trkpt lat="42.74678333810642" lon="12.898388873392983"><ele>1166.6</ele><time>2026-04-04T09:18:27Z</time></trkpt><trkpt lat="42.746684032108135" lon="12.89838593262884"><ele>1168.0</ele><time>2026-04-04T09:18:28Z</time></trkpt><trkpt lat="42.74661654629685" lon="12.898402638450928"><ele>1168.2</ele><time>2026-04-04T09:18:29Z</time></trkpt><trkpt lat="42.74650004498822" lon="12.898430697034913"><ele>1168.4</ele><time>2026-04-04T09:18:31Z</time></trkpt><trkpt lat="42.74641811736406" lon="12.898416988895878"><ele>1168.6000000000001</ele><time>2026-04-04T09:18:32Z</time></trkpt><trkpt lat="42.74632841162347" lon="12.898398171231921"><ele>1168.8</ele><time>2026-04-04T09:18:33Z</time></trkpt><trkpt lat="42.746235323621" lon="12.898379502931162"><ele>1169.0</ele><time>2026-04-04T09:18:34Z</time></trkpt><trkpt lat="42.74615489799665" lon="12.898355557465843"><ele>1171.4</ele><time>2026-04-04T09:18:35Z</time></trkpt><trkpt lat="42.74604106537925" lon="12.898343400854673"><ele>1173.8000000000002</ele><time>2026-04-04T09:18:37Z</time></trkpt><trkpt lat="42.74598295082856" lon="12.89838078735792"><ele>1176.1999999999998</ele><time>2026-04-04T09:18:38Z</time></trkpt><trkpt lat="42.74590015089677" lon="12.89839842569401"><ele>1178.6</ele><time>2026-04-04T09:18:39Z</time></trkpt><trkpt lat="42.74577196052885" lon="12.89842533782513"><ele>1181.0</ele><time>2026-04-04T09:18:40Z</time></trkpt><trkpt lat="42.74567249075202" lon="12.898447408083339"><ele>1181.0</ele><time>2026-04-04T09:18:41Z</time></trkpt><trkpt lat="42.745592844160115" lon="12.898466027154761"><ele>1181.0</ele><time>2026-04-04T09:18:42Z</time></trkpt><trkpt lat="42.74551486312245" lon="12.898487423714048"><ele>1181.0</ele><time>2026-04-04T09:18:43Z</time></trkpt><trkpt lat="42.74542268246653" lon="12.898548595451151"><ele>1181.0</ele><time>2026-04-04T09:18:45Z</time></trkpt><trkpt lat="42.74535185769104" lon="12.89855505878537"><ele>1181.0</ele><time>2026-04-04T09:18:47Z</time></trkpt><trkpt lat="42.745281915167624" lon="12.898560791330503"><ele>1181.0</ele><time>2026-04-04T09:18:49Z</time></trkpt><trkpt lat="42.74516641748833" lon="12.898641974426633"><ele>1182.8333333333335</ele><time>2026-04-04T09:18:51Z</time></trkpt><trkpt lat="42.74510265305232" lon="12.898647833009417"><ele>1184.6666666666667</ele><time>2026-04-04T09:18:52Z</time></trkpt><trkpt lat="42.74501775879062" lon="12.898646991295251"><ele>1186.5</ele><time>2026-04-04T09:18:53Z</time></trkpt><trkpt lat="42.744941997151315" lon="12.898682098013259"><ele>1188.3333333333333</ele><time>2026-04-04T09:18:55Z</time></trkpt><trkpt lat="42.74488871494881" lon="12.898738949072014"><ele>1190.1666666666665</ele><time>2026-04-04T09:18:56Z</time></trkpt><trkpt lat="42.744818926195634" lon="12.898785214606074"><ele>1192.0</ele><time>2026-04-04T09:18:57Z</time></trkpt><trkpt lat="42.74469852172975" lon="12.898796164022231"><ele>1192.0</ele><time>2026-04-04T09:18:59Z</time></trkpt><trkpt lat="42.744604097644476" lon="12.898819633531083"><ele>1192.0</ele><time>2026-04-04T09:19:01Z</time></trkpt><trkpt lat="42.744538210605235" lon="12.898820435850276"><ele>1192.0</ele><time>2026-04-04T09:19:04Z</time></trkpt><trkpt lat="42.74446954313466" lon="12.898754397095637"><ele>1192.0</ele><time>2026-04-04T09:19:08Z</time></trkpt><trkpt lat="42.74438985469707" lon="12.898769176449376"><ele>1192.0</ele><time>2026-04-04T09:19:12Z</time></trkpt><trkpt lat="42.7443733069124" lon="12.898670550621901"><ele>1192.0</ele><time>2026-04-04T09:19:14Z</time></trkpt><trkpt lat="42.744371017130284" lon="12.89855813447661"><ele>1192.0</ele><time>2026-04-04T09:19:16Z</time></trkpt><trkpt lat="42.74427434230111" lon="12.89861012455462"><ele>1192.0</ele><time>2026-04-04T09:19:19Z</time></trkpt><trkpt lat="42.74419926151988" lon="12.89859700375553"><ele>1192.0</ele><time>2026-04-04T09:19:21Z</time></trkpt><trkpt lat="42.74412041513712" lon="12.89857600057003"><ele>1192.0</ele><time>2026-04-04T09:19:23Z</time></trkpt><trkpt lat="42.74407332241457" lon="12.898677453435361"><ele>1192.0</ele><time>2026-04-04T09:19:27Z</time></trkpt><trkpt lat="42.744053546917876" lon="12.8987812942632"><ele>1192.0</ele><time>2026-04-04T09:19:30Z</time></trkpt><trkpt lat="42.74409456878626" lon="12.898903402095959"><ele>1192.0</ele><time>2026-04-04T09:19:33Z</time></trkpt><trkpt lat="42.744162728423355" lon="12.898991583757892"><ele>1192.0</ele><time>2026-04-04T09:19:35Z</time></trkpt><trkpt lat="42.744262837571384" lon="12.899078397006548"><ele>1192.0</ele><time>2026-04-04T09:19:37Z</time></trkpt><trkpt lat="42.74426845457359" lon="12.89920459760922"><ele>1192.0</ele><time>2026-04-04T09:19:40Z</time></trkpt><trkpt lat="42.74426576181417" lon="12.899296261241073"><ele>1192.0</ele><time>2026-04-04T09:19:41Z</time></trkpt><trkpt lat="42.74423584263286" lon="12.899435607373485"><ele>1191.2</ele><time>2026-04-04T09:19:44Z</time></trkpt><trkpt lat="42.74419601097994" lon="12.899511280824631"><ele>1190.4</ele><time>2026-04-04T09:19:46Z</time></trkpt><trkpt lat="42.744093829453924" lon="12.899515785109346"><ele>1189.6</ele><time>2026-04-04T09:19:53Z</time></trkpt><trkpt lat="42.74398761320258" lon="12.899540824167607"><ele>1188.8</ele><time>2026-04-04T09:19:55Z</time></trkpt><trkpt lat="42.743938283262466" lon="12.899444217591821"><ele>1188.0</ele><time>2026-04-04T09:19:59Z</time></trkpt><trkpt lat="42.74391998106258" lon="12.899324307624243"><ele>1188.6666666666667</ele><time>2026-04-04T09:20:09Z</time></trkpt><trkpt lat="42.74389397477872" lon="12.899245165404118"><ele>1189.3333333333333</ele><time>2026-04-04T09:20:10Z</time></trkpt><trkpt lat="42.74386640424094" lon="12.899167082018948"><ele>1190.0</ele><time>2026-04-04T09:20:12Z</time></trkpt><trkpt lat="42.74383759319862" lon="12.89902814876172"><ele>1190.6666666666665</ele><time>2026-04-04T09:20:27Z</time></trkpt><trkpt lat="42.743819639857925" lon="12.898898547293042"><ele>1191.3333333333333</ele><time>2026-04-04T09:20:28Z</time></trkpt><trkpt lat="42.74380003975521" lon="12.898759527419118"><ele>1192.0</ele><time>2026-04-04T09:20:29Z</time></trkpt><trkpt lat="42.74376909037142" lon="12.898601343195132"><ele>1192.0</ele><time>2026-04-04T09:20:30Z</time></trkpt><trkpt lat="42.74374042107217" lon="12.89847387717496"><ele>1192.0</ele><time>2026-04-04T09:20:31Z</time></trkpt><trkpt lat="42.74371909885186" lon="12.89839118125858"><ele>1192.0</ele><time>2026-04-04T09:20:32Z</time></trkpt><trkpt lat="42.74363549714305" lon="12.898277582625408"><ele>1192.0</ele><time>2026-04-04T09:20:34Z</time></trkpt><trkpt lat="42.743530405904366" lon="12.89813781924669"><ele>1192.0</ele><time>2026-04-04T09:20:35Z</time></trkpt><trkpt lat="42.743428883192976" lon="12.898013230404269"><ele>1195.25</ele><time>2026-04-04T09:20:36Z</time></trkpt><trkpt lat="42.74331538598786" lon="12.89791600007175"><ele>1198.5</ele><time>2026-04-04T09:20:37Z</time></trkpt><trkpt lat="42.74320237337808" lon="12.897821698100184"><ele>1201.75</ele><time>2026-04-04T09:20:38Z</time></trkpt><trkpt lat="42.74312465038854" lon="12.897727736857423"><ele>1205.0</ele><time>2026-04-04T09:20:39Z</time></trkpt><trkpt lat="42.74301715139115" lon="12.897680626394662"><ele>1205.0</ele><time>2026-04-04T09:20:40Z</time></trkpt><trkpt lat="42.74292408427209" lon="12.897652448661255"><ele>1205.0</ele><time>2026-04-04T09:20:41Z</time></trkpt><trkpt lat="42.74280086715526" lon="12.897630700940553"><ele>1205.0</ele><time>2026-04-04T09:20:42Z</time></trkpt><trkpt lat="42.742665773234265" lon="12.897626560993102"><ele>1205.0</ele><time>2026-04-04T09:20:43Z</time></trkpt><trkpt lat="42.742512535190976" lon="12.897643921890262"><ele>1209.5</ele><time>2026-04-04T09:20:44Z</time></trkpt><trkpt lat="42.74235936313015" lon="12.897663981289222"><ele>1214.0</ele><time>2026-04-04T09:20:45Z</time></trkpt><trkpt lat="42.74222645002841" lon="12.897694050759982"><ele>1218.5</ele><time>2026-04-04T09:20:46Z</time></trkpt><trkpt lat="42.742098898746946" lon="12.897736992335075"><ele>1223.0</ele><time>2026-04-04T09:20:47Z</time></trkpt><trkpt lat="42.74198943153593" lon="12.897759236279535"><ele>1224.3333333333335</ele><time>2026-04-04T09:20:48Z</time></trkpt><trkpt lat="42.74188169327976" lon="12.897750097815921"><ele>1225.6666666666667</ele><time>2026-04-04T09:20:49Z</time></trkpt><trkpt lat="42.741775491869284" lon="12.89773785481668"><ele>1227.0</ele><time>2026-04-04T09:20:50Z</time></trkpt><trkpt lat="42.74169508808604" lon="12.897739253669807"><ele>1228.3333333333333</ele><time>2026-04-04T09:20:51Z</time></trkpt><trkpt lat="42.7416282332787" lon="12.89774362405696"><ele>1229.6666666666665</ele><time>2026-04-04T09:21:05Z</time></trkpt><trkpt lat="42.74154698739424" lon="12.89773921643878"><ele>1231.0</ele><time>2026-04-04T09:21:08Z</time></trkpt><trkpt lat="42.741465420794846" lon="12.897736589825687"><ele>1231.0</ele><time>2026-04-04T09:21:16Z</time></trkpt><trkpt lat="42.7414153949893" lon="12.897678768506152"><ele>1231.0</ele><time>2026-04-04T09:21:18Z</time></trkpt><trkpt lat="42.741439587349795" lon="12.897566428248995"><ele>1231.0</ele><time>2026-04-04T09:21:20Z</time></trkpt><trkpt lat="42.74156398599091" lon="12.897541318467148"><ele>1231.0</ele><time>2026-04-04T09:21:22Z</time></trkpt><trkpt lat="42.74167697400062" lon="12.897472574041101"><ele>1231.0</ele><time>2026-04-04T09:21:24Z</time></trkpt><trkpt lat="42.74168859031298" lon="12.897341688467176"><ele>1228.0</ele><time>2026-04-04T09:21:26Z</time></trkpt><trkpt lat="42.74169723351921" lon="12.897193880334374"><ele>1225.0</ele><time>2026-04-04T09:21:28Z</time></trkpt><trkpt lat="42.741669426290926" lon="12.8970840951898"><ele>1222.0</ele><time>2026-04-04T09:21:30Z</time></trkpt><trkpt lat="42.74171060486816" lon="12.896858230866814"><ele>1219.0</ele><time>2026-04-04T09:21:32Z</time></trkpt><trkpt lat="42.741765439646706" lon="12.896682031309645"><ele>1219.0</ele><time>2026-04-04T09:21:33Z</time></trkpt><trkpt lat="42.741812118890614" lon="12.896510173562929"><ele>1219.0</ele><time>2026-04-04T09:21:34Z</time></trkpt><trkpt lat="42.74185700727382" lon="12.896362180241931"><ele>1219.0</ele><time>2026-04-04T09:21:35Z</time></trkpt><trkpt lat="42.741941356977705" lon="12.896202720126803"><ele>1219.0</ele><time>2026-04-04T09:21:36Z</time></trkpt><trkpt lat="42.742003671949" lon="12.896085238572923"><ele>1220.4</ele><time>2026-04-04T09:21:37Z</time></trkpt><trkpt lat="42.74203658328568" lon="12.895993217813352"><ele>1221.8000000000002</ele><time>2026-04-04T09:21:38Z</time></trkpt><trkpt lat="42.74204697617514" lon="12.895891190851058"><ele>1223.1999999999998</ele><time>2026-04-04T09:21:39Z</time></trkpt><trkpt lat="42.74205347306679" lon="12.895713693498857"><ele>1224.6</ele><time>2026-04-04T09:21:40Z</time></trkpt><trkpt lat="42.74207864928808" lon="12.895557024035613"><ele>1226.0</ele><time>2026-04-04T09:21:41Z</time></trkpt><trkpt lat="42.7420939731215" lon="12.895405734298173"><ele>1226.0</ele><time>2026-04-04T09:21:42Z</time></trkpt><trkpt lat="42.74210643067407" lon="12.895294202098453"><ele>1226.0</ele><time>2026-04-04T09:21:43Z</time></trkpt><trkpt lat="42.74205487233036" lon="12.89515986237839"><ele>1226.0</ele><time>2026-04-04T09:21:45Z</time></trkpt><trkpt lat="42.741983819920954" lon="12.895059591674563"><ele>1226.0</ele><time>2026-04-04T09:21:46Z</time></trkpt><trkpt lat="42.74188427513392" lon="12.894917160513048"><ele>1226.0</ele><time>2026-04-04T09:21:47Z</time></trkpt><trkpt lat="42.74178155965499" lon="12.89476778512287"><ele>1230.5</ele><time>2026-04-04T09:21:48Z</time></trkpt><trkpt lat="42.741699059206226" lon="12.894651092588624"><ele>1235.0</ele><time>2026-04-04T09:21:49Z</time></trkpt><trkpt lat="42.741615371698586" lon="12.894554790299955"><ele>1239.5</ele><time>2026-04-04T09:21:50Z</time></trkpt><trkpt lat="42.741507196297086" lon="12.894474265512144"><ele>1244.0</ele><time>2026-04-04T09:21:51Z</time></trkpt><trkpt lat="42.7414047946322" lon="12.89440839676262"><ele>1244.0</ele><time>2026-04-04T09:21:52Z</time></trkpt><trkpt lat="42.74132729815797" lon="12.894352661946336"><ele>1244.0</ele><time>2026-04-04T09:21:53Z</time></trkpt><trkpt lat="42.74125850691518" lon="12.894301599332435"><ele>1244.0</ele><time>2026-04-04T09:21:54Z</time></trkpt><trkpt lat="42.741179025226415" lon="12.894248315379194"><ele>1244.0</ele><time>2026-04-04T09:21:55Z</time></trkpt><trkpt lat="42.74108815761713" lon="12.894181421621688"><ele>1244.0</ele><time>2026-04-04T09:21:56Z</time></trkpt><trkpt lat="42.74102835739025" lon="12.894123042881901"><ele>1244.0</ele><time>2026-04-04T09:21:57Z</time></trkpt><trkpt lat="42.74095962365455" lon="12.89406141566466"><ele>1245.3333333333335</ele><time>2026-04-04T09:21:58Z</time></trkpt><trkpt lat="42.74089304115045" lon="12.894001602689142"><ele>1246.6666666666667</ele><time>2026-04-04T09:21:59Z</time></trkpt><trkpt lat="42.740829490509576" lon="12.893944117820785"><ele>1248.0</ele><time>2026-04-04T09:22:00Z</time></trkpt><trkpt lat="42.74073802469849" lon="12.893865619490679"><ele>1249.3333333333333</ele><time>2026-04-04T09:22:02Z</time></trkpt><trkpt lat="42.74067065442461" lon="12.893830590099887"><ele>1250.6666666666665</ele><time>2026-04-04T09:22:04Z</time></trkpt><trkpt lat="42.74060624763406" lon="12.893773997075712"><ele>1252.0</ele><time>2026-04-04T09:22:08Z</time></trkpt><trkpt lat="42.74054845852387" lon="12.89372874984004"><ele>1252.0</ele><time>2026-04-04T09:22:11Z</time></trkpt><trkpt lat="42.7404779917486" lon="12.89368451783908"><ele>1252.0</ele><time>2026-04-04T09:22:14Z</time></trkpt><trkpt lat="42.74042132834114" lon="12.893636051330049"><ele>1252.0</ele><time>2026-04-04T09:22:16Z</time></trkpt><trkpt lat="42.740353677963405" lon="12.893614945606533"><ele>1252.0</ele><time>2026-04-04T09:22:20Z</time></trkpt><trkpt lat="42.74029041690289" lon="12.893609567610877"><ele>1252.0</ele><time>2026-04-04T09:22:36Z</time></trkpt><trkpt lat="42.74021405794967" lon="12.893620770560902"><ele>1252.0</ele><time>2026-04-04T09:22:41Z</time></trkpt><trkpt lat="42.74011977966408" lon="12.893612467611996"><ele>1252.0</ele><time>2026-04-04T09:22:43Z</time></trkpt><trkpt lat="42.73999912571612" lon="12.893623732733076"><ele>1254.5714285714284</ele><time>2026-04-04T09:22:45Z</time></trkpt><trkpt lat="42.73993303697778" lon="12.893619795036278"><ele>1257.142857142857</ele><time>2026-04-04T09:22:46Z</time></trkpt><trkpt lat="42.739866402460535" lon="12.8936110048423"><ele>1259.7142857142858</ele><time>2026-04-04T09:22:47Z</time></trkpt><trkpt lat="42.73979333929618" lon="12.893603423866903"><ele>1262.2857142857142</ele><time>2026-04-04T09:22:48Z</time></trkpt><trkpt lat="42.73972443329927" lon="12.893613255647335"><ele>1264.857142857143</ele><time>2026-04-04T09:22:49Z</time></trkpt><trkpt lat="42.739627771916744" lon="12.893613446753825"><ele>1267.4285714285713</ele><time>2026-04-04T09:22:51Z</time></trkpt><trkpt lat="42.739552818950166" lon="12.89362363056544"><ele>1270.0</ele><time>2026-04-04T09:22:52Z</time></trkpt><trkpt lat="42.73945918067069" lon="12.893643047304522"><ele>1271.0</ele><time>2026-04-04T09:22:53Z</time></trkpt><trkpt lat="42.739341037579656" lon="12.893676667709837"><ele>1272.0</ele><time>2026-04-04T09:22:55Z</time></trkpt><trkpt lat="42.739278577995" lon="12.893706141782243"><ele>1273.0</ele><time>2026-04-04T09:22:56Z</time></trkpt><trkpt lat="42.7392168051187" lon="12.893756837272191"><ele>1274.0</ele><time>2026-04-04T09:22:57Z</time></trkpt><trkpt lat="42.73914909927165" lon="12.893812341942187"><ele>1275.0</ele><time>2026-04-04T09:22:58Z</time></trkpt><trkpt lat="42.73907572683792" lon="12.893842417181903"><ele>1276.0</ele><time>2026-04-04T09:22:59Z</time></trkpt><trkpt lat="42.73898857924292" lon="12.893879769152788"><ele>1276.0</ele><time>2026-04-04T09:23:00Z</time></trkpt><trkpt lat="42.738907117870184" lon="12.893911189885044"><ele>1276.0</ele><time>2026-04-04T09:23:01Z</time></trkpt><trkpt lat="42.73883079458337" lon="12.893934408310063"><ele>1276.0</ele><time>2026-04-04T09:23:02Z</time></trkpt><trkpt lat="42.73876179426024" lon="12.893975487888616"><ele>1276.0</ele><time>2026-04-04T09:23:03Z</time></trkpt><trkpt lat="42.73869958647001" lon="12.894021561861251"><ele>1276.0</ele><time>2026-04-04T09:23:04Z</time></trkpt><trkpt lat="42.7386344428268" lon="12.894083144374916"><ele>1276.0</ele><time>2026-04-04T09:23:05Z</time></trkpt><trkpt lat="42.73857048027681" lon="12.894217038916809"><ele>1277.8333333333333</ele><time>2026-04-04T09:23:07Z</time></trkpt><trkpt lat="42.73852932734258" lon="12.894327177821507"><ele>1279.6666666666665</ele><time>2026-04-04T09:23:08Z</time></trkpt><trkpt lat="42.73849287727893" lon="12.894441819944188"><ele>1281.5</ele><time>2026-04-04T09:23:09Z</time></trkpt><trkpt lat="42.73846452862659" lon="12.894548540249819"><ele>1283.3333333333333</ele><time>2026-04-04T09:23:10Z</time></trkpt><trkpt lat="42.73843540870521" lon="12.894628677393007"><ele>1285.1666666666667</ele><time>2026-04-04T09:23:12Z</time></trkpt><trkpt lat="42.73839345028761" lon="12.894724043330358"><ele>1287.0</ele><time>2026-04-04T09:25:12Z</time></trkpt><trkpt lat="42.738354481067155" lon="12.894835887895663"><ele>1287.0</ele><time>2026-04-04T09:25:15Z</time></trkpt><trkpt lat="42.738290973917756" lon="12.894938760166532"><ele>1287.0</ele><time>2026-04-04T09:25:17Z</time></trkpt><trkpt lat="42.738242151462174" lon="12.895031885919359"><ele>1287.0</ele><time>2026-04-04T09:25:19Z</time></trkpt><trkpt lat="42.738239773645006" lon="12.895147559862894"><ele>1287.0</ele><time>2026-04-04T09:25:21Z</time></trkpt><trkpt lat="42.73821105088849" lon="12.895262062422276"><ele>1287.0</ele><time>2026-04-04T09:25:23Z</time></trkpt><trkpt lat="42.73821477543069" lon="12.895373909162863"><ele>1287.0</ele><time>2026-04-04T09:25:25Z</time></trkpt><trkpt lat="42.73824144716227" lon="12.895484025939185"><ele>1287.0</ele><time>2026-04-04T09:25:27Z</time></trkpt><trkpt lat="42.73826656450246" lon="12.89557526885348"><ele>1287.0</ele><time>2026-04-04T09:25:29Z</time></trkpt><trkpt lat="42.73827980014512" lon="12.89567343292474"><ele>1287.0</ele><time>2026-04-04T09:25:33Z</time></trkpt><trkpt lat="42.738278095028555" lon="12.895764542429477"><ele>1287.0</ele><time>2026-04-04T09:25:36Z</time></trkpt><trkpt lat="42.73827342053359" lon="12.895868469047548"><ele>1287.0</ele><time>2026-04-04T09:25:39Z</time></trkpt><trkpt lat="42.73822112667214" lon="12.895944558029"><ele>1287.0</ele><time>2026-04-04T09:25:42Z</time></trkpt><trkpt lat="42.73819432955401" lon="12.896033522471216"><ele>1287.0</ele><time>2026-04-04T09:25:44Z</time></trkpt><trkpt lat="42.738195721403606" lon="12.896120996608886"><ele>1283.8</ele><time>2026-04-04T09:25:45Z</time></trkpt><trkpt lat="42.73817061747265" lon="12.896281720851006"><ele>1280.6</ele><time>2026-04-04T09:25:47Z</time></trkpt><trkpt lat="42.7381440803677" lon="12.896395277671665"><ele>1277.3999999999999</ele><time>2026-04-04T09:25:49Z</time></trkpt><trkpt lat="42.7381512767387" lon="12.896523153344342"><ele>1274.1999999999998</ele><time>2026-04-04T09:25:52Z</time></trkpt><trkpt lat="42.73816301917802" lon="12.896624100759443"><ele>1271.0</ele><time>2026-04-04T09:25:54Z</time></trkpt><trkpt lat="42.73815801238757" lon="12.896724308655063"><ele>1268.8333333333335</ele><time>2026-04-04T09:25:56Z</time></trkpt><trkpt lat="42.738178091350505" lon="12.896810734909373"><ele>1266.6666666666667</ele><time>2026-04-04T09:26:00Z</time></trkpt><trkpt lat="42.73817145096757" lon="12.89692769339132"><ele>1264.5</ele><time>2026-04-04T09:26:05Z</time></trkpt><trkpt lat="42.738147063100996" lon="12.897079110484299"><ele>1262.3333333333333</ele><time>2026-04-04T09:26:07Z</time></trkpt><trkpt lat="42.73812048207073" lon="12.897193726494967"><ele>1260.1666666666665</ele><time>2026-04-04T09:26:09Z</time></trkpt><trkpt lat="42.73807869186182" lon="12.897262714300991"><ele>1258.0</ele><time>2026-04-04T09:26:12Z</time></trkpt><trkpt lat="42.73801828695214" lon="12.897346160259644"><ele>1258.0</ele><time>2026-04-04T09:26:16Z</time></trkpt><trkpt lat="42.73797924356909" lon="12.897428351390804"><ele>1258.0</ele><time>2026-04-04T09:26:21Z</time></trkpt><trkpt lat="42.73796818736693" lon="12.89751748754243"><ele>1258.0</ele><time>2026-04-04T09:26:25Z</time></trkpt><trkpt lat="42.737981736199465" lon="12.897605176602667"><ele>1258.0</ele><time>2026-04-04T09:26:29Z</time></trkpt><trkpt lat="42.738035617919344" lon="12.897653998613059"><ele>1258.0</ele><time>2026-04-04T09:26:32Z</time></trkpt><trkpt lat="42.738125085689255" lon="12.897695859931925"><ele>1258.0</ele><time>2026-04-04T09:26:34Z</time></trkpt><trkpt lat="42.73819891437578" lon="12.897719997936294"><ele>1258.0</ele><time>2026-04-04T09:26:36Z</time></trkpt><trkpt lat="42.73828727011684" lon="12.897718357756148"><ele>1257.8333333333333</ele><time>2026-04-04T09:26:38Z</time></trkpt><trkpt lat="42.738353615974276" lon="12.89771746132752"><ele>1257.6666666666665</ele><time>2026-04-04T09:26:40Z</time></trkpt><trkpt lat="42.73844284901576" lon="12.897732463527522"><ele>1257.5</ele><time>2026-04-04T09:26:43Z</time></trkpt><trkpt lat="42.73852628984551" lon="12.897771844645288"><ele>1257.3333333333333</ele><time>2026-04-04T09:26:45Z</time></trkpt><trkpt lat="42.73860654976458" lon="12.897813952634467"><ele>1257.1666666666667</ele><time>2026-04-04T09:26:47Z</time></trkpt><trkpt lat="42.73867403582831" lon="12.897857366270733"><ele>1257.0</ele><time>2026-04-04T09:26:49Z</time></trkpt><trkpt lat="42.7387769629809" lon="12.89788462555591"><ele>1257.0</ele><time>2026-04-04T09:26:51Z</time></trkpt><trkpt lat="42.73887802622568" lon="12.897887945816308"><ele>1257.0</ele><time>2026-04-04T09:26:53Z</time></trkpt><trkpt lat="42.738964905249915" lon="12.897887322256446"><ele>1257.0</ele><time>2026-04-04T09:26:55Z</time></trkpt><trkpt lat="42.73904593758811" lon="12.897892539741415"><ele>1257.0</ele><time>2026-04-04T09:26:56Z</time></trkpt><trkpt lat="42.739150806587624" lon="12.897936269350016"><ele>1257.0</ele><time>2026-04-04T09:26:58Z</time></trkpt><trkpt lat="42.739257953220054" lon="12.897912184297434"><ele>1256.0</ele><time>2026-04-04T09:27:00Z</time></trkpt><trkpt lat="42.73939062749802" lon="12.897875053806965"><ele>1255.0</ele><time>2026-04-04T09:27:02Z</time></trkpt><trkpt lat="42.73945747131579" lon="12.897875091900552"><ele>1254.0</ele><time>2026-04-04T09:27:03Z</time></trkpt><trkpt lat="42.739555176001296" lon="12.897856931945238"><ele>1253.0</ele><time>2026-04-04T09:27:04Z</time></trkpt><trkpt lat="42.739635137104685" lon="12.897853824573723"><ele>1252.0</ele><time>2026-04-04T09:27:05Z</time></trkpt><trkpt lat="42.73971449783893" lon="12.89786091911315"><ele>1252.0</ele><time>2026-04-04T09:27:06Z</time></trkpt><trkpt lat="42.73978181853782" lon="12.897856474133514"><ele>1252.0</ele><time>2026-04-04T09:27:07Z</time></trkpt><trkpt lat="42.73988597835888" lon="12.89786628709888"><ele>1252.0</ele><time>2026-04-04T09:27:08Z</time></trkpt><trkpt lat="42.73997700392995" lon="12.897881545893567"><ele>1252.0</ele><time>2026-04-04T09:27:09Z</time></trkpt><trkpt lat="42.74007308986702" lon="12.897907491158005"><ele>1252.0</ele><time>2026-04-04T09:27:10Z</time></trkpt><trkpt lat="42.740171430941366" lon="12.897927337780612"><ele>1250.1666666666665</ele><time>2026-04-04T09:27:11Z</time></trkpt><trkpt lat="42.74027110737516" lon="12.897915823878215"><ele>1248.3333333333333</ele><time>2026-04-04T09:27:12Z</time></trkpt><trkpt lat="42.74036133453832" lon="12.897925619023546"><ele>1246.5</ele><time>2026-04-04T09:27:13Z</time></trkpt><trkpt lat="42.74044406029072" lon="12.897936300963265"><ele>1244.6666666666667</ele><time>2026-04-04T09:27:14Z</time></trkpt><trkpt lat="42.74051586193517" lon="12.897930315835717"><ele>1242.8333333333335</ele><time>2026-04-04T09:27:15Z</time></trkpt><trkpt lat="42.74060118825376" lon="12.897932527370347"><ele>1241.0</ele><time>2026-04-04T09:27:16Z</time></trkpt><trkpt lat="42.740699924535804" lon="12.89794314508551"><ele>1241.0</ele><time>2026-04-04T09:27:17Z</time></trkpt><trkpt lat="42.74079888155455" lon="12.897955413676943"><ele>1241.0</ele><time>2026-04-04T09:27:18Z</time></trkpt><trkpt lat="42.740893926605274" lon="12.89794637770233"><ele>1241.0</ele><time>2026-04-04T09:27:19Z</time></trkpt><trkpt lat="42.740987121458524" lon="12.897927954838787"><ele>1241.0</ele><time>2026-04-04T09:27:20Z</time></trkpt><trkpt lat="42.74106453926645" lon="12.897925874390504"><ele>1241.0</ele><time>2026-04-04T09:27:21Z</time></trkpt><trkpt lat="42.74114173430952" lon="12.897932584876958"><ele>1241.0</ele><time>2026-04-04T09:27:22Z</time></trkpt><trkpt lat="42.74123417135397" lon="12.897940957474926"><ele>1239.3333333333335</ele><time>2026-04-04T09:27:23Z</time></trkpt><trkpt lat="42.74132031968653" lon="12.897936300641238"><ele>1237.6666666666667</ele><time>2026-04-04T09:27:24Z</time></trkpt><trkpt lat="42.741396088177126" lon="12.897951793724747"><ele>1236.0</ele><time>2026-04-04T09:27:25Z</time></trkpt><trkpt lat="42.7414797930253" lon="12.8979390979501"><ele>1234.3333333333333</ele><time>2026-04-04T09:27:26Z</time></trkpt><trkpt lat="42.741565587363" lon="12.897931298685416"><ele>1232.6666666666665</ele><time>2026-04-04T09:27:27Z</time></trkpt><trkpt lat="42.74167047917785" lon="12.89790187284286"><ele>1231.0</ele><time>2026-04-04T09:27:28Z</time></trkpt><trkpt lat="42.74174535686974" lon="12.897886446331453"><ele>1231.0</ele><time>2026-04-04T09:27:29Z</time></trkpt><trkpt lat="42.7418372700926" lon="12.897894275186198"><ele>1231.0</ele><time>2026-04-04T09:27:30Z</time></trkpt><trkpt lat="42.74192595564779" lon="12.897837449088504"><ele>1231.0</ele><time>2026-04-04T09:27:31Z</time></trkpt><trkpt lat="42.742028865866494" lon="12.897779290691474"><ele>1231.0</ele><time>2026-04-04T09:27:32Z</time></trkpt><trkpt lat="42.742135810671506" lon="12.897728428050995"><ele>1231.0</ele><time>2026-04-04T09:27:33Z</time></trkpt><trkpt lat="42.742245387940095" lon="12.897688040521238"><ele>1229.0</ele><time>2026-04-04T09:27:34Z</time></trkpt><trkpt lat="42.7423889071489" lon="12.897647474438994"><ele>1227.0</ele><time>2026-04-04T09:27:35Z</time></trkpt><trkpt lat="42.74251684023867" lon="12.897624694986563"><ele>1225.0</ele><time>2026-04-04T09:27:36Z</time></trkpt><trkpt lat="42.74264892805633" lon="12.897618432988999"><ele>1223.0</ele><time>2026-04-04T09:27:37Z</time></trkpt><trkpt lat="42.742779596811026" lon="12.89762065231184"><ele>1220.0</ele><time>2026-04-04T09:27:38Z</time></trkpt><trkpt lat="42.742885912660874" lon="12.897624795181095"><ele>1217.0</ele><time>2026-04-04T09:27:39Z</time></trkpt><trkpt lat="42.742960044769475" lon="12.897654431435061"><ele>1214.0</ele><time>2026-04-04T09:27:40Z</time></trkpt><trkpt lat="42.74303444076517" lon="12.897675287615439"><ele>1211.0</ele><time>2026-04-04T09:27:42Z</time></trkpt><trkpt lat="42.743116613472644" lon="12.897706545491726"><ele>1208.0</ele><time>2026-04-04T09:27:49Z</time></trkpt><trkpt lat="42.74317812353847" lon="12.897750927990499"><ele>1205.0</ele><time>2026-04-04T09:27:50Z</time></trkpt><trkpt lat="42.743232831853014" lon="12.897815682232952"><ele>1205.0</ele><time>2026-04-04T09:27:51Z</time></trkpt><trkpt lat="42.74329219901005" lon="12.89788452691464"><ele>1205.0</ele><time>2026-04-04T09:27:52Z</time></trkpt><trkpt lat="42.74336905706755" lon="12.897948525915712"><ele>1205.0</ele><time>2026-04-04T09:27:53Z</time></trkpt><trkpt lat="42.74346568042402" lon="12.8980383389923"><ele>1205.0</ele><time>2026-04-04T09:27:54Z</time></trkpt><trkpt lat="42.743551710819666" lon="12.898133766206586"><ele>1205.0</ele><time>2026-04-04T09:27:55Z</time></trkpt><trkpt lat="42.743630842920396" lon="12.898236744658295"><ele>1202.8333333333335</ele><time>2026-04-04T09:27:56Z</time></trkpt><trkpt lat="42.743689222771785" lon="12.89832764165225"><ele>1200.6666666666667</ele><time>2026-04-04T09:27:57Z</time></trkpt><trkpt lat="42.74373723291226" lon="12.898399050713747"><ele>1198.5</ele><time>2026-04-04T09:27:58Z</time></trkpt><trkpt lat="42.74377191498452" lon="12.898523810264393"><ele>1196.3333333333333</ele><time>2026-04-04T09:28:00Z</time></trkpt><trkpt lat="42.74380279394347" lon="12.8986341584878"><ele>1194.1666666666665</ele><time>2026-04-04T09:28:01Z</time></trkpt><trkpt lat="42.74381764809861" lon="12.898754920644015"><ele>1192.0</ele><time>2026-04-04T09:28:02Z</time></trkpt><trkpt lat="42.74384085930254" lon="12.898910350499886"><ele>1192.0</ele><time>2026-04-04T09:28:03Z</time></trkpt><trkpt lat="42.74387524102492" lon="12.899074824980522"><ele>1192.0</ele><time>2026-04-04T09:28:04Z</time></trkpt><trkpt lat="42.74390613156025" lon="12.899234979589483"><ele>1192.0</ele><time>2026-04-04T09:28:05Z</time></trkpt><trkpt lat="42.743937726206966" lon="12.899402913338578"><ele>1192.0</ele><time>2026-04-04T09:28:06Z</time></trkpt><trkpt lat="42.743977826918574" lon="12.899557036388147"><ele>1191.0</ele><time>2026-04-04T09:28:07Z</time></trkpt><trkpt lat="42.744005523147436" lon="12.899708426121421"><ele>1190.0</ele><time>2026-04-04T09:28:08Z</time></trkpt><trkpt lat="42.743996651495706" lon="12.899875141240134"><ele>1189.0</ele><time>2026-04-04T09:28:09Z</time></trkpt><trkpt lat="42.74399807382209" lon="12.900028399454225"><ele>1188.0</ele><time>2026-04-04T09:28:10Z</time></trkpt><trkpt lat="42.74399869805563" lon="12.900203460836115"><ele>1187.2</ele><time>2026-04-04T09:28:11Z</time></trkpt><trkpt lat="42.74401882520447" lon="12.900350853673434"><ele>1186.4</ele><time>2026-04-04T09:28:12Z</time></trkpt><trkpt lat="42.74403097307291" lon="12.900501039213445"><ele>1185.6000000000001</ele><time>2026-04-04T09:28:13Z</time></trkpt><trkpt lat="42.74405697968395" lon="12.900648495845966"><ele>1184.8</ele><time>2026-04-04T09:28:14Z</time></trkpt><trkpt lat="42.7440518764656" lon="12.900805518650348"><ele>1184.0</ele><time>2026-04-04T09:28:15Z</time></trkpt><trkpt lat="42.74405035289294" lon="12.900959721171374"><ele>1183.3333333333335</ele><time>2026-04-04T09:28:16Z</time></trkpt><trkpt lat="42.744068509208994" lon="12.901079589182254"><ele>1182.6666666666667</ele><time>2026-04-04T09:28:17Z</time></trkpt><trkpt lat="42.74407681914982" lon="12.90118075160109"><ele>1182.0</ele><time>2026-04-04T09:28:18Z</time></trkpt><trkpt lat="42.744096992469125" lon="12.901266031885461"><ele>1181.3333333333333</ele><time>2026-04-04T09:28:19Z</time></trkpt><trkpt lat="42.74416673158374" lon="12.901405911085565"><ele>1180.6666666666665</ele><time>2026-04-04T09:28:21Z</time></trkpt><trkpt lat="42.74418152366883" lon="12.901495958426148"><ele>1180.0</ele><time>2026-04-04T09:28:22Z</time></trkpt><trkpt lat="42.744189444037936" lon="12.90162101006455"><ele>1179.5</ele><time>2026-04-04T09:28:23Z</time></trkpt><trkpt lat="42.74422613860921" lon="12.901765939135432"><ele>1179.0</ele><time>2026-04-04T09:28:24Z</time></trkpt><trkpt lat="42.744281551035556" lon="12.901961799120874"><ele>1178.5</ele><time>2026-04-04T09:28:25Z</time></trkpt><trkpt lat="42.74430840045589" lon="12.902131886929983"><ele>1178.0</ele><time>2026-04-04T09:28:26Z</time></trkpt><trkpt lat="42.74431070451655" lon="12.902292912271596"><ele>1178.0</ele><time>2026-04-04T09:28:27Z</time></trkpt><trkpt lat="42.744296687599345" lon="12.90252184928418"><ele>1178.0</ele><time>2026-04-04T09:28:28Z</time></trkpt><trkpt lat="42.74433724655138" lon="12.902807687340648"><ele>1178.0</ele><time>2026-04-04T09:28:29Z</time></trkpt><trkpt lat="42.74438622153429" lon="12.903064954009967"><ele>1175.0</ele><time>2026-04-04T09:28:30Z</time></trkpt><trkpt lat="42.74445916980674" lon="12.903307411085317"><ele>1172.0</ele><time>2026-04-04T09:28:31Z</time></trkpt><trkpt lat="42.74455962158258" lon="12.903486553104138"><ele>1169.0</ele><time>2026-04-04T09:28:32Z</time></trkpt><trkpt lat="42.744666756414254" lon="12.903655455900225"><ele>1169.0</ele><time>2026-04-04T09:28:33Z</time></trkpt><trkpt lat="42.74476678180455" lon="12.903852494381539"><ele>1169.0</ele><time>2026-04-04T09:28:34Z</time></trkpt><trkpt lat="42.74486529728802" lon="12.903993432115078"><ele>1169.0</ele><time>2026-04-04T09:28:35Z</time></trkpt><trkpt lat="42.744958347613064" lon="12.904136218368834"><ele>1169.0</ele><time>2026-04-04T09:28:36Z</time></trkpt><trkpt lat="42.74505825105548" lon="12.904333342062634"><ele>1169.0</ele><time>2026-04-04T09:28:37Z</time></trkpt><trkpt lat="42.74514071608153" lon="12.904555403039772"><ele>1169.0</ele><time>2026-04-04T09:28:38Z</time></trkpt><trkpt lat="42.745256812343854" lon="12.90479872824816"><ele>1169.0</ele><time>2026-04-04T09:28:39Z</time></trkpt><trkpt lat="42.74536912689125" lon="12.90499254863156"><ele>1169.0</ele><time>2026-04-04T09:28:40Z</time></trkpt><trkpt lat="42.74546315231566" lon="12.90517690033609"><ele>1169.0</ele><time>2026-04-04T09:28:41Z</time></trkpt><trkpt lat="42.74553978048573" lon="12.905338224030816"><ele>1168.6666666666667</ele><time>2026-04-04T09:28:42Z</time></trkpt><trkpt lat="42.74561345691983" lon="12.90550081496462"><ele>1168.3333333333333</ele><time>2026-04-04T09:28:43Z</time></trkpt><trkpt lat="42.74569925920421" lon="12.905671921331146"><ele>1168.0</ele><time>2026-04-04T09:28:44Z</time></trkpt><trkpt lat="42.74579779503001" lon="12.905850688954711"><ele>1166.25</ele><time>2026-04-04T09:28:45Z</time></trkpt><trkpt lat="42.7458969605187" lon="12.906011836591853"><ele>1164.5</ele><time>2026-04-04T09:28:46Z</time></trkpt><trkpt lat="42.745952756779616" lon="12.906192300472922"><ele>1162.75</ele><time>2026-04-04T09:28:47Z</time></trkpt><trkpt lat="42.74598059361005" lon="12.90637066572609"><ele>1161.0</ele><time>2026-04-04T09:28:48Z</time></trkpt><trkpt lat="42.74599359807129" lon="12.906591461666979"><ele>1159.0</ele><time>2026-04-04T09:28:49Z</time></trkpt><trkpt lat="42.74602360840132" lon="12.906847705187063"><ele>1157.0</ele><time>2026-04-04T09:28:50Z</time></trkpt><trkpt lat="42.746037918158855" lon="12.907060754629653"><ele>1155.0</ele><time>2026-04-04T09:28:51Z</time></trkpt><trkpt lat="42.74607204952433" lon="12.907314882792427"><ele>1160.3333333333333</ele><time>2026-04-04T09:28:52Z</time></trkpt><trkpt lat="42.74610775271685" lon="12.907549484693888"><ele>1165.6666666666665</ele><time>2026-04-04T09:28:53Z</time></trkpt><trkpt lat="42.74615613777628" lon="12.90778604520223"><ele>1171.0</ele><time>2026-04-04T09:28:54Z</time></trkpt><trkpt lat="42.74622454536029" lon="12.908041609846542"><ele>1171.0</ele><time>2026-04-04T09:28:55Z</time></trkpt><trkpt lat="42.74626018050419" lon="12.908303095073082"><ele>1171.0</ele><time>2026-04-04T09:28:56Z</time></trkpt><trkpt lat="42.74626474375994" lon="12.908565394656161"><ele>1171.0</ele><time>2026-04-04T09:28:57Z</time></trkpt><trkpt lat="42.74627460839394" lon="12.908798482119847"><ele>1170.6666666666665</ele><time>2026-04-04T09:28:58Z</time></trkpt><trkpt lat="42.74627895207525" lon="12.909030413039158"><ele>1170.3333333333333</ele><time>2026-04-04T09:28:59Z</time></trkpt><trkpt lat="42.74627803429184" lon="12.909265218214006"><ele>1170.0</ele><time>2026-04-04T09:29:00Z</time></trkpt><trkpt lat="42.74629849609986" lon="12.909514490036496"><ele>1167.3333333333333</ele><time>2026-04-04T09:29:01Z</time></trkpt><trkpt lat="42.74633839298319" lon="12.909755603924912"><ele>1164.6666666666665</ele><time>2026-04-04T09:29:02Z</time></trkpt><trkpt lat="42.74638090162616" lon="12.90999819886722"><ele>1162.0</ele><time>2026-04-04T09:29:03Z</time></trkpt><trkpt lat="42.7464018399923" lon="12.91017755283297"><ele>1160.2</ele><time>2026-04-04T09:29:04Z</time></trkpt><trkpt lat="42.7464248448269" lon="12.910307132204917"><ele>1158.4</ele><time>2026-04-04T09:29:05Z</time></trkpt><trkpt lat="42.7464617632827" lon="12.910406453672959"><ele>1156.6</ele><time>2026-04-04T09:29:06Z</time></trkpt><trkpt lat="42.74649211700448" lon="12.910566630795548"><ele>1154.8</ele><time>2026-04-04T09:29:08Z</time></trkpt><trkpt lat="42.74647184519609" lon="12.910699326427368"><ele>1153.0</ele><time>2026-04-04T09:29:10Z</time></trkpt><trkpt lat="42.74639367604723" lon="12.910671163765349"><ele>1153.0</ele><time>2026-04-04T09:29:12Z</time></trkpt><trkpt lat="42.74635365617768" lon="12.910462810430793"><ele>1153.0</ele><time>2026-04-04T09:29:14Z</time></trkpt><trkpt lat="42.74629097817368" lon="12.910323860924914"><ele>1153.0</ele><time>2026-04-04T09:29:15Z</time></trkpt><trkpt lat="42.74623567006304" lon="12.910230317561044"><ele>1153.0</ele><time>2026-04-04T09:29:16Z</time></trkpt><trkpt lat="42.74614488211792" lon="12.910190966380439"><ele>1151.0</ele><time>2026-04-04T09:29:17Z</time></trkpt><trkpt lat="42.74603747158316" lon="12.91026742655187"><ele>1149.0</ele><time>2026-04-04T09:29:18Z</time></trkpt><trkpt lat="42.745970464511906" lon="12.910398476258045"><ele>1147.0</ele><time>2026-04-04T09:29:19Z</time></trkpt><trkpt lat="42.745986093898594" lon="12.910572940535426"><ele>1145.0</ele><time>2026-04-04T09:29:20Z</time></trkpt><trkpt lat="42.74601051055433" lon="12.910769182286147"><ele>1142.0</ele><time>2026-04-04T09:29:21Z</time></trkpt><trkpt lat="42.74601876286384" lon="12.910994829247056"><ele>1139.0</ele><time>2026-04-04T09:29:22Z</time></trkpt><trkpt lat="42.74600752825871" lon="12.911164439211918"><ele>1136.0</ele><time>2026-04-04T09:29:23Z</time></trkpt><trkpt lat="42.74597407328307" lon="12.911317880813915"><ele>1133.0</ele><time>2026-04-04T09:29:24Z</time></trkpt><trkpt lat="42.74590754707913" lon="12.911437229244985"><ele>1133.0</ele><time>2026-04-04T09:29:25Z</time></trkpt><trkpt lat="42.74580980214626" lon="12.911551664258122"><ele>1133.0</ele><time>2026-04-04T09:29:26Z</time></trkpt><trkpt lat="42.745705440898554" lon="12.91173794469227"><ele>1133.0</ele><time>2026-04-04T09:29:27Z</time></trkpt><trkpt lat="42.745640313581916" lon="12.911896667185149"><ele>1133.0</ele><time>2026-04-04T09:29:28Z</time></trkpt><trkpt lat="42.74558381567207" lon="12.91206398588086"><ele>1129.0</ele><time>2026-04-04T09:29:29Z</time></trkpt><trkpt lat="42.74553567274381" lon="12.912273983629326"><ele>1125.0</ele><time>2026-04-04T09:29:30Z</time></trkpt><trkpt lat="42.74549466720026" lon="12.91248975445421"><ele>1121.0</ele><time>2026-04-04T09:29:31Z</time></trkpt><trkpt lat="42.74545804265429" lon="12.912734350293423"><ele>1119.5</ele><time>2026-04-04T09:29:32Z</time></trkpt><trkpt lat="42.7454373337968" lon="12.912924920805613"><ele>1118.0</ele><time>2026-04-04T09:29:33Z</time></trkpt><trkpt lat="42.7454307971067" lon="12.913125786291674"><ele>1116.5</ele><time>2026-04-04T09:29:34Z</time></trkpt><trkpt lat="42.745429637096606" lon="12.913297825995327"><ele>1115.0</ele><time>2026-04-04T09:29:35Z</time></trkpt><trkpt lat="42.74542412406233" lon="12.913460731173927"><ele>1114.3333333333335</ele><time>2026-04-04T09:29:36Z</time></trkpt><trkpt lat="42.7454044356658" lon="12.913592991033521"><ele>1113.6666666666667</ele><time>2026-04-04T09:29:37Z</time></trkpt><trkpt lat="42.74537363196965" lon="12.913701989431019"><ele>1113.0</ele><time>2026-04-04T09:29:38Z</time></trkpt><trkpt lat="42.745318956221105" lon="12.913796660795711"><ele>1112.3333333333333</ele><time>2026-04-04T09:29:39Z</time></trkpt><trkpt lat="42.74527523428256" lon="12.913866126060626"><ele>1111.6666666666665</ele><time>2026-04-04T09:29:40Z</time></trkpt><trkpt lat="42.74520875093927" lon="12.913950333557926"><ele>1111.0</ele><time>2026-04-04T09:29:41Z</time></trkpt><trkpt lat="42.74512576196773" lon="12.914053422505349"><ele>1111.0</ele><time>2026-04-04T09:29:42Z</time></trkpt><trkpt lat="42.74505223180916" lon="12.914150083771805"><ele>1111.0</ele><time>2026-04-04T09:29:43Z</time></trkpt><trkpt lat="42.74500803509366" lon="12.914226464215538"><ele>1111.0</ele><time>2026-04-04T09:29:44Z</time></trkpt><trkpt lat="42.74496722052261" lon="12.914301089184951"><ele>1111.0</ele><time>2026-04-04T09:29:45Z</time></trkpt><trkpt lat="42.74492420847813" lon="12.914410089868454"><ele>1111.0</ele><time>2026-04-04T09:29:47Z</time></trkpt><trkpt lat="42.74489901118816" lon="12.914532063440157"><ele>1111.0</ele><time>2026-04-04T09:29:49Z</time></trkpt><trkpt lat="42.74489213933785" lon="12.914386791368967"><ele>1111.0</ele><time>2026-04-04T09:29:59Z</time></trkpt><trkpt lat="42.74474979179065" lon="12.914196735221944"><ele>1111.0</ele><time>2026-04-04T09:30:00Z</time></trkpt><trkpt lat="42.74467840821657" lon="12.914105403621301"><ele>1111.0</ele><time>2026-04-04T09:30:01Z</time></trkpt><trkpt lat="42.744673369797255" lon="12.914017358193206"><ele>1111.0</ele><time>2026-04-04T09:30:02Z</time></trkpt><trkpt lat="42.74462406792146" lon="12.913934102856093"><ele>1111.0</ele><time>2026-04-04T09:30:03Z</time></trkpt><trkpt lat="42.74456225715295" lon="12.913882846101359"><ele>1110.0</ele><time>2026-04-04T09:30:05Z</time></trkpt><trkpt lat="42.74410470290606" lon="12.914358828160974"><ele>1110.0</ele><time>2026-04-04T09:30:06Z</time></trkpt><trkpt lat="42.74401925839342" lon="12.914448465099362"><ele>1110.0</ele><time>2026-04-04T09:30:07Z</time></trkpt><trkpt lat="42.74391995730191" lon="12.914540375078827"><ele>1110.0</ele><time>2026-04-04T09:30:08Z</time></trkpt><trkpt lat="42.74381576112653" lon="12.914640733249307"><ele>1110.0</ele><time>2026-04-04T09:30:09Z</time></trkpt><trkpt lat="42.74370490514991" lon="12.914767379027609"><ele>1110.0</ele><time>2026-04-04T09:30:10Z</time></trkpt><trkpt lat="42.743597979141946" lon="12.91489484114371"><ele>1110.0</ele><time>2026-04-04T09:30:11Z</time></trkpt><trkpt lat="42.743503118121765" lon="12.915006418134386"><ele>1110.0</ele><time>2026-04-04T09:30:12Z</time></trkpt><trkpt lat="42.74338600267671" lon="12.915129987135153"><ele>1110.0</ele><time>2026-04-04T09:30:13Z</time></trkpt><trkpt lat="42.74327628964823" lon="12.915226247207698"><ele>1112.25</ele><time>2026-04-04T09:30:14Z</time></trkpt><trkpt lat="42.743156145471715" lon="12.91532840832029"><ele>1114.5</ele><time>2026-04-04T09:30:15Z</time></trkpt><trkpt lat="42.74302939646826" lon="12.915447761729462"><ele>1116.75</ele><time>2026-04-04T09:30:16Z</time></trkpt><trkpt lat="42.74291012552784" lon="12.915551952127483"><ele>1119.0</ele><time>2026-04-04T09:30:17Z</time></trkpt><trkpt lat="42.74282381082615" lon="12.91558298487032"><ele>1119.0</ele><time>2026-04-04T09:30:18Z</time></trkpt><trkpt lat="42.742748353062765" lon="12.915580038295234"><ele>1119.0</ele><time>2026-04-04T09:30:19Z</time></trkpt><trkpt lat="42.74265494925203" lon="12.915551067055011"><ele>1119.0</ele><time>2026-04-04T09:30:20Z</time></trkpt><trkpt lat="42.742533845872856" lon="12.9154863489758"><ele>1119.0</ele><time>2026-04-04T09:30:21Z</time></trkpt><trkpt lat="42.74242158818915" lon="12.915385691241813"><ele>1119.0</ele><time>2026-04-04T09:30:22Z</time></trkpt><trkpt lat="42.7422939978457" lon="12.915266285269684"><ele>1124.6666666666667</ele><time>2026-04-04T09:30:23Z</time></trkpt><trkpt lat="42.742165810413795" lon="12.915107428855327"><ele>1130.3333333333335</ele><time>2026-04-04T09:30:24Z</time></trkpt><trkpt lat="42.74203875850973" lon="12.91491549143508"><ele>1136.0</ele><time>2026-04-04T09:30:25Z</time></trkpt><trkpt lat="42.74192245506839" lon="12.914744047658841"><ele>1137.8</ele><time>2026-04-04T09:30:26Z</time></trkpt><trkpt lat="42.74183320091798" lon="12.914601028699703"><ele>1139.6</ele><time>2026-04-04T09:30:27Z</time></trkpt><trkpt lat="42.74175296372634" lon="12.914499702924731"><ele>1141.4</ele><time>2026-04-04T09:30:28Z</time></trkpt><trkpt lat="42.74166570618554" lon="12.914413131814447"><ele>1143.2</ele><time>2026-04-04T09:30:29Z</time></trkpt><trkpt lat="42.74160534776646" lon="12.914353693609463"><ele>1145.0</ele><time>2026-04-04T09:30:30Z</time></trkpt><trkpt lat="42.74156744857135" lon="12.914272134274762"><ele>1150.5</ele><time>2026-04-04T09:30:31Z</time></trkpt><trkpt lat="42.74152736407219" lon="12.914141594160604"><ele>1156.0</ele><time>2026-04-04T09:30:32Z</time></trkpt><trkpt lat="42.7415026711456" lon="12.9139766973828"><ele>1161.5</ele><time>2026-04-04T09:30:33Z</time></trkpt><trkpt lat="42.74150185170549" lon="12.913833980003796"><ele>1167.0</ele><time>2026-04-04T09:30:34Z</time></trkpt><trkpt lat="42.741527836155356" lon="12.913678362368838"><ele>1167.0</ele><time>2026-04-04T09:30:35Z</time></trkpt><trkpt lat="42.74158696476441" lon="12.91348539602294"><ele>1167.0</ele><time>2026-04-04T09:30:36Z</time></trkpt><trkpt lat="42.741670600412114" lon="12.913271495464457"><ele>1167.0</ele><time>2026-04-04T09:30:37Z</time></trkpt><trkpt lat="42.7417378500968" lon="12.913016266372397"><ele>1168.0</ele><time>2026-04-04T09:30:38Z</time></trkpt><trkpt lat="42.74178732294892" lon="12.912732639230345"><ele>1169.0</ele><time>2026-04-04T09:30:39Z</time></trkpt><trkpt lat="42.7418075057107" lon="12.912456175760182"><ele>1170.0</ele><time>2026-04-04T09:30:40Z</time></trkpt><trkpt lat="42.74180446103373" lon="12.912224545915036"><ele>1170.25</ele><time>2026-04-04T09:30:41Z</time></trkpt><trkpt lat="42.741794241307225" lon="12.911997914390302"><ele>1170.5</ele><time>2026-04-04T09:30:42Z</time></trkpt><trkpt lat="42.74177315230538" lon="12.911822594706623"><ele>1170.75</ele><time>2026-04-04T09:30:43Z</time></trkpt><trkpt lat="42.74173062597302" lon="12.911654586151391"><ele>1171.0</ele><time>2026-04-04T09:30:44Z</time></trkpt><trkpt lat="42.74165049735351" lon="12.911445361303269"><ele>1173.6666666666665</ele><time>2026-04-04T09:30:45Z</time></trkpt><trkpt lat="42.74156513382451" lon="12.911226283578086"><ele>1176.3333333333333</ele><time>2026-04-04T09:30:46Z</time></trkpt><trkpt lat="42.7414816105951" lon="12.910998401689458"><ele>1179.0</ele><time>2026-04-04T09:30:47Z</time></trkpt><trkpt lat="42.74139566064256" lon="12.910757434091359"><ele>1185.3333333333333</ele><time>2026-04-04T09:30:48Z</time></trkpt><trkpt lat="42.741320667540144" lon="12.91053886055534"><ele>1191.6666666666665</ele><time>2026-04-04T09:30:49Z</time></trkpt><trkpt lat="42.74125759361033" lon="12.910346398216278"><ele>1198.0</ele><time>2026-04-04T09:30:50Z</time></trkpt><trkpt lat="42.7412054164014" lon="12.910145622164487"><ele>1201.6666666666665</ele><time>2026-04-04T09:30:51Z</time></trkpt><trkpt lat="42.74114300083069" lon="12.909932328103903"><ele>1205.3333333333333</ele><time>2026-04-04T09:30:52Z</time></trkpt><trkpt lat="42.741078649312165" lon="12.909699904820656"><ele>1209.0</ele><time>2026-04-04T09:30:53Z</time></trkpt><trkpt lat="42.74100879331558" lon="12.90943950858471"><ele>1208.0</ele><time>2026-04-04T09:30:54Z</time></trkpt><trkpt lat="42.74093305442671" lon="12.909175100232874"><ele>1207.0</ele><time>2026-04-04T09:30:55Z</time></trkpt><trkpt lat="42.740862378643406" lon="12.908949284590072"><ele>1206.0</ele><time>2026-04-04T09:30:56Z</time></trkpt><trkpt lat="42.74080582838607" lon="12.908781789854379"><ele>1206.0</ele><time>2026-04-04T09:30:57Z</time></trkpt><trkpt lat="42.74076550452307" lon="12.90866249821968"><ele>1206.0</ele><time>2026-04-04T09:30:58Z</time></trkpt><trkpt lat="42.740746493960366" lon="12.90857583564"><ele>1206.0</ele><time>2026-04-04T09:30:59Z</time></trkpt><trkpt lat="42.74081228842163" lon="12.908544270889445"><ele>1206.0</ele><time>2026-04-04T09:31:01Z</time></trkpt><trkpt lat="42.740922799217614" lon="12.908592318491888"><ele>1206.0</ele><time>2026-04-04T09:31:03Z</time></trkpt><trkpt lat="42.74097925425764" lon="12.908681767478573"><ele>1206.0</ele><time>2026-04-04T09:31:04Z</time></trkpt><trkpt lat="42.74106156122547" lon="12.908771231046217"><ele>1209.25</ele><time>2026-04-04T09:31:05Z</time></trkpt><trkpt lat="42.74117762505771" lon="12.908845838912749"><ele>1212.5</ele><time>2026-04-04T09:31:06Z</time></trkpt><trkpt lat="42.74131630891302" lon="12.908912725090394"><ele>1215.75</ele><time>2026-04-04T09:31:07Z</time></trkpt><trkpt lat="42.741413214479785" lon="12.908936135933459"><ele>1219.0</ele><time>2026-04-04T09:31:08Z</time></trkpt><trkpt lat="42.74147877376636" lon="12.908862123040798"><ele>1219.0</ele><time>2026-04-04T09:31:10Z</time></trkpt><trkpt lat="42.74145321795564" lon="12.908725528650413"><ele>1219.0</ele><time>2026-04-04T09:31:12Z</time></trkpt><trkpt lat="42.74138787407298" lon="12.908619433355446"><ele>1219.0</ele><time>2026-04-04T09:31:13Z</time></trkpt><trkpt lat="42.74131077664663" lon="12.908493756267514"><ele>1219.0</ele><time>2026-04-04T09:31:14Z</time></trkpt><trkpt lat="42.7412398908937" lon="12.90833030909811"><ele>1222.0</ele><time>2026-04-04T09:31:15Z</time></trkpt><trkpt lat="42.74117938108647" lon="12.908132133022367"><ele>1225.0</ele><time>2026-04-04T09:31:16Z</time></trkpt><trkpt lat="42.74112742588879" lon="12.90792881619023"><ele>1228.0</ele><time>2026-04-04T09:31:17Z</time></trkpt><trkpt lat="42.741053111633455" lon="12.907700079718145"><ele>1229.6666666666665</ele><time>2026-04-04T09:31:18Z</time></trkpt><trkpt lat="42.740972799846816" lon="12.90744720447275"><ele>1231.3333333333333</ele><time>2026-04-04T09:31:19Z</time></trkpt><trkpt lat="42.74090715053955" lon="12.907219816668206"><ele>1233.0</ele><time>2026-04-04T09:31:20Z</time></trkpt><trkpt lat="42.7408500059032" lon="12.90701186942029"><ele>1233.0</ele><time>2026-04-04T09:31:21Z</time></trkpt><trkpt lat="42.740784922611084" lon="12.906798206899937"><ele>1233.0</ele><time>2026-04-04T09:31:22Z</time></trkpt><trkpt lat="42.740728646221775" lon="12.906563967971945"><ele>1233.0</ele><time>2026-04-04T09:31:23Z</time></trkpt><trkpt lat="42.74067450423308" lon="12.906287362680583"><ele>1235.0</ele><time>2026-04-04T09:31:24Z</time></trkpt><trkpt lat="42.7406155742342" lon="12.906003031767478"><ele>1237.0</ele><time>2026-04-04T09:31:25Z</time></trkpt><trkpt lat="42.740562695381115" lon="12.905735983029091"><ele>1239.0</ele><time>2026-04-04T09:31:26Z</time></trkpt><trkpt lat="42.74050791218626" lon="12.905493118153823"><ele>1240.5</ele><time>2026-04-04T09:31:27Z</time></trkpt><trkpt lat="42.74045447445737" lon="12.905278282161706"><ele>1242.0</ele><time>2026-04-04T09:31:28Z</time></trkpt><trkpt lat="42.74040583024089" lon="12.905121643313198"><ele>1243.5</ele><time>2026-04-04T09:31:29Z</time></trkpt><trkpt lat="42.74036724981443" lon="12.9049910245271"><ele>1245.0</ele><time>2026-04-04T09:31:30Z</time></trkpt><trkpt lat="42.740318306120976" lon="12.904916589926016"><ele>1246.6</ele><time>2026-04-04T09:31:31Z</time></trkpt><trkpt lat="42.74024838650529" lon="12.904890261782608"><ele>1248.2</ele><time>2026-04-04T09:31:32Z</time></trkpt><trkpt lat="42.740138639142025" lon="12.904898486867033"><ele>1249.8</ele><time>2026-04-04T09:31:33Z</time></trkpt><trkpt lat="42.7400121011082" lon="12.904942379647078"><ele>1251.4</ele><time>2026-04-04T09:31:34Z</time></trkpt><trkpt lat="42.73989136162046" lon="12.905006567904318"><ele>1253.0</ele><time>2026-04-04T09:31:35Z</time></trkpt><trkpt lat="42.739773063542025" lon="12.905090279168228"><ele>1255.2</ele><time>2026-04-04T09:31:36Z</time></trkpt><trkpt lat="42.739651925339935" lon="12.90516977410893"><ele>1257.4</ele><time>2026-04-04T09:31:37Z</time></trkpt><trkpt lat="42.73954495977661" lon="12.905207947720147"><ele>1259.6000000000001</ele><time>2026-04-04T09:31:38Z</time></trkpt><trkpt lat="42.73948614172219" lon="12.905141623272115"><ele>1261.8</ele><time>2026-04-04T09:31:40Z</time></trkpt><trkpt lat="42.73941889689851" lon="12.905109945531505"><ele>1264.0</ele><time>2026-04-04T09:31:54Z</time></trkpt><trkpt lat="42.739354337567434" lon="12.90507041719074"><ele>1264.0</ele><time>2026-04-04T09:31:55Z</time></trkpt><trkpt lat="42.739295730752616" lon="12.905013140776834"><ele>1264.0</ele><time>2026-04-04T09:31:57Z</time></trkpt><trkpt lat="42.73924173344709" lon="12.904965899493122"><ele>1264.0</ele><time>2026-04-04T09:32:12Z</time></trkpt><trkpt lat="42.73916320644702" lon="12.904891572121526"><ele>1264.0</ele><time>2026-04-04T09:32:14Z</time></trkpt><trkpt lat="42.73906386049797" lon="12.904808040010652"><ele>1264.0</ele><time>2026-04-04T09:32:16Z</time></trkpt><trkpt lat="42.73897672402167" lon="12.904685835149216"><ele>1264.0</ele><time>2026-04-04T09:32:18Z</time></trkpt><trkpt lat="42.73893621894268" lon="12.904610533597806"><ele>1264.0</ele><time>2026-04-04T09:32:19Z</time></trkpt><trkpt lat="42.73886002709698" lon="12.904462569536104"><ele>1264.0</ele><time>2026-04-04T09:32:21Z</time></trkpt><trkpt lat="42.73882589771424" lon="12.904365989940159"><ele>1264.0</ele><time>2026-04-04T09:32:22Z</time></trkpt><trkpt lat="42.73879330172859" lon="12.904272601818782"><ele>1264.0</ele><time>2026-04-04T09:32:24Z</time></trkpt><trkpt lat="42.73883458301377" lon="12.904175613970194"><ele>1264.0</ele><time>2026-04-04T09:32:26Z</time></trkpt><trkpt lat="42.738949957204305" lon="12.90415360660307"><ele>1266.0</ele><time>2026-04-04T09:32:28Z</time></trkpt><trkpt lat="42.739052276753796" lon="12.904185620158096"><ele>1268.0</ele><time>2026-04-04T09:32:30Z</time></trkpt><trkpt lat="42.739188752507076" lon="12.904092476624417"><ele>1270.0</ele><time>2026-04-04T09:32:32Z</time></trkpt><trkpt lat="42.73930058093745" lon="12.90400700197353"><ele>1272.0</ele><time>2026-04-04T09:32:33Z</time></trkpt><trkpt lat="42.739409857812454" lon="12.903927748751167"><ele>1272.0</ele><time>2026-04-04T09:32:34Z</time></trkpt><trkpt lat="42.73950576993875" lon="12.903847477873562"><ele>1272.0</ele><time>2026-04-04T09:32:36Z</time></trkpt><trkpt lat="42.73955946594275" lon="12.903752670482664"><ele>1272.0</ele><time>2026-04-04T09:32:37Z</time></trkpt><trkpt lat="42.739604558186066" lon="12.903617657888164"><ele>1272.0</ele><time>2026-04-04T09:32:38Z</time></trkpt><trkpt lat="42.73965271326233" lon="12.903434230128708"><ele>1274.4</ele><time>2026-04-04T09:32:39Z</time></trkpt><trkpt lat="42.73967869883527" lon="12.903295119179242"><ele>1276.8000000000002</ele><time>2026-04-04T09:32:40Z</time></trkpt><trkpt lat="42.73978196811986" lon="12.903156674965178"><ele>1279.2</ele><time>2026-04-04T09:32:42Z</time></trkpt><trkpt lat="42.73979677240716" lon="12.903072347813556"><ele>1281.6000000000001</ele><time>2026-04-04T09:32:43Z</time></trkpt><trkpt lat="42.73973126043301" lon="12.902963168676504"><ele>1284.0</ele><time>2026-04-04T09:32:45Z</time></trkpt><trkpt lat="42.739644419749546" lon="12.902873783161157"><ele>1284.0</ele><time>2026-04-04T09:32:46Z</time></trkpt><trkpt lat="42.7395830149759" lon="12.90277237945159"><ele>1284.0</ele><time>2026-04-04T09:32:47Z</time></trkpt><trkpt lat="42.73953302773351" lon="12.902621460656793"><ele>1284.0</ele><time>2026-04-04T09:32:48Z</time></trkpt><trkpt lat="42.739471336506746" lon="12.902427554641529"><ele>1284.0</ele><time>2026-04-04T09:32:49Z</time></trkpt><trkpt lat="42.739407967969036" lon="12.902199859992825"><ele>1286.0</ele><time>2026-04-04T09:32:50Z</time></trkpt><trkpt lat="42.739342123890495" lon="12.901986214095874"><ele>1288.0</ele><time>2026-04-04T09:32:51Z</time></trkpt><trkpt lat="42.73928286611282" lon="12.90179919780867"><ele>1290.0</ele><time>2026-04-04T09:32:52Z</time></trkpt><trkpt lat="42.739229488517935" lon="12.901616912944222"><ele>1291.4</ele><time>2026-04-04T09:32:53Z</time></trkpt><trkpt lat="42.739186643028475" lon="12.901433605205824"><ele>1292.8</ele><time>2026-04-04T09:32:54Z</time></trkpt><trkpt lat="42.73915580938923" lon="12.901303732588037"><ele>1294.1999999999998</ele><time>2026-04-04T09:32:55Z</time></trkpt><trkpt lat="42.739142845378595" lon="12.9012096805982"><ele>1295.6</ele><time>2026-04-04T09:32:56Z</time></trkpt><trkpt lat="42.739127292845595" lon="12.901098173823723"><ele>1297.0</ele><time>2026-04-04T09:32:57Z</time></trkpt><trkpt lat="42.73909957697278" lon="12.900981319181124"><ele>1297.25</ele><time>2026-04-04T09:32:58Z</time></trkpt><trkpt lat="42.73903267420477" lon="12.900850608781324"><ele>1297.5</ele><time>2026-04-04T09:32:59Z</time></trkpt><trkpt lat="42.738945338415576" lon="12.900681792282526"><ele>1297.75</ele><time>2026-04-04T09:33:00Z</time></trkpt><trkpt lat="42.73885795685431" lon="12.900549660555678"><ele>1298.0</ele><time>2026-04-04T09:33:01Z</time></trkpt><trkpt lat="42.73875083042972" lon="12.900433914541866"><ele>1298.0</ele><time>2026-04-04T09:33:02Z</time></trkpt><trkpt lat="42.738634429829595" lon="12.900334431495553"><ele>1298.0</ele><time>2026-04-04T09:33:03Z</time></trkpt><trkpt lat="42.73855770486362" lon="12.900272158830866"><ele>1298.0</ele><time>2026-04-04T09:33:04Z</time></trkpt><trkpt lat="42.73848306902471" lon="12.900234412183288"><ele>1298.0</ele><time>2026-04-04T09:33:05Z</time></trkpt><trkpt lat="42.738375848142866" lon="12.900217144095485"><ele>1298.0</ele><time>2026-04-04T09:33:06Z</time></trkpt><trkpt lat="42.73826361412124" lon="12.900252762317066"><ele>1300.0</ele><time>2026-04-04T09:33:07Z</time></trkpt><trkpt lat="42.73814473224688" lon="12.90029208776023"><ele>1302.0</ele><time>2026-04-04T09:33:08Z</time></trkpt><trkpt lat="42.73803847632676" lon="12.900317164078444"><ele>1304.0</ele><time>2026-04-04T09:33:09Z</time></trkpt><trkpt lat="42.737953491327495" lon="12.90034141363878"><ele>1306.0</ele><time>2026-04-04T09:33:10Z</time></trkpt><trkpt lat="42.73784841312902" lon="12.900374310441213"><ele>1308.0</ele><time>2026-04-04T09:33:12Z</time></trkpt><trkpt lat="42.73776033391226" lon="12.900321242455847"><ele>1308.0</ele><time>2026-04-04T09:33:14Z</time></trkpt><trkpt lat="42.737722375128016" lon="12.900174978710886"><ele>1308.0</ele><time>2026-04-04T09:33:16Z</time></trkpt><trkpt lat="42.73770266575685" lon="12.90007456242849"><ele>1308.0</ele><time>2026-04-04T09:33:18Z</time></trkpt><trkpt lat="42.737697725458574" lon="12.899965148904565"><ele>1308.0</ele><time>2026-04-04T09:33:21Z</time></trkpt><trkpt lat="42.737678592039536" lon="12.89987001956025"><ele>1308.0</ele><time>2026-04-04T09:33:25Z</time></trkpt><trkpt lat="42.73767046171863" lon="12.899768627159022"><ele>1308.0</ele><time>2026-04-04T09:33:27Z</time></trkpt><trkpt lat="42.737658371406646" lon="12.899646836375716"><ele>1310.8333333333333</ele><time>2026-04-04T09:33:29Z</time></trkpt><trkpt lat="42.73763898946864" lon="12.899528448388784"><ele>1313.6666666666667</ele><time>2026-04-04T09:33:31Z</time></trkpt><trkpt lat="42.737633359728825" lon="12.899441009179748"><ele>1316.5</ele><time>2026-04-04T09:33:34Z</time></trkpt><trkpt lat="42.73761262074652" lon="12.899321954032244"><ele>1319.3333333333335</ele><time>2026-04-04T09:33:39Z</time></trkpt><trkpt lat="42.737585018203106" lon="12.899232305889694"><ele>1322.1666666666667</ele><time>2026-04-04T09:33:41Z</time></trkpt><trkpt lat="42.737548621525015" lon="12.899102263277674"><ele>1325.0</ele><time>2026-04-04T09:33:44Z</time></trkpt><trkpt lat="42.73750404546033" lon="12.899027723850702"><ele>1325.0</ele><time>2026-04-04T09:33:46Z</time></trkpt><trkpt lat="42.73745171903761" lon="12.898960617657943"><ele>1325.0</ele><time>2026-04-04T09:33:49Z</time></trkpt><trkpt lat="42.73739887572036" lon="12.898876990511658"><ele>1325.0</ele><time>2026-04-04T09:33:51Z</time></trkpt><trkpt lat="42.73733862811441" lon="12.898800569066209"><ele>1325.0</ele><time>2026-04-04T09:33:53Z</time></trkpt><trkpt lat="42.73728974731854" lon="12.898733990922064"><ele>1325.0</ele><time>2026-04-04T09:33:55Z</time></trkpt><trkpt lat="42.73724065998464" lon="12.898658672945226"><ele>1325.0</ele><time>2026-04-04T09:33:57Z</time></trkpt><trkpt lat="42.73716160773081" lon="12.898608404626962"><ele>1325.0</ele><time>2026-04-04T09:34:10Z</time></trkpt><trkpt lat="42.737102599298275" lon="12.89853343975394"><ele>1325.0</ele><time>2026-04-04T09:34:13Z</time></trkpt><trkpt lat="42.737016613639696" lon="12.89845636061845"><ele>1325.0</ele><time>2026-04-04T09:34:18Z</time></trkpt><trkpt lat="42.73694903528722" lon="12.898399885993845"><ele>1325.0</ele><time>2026-04-04T09:34:20Z</time></trkpt><trkpt lat="42.7368834942758" lon="12.898327031581173"><ele>1325.0</ele><time>2026-04-04T09:34:22Z</time></trkpt><trkpt lat="42.73681150008194" lon="12.898224490549792"><ele>1329.3333333333335</ele><time>2026-04-04T09:34:24Z</time></trkpt><trkpt lat="42.736739448020124" lon="12.898136270715108"><ele>1333.6666666666667</ele><time>2026-04-04T09:34:26Z</time></trkpt><trkpt lat="42.7366838259595" lon="12.898044377165178"><ele>1338.0</ele><time>2026-04-04T09:34:28Z</time></trkpt><trkpt lat="42.73663386296164" lon="12.897952215069092"><ele>1342.3333333333333</ele><time>2026-04-04T09:34:30Z</time></trkpt><trkpt lat="42.73656925600586" lon="12.897876910560395"><ele>1346.6666666666665</ele><time>2026-04-04T09:34:33Z</time></trkpt><trkpt lat="42.736500613721894" lon="12.897803584741743"><ele>1351.0</ele><time>2026-04-04T09:34:35Z</time></trkpt><trkpt lat="42.7364619999352" lon="12.897696061174495"><ele>1351.0</ele><time>2026-04-04T09:34:37Z</time></trkpt><trkpt lat="42.73640959851084" lon="12.897629509768711"><ele>1351.0</ele><time>2026-04-04T09:34:39Z</time></trkpt><trkpt lat="42.73635589200455" lon="12.89756492751573"><ele>1351.0</ele><time>2026-04-04T09:34:41Z</time></trkpt><trkpt lat="42.736301469806826" lon="12.89748571719581"><ele>1351.0</ele><time>2026-04-04T09:34:43Z</time></trkpt><trkpt lat="42.73625259113529" lon="12.89740265932372"><ele>1351.0</ele><time>2026-04-04T09:34:47Z</time></trkpt><trkpt lat="42.73620401137783" lon="12.897312516396253"><ele>1351.0</ele><time>2026-04-04T09:34:49Z</time></trkpt><trkpt lat="42.736140049991334" lon="12.897231129131288"><ele>1353.6666666666665</ele><time>2026-04-04T09:34:51Z</time></trkpt><trkpt lat="42.7360918651702" lon="12.897159362787914"><ele>1356.3333333333333</ele><time>2026-04-04T09:34:53Z</time></trkpt><trkpt lat="42.7360305824076" lon="12.897071600665656"><ele>1359.0</ele><time>2026-04-04T09:34:55Z</time></trkpt><trkpt lat="42.73595138925523" lon="12.896977354548989"><ele>1361.6666666666667</ele><time>2026-04-04T09:34:58Z</time></trkpt><trkpt lat="42.735894120127014" lon="12.89690777020223"><ele>1364.3333333333335</ele><time>2026-04-04T09:35:00Z</time></trkpt><trkpt lat="42.735814728348174" lon="12.896821876058295"><ele>1367.0</ele><time>2026-04-04T09:35:02Z</time></trkpt><trkpt lat="42.73576652851904" lon="12.8967638371295"><ele>1364.1666666666667</ele><time>2026-04-04T09:35:03Z</time></trkpt><trkpt lat="42.735682517484385" lon="12.896682147797726"><ele>1361.3333333333335</ele><time>2026-04-04T09:35:05Z</time></trkpt><trkpt lat="42.73562439049177" lon="12.896605930488374"><ele>1358.5</ele><time>2026-04-04T09:35:07Z</time></trkpt><trkpt lat="42.73556928794514" lon="12.896559090687601"><ele>1355.6666666666667</ele><time>2026-04-04T09:35:10Z</time></trkpt><trkpt lat="42.735508093302975" lon="12.896517991581366"><ele>1352.8333333333333</ele><time>2026-04-04T09:35:15Z</time></trkpt><trkpt lat="42.7354630315644" lon="12.896434286702528"><ele>1350.0</ele><time>2026-04-04T09:35:26Z</time></trkpt><trkpt lat="42.73540426579669" lon="12.896336519523569"><ele>1350.0</ele><time>2026-04-04T09:35:29Z</time></trkpt><trkpt lat="42.73536186088712" lon="12.896263301183193"><ele>1350.0</ele><time>2026-04-04T09:35:31Z</time></trkpt><trkpt lat="42.73531387393113" lon="12.896203580086265"><ele>1350.0</ele><time>2026-04-04T09:35:34Z</time></trkpt><trkpt lat="42.73526670035664" lon="12.896141720640301"><ele>1350.0</ele><time>2026-04-04T09:35:36Z</time></trkpt><trkpt lat="42.73522612245213" lon="12.896041506715417"><ele>1350.0</ele><time>2026-04-04T09:35:39Z</time></trkpt><trkpt lat="42.73518651690741" lon="12.89596724222866"><ele>1350.0</ele><time>2026-04-04T09:35:41Z</time></trkpt><trkpt lat="42.735088774799166" lon="12.895839702106985"><ele>1352.3333333333333</ele><time>2026-04-04T09:35:43Z</time></trkpt><trkpt lat="42.73499720959692" lon="12.895761585631847"><ele>1354.6666666666667</ele><time>2026-04-04T09:35:45Z</time></trkpt><trkpt lat="42.734940812228636" lon="12.895707795517453"><ele>1357.0</ele><time>2026-04-04T09:35:46Z</time></trkpt><trkpt lat="42.73487815707495" lon="12.895661369433332"><ele>1359.3333333333335</ele><time>2026-04-04T09:35:47Z</time></trkpt><trkpt lat="42.7348132525601" lon="12.895622827187708"><ele>1361.6666666666667</ele><time>2026-04-04T09:35:48Z</time></trkpt><trkpt lat="42.734704941632714" lon="12.895562776244178"><ele>1364.0</ele><time>2026-04-04T09:35:50Z</time></trkpt><trkpt lat="42.73463691803234" lon="12.895531131301338"><ele>1364.0</ele><time>2026-04-04T09:35:53Z</time></trkpt><trkpt lat="42.734580416222535" lon="12.895488224830652"><ele>1364.0</ele><time>2026-04-04T09:35:57Z</time></trkpt><trkpt lat="42.734508715587246" lon="12.895440571190685"><ele>1364.0</ele><time>2026-04-04T09:38:11Z</time></trkpt><trkpt lat="42.73440883366941" lon="12.895381177452652"><ele>1364.0</ele><time>2026-04-04T09:38:13Z</time></trkpt><trkpt lat="42.73434033625813" lon="12.895339411579283"><ele>1364.0</ele><time>2026-04-04T09:38:14Z</time></trkpt><trkpt lat="42.734264502207424" lon="12.895293433605596"><ele>1364.0</ele><time>2026-04-04T09:38:15Z</time></trkpt><trkpt lat="42.734195364055985" lon="12.895252789868339"><ele>1363.0</ele><time>2026-04-04T09:38:16Z</time></trkpt><trkpt lat="42.73411813244716" lon="12.895209061513071"><ele>1362.0</ele><time>2026-04-04T09:38:17Z</time></trkpt><trkpt lat="42.734060425956145" lon="12.89516549403252"><ele>1361.0</ele><time>2026-04-04T09:38:18Z</time></trkpt><trkpt lat="42.733970471702335" lon="12.895082370051506"><ele>1360.0</ele><time>2026-04-04T09:38:20Z</time></trkpt><trkpt lat="42.73391197015325" lon="12.89499483180935"><ele>1359.0</ele><time>2026-04-04T09:38:22Z</time></trkpt><trkpt lat="42.733852895983155" lon="12.894889462551227"><ele>1358.0</ele><time>2026-04-04T09:38:24Z</time></trkpt><trkpt lat="42.73380526014015" lon="12.894820889204624"><ele>1360.5</ele><time>2026-04-04T09:38:26Z</time></trkpt><trkpt lat="42.73373773100314" lon="12.894753930292016"><ele>1363.0</ele><time>2026-04-04T09:38:28Z</time></trkpt><trkpt lat="42.73368702994353" lon="12.894692761861677"><ele>1365.5</ele><time>2026-04-04T09:38:29Z</time></trkpt><trkpt lat="42.73363875643576" lon="12.894563334645174"><ele>1368.0</ele><time>2026-04-04T09:38:31Z</time></trkpt><trkpt lat="42.73362467573939" lon="12.894471838083152"><ele>1370.5</ele><time>2026-04-04T09:38:32Z</time></trkpt><trkpt lat="42.733617004360454" lon="12.894378256174889"><ele>1373.0</ele><time>2026-04-04T09:38:33Z</time></trkpt><trkpt lat="42.73359776174572" lon="12.894264212471725"><ele>1370.4</ele><time>2026-04-04T09:38:34Z</time></trkpt><trkpt lat="42.73355690955893" lon="12.894131067938297"><ele>1367.8000000000002</ele><time>2026-04-04T09:38:35Z</time></trkpt><trkpt lat="42.73351423352011" lon="12.893975308169491"><ele>1365.2</ele><time>2026-04-04T09:38:36Z</time></trkpt><trkpt lat="42.73348298929309" lon="12.893849810730414"><ele>1362.6</ele><time>2026-04-04T09:38:37Z</time></trkpt><trkpt lat="42.73345946379106" lon="12.893753919329997"><ele>1360.0</ele><time>2026-04-04T09:38:38Z</time></trkpt><trkpt lat="42.73344657526976" lon="12.893658446669013"><ele>1360.0</ele><time>2026-04-04T09:38:39Z</time></trkpt><trkpt lat="42.73344304449805" lon="12.893538380519884"><ele>1360.0</ele><time>2026-04-04T09:38:41Z</time></trkpt><trkpt lat="42.73340602528319" lon="12.893447888356485"><ele>1360.0</ele><time>2026-04-04T09:38:43Z</time></trkpt><trkpt lat="42.73331204653738" lon="12.893367527936903"><ele>1360.0</ele><time>2026-04-04T09:38:45Z</time></trkpt><trkpt lat="42.73319923233344" lon="12.893323822790073"><ele>1360.0</ele><time>2026-04-04T09:38:47Z</time></trkpt><trkpt lat="42.733102918188656" lon="12.893239321934352"><ele>1361.1666666666665</ele><time>2026-04-04T09:38:49Z</time></trkpt><trkpt lat="42.73303197316911" lon="12.893176185552498"><ele>1362.3333333333333</ele><time>2026-04-04T09:38:50Z</time></trkpt><trkpt lat="42.732952437076214" lon="12.89313412289553"><ele>1363.5</ele><time>2026-04-04T09:38:51Z</time></trkpt><trkpt lat="42.73286239584726" lon="12.893112523711029"><ele>1364.6666666666667</ele><time>2026-04-04T09:38:52Z</time></trkpt><trkpt lat="42.73277887486432" lon="12.893092554743488"><ele>1365.8333333333335</ele><time>2026-04-04T09:38:53Z</time></trkpt><trkpt lat="42.73269239567661" lon="12.893057533633979"><ele>1367.0</ele><time>2026-04-04T09:38:54Z</time></trkpt><trkpt lat="42.732616543650835" lon="12.893023400511183"><ele>1367.0</ele><time>2026-04-04T09:38:55Z</time></trkpt><trkpt lat="42.73254671053158" lon="12.892992815852004"><ele>1367.0</ele><time>2026-04-04T09:38:56Z</time></trkpt><trkpt lat="42.73248290242487" lon="12.89296449227409"><ele>1367.0</ele><time>2026-04-04T09:38:57Z</time></trkpt><trkpt lat="42.7324168435145" lon="12.892930584386436"><ele>1367.0</ele><time>2026-04-04T09:38:58Z</time></trkpt><trkpt lat="42.73234835575121" lon="12.892904431805654"><ele>1367.0</ele><time>2026-04-04T09:38:59Z</time></trkpt><trkpt lat="42.73226278246243" lon="12.89288360408408"><ele>1367.0</ele><time>2026-04-04T09:39:00Z</time></trkpt><trkpt lat="42.732188949727814" lon="12.892877138006162"><ele>1367.0</ele><time>2026-04-04T09:39:01Z</time></trkpt><trkpt lat="42.732108384506965" lon="12.892869665572793"><ele>1367.0</ele><time>2026-04-04T09:39:02Z</time></trkpt><trkpt lat="42.732044864526046" lon="12.892865243275956"><ele>1367.0</ele><time>2026-04-04T09:39:03Z</time></trkpt><trkpt lat="42.73193962391879" lon="12.8928626440102"><ele>1367.0</ele><time>2026-04-04T09:39:05Z</time></trkpt><trkpt lat="42.731826208829446" lon="12.892848223204572"><ele>1367.0</ele><time>2026-04-04T09:39:07Z</time></trkpt><trkpt lat="42.73171472628287" lon="12.89284613892997"><ele>1367.0</ele><time>2026-04-04T09:39:09Z</time></trkpt><trkpt lat="42.731598663986745" lon="12.892832093478976"><ele>1367.1999999999998</ele><time>2026-04-04T09:39:11Z</time></trkpt><trkpt lat="42.731492380556936" lon="12.892810061864264"><ele>1367.4</ele><time>2026-04-04T09:39:13Z</time></trkpt><trkpt lat="42.731390968127855" lon="12.892789734324973"><ele>1367.6</ele><time>2026-04-04T09:39:15Z</time></trkpt><trkpt lat="42.7312966752624" lon="12.892781475737563"><ele>1367.8000000000002</ele><time>2026-04-04T09:39:17Z</time></trkpt><trkpt lat="42.73121042431344" lon="12.89276625292534"><ele>1368.0</ele><time>2026-04-04T09:39:19Z</time></trkpt><trkpt lat="42.73113375854641" lon="12.89276746422891"><ele>1367.5</ele><time>2026-04-04T09:39:21Z</time></trkpt><trkpt lat="42.73103912342553" lon="12.892776249350817"><ele>1367.0</ele><time>2026-04-04T09:39:24Z</time></trkpt><trkpt lat="42.730965778588356" lon="12.892741555828044"><ele>1366.5</ele><time>2026-04-04T09:39:28Z</time></trkpt><trkpt lat="42.73090505778923" lon="12.892684792357024"><ele>1366.0</ele><time>2026-04-04T09:39:54Z</time></trkpt><trkpt lat="42.730868384290396" lon="12.892594406015753"><ele>1365.5</ele><time>2026-04-04T09:39:56Z</time></trkpt><trkpt lat="42.73081733144105" lon="12.892496724437107"><ele>1365.0</ele><time>2026-04-04T09:39:57Z</time></trkpt><trkpt lat="42.73076261423999" lon="12.892435185782537"><ele>1368.2</ele><time>2026-04-04T09:39:58Z</time></trkpt><trkpt lat="42.73066111970204" lon="12.892376993842536"><ele>1371.4</ele><time>2026-04-04T09:40:00Z</time></trkpt><trkpt lat="42.73056048438637" lon="12.892340330444352"><ele>1374.6</ele><time>2026-04-04T09:40:01Z</time></trkpt><trkpt lat="42.73048163544525" lon="12.892323751003094"><ele>1377.8</ele><time>2026-04-04T09:40:02Z</time></trkpt><trkpt lat="42.73041303218327" lon="12.892319586645225"><ele>1381.0</ele><time>2026-04-04T09:40:03Z</time></trkpt><trkpt lat="42.73031581131152" lon="12.892298125211829"><ele>1381.0</ele><time>2026-04-04T09:40:04Z</time></trkpt><trkpt lat="42.73022973128052" lon="12.892257260949261"><ele>1381.0</ele><time>2026-04-04T09:40:05Z</time></trkpt><trkpt lat="42.730145222532315" lon="12.89220074128974"><ele>1381.0</ele><time>2026-04-04T09:40:06Z</time></trkpt><trkpt lat="42.7300488364052" lon="12.892131030867866"><ele>1381.0</ele><time>2026-04-04T09:40:07Z</time></trkpt><trkpt lat="42.72997770583383" lon="12.89206029536208"><ele>1381.0</ele><time>2026-04-04T09:40:08Z</time></trkpt><trkpt lat="42.729892860737635" lon="12.891982039487468"><ele>1381.5</ele><time>2026-04-04T09:40:09Z</time></trkpt><trkpt lat="42.729840369094454" lon="12.891920898568017"><ele>1382.0</ele><time>2026-04-04T09:40:10Z</time></trkpt><trkpt lat="42.72977622061564" lon="12.89184845065751"><ele>1382.5</ele><time>2026-04-04T09:40:11Z</time></trkpt><trkpt lat="42.72971321697337" lon="12.891762720901704"><ele>1383.0</ele><time>2026-04-04T09:40:12Z</time></trkpt><trkpt lat="42.72965898390129" lon="12.891675363353619"><ele>1383.5</ele><time>2026-04-04T09:40:13Z</time></trkpt><trkpt lat="42.729588640885396" lon="12.89158282414875"><ele>1384.0</ele><time>2026-04-04T09:40:14Z</time></trkpt><trkpt lat="42.72953125823475" lon="12.891516765269794"><ele>1384.0</ele><time>2026-04-04T09:40:15Z</time></trkpt><trkpt lat="42.72946860122678" lon="12.891452081479594"><ele>1384.0</ele><time>2026-04-04T09:40:16Z</time></trkpt><trkpt lat="42.729412138263754" lon="12.891378515318891"><ele>1384.0</ele><time>2026-04-04T09:40:17Z</time></trkpt><trkpt lat="42.72934280177289" lon="12.891291419560936"><ele>1384.0</ele><time>2026-04-04T09:40:18Z</time></trkpt><trkpt lat="42.72928275010505" lon="12.891233416461171"><ele>1384.0</ele><time>2026-04-04T09:40:19Z</time></trkpt><trkpt lat="42.72922671877847" lon="12.89115203053032"><ele>1384.0</ele><time>2026-04-04T09:40:21Z</time></trkpt><trkpt lat="42.7291500594443" lon="12.891120827697689"><ele>1382.2</ele><time>2026-04-04T09:40:23Z</time></trkpt><trkpt lat="42.72904824840887" lon="12.891130645360699"><ele>1380.4</ele><time>2026-04-04T09:40:25Z</time></trkpt><trkpt lat="42.72895491185735" lon="12.89113438218492"><ele>1378.6</ele><time>2026-04-04T09:40:27Z</time></trkpt><trkpt lat="42.728848938663006" lon="12.891139159374111"><ele>1376.8</ele><time>2026-04-04T09:40:29Z</time></trkpt><trkpt lat="42.72877129408023" lon="12.891188395495915"><ele>1375.0</ele><time>2026-04-04T09:40:30Z</time></trkpt><trkpt lat="42.7286715108147" lon="12.891256897405496"><ele>1375.0</ele><time>2026-04-04T09:40:31Z</time></trkpt><trkpt lat="42.728576660394204" lon="12.891309321086279"><ele>1375.0</ele><time>2026-04-04T09:40:32Z</time></trkpt><trkpt lat="42.72850580289124" lon="12.891366589205692"><ele>1375.0</ele><time>2026-04-04T09:40:33Z</time></trkpt><trkpt lat="42.72840735694644" lon="12.891406227824094"><ele>1375.0</ele><time>2026-04-04T09:40:34Z</time></trkpt><trkpt lat="42.72831061875695" lon="12.891427009299454"><ele>1375.0</ele><time>2026-04-04T09:40:35Z</time></trkpt><trkpt lat="42.728211902442325" lon="12.891452253382733"><ele>1375.2</ele><time>2026-04-04T09:40:36Z</time></trkpt><trkpt lat="42.72811489817334" lon="12.891477608852215"><ele>1375.4</ele><time>2026-04-04T09:40:37Z</time></trkpt><trkpt lat="42.728036593288266" lon="12.891502781156506"><ele>1375.6</ele><time>2026-04-04T09:40:38Z</time></trkpt><trkpt lat="42.72792628367707" lon="12.891529813738726"><ele>1375.8</ele><time>2026-04-04T09:40:39Z</time></trkpt><trkpt lat="42.727821956398046" lon="12.891532649749715"><ele>1376.0</ele><time>2026-04-04T09:40:40Z</time></trkpt><trkpt lat="42.72771454108767" lon="12.891544610215032"><ele>1377.4</ele><time>2026-04-04T09:40:41Z</time></trkpt><trkpt lat="42.72761446137692" lon="12.891550826586768"><ele>1378.8</ele><time>2026-04-04T09:40:42Z</time></trkpt><trkpt lat="42.72750145534219" lon="12.891556601369432"><ele>1380.2</ele><time>2026-04-04T09:40:43Z</time></trkpt><trkpt lat="42.727423799643304" lon="12.89155586578795"><ele>1381.6000000000001</ele><time>2026-04-04T09:40:44Z</time></trkpt><trkpt lat="42.72731263668167" lon="12.89155770838985"><ele>1383.0</ele><time>2026-04-04T09:40:45Z</time></trkpt><trkpt lat="42.72719817208817" lon="12.891562783537864"><ele>1383.0</ele><time>2026-04-04T09:40:46Z</time></trkpt><trkpt lat="42.72708242603047" lon="12.891564819847542"><ele>1383.0</ele><time>2026-04-04T09:40:47Z</time></trkpt><trkpt lat="42.72696474165464" lon="12.891560647624308"><ele>1383.0</ele><time>2026-04-04T09:40:48Z</time></trkpt><trkpt lat="42.72686465068756" lon="12.891542852556238"><ele>1383.0</ele><time>2026-04-04T09:40:49Z</time></trkpt><trkpt lat="42.726764183056915" lon="12.891534379469727"><ele>1383.0</ele><time>2026-04-04T09:40:50Z</time></trkpt><trkpt lat="42.72666367120456" lon="12.891543824012242"><ele>1386.0</ele><time>2026-04-04T09:40:51Z</time></trkpt><trkpt lat="42.72658521645729" lon="12.891556141350508"><ele>1389.0</ele><time>2026-04-04T09:40:52Z</time></trkpt><trkpt lat="42.726508239154754" lon="12.891560758197468"><ele>1392.0</ele><time>2026-04-04T09:40:53Z</time></trkpt><trkpt lat="42.7264373178894" lon="12.891566665007103"><ele>1395.0</ele><time>2026-04-04T09:40:54Z</time></trkpt><trkpt lat="42.72633430498219" lon="12.891543593370008"><ele>1398.0</ele><time>2026-04-04T09:40:55Z</time></trkpt><trkpt lat="42.72623411213725" lon="12.891511341451139"><ele>1401.0</ele><time>2026-04-04T09:40:56Z</time></trkpt><trkpt lat="42.726115534853946" lon="12.89147237834514"><ele>1402.4</ele><time>2026-04-04T09:40:57Z</time></trkpt><trkpt lat="42.72601163698789" lon="12.891406389446795"><ele>1403.8</ele><time>2026-04-04T09:40:58Z</time></trkpt><trkpt lat="42.72593207982365" lon="12.89135794839738"><ele>1405.2</ele><time>2026-04-04T09:40:59Z</time></trkpt><trkpt lat="42.7258637749467" lon="12.891306845142987"><ele>1406.6000000000001</ele><time>2026-04-04T09:41:00Z</time></trkpt><trkpt lat="42.725813103348855" lon="12.891236938135544"><ele>1408.0</ele><time>2026-04-04T09:41:01Z</time></trkpt><trkpt lat="42.72574540264932" lon="12.891133674607728"><ele>1408.0</ele><time>2026-04-04T09:41:02Z</time></trkpt><trkpt lat="42.725671911363655" lon="12.891052962447127"><ele>1408.0</ele><time>2026-04-04T09:41:03Z</time></trkpt><trkpt lat="42.72559776067499" lon="12.890997905832169"><ele>1408.0</ele><time>2026-04-04T09:41:04Z</time></trkpt><trkpt lat="42.72550818622531" lon="12.890962511292562"><ele>1408.0</ele><time>2026-04-04T09:41:05Z</time></trkpt><trkpt lat="42.72540703257386" lon="12.890936325425146"><ele>1408.0</ele><time>2026-04-04T09:41:06Z</time></trkpt><trkpt lat="42.72530037324834" lon="12.890927810992991"><ele>1412.0</ele><time>2026-04-04T09:41:07Z</time></trkpt><trkpt lat="42.72519341761726" lon="12.890952972711943"><ele>1416.0</ele><time>2026-04-04T09:41:08Z</time></trkpt><trkpt lat="42.7250959824255" lon="12.890995316943153"><ele>1420.0</ele><time>2026-04-04T09:41:09Z</time></trkpt><trkpt lat="42.72500314130943" lon="12.891043900629098"><ele>1424.0</ele><time>2026-04-04T09:41:10Z</time></trkpt><trkpt lat="42.724910258211594" lon="12.891098067194402"><ele>1428.0</ele><time>2026-04-04T09:41:11Z</time></trkpt><trkpt lat="42.72480733745144" lon="12.891161865705081"><ele>1428.0</ele><time>2026-04-04T09:41:12Z</time></trkpt><trkpt lat="42.724732163012824" lon="12.891214817804427"><ele>1428.0</ele><time>2026-04-04T09:41:13Z</time></trkpt><trkpt lat="42.72467525085532" lon="12.891264158720313"><ele>1428.0</ele><time>2026-04-04T09:41:14Z</time></trkpt><trkpt lat="42.72456549542081" lon="12.891356416305463"><ele>1428.0</ele><time>2026-04-04T09:41:16Z</time></trkpt><trkpt lat="42.724497977836016" lon="12.891375592392347"><ele>1428.0</ele><time>2026-04-04T09:41:17Z</time></trkpt><trkpt lat="42.724420083747255" lon="12.891395642341408"><ele>1428.0</ele><time>2026-04-04T09:41:18Z</time></trkpt><trkpt lat="42.72434465440034" lon="12.891418978243752"><ele>1432.0</ele><time>2026-04-04T09:41:21Z</time></trkpt><trkpt lat="42.72426553578062" lon="12.891505125603535"><ele>1436.0</ele><time>2026-04-04T09:41:24Z</time></trkpt><trkpt lat="42.72421945406963" lon="12.891590625091537"><ele>1440.0</ele><time>2026-04-04T09:41:25Z</time></trkpt><trkpt lat="42.724178278554284" lon="12.891663205246154"><ele>1444.0</ele><time>2026-04-04T09:41:26Z</time></trkpt><trkpt lat="42.724122984215235" lon="12.891743097492693"><ele>1448.0</ele><time>2026-04-04T09:41:27Z</time></trkpt><trkpt lat="42.72408827562244" lon="12.891817291496892"><ele>1452.0</ele><time>2026-04-04T09:41:28Z</time></trkpt><trkpt lat="42.72406243824654" lon="12.891898526231195"><ele>1452.0</ele><time>2026-04-04T09:41:29Z</time></trkpt><trkpt lat="42.72403100944831" lon="12.891977885797274"><ele>1452.0</ele><time>2026-04-04T09:41:30Z</time></trkpt><trkpt lat="42.72395877573173" lon="12.892071356662985"><ele>1452.0</ele><time>2026-04-04T09:41:32Z</time></trkpt><trkpt lat="42.72385279906181" lon="12.892143062162559"><ele>1452.0</ele><time>2026-04-04T09:41:34Z</time></trkpt><trkpt lat="42.7237757268575" lon="12.89219516370188"><ele>1452.0</ele><time>2026-04-04T09:41:36Z</time></trkpt><trkpt lat="42.72369915283354" lon="12.892228430163316"><ele>1452.0</ele><time>2026-04-04T09:41:38Z</time></trkpt><trkpt lat="42.72363000833463" lon="12.892271271942452"><ele>1452.0</ele><time>2026-04-04T09:41:41Z</time></trkpt></trkseg><trkseg><trkpt lat="42.72366664257945" lon="12.892251597294463"><ele>1452.0</ele><time>2026-04-04T10:01:05Z</time></trkpt><trkpt lat="42.72372274479403" lon="12.892211085046371"><ele>1452.0</ele><time>2026-04-04T10:01:07Z</time></trkpt><trkpt lat="42.7238538199355" lon="12.892122935499318"><ele>1452.0</ele><time>2026-04-04T10:01:09Z</time></trkpt><trkpt lat="42.72396483166572" lon="12.892017230815599"><ele>1452.0</ele><time>2026-04-04T10:01:11Z</time></trkpt><trkpt lat="42.72403234386095" lon="12.891953934048754"><ele>1452.0</ele><time>2026-04-04T10:01:12Z</time></trkpt><trkpt lat="42.724145969019155" lon="12.8918772977164"><ele>1452.0</ele><time>2026-04-04T10:01:14Z</time></trkpt><trkpt lat="42.72420949226248" lon="12.89183648346637"><ele>1452.0</ele><time>2026-04-04T10:01:15Z</time></trkpt><trkpt lat="42.724319059517185" lon="12.891751250383935"><ele>1452.0</ele><time>2026-04-04T10:01:17Z</time></trkpt><trkpt lat="42.72441196894352" lon="12.891701158696144"><ele>1452.0</ele><time>2026-04-04T10:01:19Z</time></trkpt><trkpt lat="42.724520800679684" lon="12.891652882382648"><ele>1452.0</ele><time>2026-04-04T10:01:21Z</time></trkpt><trkpt lat="42.72460412999726" lon="12.891614194956716"><ele>1448.0</ele><time>2026-04-04T10:01:22Z</time></trkpt><trkpt lat="42.72469582659673" lon="12.891567106448573"><ele>1444.0</ele><time>2026-04-04T10:01:23Z</time></trkpt><trkpt lat="42.72477131518675" lon="12.891524671393581"><ele>1440.0</ele><time>2026-04-04T10:01:24Z</time></trkpt><trkpt lat="42.72483194373309" lon="12.891497150927544"><ele>1436.0</ele><time>2026-04-04T10:01:25Z</time></trkpt><trkpt lat="42.72490428264352" lon="12.89147838306341"><ele>1432.0</ele><time>2026-04-04T10:01:26Z</time></trkpt><trkpt lat="42.72496943360956" lon="12.891490652674"><ele>1428.0</ele><time>2026-04-04T10:01:27Z</time></trkpt><trkpt lat="42.72505309570283" lon="12.89151619523799"><ele>1428.0</ele><time>2026-04-04T10:01:28Z</time></trkpt><trkpt lat="42.725144078306826" lon="12.891545021507014"><ele>1428.0</ele><time>2026-04-04T10:01:29Z</time></trkpt><trkpt lat="42.725241849974054" lon="12.891571747089571"><ele>1428.0</ele><time>2026-04-04T10:01:30Z</time></trkpt><trkpt lat="42.72534448260238" lon="12.89159873726913"><ele>1428.0</ele><time>2026-04-04T10:01:31Z</time></trkpt><trkpt lat="42.72544159317212" lon="12.89163585594484"><ele>1428.0</ele><time>2026-04-04T10:01:32Z</time></trkpt><trkpt lat="42.7255217232039" lon="12.891673633829624"><ele>1424.6666666666667</ele><time>2026-04-04T10:01:33Z</time></trkpt><trkpt lat="42.72561145579138" lon="12.891717212245469"><ele>1421.3333333333333</ele><time>2026-04-04T10:01:34Z</time></trkpt><trkpt lat="42.725693948752905" lon="12.891758665863442"><ele>1418.0</ele><time>2026-04-04T10:01:35Z</time></trkpt><trkpt lat="42.72576555568908" lon="12.891791859488341"><ele>1414.6666666666665</ele><time>2026-04-04T10:01:36Z</time></trkpt><trkpt lat="42.72584191618416" lon="12.891828793382272"><ele>1411.3333333333333</ele><time>2026-04-04T10:01:37Z</time></trkpt><trkpt lat="42.725904281297794" lon="12.89184539447751"><ele>1408.0</ele><time>2026-04-04T10:01:38Z</time></trkpt><trkpt lat="42.725965406325734" lon="12.891869126824474"><ele>1403.8000000000002</ele><time>2026-04-04T10:01:39Z</time></trkpt><trkpt lat="42.72607929389476" lon="12.891910452189576"><ele>1399.6</ele><time>2026-04-04T10:01:41Z</time></trkpt><trkpt lat="42.726151125944774" lon="12.891965316524537"><ele>1395.4</ele><time>2026-04-04T10:01:42Z</time></trkpt><trkpt lat="42.72620548959533" lon="12.892036984574423"><ele>1391.1999999999998</ele><time>2026-04-04T10:01:43Z</time></trkpt><trkpt lat="42.72625175721422" lon="12.892165781728725"><ele>1387.0</ele><time>2026-04-04T10:01:44Z</time></trkpt><trkpt lat="42.72628861552829" lon="12.89232183610987"><ele>1387.0</ele><time>2026-04-04T10:01:45Z</time></trkpt><trkpt lat="42.726322371538295" lon="12.892481912858925"><ele>1387.0</ele><time>2026-04-04T10:01:46Z</time></trkpt><trkpt lat="42.72635066698591" lon="12.892629562337392"><ele>1387.0</ele><time>2026-04-04T10:01:47Z</time></trkpt><trkpt lat="42.72637889557484" lon="12.892738090077266"><ele>1387.0</ele><time>2026-04-04T10:01:48Z</time></trkpt><trkpt lat="42.72641333987422" lon="12.892869916368843"><ele>1387.0</ele><time>2026-04-04T10:01:49Z</time></trkpt><trkpt lat="42.72642980424584" lon="12.892990858447584"><ele>1383.3999999999999</ele><time>2026-04-04T10:01:50Z</time></trkpt><trkpt lat="42.72642454080069" lon="12.893137022743304"><ele>1379.8</ele><time>2026-04-04T10:01:52Z</time></trkpt><trkpt lat="42.72637487952229" lon="12.89323524807416"><ele>1376.2</ele><time>2026-04-04T10:01:54Z</time></trkpt><trkpt lat="42.726321078161945" lon="12.893365628698211"><ele>1372.6</ele><time>2026-04-04T10:01:56Z</time></trkpt><trkpt lat="42.72630683529418" lon="12.89346194548703"><ele>1369.0</ele><time>2026-04-04T10:02:08Z</time></trkpt><trkpt lat="42.7263051297213" lon="12.893576162128959"><ele>1365.2</ele><time>2026-04-04T10:02:09Z</time></trkpt><trkpt lat="42.72630423041458" lon="12.8937218629751"><ele>1361.4</ele><time>2026-04-04T10:02:10Z</time></trkpt><trkpt lat="42.72628619250628" lon="12.89386393981789"><ele>1357.6</ele><time>2026-04-04T10:02:11Z</time></trkpt><trkpt lat="42.72626439475366" lon="12.894008215053272"><ele>1353.8</ele><time>2026-04-04T10:02:12Z</time></trkpt><trkpt lat="42.726221984509536" lon="12.894161601157553"><ele>1350.0</ele><time>2026-04-04T10:02:13Z</time></trkpt><trkpt lat="42.72621121537624" lon="12.894264121471105"><ele>1350.0</ele><time>2026-04-04T10:02:14Z</time></trkpt><trkpt lat="42.72617253228796" lon="12.894411921290772"><ele>1350.0</ele><time>2026-04-04T10:02:16Z</time></trkpt><trkpt lat="42.72613472587965" lon="12.894520666506464"><ele>1350.0</ele><time>2026-04-04T10:02:18Z</time></trkpt><trkpt lat="42.726053768847194" lon="12.89456394518354"><ele>1350.0</ele><time>2026-04-04T10:02:36Z</time></trkpt><trkpt lat="42.725991905343555" lon="12.894582623852061"><ele>1350.0</ele><time>2026-04-04T10:02:40Z</time></trkpt><trkpt lat="42.725959483364264" lon="12.894683539639338"><ele>1350.0</ele><time>2026-04-04T10:02:48Z</time></trkpt><trkpt lat="42.72589249615139" lon="12.894705749484283"><ele>1350.0</ele><time>2026-04-04T10:03:22Z</time></trkpt><trkpt lat="42.725810954840725" lon="12.894761619126479"><ele>1350.0</ele><time>2026-04-04T10:03:24Z</time></trkpt><trkpt lat="42.72573947461495" lon="12.894854573396284"><ele>1350.0</ele><time>2026-04-04T10:03:26Z</time></trkpt><trkpt lat="42.725717260542254" lon="12.89494195198278"><ele>1350.0</ele><time>2026-04-04T10:03:28Z</time></trkpt><trkpt lat="42.725698771029144" lon="12.895085971774082"><ele>1350.0</ele><time>2026-04-04T10:03:30Z</time></trkpt><trkpt lat="42.72570893685071" lon="12.895248587951672"><ele>1346.4</ele><time>2026-04-04T10:03:32Z</time></trkpt><trkpt lat="42.72570648559357" lon="12.895405432598292"><ele>1342.8</ele><time>2026-04-04T10:03:34Z</time></trkpt><trkpt lat="42.72564244185381" lon="12.895544569110484"><ele>1339.1999999999998</ele><time>2026-04-04T10:03:36Z</time></trkpt><trkpt lat="42.72563133601413" lon="12.895639760475452"><ele>1335.6</ele><time>2026-04-04T10:03:37Z</time></trkpt><trkpt lat="42.72559359506538" lon="12.89579602926796"><ele>1332.0</ele><time>2026-04-04T10:03:39Z</time></trkpt><trkpt lat="42.72560169042323" lon="12.895954586621047"><ele>1329.142857142857</ele><time>2026-04-04T10:03:41Z</time></trkpt><trkpt lat="42.72560543962126" lon="12.896051658545746"><ele>1326.2857142857142</ele><time>2026-04-04T10:03:42Z</time></trkpt><trkpt lat="42.72558246655098" lon="12.896137372372054"><ele>1323.4285714285713</ele><time>2026-04-04T10:03:43Z</time></trkpt><trkpt lat="42.72555499726919" lon="12.896227902053774"><ele>1320.5714285714284</ele><time>2026-04-04T10:03:44Z</time></trkpt><trkpt lat="42.725521075768306" lon="12.896306383515661"><ele>1317.7142857142858</ele><time>2026-04-04T10:03:45Z</time></trkpt><trkpt lat="42.72548482914526" lon="12.896386352765598"><ele>1314.8571428571427</ele><time>2026-04-04T10:03:46Z</time></trkpt><trkpt lat="42.72544226919741" lon="12.896477944051014"><ele>1312.0</ele><time>2026-04-04T10:03:47Z</time></trkpt><trkpt lat="42.725389684839065" lon="12.89657899947091"><ele>1312.0</ele><time>2026-04-04T10:03:48Z</time></trkpt><trkpt lat="42.72530739084795" lon="12.896658418983588"><ele>1312.0</ele><time>2026-04-04T10:03:49Z</time></trkpt><trkpt lat="42.72524260566842" lon="12.896785322320039"><ele>1312.0</ele><time>2026-04-04T10:03:51Z</time></trkpt><trkpt lat="42.725188391042515" lon="12.896872802333705"><ele>1312.0</ele><time>2026-04-04T10:03:52Z</time></trkpt><trkpt lat="42.72513294435341" lon="12.896948078806679"><ele>1312.0</ele><time>2026-04-04T10:03:53Z</time></trkpt><trkpt lat="42.725099394750664" lon="12.89703550896341"><ele>1312.0</ele><time>2026-04-04T10:03:54Z</time></trkpt><trkpt lat="42.72506343392798" lon="12.897114605744338"><ele>1314.5</ele><time>2026-04-04T10:03:55Z</time></trkpt><trkpt lat="42.72502812137" lon="12.89720060486115"><ele>1317.0</ele><time>2026-04-04T10:03:56Z</time></trkpt><trkpt lat="42.72498691261175" lon="12.89727654894425"><ele>1319.5</ele><time>2026-04-04T10:03:57Z</time></trkpt><trkpt lat="42.7249356442788" lon="12.897340884083393"><ele>1322.0</ele><time>2026-04-04T10:03:58Z</time></trkpt><trkpt lat="42.724887978948125" lon="12.897403500703739"><ele>1324.5</ele><time>2026-04-04T10:03:59Z</time></trkpt><trkpt lat="42.724834720372655" lon="12.897464860003788"><ele>1327.0</ele><time>2026-04-04T10:04:00Z</time></trkpt><trkpt lat="42.72480976085892" lon="12.897604252789712"><ele>1328.6666666666665</ele><time>2026-04-04T10:04:02Z</time></trkpt><trkpt lat="42.72486761058728" lon="12.89768210557211"><ele>1330.3333333333333</ele><time>2026-04-04T10:04:13Z</time></trkpt><trkpt lat="42.724910732106274" lon="12.897747390856543"><ele>1332.0</ele><time>2026-04-04T10:04:16Z</time></trkpt><trkpt lat="42.724946714573" lon="12.897844914950667"><ele>1333.6666666666667</ele><time>2026-04-04T10:04:40Z</time></trkpt><trkpt lat="42.72503838823557" lon="12.897900501541756"><ele>1335.3333333333335</ele><time>2026-04-04T10:04:44Z</time></trkpt><trkpt lat="42.725118976992405" lon="12.897923112677923"><ele>1337.0</ele><time>2026-04-04T10:04:47Z</time></trkpt><trkpt lat="42.7251918990805" lon="12.897953166455832"><ele>1331.5</ele><time>2026-04-04T10:04:50Z</time></trkpt><trkpt lat="42.72525863067379" lon="12.89799327798936"><ele>1326.0</ele><time>2026-04-04T10:04:52Z</time></trkpt><trkpt lat="42.725327155265624" lon="12.89802779041721"><ele>1320.5</ele><time>2026-04-04T10:04:55Z</time></trkpt><trkpt lat="42.72540589138028" lon="12.898063119146437"><ele>1315.0</ele><time>2026-04-04T10:04:58Z</time></trkpt><trkpt lat="42.72545989389069" lon="12.89815011041317"><ele>1309.5</ele><time>2026-04-04T10:05:02Z</time></trkpt><trkpt lat="42.72549795414461" lon="12.898241928588371"><ele>1304.0</ele><time>2026-04-04T10:05:07Z</time></trkpt><trkpt lat="42.72551796682334" lon="12.898325539464182"><ele>1303.8333333333335</ele><time>2026-04-04T10:05:10Z</time></trkpt><trkpt lat="42.72551402574732" lon="12.898433075792731"><ele>1303.6666666666667</ele><time>2026-04-04T10:05:14Z</time></trkpt><trkpt lat="42.72551743827079" lon="12.898520448516184"><ele>1303.5</ele><time>2026-04-04T10:05:17Z</time></trkpt><trkpt lat="42.7255200603695" lon="12.898634438684198"><ele>1303.3333333333333</ele><time>2026-04-04T10:05:20Z</time></trkpt><trkpt lat="42.725512681052244" lon="12.898727389859364"><ele>1303.1666666666665</ele><time>2026-04-04T10:05:22Z</time></trkpt><trkpt lat="42.72553288240774" lon="12.898828547372537"><ele>1303.0</ele><time>2026-04-04T10:05:25Z</time></trkpt><trkpt lat="42.72554696274528" lon="12.898946158526442"><ele>1303.0</ele><time>2026-04-04T10:05:40Z</time></trkpt><trkpt lat="42.725526972930204" lon="12.899050097318757"><ele>1303.0</ele><time>2026-04-04T10:05:44Z</time></trkpt><trkpt lat="42.725530569152" lon="12.89917019103161"><ele>1303.0</ele><time>2026-04-04T10:05:47Z</time></trkpt><trkpt lat="42.725545597100144" lon="12.899264664977695"><ele>1303.0</ele><time>2026-04-04T10:05:50Z</time></trkpt><trkpt lat="42.725534901204206" lon="12.899357401623753"><ele>1303.0</ele><time>2026-04-04T10:05:54Z</time></trkpt><trkpt lat="42.72560795039326" lon="12.899404016034142"><ele>1303.0</ele><time>2026-04-04T10:06:53Z</time></trkpt><trkpt lat="42.725633636347084" lon="12.899516446068937"><ele>1304.8333333333333</ele><time>2026-04-04T10:06:56Z</time></trkpt><trkpt lat="42.72564870274978" lon="12.899647606353803"><ele>1306.6666666666665</ele><time>2026-04-04T10:06:59Z</time></trkpt><trkpt lat="42.725640025959656" lon="12.89975507958849"><ele>1308.5</ele><time>2026-04-04T10:07:01Z</time></trkpt><trkpt lat="42.72566414304341" lon="12.899836146213346"><ele>1310.3333333333333</ele><time>2026-04-04T10:07:03Z</time></trkpt><trkpt lat="42.7256826302026" lon="12.89993399332886"><ele>1312.1666666666667</ele><time>2026-04-04T10:07:06Z</time></trkpt><trkpt lat="42.725682189656524" lon="12.900042064671693"><ele>1314.0</ele><time>2026-04-04T10:07:08Z</time></trkpt><trkpt lat="42.72571993732485" lon="12.900114719418395"><ele>1315.6666666666667</ele><time>2026-04-04T10:07:10Z</time></trkpt><trkpt lat="42.725732618755224" lon="12.900201902583673"><ele>1317.3333333333333</ele><time>2026-04-04T10:07:22Z</time></trkpt><trkpt lat="42.72575405018565" lon="12.900322529147713"><ele>1319.0</ele><time>2026-04-04T10:07:25Z</time></trkpt><trkpt lat="42.72575544667833" lon="12.90040832656809"><ele>1320.6666666666665</ele><time>2026-04-04T10:07:28Z</time></trkpt><trkpt lat="42.72580494376292" lon="12.900502366976388"><ele>1322.3333333333333</ele><time>2026-04-04T10:07:33Z</time></trkpt><trkpt lat="42.72588580928393" lon="12.900601195368964"><ele>1324.0</ele><time>2026-04-04T10:07:35Z</time></trkpt><trkpt lat="42.72593352600088" lon="12.900744256990247"><ele>1324.0</ele><time>2026-04-04T10:07:37Z</time></trkpt><trkpt lat="42.72591416135325" lon="12.900836365719037"><ele>1324.0</ele><time>2026-04-04T10:07:39Z</time></trkpt><trkpt lat="42.72588516102892" lon="12.900913083877436"><ele>1324.0</ele><time>2026-04-04T10:08:42Z</time></trkpt><trkpt lat="42.72580374986174" lon="12.900898172162577"><ele>1324.0</ele><time>2026-04-04T10:08:44Z</time></trkpt><trkpt lat="42.725773335107995" lon="12.900994701313772"><ele>1324.0</ele><time>2026-04-04T10:08:50Z</time></trkpt><trkpt lat="42.72573173193439" lon="12.901075680447237"><ele>1324.0</ele><time>2026-04-04T10:08:53Z</time></trkpt><trkpt lat="42.72567695252933" lon="12.901134527622855"><ele>1324.0</ele><time>2026-04-04T10:08:55Z</time></trkpt><trkpt lat="42.725615267099386" lon="12.901209573107895"><ele>1322.8333333333333</ele><time>2026-04-04T10:08:57Z</time></trkpt><trkpt lat="42.72554351411116" lon="12.901278302555271"><ele>1321.6666666666665</ele><time>2026-04-04T10:09:00Z</time></trkpt><trkpt lat="42.725499647548126" lon="12.901366795783202"><ele>1320.5</ele><time>2026-04-04T10:09:04Z</time></trkpt><trkpt lat="42.72546548131627" lon="12.901479896984647"><ele>1319.3333333333333</ele><time>2026-04-04T10:09:07Z</time></trkpt><trkpt lat="42.72545064491265" lon="12.901568310176152"><ele>1318.1666666666667</ele><time>2026-04-04T10:09:11Z</time></trkpt><trkpt lat="42.725433028873006" lon="12.901676422111457"><ele>1317.0</ele><time>2026-04-04T10:09:31Z</time></trkpt><trkpt lat="42.72543059265346" lon="12.901772846951225"><ele>1316.2857142857142</ele><time>2026-04-04T10:09:33Z</time></trkpt><trkpt lat="42.72545414959255" lon="12.901859464120744"><ele>1315.5714285714284</ele><time>2026-04-04T10:09:37Z</time></trkpt><trkpt lat="42.72550716039659" lon="12.90193310434462"><ele>1314.8571428571427</ele><time>2026-04-04T10:09:41Z</time></trkpt><trkpt lat="42.725560332797855" lon="12.902000842236738"><ele>1314.142857142857</ele><time>2026-04-04T10:09:44Z</time></trkpt><trkpt lat="42.72557611054802" lon="12.90208919747642"><ele>1313.4285714285713</ele><time>2026-04-04T10:09:47Z</time></trkpt><trkpt lat="42.725567500427886" lon="12.902178670020941"><ele>1312.7142857142856</ele><time>2026-04-04T10:09:54Z</time></trkpt><trkpt lat="42.72549598700382" lon="12.902200189093671"><ele>1312.0</ele><time>2026-04-04T10:09:59Z</time></trkpt><trkpt lat="42.72543686539046" lon="12.902245907392228"><ele>1312.0</ele><time>2026-04-04T10:10:02Z</time></trkpt><trkpt lat="42.725437207422935" lon="12.902334575104254"><ele>1312.0</ele><time>2026-04-04T10:10:04Z</time></trkpt><trkpt lat="42.72542655763869" lon="12.902471488933958"><ele>1312.0</ele><time>2026-04-04T10:10:06Z</time></trkpt><trkpt lat="42.725410904389115" lon="12.902575217375949"><ele>1312.0</ele><time>2026-04-04T10:10:07Z</time></trkpt><trkpt lat="42.725407583356535" lon="12.902693393515529"><ele>1312.0</ele><time>2026-04-04T10:10:09Z</time></trkpt><trkpt lat="42.72539209294798" lon="12.902804339041264"><ele>1312.0</ele><time>2026-04-04T10:10:11Z</time></trkpt><trkpt lat="42.72538492184163" lon="12.90292597183653"><ele>1311.3333333333333</ele><time>2026-04-04T10:10:13Z</time></trkpt><trkpt lat="42.72533864810161" lon="12.90303259239865"><ele>1310.6666666666665</ele><time>2026-04-04T10:10:16Z</time></trkpt><trkpt lat="42.725326414819605" lon="12.90316814371045"><ele>1310.0</ele><time>2026-04-04T10:10:18Z</time></trkpt><trkpt lat="42.72535864396091" lon="12.903287087573123"><ele>1309.3333333333333</ele><time>2026-04-04T10:10:20Z</time></trkpt><trkpt lat="42.72538814887673" lon="12.903392814620732"><ele>1308.6666666666667</ele><time>2026-04-04T10:10:22Z</time></trkpt><trkpt lat="42.72541152244498" lon="12.90349097388167"><ele>1308.0</ele><time>2026-04-04T10:10:24Z</time></trkpt><trkpt lat="42.7254455290815" lon="12.90366805157131"><ele>1307.2</ele><time>2026-04-04T10:10:26Z</time></trkpt><trkpt lat="42.72546090849258" lon="12.903753833075534"><ele>1306.4</ele><time>2026-04-04T10:10:27Z</time></trkpt><trkpt lat="42.725497374654815" lon="12.903912421173578"><ele>1305.6000000000001</ele><time>2026-04-04T10:10:29Z</time></trkpt><trkpt lat="42.725526633566545" lon="12.904008583760936"><ele>1304.8000000000002</ele><time>2026-04-04T10:10:30Z</time></trkpt><trkpt lat="42.72555679909611" lon="12.904138496449804"><ele>1304.0</ele><time>2026-04-04T10:10:31Z</time></trkpt><trkpt lat="42.72558357260575" lon="12.904258893924634"><ele>1304.0</ele><time>2026-04-04T10:10:32Z</time></trkpt><trkpt lat="42.72560119589094" lon="12.904348698181721"><ele>1304.0</ele><time>2026-04-04T10:10:33Z</time></trkpt><trkpt lat="42.72561978788023" lon="12.904438370927725"><ele>1304.0</ele><time>2026-04-04T10:10:34Z</time></trkpt><trkpt lat="42.72563485403519" lon="12.904522372536423"><ele>1304.0</ele><time>2026-04-04T10:10:35Z</time></trkpt><trkpt lat="42.72564563276384" lon="12.90461355508393"><ele>1304.0</ele><time>2026-04-04T10:10:36Z</time></trkpt><trkpt lat="42.72565858202469" lon="12.904784868262986"><ele>1304.0</ele><time>2026-04-04T10:10:38Z</time></trkpt><trkpt lat="42.725676087564146" lon="12.904884583154718"><ele>1304.0</ele><time>2026-04-04T10:10:39Z</time></trkpt><trkpt lat="42.725688455911516" lon="12.90498311282012"><ele>1304.0</ele><time>2026-04-04T10:10:40Z</time></trkpt><trkpt lat="42.72570412330573" lon="12.90507649755078"><ele>1304.0</ele><time>2026-04-04T10:10:41Z</time></trkpt><trkpt lat="42.72571225645202" lon="12.905176907499285"><ele>1304.0</ele><time>2026-04-04T10:10:43Z</time></trkpt><trkpt lat="42.725701568936806" lon="12.905276936323798"><ele>1304.0</ele><time>2026-04-04T10:10:45Z</time></trkpt><trkpt lat="42.72567594668949" lon="12.905356225445036"><ele>1304.0</ele><time>2026-04-04T10:10:46Z</time></trkpt><trkpt lat="42.72564563437208" lon="12.905449115361106"><ele>1304.0</ele><time>2026-04-04T10:10:48Z</time></trkpt><trkpt lat="42.725636609141816" lon="12.905538584001857"><ele>1305.0</ele><time>2026-04-04T10:10:49Z</time></trkpt><trkpt lat="42.725631246790726" lon="12.90564551037939"><ele>1306.0</ele><time>2026-04-04T10:10:50Z</time></trkpt><trkpt lat="42.725617209499745" lon="12.905777084862203"><ele>1307.0</ele><time>2026-04-04T10:10:51Z</time></trkpt><trkpt lat="42.72559011951266" lon="12.905945792708538"><ele>1308.0</ele><time>2026-04-04T10:10:52Z</time></trkpt><trkpt lat="42.72555675573822" lon="12.906119918581531"><ele>1309.0</ele><time>2026-04-04T10:10:53Z</time></trkpt><trkpt lat="42.725538226499744" lon="12.906250112099105"><ele>1310.1666666666665</ele><time>2026-04-04T10:10:54Z</time></trkpt><trkpt lat="42.72552936064314" lon="12.906352629014622"><ele>1311.3333333333333</ele><time>2026-04-04T10:10:55Z</time></trkpt><trkpt lat="42.72551939516789" lon="12.9064555188187"><ele>1312.5</ele><time>2026-04-04T10:10:56Z</time></trkpt><trkpt lat="42.725498674202285" lon="12.906547651676611"><ele>1313.6666666666667</ele><time>2026-04-04T10:10:57Z</time></trkpt><trkpt lat="42.7254750228061" lon="12.906663245919148"><ele>1314.8333333333335</ele><time>2026-04-04T10:10:58Z</time></trkpt><trkpt lat="42.7254603835744" lon="12.90678518404997"><ele>1316.0</ele><time>2026-04-04T10:10:59Z</time></trkpt><trkpt lat="42.72545575057995" lon="12.90691226899552"><ele>1318.25</ele><time>2026-04-04T10:11:00Z</time></trkpt><trkpt lat="42.72543212313308" lon="12.90704437096976"><ele>1320.5</ele><time>2026-04-04T10:11:01Z</time></trkpt><trkpt lat="42.72538412479516" lon="12.907201895069198"><ele>1322.75</ele><time>2026-04-04T10:11:02Z</time></trkpt><trkpt lat="42.72534050428428" lon="12.90739380078673"><ele>1325.0</ele><time>2026-04-04T10:11:03Z</time></trkpt><trkpt lat="42.72531187653334" lon="12.907560916817603"><ele>1324.2</ele><time>2026-04-04T10:11:04Z</time></trkpt><trkpt lat="42.725299493580636" lon="12.907691780883026"><ele>1323.4</ele><time>2026-04-04T10:11:05Z</time></trkpt><trkpt lat="42.72528817424264" lon="12.90783721786288"><ele>1322.6</ele><time>2026-04-04T10:11:06Z</time></trkpt><trkpt lat="42.72526518402173" lon="12.90799469248051"><ele>1321.8</ele><time>2026-04-04T10:11:07Z</time></trkpt><trkpt lat="42.72523890046435" lon="12.90814725113926"><ele>1321.0</ele><time>2026-04-04T10:11:08Z</time></trkpt><trkpt lat="42.725220269122325" lon="12.908282628191603"><ele>1321.0</ele><time>2026-04-04T10:11:09Z</time></trkpt><trkpt lat="42.72520803174527" lon="12.908408166572459"><ele>1321.0</ele><time>2026-04-04T10:11:10Z</time></trkpt><trkpt lat="42.725202734448054" lon="12.908527598737468"><ele>1321.0</ele><time>2026-04-04T10:11:11Z</time></trkpt><trkpt lat="42.72519611416992" lon="12.90865186353698"><ele>1321.0</ele><time>2026-04-04T10:11:12Z</time></trkpt><trkpt lat="42.72519812392612" lon="12.908758449109461"><ele>1321.0</ele><time>2026-04-04T10:11:13Z</time></trkpt><trkpt lat="42.72519624827459" lon="12.908860811827102"><ele>1321.0</ele><time>2026-04-04T10:11:14Z</time></trkpt><trkpt lat="42.72517175337413" lon="12.90895933279913"><ele>1322.0</ele><time>2026-04-04T10:11:15Z</time></trkpt><trkpt lat="42.725138486576434" lon="12.909073940864772"><ele>1323.0</ele><time>2026-04-04T10:11:16Z</time></trkpt><trkpt lat="42.72509945211806" lon="12.909191554850288"><ele>1324.0</ele><time>2026-04-04T10:11:17Z</time></trkpt><trkpt lat="42.725048488446156" lon="12.909274049299786"><ele>1325.0</ele><time>2026-04-04T10:11:18Z</time></trkpt><trkpt lat="42.72498764519979" lon="12.909369510974688"><ele>1326.0</ele><time>2026-04-04T10:11:19Z</time></trkpt><trkpt lat="42.72493589413572" lon="12.909448782323473"><ele>1327.0</ele><time>2026-04-04T10:11:20Z</time></trkpt><trkpt lat="42.724906374683286" lon="12.90958331265076"><ele>1327.0</ele><time>2026-04-04T10:11:22Z</time></trkpt><trkpt lat="42.72487309687634" lon="12.909660216096945"><ele>1327.0</ele><time>2026-04-04T10:11:24Z</time></trkpt><trkpt lat="42.724803206780734" lon="12.909743833718899"><ele>1327.0</ele><time>2026-04-04T10:11:26Z</time></trkpt><trkpt lat="42.72471746832972" lon="12.909813059533786"><ele>1327.0</ele><time>2026-04-04T10:11:27Z</time></trkpt><trkpt lat="42.724595070533425" lon="12.909889409781282"><ele>1327.0</ele><time>2026-04-04T10:11:28Z</time></trkpt><trkpt lat="42.724532783935786" lon="12.909922011648305"><ele>1327.0</ele><time>2026-04-04T10:11:29Z</time></trkpt><trkpt lat="42.72448840681585" lon="12.910009926950234"><ele>1327.0</ele><time>2026-04-04T10:11:31Z</time></trkpt><trkpt lat="42.724443011203405" lon="12.910163686214924"><ele>1327.0</ele><time>2026-04-04T10:11:33Z</time></trkpt><trkpt lat="42.72441884043905" lon="12.910259774943622"><ele>1327.0</ele><time>2026-04-04T10:11:34Z</time></trkpt><trkpt lat="42.72439422640508" lon="12.910360065675357"><ele>1327.0</ele><time>2026-04-04T10:11:35Z</time></trkpt><trkpt lat="42.72437516415723" lon="12.910474461312782"><ele>1327.0</ele><time>2026-04-04T10:11:36Z</time></trkpt><trkpt lat="42.7243428818801" lon="12.910658170922831"><ele>1323.25</ele><time>2026-04-04T10:11:37Z</time></trkpt><trkpt lat="42.72431667099823" lon="12.910810508512121"><ele>1319.5</ele><time>2026-04-04T10:11:38Z</time></trkpt><trkpt lat="42.72427960339521" lon="12.91097738755523"><ele>1315.75</ele><time>2026-04-04T10:11:39Z</time></trkpt><trkpt lat="42.72425016732575" lon="12.911142106910656"><ele>1312.0</ele><time>2026-04-04T10:11:40Z</time></trkpt><trkpt lat="42.724224673602286" lon="12.911297645161445"><ele>1310.75</ele><time>2026-04-04T10:11:41Z</time></trkpt><trkpt lat="42.72418451910364" lon="12.911463733025162"><ele>1309.5</ele><time>2026-04-04T10:11:42Z</time></trkpt><trkpt lat="42.72414920208192" lon="12.911611155980077"><ele>1308.25</ele><time>2026-04-04T10:11:43Z</time></trkpt><trkpt lat="42.724121581034204" lon="12.911750478241352"><ele>1307.0</ele><time>2026-04-04T10:11:44Z</time></trkpt><trkpt lat="42.724116175684124" lon="12.911904057231276"><ele>1305.25</ele><time>2026-04-04T10:11:45Z</time></trkpt><trkpt lat="42.72412038671518" lon="12.912069539500939"><ele>1303.5</ele><time>2026-04-04T10:11:46Z</time></trkpt><trkpt lat="42.72410762721005" lon="12.912224829683046"><ele>1301.75</ele><time>2026-04-04T10:11:47Z</time></trkpt><trkpt lat="42.72409900272189" lon="12.91237429747219"><ele>1300.0</ele><time>2026-04-04T10:11:48Z</time></trkpt><trkpt lat="42.72410668771746" lon="12.912543041188147"><ele>1298.5</ele><time>2026-04-04T10:11:49Z</time></trkpt><trkpt lat="42.724135283182086" lon="12.912733450507538"><ele>1297.0</ele><time>2026-04-04T10:11:50Z</time></trkpt><trkpt lat="42.7241642532998" lon="12.91290723759633"><ele>1295.5</ele><time>2026-04-04T10:11:51Z</time></trkpt><trkpt lat="42.72418742384164" lon="12.913083054702962"><ele>1294.0</ele><time>2026-04-04T10:11:52Z</time></trkpt><trkpt lat="42.724207890594286" lon="12.913236836417784"><ele>1294.0</ele><time>2026-04-04T10:11:53Z</time></trkpt><trkpt lat="42.724234104809206" lon="12.913391476647531"><ele>1294.0</ele><time>2026-04-04T10:11:54Z</time></trkpt><trkpt lat="42.72427473215116" lon="12.913514016959294"><ele>1294.0</ele><time>2026-04-04T10:11:55Z</time></trkpt><trkpt lat="42.7243248044942" lon="12.913619199453073"><ele>1294.0</ele><time>2026-04-04T10:11:56Z</time></trkpt><trkpt lat="42.724375921464976" lon="12.91372880791741"><ele>1294.0</ele><time>2026-04-04T10:11:57Z</time></trkpt><trkpt lat="42.72440625701129" lon="12.9138833320921"><ele>1293.6</ele><time>2026-04-04T10:11:58Z</time></trkpt><trkpt lat="42.72440206085446" lon="12.914045181482441"><ele>1293.2</ele><time>2026-04-04T10:11:59Z</time></trkpt><trkpt lat="42.72438980260566" lon="12.9141928538239"><ele>1292.8</ele><time>2026-04-04T10:12:00Z</time></trkpt><trkpt lat="42.72439295355584" lon="12.914353425070459"><ele>1292.3999999999999</ele><time>2026-04-04T10:12:01Z</time></trkpt><trkpt lat="42.72440182553525" lon="12.914483507140401"><ele>1292.0</ele><time>2026-04-04T10:12:02Z</time></trkpt><trkpt lat="42.72439865423955" lon="12.914630252249292"><ele>1286.0</ele><time>2026-04-04T10:12:03Z</time></trkpt><trkpt lat="42.724385383705574" lon="12.914771577089518"><ele>1280.0</ele><time>2026-04-04T10:12:04Z</time></trkpt><trkpt lat="42.72435186360463" lon="12.914928912039686"><ele>1274.0</ele><time>2026-04-04T10:12:05Z</time></trkpt><trkpt lat="42.72428993741267" lon="12.915093406142574"><ele>1268.0</ele><time>2026-04-04T10:12:06Z</time></trkpt><trkpt lat="42.724212801217305" lon="12.915252133951903"><ele>1267.0</ele><time>2026-04-04T10:12:07Z</time></trkpt><trkpt lat="42.72412697285524" lon="12.915412915376313"><ele>1266.0</ele><time>2026-04-04T10:12:08Z</time></trkpt><trkpt lat="42.72405364319079" lon="12.915544237435807"><ele>1265.0</ele><time>2026-04-04T10:12:09Z</time></trkpt><trkpt lat="42.724004720693266" lon="12.915677600075455"><ele>1264.0</ele><time>2026-04-04T10:12:10Z</time></trkpt><trkpt lat="42.72395294375699" lon="12.915842398735576"><ele>1263.0</ele><time>2026-04-04T10:12:11Z</time></trkpt><trkpt lat="42.723892105223996" lon="12.91600493158935"><ele>1262.0</ele><time>2026-04-04T10:12:12Z</time></trkpt><trkpt lat="42.7238387766255" lon="12.91614985484416"><ele>1261.0</ele><time>2026-04-04T10:12:13Z</time></trkpt><trkpt lat="42.723796618014745" lon="12.91627375168449"><ele>1260.0</ele><time>2026-04-04T10:12:14Z</time></trkpt><trkpt lat="42.7237557510561" lon="12.916385017809443"><ele>1259.0</ele><time>2026-04-04T10:12:15Z</time></trkpt><trkpt lat="42.723701496137714" lon="12.916492222868712"><ele>1259.0</ele><time>2026-04-04T10:12:16Z</time></trkpt><trkpt lat="42.72364981771622" lon="12.916572654211237"><ele>1259.0</ele><time>2026-04-04T10:12:17Z</time></trkpt><trkpt lat="42.72360356440655" lon="12.916678147490245"><ele>1259.0</ele><time>2026-04-04T10:12:18Z</time></trkpt><trkpt lat="42.72358031990571" lon="12.916766259526867"><ele>1259.0</ele><time>2026-04-04T10:12:19Z</time></trkpt><trkpt lat="42.72358655269623" lon="12.91686870689812"><ele>1259.0</ele><time>2026-04-04T10:12:20Z</time></trkpt><trkpt lat="42.72359675158925" lon="12.916996949961288"><ele>1259.0</ele><time>2026-04-04T10:12:21Z</time></trkpt><trkpt lat="42.72361409271347" lon="12.917154293830157"><ele>1256.2</ele><time>2026-04-04T10:12:22Z</time></trkpt><trkpt lat="42.723628608734515" lon="12.917277105998645"><ele>1253.4</ele><time>2026-04-04T10:12:23Z</time></trkpt><trkpt lat="42.723647776700446" lon="12.917415217803477"><ele>1250.6</ele><time>2026-04-04T10:12:24Z</time></trkpt><trkpt lat="42.72368369543229" lon="12.917567970558082"><ele>1247.8</ele><time>2026-04-04T10:12:25Z</time></trkpt><trkpt lat="42.72373058404643" lon="12.917701601771505"><ele>1245.0</ele><time>2026-04-04T10:12:26Z</time></trkpt><trkpt lat="42.72376680962993" lon="12.91781057635191"><ele>1241.2</ele><time>2026-04-04T10:12:27Z</time></trkpt><trkpt lat="42.723813213163886" lon="12.917938723596176"><ele>1237.4</ele><time>2026-04-04T10:12:28Z</time></trkpt><trkpt lat="42.72387940869914" lon="12.918027045628772"><ele>1233.6</ele><time>2026-04-04T10:12:29Z</time></trkpt><trkpt lat="42.72393812533342" lon="12.918116824682453"><ele>1229.8</ele><time>2026-04-04T10:12:30Z</time></trkpt><trkpt lat="42.72397959995878" lon="12.918256602977602"><ele>1226.0</ele><time>2026-04-04T10:12:31Z</time></trkpt><trkpt lat="42.72400599720409" lon="12.91833725413001"><ele>1222.1666666666667</ele><time>2026-04-04T10:12:32Z</time></trkpt><trkpt lat="42.72402283168902" lon="12.918487348935331"><ele>1218.3333333333335</ele><time>2026-04-04T10:12:34Z</time></trkpt><trkpt lat="42.724036514409946" lon="12.918585819386532"><ele>1214.5</ele><time>2026-04-04T10:13:28Z</time></trkpt><trkpt lat="42.72405576062366" lon="12.918671255541298"><ele>1210.6666666666667</ele><time>2026-04-04T10:13:30Z</time></trkpt><trkpt lat="42.72409085944534" lon="12.918818516372093"><ele>1206.8333333333333</ele><time>2026-04-04T10:13:32Z</time></trkpt><trkpt lat="42.724116309176566" lon="12.918918445787275"><ele>1203.0</ele><time>2026-04-04T10:13:33Z</time></trkpt><trkpt lat="42.72413938372725" lon="12.919009897342423"><ele>1203.0</ele><time>2026-04-04T10:13:34Z</time></trkpt><trkpt lat="42.724177735580035" lon="12.919144471886444"><ele>1203.0</ele><time>2026-04-04T10:13:35Z</time></trkpt><trkpt lat="42.724212865273756" lon="12.919278166108041"><ele>1203.0</ele><time>2026-04-04T10:13:36Z</time></trkpt><trkpt lat="42.724256850803464" lon="12.919406042997498"><ele>1203.0</ele><time>2026-04-04T10:13:37Z</time></trkpt><trkpt lat="42.72432038773908" lon="12.919525472630035"><ele>1203.0</ele><time>2026-04-04T10:13:38Z</time></trkpt><trkpt lat="42.72441714993222" lon="12.919668268053874"><ele>1201.25</ele><time>2026-04-04T10:13:39Z</time></trkpt><trkpt lat="42.724494766122206" lon="12.919815067425029"><ele>1199.5</ele><time>2026-04-04T10:13:40Z</time></trkpt><trkpt lat="42.724569777637875" lon="12.919953262098373"><ele>1197.75</ele><time>2026-04-04T10:13:41Z</time></trkpt><trkpt lat="42.724665339881" lon="12.92006937783427"><ele>1196.0</ele><time>2026-04-04T10:13:42Z</time></trkpt><trkpt lat="42.724763487870845" lon="12.920184460654829"><ele>1189.0</ele><time>2026-04-04T10:13:43Z</time></trkpt><trkpt lat="42.724845111429815" lon="12.920305687519765"><ele>1182.0</ele><time>2026-04-04T10:13:44Z</time></trkpt><trkpt lat="42.72493023409273" lon="12.920391366241128"><ele>1175.0</ele><time>2026-04-04T10:13:45Z</time></trkpt><trkpt lat="42.725035456314785" lon="12.9204622013701"><ele>1168.0</ele><time>2026-04-04T10:13:46Z</time></trkpt><trkpt lat="42.72514895519586" lon="12.920508511660733"><ele>1166.6666666666665</ele><time>2026-04-04T10:13:47Z</time></trkpt><trkpt lat="42.725237882194435" lon="12.920586908219498"><ele>1165.3333333333333</ele><time>2026-04-04T10:13:48Z</time></trkpt><trkpt lat="42.725317936473424" lon="12.920676051377768"><ele>1164.0</ele><time>2026-04-04T10:13:49Z</time></trkpt><trkpt lat="42.725383681609614" lon="12.920728258369593"><ele>1162.6666666666667</ele><time>2026-04-04T10:13:50Z</time></trkpt><trkpt lat="42.725460405280735" lon="12.920740923466354"><ele>1161.3333333333335</ele><time>2026-04-04T10:13:51Z</time></trkpt><trkpt lat="42.72552400338681" lon="12.920750608361065"><ele>1160.0</ele><time>2026-04-04T10:13:52Z</time></trkpt><trkpt lat="42.72558986292635" lon="12.920779696244862"><ele>1160.0</ele><time>2026-04-04T10:13:53Z</time></trkpt><trkpt lat="42.72573624174049" lon="12.9207723704576"><ele>1160.0</ele><time>2026-04-04T10:13:55Z</time></trkpt><trkpt lat="42.72585119757737" lon="12.92075120320847"><ele>1160.0</ele><time>2026-04-04T10:13:56Z</time></trkpt><trkpt lat="42.72595776666287" lon="12.920725834375608"><ele>1160.0</ele><time>2026-04-04T10:13:57Z</time></trkpt><trkpt lat="42.72606466926179" lon="12.920693360166347"><ele>1159.6</ele><time>2026-04-04T10:13:58Z</time></trkpt><trkpt lat="42.72616023678172" lon="12.920667223361693"><ele>1159.2</ele><time>2026-04-04T10:13:59Z</time></trkpt><trkpt lat="42.72623661501802" lon="12.9206240770594"><ele>1158.8</ele><time>2026-04-04T10:14:00Z</time></trkpt><trkpt lat="42.726330850522274" lon="12.920664219216158"><ele>1158.4</ele><time>2026-04-04T10:14:02Z</time></trkpt><trkpt lat="42.72637630613929" lon="12.920757492824771"><ele>1158.0</ele><time>2026-04-04T10:14:03Z</time></trkpt><trkpt lat="42.72644799772386" lon="12.9208851860381"><ele>1150.0</ele><time>2026-04-04T10:14:04Z</time></trkpt><trkpt lat="42.726556241762815" lon="12.920998650790109"><ele>1142.0</ele><time>2026-04-04T10:14:05Z</time></trkpt><trkpt lat="42.72663661161824" lon="12.921109831796146"><ele>1134.0</ele><time>2026-04-04T10:14:06Z</time></trkpt><trkpt lat="42.72671161414569" lon="12.921223311920022"><ele>1126.0</ele><time>2026-04-04T10:14:07Z</time></trkpt><trkpt lat="42.72679504559597" lon="12.921350441040834"><ele>1126.0</ele><time>2026-04-04T10:14:08Z</time></trkpt><trkpt lat="42.72686727992433" lon="12.921459862247621"><ele>1126.0</ele><time>2026-04-04T10:14:09Z</time></trkpt><trkpt lat="42.726948788591585" lon="12.921604681893669"><ele>1126.0</ele><time>2026-04-04T10:14:10Z</time></trkpt><trkpt lat="42.72704401500208" lon="12.921771914296192"><ele>1126.0</ele><time>2026-04-04T10:14:11Z</time></trkpt><trkpt lat="42.72713533068643" lon="12.9219299242916"><ele>1122.25</ele><time>2026-04-04T10:14:12Z</time></trkpt><trkpt lat="42.72722688329925" lon="12.922075608488447"><ele>1118.5</ele><time>2026-04-04T10:14:13Z</time></trkpt><trkpt lat="42.72732653321698" lon="12.92221965144854"><ele>1114.75</ele><time>2026-04-04T10:14:14Z</time></trkpt><trkpt lat="42.72743172978453" lon="12.92235999359866"><ele>1111.0</ele><time>2026-04-04T10:14:15Z</time></trkpt><trkpt lat="42.727527601123576" lon="12.922494776621035"><ele>1106.0</ele><time>2026-04-04T10:14:16Z</time></trkpt><trkpt lat="42.72763730191839" lon="12.922626295248058"><ele>1101.0</ele><time>2026-04-04T10:14:17Z</time></trkpt><trkpt lat="42.72774191354146" lon="12.92273727214845"><ele>1096.0</ele><time>2026-04-04T10:14:18Z</time></trkpt><trkpt lat="42.72783741631319" lon="12.922830083137557"><ele>1091.0</ele><time>2026-04-04T10:14:19Z</time></trkpt><trkpt lat="42.7279340382099" lon="12.922912700645476"><ele>1091.0</ele><time>2026-04-04T10:14:20Z</time></trkpt><trkpt lat="42.728030317685516" lon="12.922986722544309"><ele>1091.0</ele><time>2026-04-04T10:14:21Z</time></trkpt><trkpt lat="42.72815985546927" lon="12.923022955448562"><ele>1091.0</ele><time>2026-04-04T10:14:22Z</time></trkpt><trkpt lat="42.72828956083792" lon="12.92303956478494"><ele>1091.0</ele><time>2026-04-04T10:14:23Z</time></trkpt><trkpt lat="42.7283819836636" lon="12.923038786169158"><ele>1091.0</ele><time>2026-04-04T10:14:24Z</time></trkpt><trkpt lat="42.72845300008399" lon="12.923034146836645"><ele>1091.0</ele><time>2026-04-04T10:14:25Z</time></trkpt><trkpt lat="42.728553123369" lon="12.923055790700928"><ele>1091.0</ele><time>2026-04-04T10:14:27Z</time></trkpt><trkpt lat="42.72852834325726" lon="12.923171667542157"><ele>1091.0</ele><time>2026-04-04T10:14:29Z</time></trkpt><trkpt lat="42.72847018194542" lon="12.923256959335927"><ele>1091.0</ele><time>2026-04-04T10:14:31Z</time></trkpt><trkpt lat="42.72838500390202" lon="12.92331773843421"><ele>1091.0</ele><time>2026-04-04T10:14:33Z</time></trkpt><trkpt lat="42.72832090515211" lon="12.92334636634003"><ele>1091.0</ele><time>2026-04-04T10:14:36Z</time></trkpt><trkpt lat="42.72826029733256" lon="12.923377759694818"><ele>1091.0</ele><time>2026-04-04T10:14:38Z</time></trkpt><trkpt lat="42.728202202422935" lon="12.923413627292847"><ele>1091.0</ele><time>2026-04-04T10:15:25Z</time></trkpt><trkpt lat="42.728078210819845" lon="12.923471761700323"><ele>1091.0</ele><time>2026-04-04T10:15:28Z</time></trkpt><trkpt lat="42.72800359333011" lon="12.923481744553795"><ele>1091.0</ele><time>2026-04-04T10:15:29Z</time></trkpt><trkpt lat="42.72787615675032" lon="12.923495276758873"><ele>1084.3999999999999</ele><time>2026-04-04T10:15:30Z</time></trkpt><trkpt lat="42.727757647554284" lon="12.923485306449386"><ele>1077.8</ele><time>2026-04-04T10:15:31Z</time></trkpt><trkpt lat="42.72763719707829" lon="12.923478793983739"><ele>1071.1999999999998</ele><time>2026-04-04T10:15:32Z</time></trkpt><trkpt lat="42.72752992111677" lon="12.92347650361115"><ele>1064.6</ele><time>2026-04-04T10:15:33Z</time></trkpt><trkpt lat="42.7274379336526" lon="12.923475037057285"><ele>1058.0</ele><time>2026-04-04T10:15:34Z</time></trkpt><trkpt lat="42.727339693772585" lon="12.923481256832256"><ele>1056.6</ele><time>2026-04-04T10:15:35Z</time></trkpt><trkpt lat="42.72724706930422" lon="12.923484941717513"><ele>1055.1999999999998</ele><time>2026-04-04T10:15:36Z</time></trkpt><trkpt lat="42.727149282374974" lon="12.923502298810597"><ele>1053.8</ele><time>2026-04-04T10:15:37Z</time></trkpt><trkpt lat="42.72704883788125" lon="12.92350676608111"><ele>1052.3999999999999</ele><time>2026-04-04T10:15:38Z</time></trkpt><trkpt lat="42.72694568692517" lon="12.923488797252233"><ele>1051.0</ele><time>2026-04-04T10:15:39Z</time></trkpt><trkpt lat="42.72686212927022" lon="12.923456029894453"><ele>1048.3999999999999</ele><time>2026-04-04T10:15:40Z</time></trkpt><trkpt lat="42.72676331333991" lon="12.92341581560781"><ele>1045.8</ele><time>2026-04-04T10:15:41Z</time></trkpt><trkpt lat="42.72668899471245" lon="12.923399900444162"><ele>1043.1999999999998</ele><time>2026-04-04T10:15:42Z</time></trkpt><trkpt lat="42.72660867352156" lon="12.923451697265916"><ele>1040.6</ele><time>2026-04-04T10:15:44Z</time></trkpt><trkpt lat="42.72664807107229" lon="12.923611930544933"><ele>1038.0</ele><time>2026-04-04T10:15:46Z</time></trkpt><trkpt lat="42.72669493410875" lon="12.923710836110496"><ele>1038.0</ele><time>2026-04-04T10:15:47Z</time></trkpt><trkpt lat="42.72672891923471" lon="12.923801340431442"><ele>1038.0</ele><time>2026-04-04T10:15:48Z</time></trkpt><trkpt lat="42.72671485982956" lon="12.923895965951784"><ele>1038.0</ele><time>2026-04-04T10:15:50Z</time></trkpt><trkpt lat="42.726606997063385" lon="12.923888011614402"><ele>1038.0</ele><time>2026-04-04T10:15:52Z</time></trkpt><trkpt lat="42.726501933431024" lon="12.923876406415218"><ele>1038.0</ele><time>2026-04-04T10:15:54Z</time></trkpt><trkpt lat="42.726499688808005" lon="12.923980017707157"><ele>1038.0</ele><time>2026-04-04T10:15:56Z</time></trkpt><trkpt lat="42.72653936629876" lon="12.924050944053185"><ele>1038.0</ele><time>2026-04-04T10:15:57Z</time></trkpt><trkpt lat="42.72659546917404" lon="12.924150430475668"><ele>1038.0</ele><time>2026-04-04T10:15:58Z</time></trkpt><trkpt lat="42.72665353548737" lon="12.924310578580608"><ele>1038.0</ele><time>2026-04-04T10:15:59Z</time></trkpt><trkpt lat="42.72669596680216" lon="12.924472851231974"><ele>1038.0</ele><time>2026-04-04T10:16:00Z</time></trkpt><trkpt lat="42.72672892376836" lon="12.924620275522285"><ele>1035.3333333333333</ele><time>2026-04-04T10:16:01Z</time></trkpt><trkpt lat="42.726753994696196" lon="12.924716684300654"><ele>1032.6666666666667</ele><time>2026-04-04T10:16:02Z</time></trkpt><trkpt lat="42.72677145445765" lon="12.92482511194685"><ele>1030.0</ele><time>2026-04-04T10:16:03Z</time></trkpt><trkpt lat="42.72679023762991" lon="12.92491047773227"><ele>1027.3333333333335</ele><time>2026-04-04T10:16:04Z</time></trkpt><trkpt lat="42.726843049944975" lon="12.924976516429235"><ele>1024.6666666666667</ele><time>2026-04-04T10:16:05Z</time></trkpt><trkpt lat="42.726910703859296" lon="12.925047448440433"><ele>1022.0</ele><time>2026-04-04T10:16:06Z</time></trkpt><trkpt lat="42.72699985775171" lon="12.92508752524463"><ele>1014.5</ele><time>2026-04-04T10:16:07Z</time></trkpt><trkpt lat="42.72711674468504" lon="12.925115336251768"><ele>1007.0</ele><time>2026-04-04T10:16:08Z</time></trkpt><trkpt lat="42.727234278330364" lon="12.925151163066987"><ele>999.5</ele><time>2026-04-04T10:16:09Z</time></trkpt><trkpt lat="42.72733362555494" lon="12.925246677891856"><ele>992.0</ele><time>2026-04-04T10:16:10Z</time></trkpt><trkpt lat="42.72742385503881" lon="12.925376031654222"><ele>992.0</ele><time>2026-04-04T10:16:11Z</time></trkpt><trkpt lat="42.72749668233902" lon="12.925480687059538"><ele>992.0</ele><time>2026-04-04T10:16:12Z</time></trkpt><trkpt lat="42.72757415732293" lon="12.925558393522081"><ele>992.0</ele><time>2026-04-04T10:16:13Z</time></trkpt><trkpt lat="42.727674775104376" lon="12.925626039574334"><ele>992.0</ele><time>2026-04-04T10:16:14Z</time></trkpt><trkpt lat="42.7277870389491" lon="12.925690577293944"><ele>992.0</ele><time>2026-04-04T10:16:15Z</time></trkpt><trkpt lat="42.727878343766065" lon="12.925741486857394"><ele>994.0</ele><time>2026-04-04T10:16:16Z</time></trkpt><trkpt lat="42.72796453954778" lon="12.925808326241798"><ele>996.0</ele><time>2026-04-04T10:16:17Z</time></trkpt><trkpt lat="42.72804360607403" lon="12.925911649325991"><ele>998.0</ele><time>2026-04-04T10:16:18Z</time></trkpt><trkpt lat="42.72812357395249" lon="12.926073316260515"><ele>1000.0</ele><time>2026-04-04T10:16:19Z</time></trkpt><trkpt lat="42.728192695153105" lon="12.926235691034274"><ele>994.8</ele><time>2026-04-04T10:16:20Z</time></trkpt><trkpt lat="42.72825189721383" lon="12.92637064002482"><ele>989.6</ele><time>2026-04-04T10:16:21Z</time></trkpt><trkpt lat="42.728311959435" lon="12.926490672346576"><ele>984.4000000000001</ele><time>2026-04-04T10:16:22Z</time></trkpt><trkpt lat="42.728376774862085" lon="12.926589922738444"><ele>979.2</ele><time>2026-04-04T10:16:23Z</time></trkpt><trkpt lat="42.72847645424258" lon="12.926693894056267"><ele>974.0</ele><time>2026-04-04T10:16:24Z</time></trkpt><trkpt lat="42.72856518491341" lon="12.926774650072165"><ele>969.2</ele><time>2026-04-04T10:16:25Z</time></trkpt><trkpt lat="42.72866553052348" lon="12.926867535421122"><ele>964.4000000000001</ele><time>2026-04-04T10:16:26Z</time></trkpt><trkpt lat="42.7287561025301" lon="12.926931451286581"><ele>959.6</ele><time>2026-04-04T10:16:27Z</time></trkpt><trkpt lat="42.72883234450057" lon="12.926975609206664"><ele>954.8</ele><time>2026-04-04T10:16:28Z</time></trkpt><trkpt lat="42.72889359431456" lon="12.927005300052146"><ele>950.0</ele><time>2026-04-04T10:16:29Z</time></trkpt><trkpt lat="42.728972994358024" lon="12.927018646699796"><ele>950.0</ele><time>2026-04-04T10:16:30Z</time></trkpt><trkpt lat="42.72905878338369" lon="12.927043658217595"><ele>950.0</ele><time>2026-04-04T10:16:32Z</time></trkpt><trkpt lat="42.72904173353659" lon="12.927133019179331"><ele>950.0</ele><time>2026-04-04T10:16:34Z</time></trkpt><trkpt lat="42.72888652507542" lon="12.927185098641221"><ele>950.0</ele><time>2026-04-04T10:16:36Z</time></trkpt><trkpt lat="42.728750532665636" lon="12.92724549268289"><ele>950.0</ele><time>2026-04-04T10:16:37Z</time></trkpt><trkpt lat="42.72865704067169" lon="12.927297163349113"><ele>950.0</ele><time>2026-04-04T10:16:38Z</time></trkpt><trkpt lat="42.72855766308311" lon="12.92732095810672"><ele>950.0</ele><time>2026-04-04T10:16:39Z</time></trkpt><trkpt lat="42.72844051998773" lon="12.927345197479209"><ele>950.0</ele><time>2026-04-04T10:16:40Z</time></trkpt><trkpt lat="42.72834648075821" lon="12.927361793320172"><ele>950.0</ele><time>2026-04-04T10:16:41Z</time></trkpt><trkpt lat="42.728243142847035" lon="12.927378662565133"><ele>950.0</ele><time>2026-04-04T10:16:42Z</time></trkpt><trkpt lat="42.72814398521898" lon="12.927395178074818"><ele>950.0</ele><time>2026-04-04T10:16:43Z</time></trkpt><trkpt lat="42.728038190795516" lon="12.927420681251075"><ele>950.0</ele><time>2026-04-04T10:16:44Z</time></trkpt><trkpt lat="42.727943648505985" lon="12.927415301684592"><ele>950.0</ele><time>2026-04-04T10:16:45Z</time></trkpt><trkpt lat="42.72781622404072" lon="12.927398047396165"><ele>950.0</ele><time>2026-04-04T10:16:46Z</time></trkpt><trkpt lat="42.72768182094187" lon="12.927333966641756"><ele>948.4</ele><time>2026-04-04T10:16:47Z</time></trkpt><trkpt lat="42.72756250334717" lon="12.927273669002766"><ele>946.8</ele><time>2026-04-04T10:16:48Z</time></trkpt><trkpt lat="42.72744763505785" lon="12.927238493353482"><ele>945.2</ele><time>2026-04-04T10:16:49Z</time></trkpt><trkpt lat="42.727358098343316" lon="12.927249238697962"><ele>943.6</ele><time>2026-04-04T10:16:50Z</time></trkpt><trkpt lat="42.72726529538649" lon="12.927323612111964"><ele>942.0</ele><time>2026-04-04T10:16:51Z</time></trkpt><trkpt lat="42.72716056960029" lon="12.927469650149337"><ele>937.5</ele><time>2026-04-04T10:16:52Z</time></trkpt><trkpt lat="42.72706846547478" lon="12.927638010457374"><ele>933.0</ele><time>2026-04-04T10:16:53Z</time></trkpt><trkpt lat="42.72699875688825" lon="12.92776695074696"><ele>928.5</ele><time>2026-04-04T10:16:54Z</time></trkpt><trkpt lat="42.726928549043" lon="12.927846567603522"><ele>924.0</ele><time>2026-04-04T10:16:55Z</time></trkpt><trkpt lat="42.726823435929745" lon="12.927901197406818"><ele>924.0</ele><time>2026-04-04T10:16:56Z</time></trkpt><trkpt lat="42.72669181735242" lon="12.927949306205162"><ele>924.0000000000001</ele><time>2026-04-04T10:16:57Z</time></trkpt><trkpt lat="42.72656682220398" lon="12.928003512653131"><ele>924.0000000000001</ele><time>2026-04-04T10:16:58Z</time></trkpt><trkpt lat="42.72647270740435" lon="12.928060541159546"><ele>924.0</ele><time>2026-04-04T10:16:59Z</time></trkpt><trkpt lat="42.726412873451906" lon="12.92812312923876"><ele>924.0</ele><time>2026-04-04T10:17:00Z</time></trkpt><trkpt lat="42.72643982406664" lon="12.928226372737491"><ele>924.0</ele><time>2026-04-04T10:17:03Z</time></trkpt><trkpt lat="42.72658836187688" lon="12.928287743847804"><ele>924.0</ele><time>2026-04-04T10:17:05Z</time></trkpt><trkpt lat="42.72672545423609" lon="12.928334471313802"><ele>924.0</ele><time>2026-04-04T10:17:06Z</time></trkpt><trkpt lat="42.72684342501195" lon="12.92838109863347"><ele>924.0</ele><time>2026-04-04T10:17:07Z</time></trkpt><trkpt lat="42.726938153028215" lon="12.928417533742657"><ele>920.5</ele><time>2026-04-04T10:17:08Z</time></trkpt><trkpt lat="42.72701182748055" lon="12.928434803442748"><ele>917.0</ele><time>2026-04-04T10:17:09Z</time></trkpt><trkpt lat="42.727078992722575" lon="12.92845964433972"><ele>913.5</ele><time>2026-04-04T10:17:10Z</time></trkpt><trkpt lat="42.727147156845156" lon="12.92858572817832"><ele>910.0</ele><time>2026-04-04T10:17:12Z</time></trkpt><trkpt lat="42.727136535700666" lon="12.928715946633341"><ele>906.5</ele><time>2026-04-04T10:17:13Z</time></trkpt><trkpt lat="42.7271754953525" lon="12.92880857545234"><ele>903.0</ele><time>2026-04-04T10:17:14Z</time></trkpt><trkpt lat="42.7272001063178" lon="12.928888171492938"><ele>903.0</ele><time>2026-04-04T10:17:15Z</time></trkpt><trkpt lat="42.72724324048283" lon="12.929016632398955"><ele>903.0</ele><time>2026-04-04T10:17:17Z</time></trkpt><trkpt lat="42.72726325703385" lon="12.929122140310355"><ele>903.0</ele><time>2026-04-04T10:17:19Z</time></trkpt><trkpt lat="42.727296196436896" lon="12.929235642409191"><ele>903.0</ele><time>2026-04-04T10:17:21Z</time></trkpt><trkpt lat="42.72732748447319" lon="12.92934374937356"><ele>903.0</ele><time>2026-04-04T10:17:23Z</time></trkpt><trkpt lat="42.72737133487595" lon="12.929448703628067"><ele>903.0</ele><time>2026-04-04T10:17:25Z</time></trkpt><trkpt lat="42.727389530871086" lon="12.929558133173071"><ele>902.6666666666666</ele><time>2026-04-04T10:17:27Z</time></trkpt><trkpt lat="42.727426632596504" lon="12.929638924762578"><ele>902.3333333333333</ele><time>2026-04-04T10:17:29Z</time></trkpt><trkpt lat="42.72744896658435" lon="12.929752315390694"><ele>902.0</ele><time>2026-04-04T10:17:32Z</time></trkpt><trkpt lat="42.72746708221023" lon="12.929857706808622"><ele>901.6666666666666</ele><time>2026-04-04T10:17:34Z</time></trkpt><trkpt lat="42.72749866386024" lon="12.929931979184712"><ele>901.3333333333333</ele><time>2026-04-04T10:17:36Z</time></trkpt><trkpt lat="42.72753755029838" lon="12.930035194025015"><ele>901.0</ele><time>2026-04-04T10:17:39Z</time></trkpt><trkpt lat="42.72759520553861" lon="12.930111976233945"><ele>901.0</ele><time>2026-04-04T10:17:43Z</time></trkpt><trkpt lat="42.72765753774337" lon="12.930127198103468"><ele>901.0000000000001</ele><time>2026-04-04T10:17:45Z</time></trkpt><trkpt lat="42.72774488279105" lon="12.930118125840044"><ele>901.0</ele><time>2026-04-04T10:17:47Z</time></trkpt><trkpt lat="42.72781920182183" lon="12.93011314319419"><ele>901.0</ele><time>2026-04-04T10:17:48Z</time></trkpt><trkpt lat="42.72788245893565" lon="12.930158070283527"><ele>901.0000000000001</ele><time>2026-04-04T10:17:50Z</time></trkpt><trkpt lat="42.72789426078525" lon="12.930250920501718"><ele>901.0</ele><time>2026-04-04T10:17:52Z</time></trkpt><trkpt lat="42.72782175323547" lon="12.930273349868706"><ele>901.0</ele><time>2026-04-04T10:17:54Z</time></trkpt><trkpt lat="42.72795066428626" lon="12.93043535679998"><ele>899.1666666666666</ele><time>2026-04-04T10:17:57Z</time></trkpt><trkpt lat="42.72803425533737" lon="12.930456138027195"><ele>897.3333333333333</ele><time>2026-04-04T10:18:00Z</time></trkpt><trkpt lat="42.72810447215896" lon="12.930468943089924"><ele>895.5</ele><time>2026-04-04T10:18:02Z</time></trkpt><trkpt lat="42.72820353056373" lon="12.930495813816242"><ele>893.6666666666667</ele><time>2026-04-04T10:18:04Z</time></trkpt><trkpt lat="42.72829683870991" lon="12.930511605829905"><ele>891.8333333333334</ele><time>2026-04-04T10:18:06Z</time></trkpt><trkpt lat="42.72835904000203" lon="12.930530386698955"><ele>890.0</ele><time>2026-04-04T10:18:07Z</time></trkpt><trkpt lat="42.72842041393516" lon="12.93055240042413"><ele>890.0000000000001</ele><time>2026-04-04T10:18:08Z</time></trkpt><trkpt lat="42.72853701129288" lon="12.930584352843113"><ele>890.0</ele><time>2026-04-04T10:18:10Z</time></trkpt><trkpt lat="42.72860020123102" lon="12.930600576271909"><ele>890.0</ele><time>2026-04-04T10:18:11Z</time></trkpt><trkpt lat="42.7286679659032" lon="12.93062025033976"><ele>890.0</ele><time>2026-04-04T10:18:12Z</time></trkpt><trkpt lat="42.7287384356842" lon="12.930646078172723"><ele>890.0000000000001</ele><time>2026-04-04T10:18:13Z</time></trkpt><trkpt lat="42.72880447527487" lon="12.930678128726461"><ele>890.0</ele><time>2026-04-04T10:18:14Z</time></trkpt><trkpt lat="42.72886545230877" lon="12.930703829421029"><ele>887.8333333333334</ele><time>2026-04-04T10:18:15Z</time></trkpt><trkpt lat="42.72894771099576" lon="12.930730308790046"><ele>885.6666666666667</ele><time>2026-04-04T10:18:16Z</time></trkpt><trkpt lat="42.72904652126754" lon="12.930772002306211"><ele>883.5</ele><time>2026-04-04T10:18:17Z</time></trkpt><trkpt lat="42.72912349567794" lon="12.930810099726441"><ele>881.3333333333333</ele><time>2026-04-04T10:18:18Z</time></trkpt><trkpt lat="42.729189759314785" lon="12.930841938600366"><ele>879.1666666666666</ele><time>2026-04-04T10:18:19Z</time></trkpt><trkpt lat="42.729272187947174" lon="12.930885723440193"><ele>877.0</ele><time>2026-04-04T10:18:20Z</time></trkpt><trkpt lat="42.72939327685924" lon="12.930936813883845"><ele>877.0</ele><time>2026-04-04T10:18:21Z</time></trkpt><trkpt lat="42.72947430693438" lon="12.930992593461168"><ele>877.0</ele><time>2026-04-04T10:18:23Z</time></trkpt><trkpt lat="42.72952004116434" lon="12.931052711697607"><ele>877.0</ele><time>2026-04-04T10:18:27Z</time></trkpt><trkpt lat="42.72939398655369" lon="12.930962700041901"><ele>877.0</ele><time>2026-04-04T10:18:35Z</time></trkpt><trkpt lat="42.72933053976578" lon="12.930941192774728"><ele>877.0</ele><time>2026-04-04T10:18:36Z</time></trkpt><trkpt lat="42.72923951519926" lon="12.93087770157734"><ele>876.9999999999999</ele><time>2026-04-04T10:18:38Z</time></trkpt><trkpt lat="42.72920730724606" lon="12.93078774619195"><ele>877.0</ele><time>2026-04-04T10:18:40Z</time></trkpt><trkpt lat="42.72924939381664" lon="12.93069491244037"><ele>877.0</ele><time>2026-04-04T10:18:42Z</time></trkpt><trkpt lat="42.729301035445744" lon="12.930767957892423"><ele>877.0</ele><time>2026-04-04T10:27:10Z</time></trkpt><trkpt lat="42.72930246781902" lon="12.930893216626826"><ele>876.9999999999999</ele><time>2026-04-04T10:27:12Z</time></trkpt><trkpt lat="42.72934443595923" lon="12.930966263378261"><ele>877.0</ele><time>2026-04-04T10:27:14Z</time></trkpt><trkpt lat="42.7294090010974" lon="12.931016066421057"><ele>877.0</ele><time>2026-04-04T10:27:15Z</time></trkpt><trkpt lat="42.729496414720494" lon="12.931040961131862"><ele>877.0</ele><time>2026-04-04T10:27:16Z</time></trkpt><trkpt lat="42.729598611871616" lon="12.931081052230201"><ele>877.0</ele><time>2026-04-04T10:27:17Z</time></trkpt><trkpt lat="42.72976995563548" lon="12.93114193608923"><ele>877.0</ele><time>2026-04-04T10:27:18Z</time></trkpt><trkpt lat="42.72997906704694" lon="12.931241949814737"><ele>877.0</ele><time>2026-04-04T10:27:19Z</time></trkpt><trkpt lat="42.73015872425464" lon="12.931350034343644"><ele>877.0</ele><time>2026-04-04T10:27:20Z</time></trkpt><trkpt lat="42.73032472949274" lon="12.93144535714049"><ele>877.0</ele><time>2026-04-04T10:27:21Z</time></trkpt><trkpt lat="42.730464201955904" lon="12.931517844695273"><ele>880.75</ele><time>2026-04-04T10:27:22Z</time></trkpt><trkpt lat="42.730586824833736" lon="12.931568998925702"><ele>884.5</ele><time>2026-04-04T10:27:23Z</time></trkpt><trkpt lat="42.73069016866123" lon="12.931629857381566"><ele>888.25</ele><time>2026-04-04T10:27:24Z</time></trkpt><trkpt lat="42.7308197494432" lon="12.931688260495383"><ele>892.0</ele><time>2026-04-04T10:27:25Z</time></trkpt><trkpt lat="42.73095410461833" lon="12.931757131755532"><ele>884.0</ele><time>2026-04-04T10:27:26Z</time></trkpt><trkpt lat="42.73110752060068" lon="12.93181300912635"><ele>876.0</ele><time>2026-04-04T10:27:27Z</time></trkpt><trkpt lat="42.73126453218991" lon="12.931863267767191"><ele>868.0</ele><time>2026-04-04T10:27:28Z</time></trkpt><trkpt lat="42.73143349419028" lon="12.931912474258468"><ele>868.0</ele><time>2026-04-04T10:27:29Z</time></trkpt><trkpt lat="42.73160852689324" lon="12.931954022898728"><ele>868.0</ele><time>2026-04-04T10:27:30Z</time></trkpt><trkpt lat="42.73178390877856" lon="12.932022478235462"><ele>868.0</ele><time>2026-04-04T10:27:31Z</time></trkpt><trkpt lat="42.731940109614186" lon="12.932091904318936"><ele>859.3333333333333</ele><time>2026-04-04T10:27:32Z</time></trkpt><trkpt lat="42.732096115858" lon="12.932167695816771"><ele>850.6666666666667</ele><time>2026-04-04T10:27:33Z</time></trkpt><trkpt lat="42.73224473041122" lon="12.932187935352294"><ele>842.0</ele><time>2026-04-04T10:27:34Z</time></trkpt><trkpt lat="42.73241109228402" lon="12.932221065358393"><ele>842.0</ele><time>2026-04-04T10:27:35Z</time></trkpt><trkpt lat="42.732582490497755" lon="12.9323039997597"><ele>842.0</ele><time>2026-04-04T10:27:36Z</time></trkpt><trkpt lat="42.73274221030078" lon="12.93237912382911"><ele>842.0</ele><time>2026-04-04T10:27:37Z</time></trkpt><trkpt lat="42.73291460837176" lon="12.932459546748648"><ele>845.0</ele><time>2026-04-04T10:27:38Z</time></trkpt><trkpt lat="42.7330511916133" lon="12.932559573479352"><ele>848.0</ele><time>2026-04-04T10:27:39Z</time></trkpt><trkpt lat="42.733179850329634" lon="12.932631981868408"><ele>851.0</ele><time>2026-04-04T10:27:40Z</time></trkpt><trkpt lat="42.7333097053647" lon="12.932701016965993"><ele>854.0</ele><time>2026-04-04T10:27:41Z</time></trkpt><trkpt lat="42.73345233539974" lon="12.93277693321207"><ele>844.75</ele><time>2026-04-04T10:27:42Z</time></trkpt><trkpt lat="42.733593808515444" lon="12.932820322057266"><ele>835.5</ele><time>2026-04-04T10:27:43Z</time></trkpt><trkpt lat="42.733730869192534" lon="12.932883472126742"><ele>826.25</ele><time>2026-04-04T10:27:44Z</time></trkpt><trkpt lat="42.73388162436768" lon="12.932955425502456"><ele>817.0</ele><time>2026-04-04T10:27:45Z</time></trkpt><trkpt lat="42.73401085462348" lon="12.933028096431434"><ele>817.0</ele><time>2026-04-04T10:27:46Z</time></trkpt><trkpt lat="42.73411952245996" lon="12.933154721559067"><ele>817.0</ele><time>2026-04-04T10:27:47Z</time></trkpt><trkpt lat="42.7342199817708" lon="12.933287932906898"><ele>817.0</ele><time>2026-04-04T10:27:48Z</time></trkpt><trkpt lat="42.73433299739558" lon="12.933434685364178"><ele>817.0</ele><time>2026-04-04T10:27:49Z</time></trkpt><trkpt lat="42.734451832450915" lon="12.933581811322135"><ele>814.75</ele><time>2026-04-04T10:27:50Z</time></trkpt><trkpt lat="42.73456006192788" lon="12.933700874592862"><ele>812.5</ele><time>2026-04-04T10:27:51Z</time></trkpt><trkpt lat="42.734657336592406" lon="12.933805620604087"><ele>810.25</ele><time>2026-04-04T10:27:52Z</time></trkpt><trkpt lat="42.73474419499469" lon="12.933899572607563"><ele>808.0</ele><time>2026-04-04T10:27:53Z</time></trkpt><trkpt lat="42.73481937089567" lon="12.933995989120344"><ele>808.0</ele><time>2026-04-04T10:27:54Z</time></trkpt><trkpt lat="42.7348968320802" lon="12.9341049596505"><ele>808.0</ele><time>2026-04-04T10:27:55Z</time></trkpt><trkpt lat="42.7349832843695" lon="12.93424932015169"><ele>808.0</ele><time>2026-04-04T10:27:56Z</time></trkpt><trkpt lat="42.735086333120755" lon="12.934389489590346"><ele>808.0</ele><time>2026-04-04T10:27:57Z</time></trkpt><trkpt lat="42.735201663153525" lon="12.934482591877684"><ele>805.5999999999999</ele><time>2026-04-04T10:27:58Z</time></trkpt><trkpt lat="42.735311027544654" lon="12.934569725269348"><ele>803.1999999999999</ele><time>2026-04-04T10:27:59Z</time></trkpt><trkpt lat="42.735405182467346" lon="12.934646001216516"><ele>800.8</ele><time>2026-04-04T10:28:00Z</time></trkpt><trkpt lat="42.73548056281038" lon="12.93471815669788"><ele>798.4</ele><time>2026-04-04T10:28:01Z</time></trkpt><trkpt lat="42.735542036302625" lon="12.934803374127902"><ele>796.0</ele><time>2026-04-04T10:28:02Z</time></trkpt><trkpt lat="42.735585453208614" lon="12.934894916870105"><ele>795.9999999999999</ele><time>2026-04-04T10:28:03Z</time></trkpt><trkpt lat="42.735614100580975" lon="12.93498606503362"><ele>796.0</ele><time>2026-04-04T10:28:04Z</time></trkpt><trkpt lat="42.73565138529439" lon="12.935064578475522"><ele>796.0</ele><time>2026-04-04T10:28:05Z</time></trkpt><trkpt lat="42.73570399358151" lon="12.935119372145468"><ele>796.0</ele><time>2026-04-04T10:28:06Z</time></trkpt><trkpt lat="42.735744912611345" lon="12.935203013578777"><ele>796.0</ele><time>2026-04-04T10:28:07Z</time></trkpt><trkpt lat="42.73579075865889" lon="12.935278574371045"><ele>795.9999999999999</ele><time>2026-04-04T10:28:08Z</time></trkpt><trkpt lat="42.735847410842034" lon="12.935333412199338"><ele>796.0</ele><time>2026-04-04T10:28:09Z</time></trkpt><trkpt lat="42.735915736858864" lon="12.935382402759084"><ele>794.9999999999999</ele><time>2026-04-04T10:28:10Z</time></trkpt><trkpt lat="42.735998008045456" lon="12.935411573944934"><ele>794.0</ele><time>2026-04-04T10:28:11Z</time></trkpt><trkpt lat="42.73606952678589" lon="12.935450084320074"><ele>793.0</ele><time>2026-04-04T10:28:12Z</time></trkpt><trkpt lat="42.73614931180473" lon="12.935457566843622"><ele>792.0</ele><time>2026-04-04T10:28:13Z</time></trkpt><trkpt lat="42.73621679716119" lon="12.93550419548735"><ele>790.9999999999999</ele><time>2026-04-04T10:28:14Z</time></trkpt><trkpt lat="42.7363288454998" lon="12.935545632943878"><ele>790.0</ele><time>2026-04-04T10:28:16Z</time></trkpt><trkpt lat="42.73645702554418" lon="12.935587101387364"><ele>789.9999999999999</ele><time>2026-04-04T10:28:18Z</time></trkpt><trkpt lat="42.73652193655347" lon="12.935629885366374"><ele>790.0</ele><time>2026-04-04T10:28:19Z</time></trkpt><trkpt lat="42.73661547299883" lon="12.935696136522772"><ele>790.0</ele><time>2026-04-04T10:28:21Z</time></trkpt><trkpt lat="42.73670618373287" lon="12.935765503885186"><ele>790.0</ele><time>2026-04-04T10:28:23Z</time></trkpt><trkpt lat="42.73676712202927" lon="12.935816077703473"><ele>789.9999999999999</ele><time>2026-04-04T10:28:24Z</time></trkpt><trkpt lat="42.73682310720448" lon="12.935868177676632"><ele>790.0</ele><time>2026-04-04T10:28:25Z</time></trkpt><trkpt lat="42.73687318457438" lon="12.935924191871711"><ele>787.3333333333333</ele><time>2026-04-04T10:28:26Z</time></trkpt><trkpt lat="42.736920197742904" lon="12.935984273993512"><ele>784.6666666666666</ele><time>2026-04-04T10:28:27Z</time></trkpt><trkpt lat="42.737007717933764" lon="12.936100670021013"><ele>782.0</ele><time>2026-04-04T10:28:29Z</time></trkpt><trkpt lat="42.737074313176095" lon="12.936203816361314"><ele>779.3333333333333</ele><time>2026-04-04T10:28:31Z</time></trkpt><trkpt lat="42.737109545628236" lon="12.936295178349793"><ele>776.6666666666666</ele><time>2026-04-04T10:28:33Z</time></trkpt><trkpt lat="42.737122004878024" lon="12.936387324162713"><ele>774.0</ele><time>2026-04-04T10:28:36Z</time></trkpt><trkpt lat="42.73700955034446" lon="12.936378402350115"><ele>774.0</ele><time>2026-04-04T10:28:43Z</time></trkpt><trkpt lat="42.7369399764281" lon="12.936426061356691"><ele>774.0</ele><time>2026-04-04T10:28:59Z</time></trkpt><trkpt lat="42.73680309826916" lon="12.936523838323694"><ele>774.0</ele><time>2026-04-04T10:29:48Z</time></trkpt><trkpt lat="42.73675215629762" lon="12.936588956585057"><ele>774.0</ele><time>2026-04-04T10:29:50Z</time></trkpt><trkpt lat="42.736669910602075" lon="12.936616836310458"><ele>774.0</ele><time>2026-04-04T10:29:52Z</time></trkpt><trkpt lat="42.73659829169521" lon="12.936632476970168"><ele>774.0</ele><time>2026-04-04T10:29:55Z</time></trkpt><trkpt lat="42.73650130656584" lon="12.936704314891736"><ele>774.0</ele><time>2026-04-04T10:29:58Z</time></trkpt><trkpt lat="42.736475855390935" lon="12.936805179369324"><ele>774.0</ele><time>2026-04-04T10:29:59Z</time></trkpt><trkpt lat="42.73646224861562" lon="12.936912398827268"><ele>774.0</ele><time>2026-04-04T10:30:01Z</time></trkpt><trkpt lat="42.73638551622454" lon="12.93691611298474"><ele>774.0</ele><time>2026-04-04T10:30:04Z</time></trkpt><trkpt lat="42.73632400567582" lon="12.936890137610915"><ele>774.0</ele><time>2026-04-04T10:30:05Z</time></trkpt><trkpt lat="42.736245540912556" lon="12.936886410732663"><ele>766.0</ele><time>2026-04-04T10:30:06Z</time></trkpt><trkpt lat="42.73616664341256" lon="12.936900059748558"><ele>758.0</ele><time>2026-04-04T10:30:07Z</time></trkpt><trkpt lat="42.736097886426684" lon="12.936933868944795"><ele>750.0</ele><time>2026-04-04T10:30:08Z</time></trkpt><trkpt lat="42.73603056447809" lon="12.936968431355407"><ele>742.0</ele><time>2026-04-04T10:30:09Z</time></trkpt><trkpt lat="42.73595072303575" lon="12.937014114773667"><ele>734.0</ele><time>2026-04-04T10:30:10Z</time></trkpt><trkpt lat="42.73587389001105" lon="12.937081875370357"><ele>726.0</ele><time>2026-04-04T10:30:11Z</time></trkpt><trkpt lat="42.73578240448939" lon="12.937170797769419"><ele>726.0</ele><time>2026-04-04T10:30:12Z</time></trkpt><trkpt lat="42.735678001907274" lon="12.937229053551336"><ele>726.0</ele><time>2026-04-04T10:30:13Z</time></trkpt><trkpt lat="42.73561674796331" lon="12.937290364900937"><ele>726.0</ele><time>2026-04-04T10:30:14Z</time></trkpt><trkpt lat="42.73551042199173" lon="12.937338352366513"><ele>726.0</ele><time>2026-04-04T10:30:15Z</time></trkpt><trkpt lat="42.73539702959869" lon="12.937434103730528"><ele>726.0</ele><time>2026-04-04T10:30:16Z</time></trkpt><trkpt lat="42.73529854871253" lon="12.937494369971434"><ele>728.8</ele><time>2026-04-04T10:30:17Z</time></trkpt><trkpt lat="42.73520785780235" lon="12.937538619131445"><ele>731.5999999999999</ele><time>2026-04-04T10:30:18Z</time></trkpt><trkpt lat="42.735131438205826" lon="12.937625259956786"><ele>734.4</ele><time>2026-04-04T10:30:19Z</time></trkpt><trkpt lat="42.73504219322222" lon="12.937694582318173"><ele>737.2</ele><time>2026-04-04T10:30:20Z</time></trkpt><trkpt lat="42.734985928267804" lon="12.937796947586783"><ele>740.0</ele><time>2026-04-04T10:30:21Z</time></trkpt><trkpt lat="42.73490172791717" lon="12.937909874829732"><ele>728.5</ele><time>2026-04-04T10:30:22Z</time></trkpt><trkpt lat="42.73482006499086" lon="12.93801324921218"><ele>717.0</ele><time>2026-04-04T10:30:23Z</time></trkpt><trkpt lat="42.7347258122542" lon="12.938133690943513"><ele>705.5</ele><time>2026-04-04T10:30:24Z</time></trkpt><trkpt lat="42.73464502621452" lon="12.938265293982196"><ele>694.0</ele><time>2026-04-04T10:30:25Z</time></trkpt><trkpt lat="42.73455431216208" lon="12.938371751509736"><ele>692.0</ele><time>2026-04-04T10:30:26Z</time></trkpt><trkpt lat="42.73446794435894" lon="12.938484010285265"><ele>690.0</ele><time>2026-04-04T10:30:27Z</time></trkpt><trkpt lat="42.73438796375469" lon="12.938580625704958"><ele>688.0</ele><time>2026-04-04T10:30:28Z</time></trkpt><trkpt lat="42.73431533648702" lon="12.938669486581272"><ele>686.0</ele><time>2026-04-04T10:30:29Z</time></trkpt><trkpt lat="42.734256817852696" lon="12.938776765615595"><ele>684.0</ele><time>2026-04-04T10:30:30Z</time></trkpt><trkpt lat="42.73420604253813" lon="12.938924924629832"><ele>684.0</ele><time>2026-04-04T10:30:31Z</time></trkpt><trkpt lat="42.734149467602535" lon="12.939060729475528"><ele>684.0</ele><time>2026-04-04T10:30:32Z</time></trkpt><trkpt lat="42.73408652740693" lon="12.93919253012424"><ele>684.0</ele><time>2026-04-04T10:30:33Z</time></trkpt><trkpt lat="42.73401292657978" lon="12.939327934245554"><ele>684.0</ele><time>2026-04-04T10:30:34Z</time></trkpt><trkpt lat="42.73393242772774" lon="12.939431685093565"><ele>676.75</ele><time>2026-04-04T10:30:35Z</time></trkpt><trkpt lat="42.73385722076478" lon="12.93952681773094"><ele>669.5</ele><time>2026-04-04T10:30:36Z</time></trkpt><trkpt lat="42.73377775430323" lon="12.93963042517491"><ele>662.25</ele><time>2026-04-04T10:30:37Z</time></trkpt><trkpt lat="42.73371213048517" lon="12.939746170058498"><ele>655.0</ele><time>2026-04-04T10:30:38Z</time></trkpt><trkpt lat="42.733620111314586" lon="12.939870424057816"><ele>654.5</ele><time>2026-04-04T10:30:39Z</time></trkpt><trkpt lat="42.73353129911592" lon="12.939978844743578"><ele>654.0</ele><time>2026-04-04T10:30:40Z</time></trkpt><trkpt lat="42.73345498020265" lon="12.940085975778658"><ele>653.5</ele><time>2026-04-04T10:30:41Z</time></trkpt><trkpt lat="42.733369414610344" lon="12.940169000485241"><ele>653.0</ele><time>2026-04-04T10:30:42Z</time></trkpt><trkpt lat="42.733284313216146" lon="12.940289421622161"><ele>653.0</ele><time>2026-04-04T10:30:43Z</time></trkpt><trkpt lat="42.73318593983012" lon="12.940392044031595"><ele>653.0</ele><time>2026-04-04T10:30:44Z</time></trkpt><trkpt lat="42.73307625798628" lon="12.940488762951881"><ele>653.0</ele><time>2026-04-04T10:30:45Z</time></trkpt><trkpt lat="42.73298747769317" lon="12.940584426110478"><ele>653.0</ele><time>2026-04-04T10:30:46Z</time></trkpt><trkpt lat="42.73290857618403" lon="12.940666249989789"><ele>653.0</ele><time>2026-04-04T10:30:47Z</time></trkpt><trkpt lat="42.732819266078" lon="12.94075825534668"><ele>653.0</ele><time>2026-04-04T10:30:48Z</time></trkpt><trkpt lat="42.732751904007806" lon="12.940855041730511"><ele>653.0</ele><time>2026-04-04T10:30:49Z</time></trkpt><trkpt lat="42.73266500181144" lon="12.94092012239794"><ele>653.0</ele><time>2026-04-04T10:30:50Z</time></trkpt><trkpt lat="42.73258047448148" lon="12.941005742089159"><ele>653.0</ele><time>2026-04-04T10:30:51Z</time></trkpt><trkpt lat="42.732481773317815" lon="12.941085290471701"><ele>653.4</ele><time>2026-04-04T10:30:52Z</time></trkpt><trkpt lat="42.73241282639297" lon="12.941190697306805"><ele>653.8</ele><time>2026-04-04T10:30:53Z</time></trkpt><trkpt lat="42.7323387387616" lon="12.941278681527917"><ele>654.2</ele><time>2026-04-04T10:30:54Z</time></trkpt><trkpt lat="42.73227839127254" lon="12.941353223665669"><ele>654.6</ele><time>2026-04-04T10:30:55Z</time></trkpt><trkpt lat="42.73219009039675" lon="12.941475345290765"><ele>655.0</ele><time>2026-04-04T10:30:56Z</time></trkpt><trkpt lat="42.73211573488159" lon="12.941578859289617"><ele>655.0</ele><time>2026-04-04T10:30:57Z</time></trkpt><trkpt lat="42.732069273798366" lon="12.941670976577866"><ele>655.0</ele><time>2026-04-04T10:30:58Z</time></trkpt><trkpt lat="42.73202588204855" lon="12.941750674862039"><ele>655.0</ele><time>2026-04-04T10:30:59Z</time></trkpt><trkpt lat="42.73193267641379" lon="12.941779254264398"><ele>655.0</ele><time>2026-04-04T10:31:00Z</time></trkpt><trkpt lat="42.73185115626779" lon="12.941866375395701"><ele>655.0</ele><time>2026-04-04T10:31:01Z</time></trkpt><trkpt lat="42.73176072728461" lon="12.941983436493615"><ele>658.2</ele><time>2026-04-04T10:31:02Z</time></trkpt><trkpt lat="42.73167774823574" lon="12.942097590334132"><ele>661.4</ele><time>2026-04-04T10:31:03Z</time></trkpt><trkpt lat="42.73159818300904" lon="12.942175564641264"><ele>664.5999999999999</ele><time>2026-04-04T10:31:04Z</time></trkpt><trkpt lat="42.73152194592556" lon="12.942237912201065"><ele>667.8</ele><time>2026-04-04T10:31:05Z</time></trkpt><trkpt lat="42.73141497446672" lon="12.942220232051431"><ele>671.0</ele><time>2026-04-04T10:31:06Z</time></trkpt><trkpt lat="42.7313231947062" lon="12.942167118745974"><ele>671.0</ele><time>2026-04-04T10:31:07Z</time></trkpt><trkpt lat="42.73122918538425" lon="12.94214375512124"><ele>671.0</ele><time>2026-04-04T10:31:08Z</time></trkpt><trkpt lat="42.73109561068029" lon="12.942120237376654"><ele>671.0</ele><time>2026-04-04T10:31:09Z</time></trkpt><trkpt lat="42.73096222626718" lon="12.94212664753409"><ele>671.0</ele><time>2026-04-04T10:31:10Z</time></trkpt><trkpt lat="42.730850222409266" lon="12.942135981154719"><ele>673.5999999999999</ele><time>2026-04-04T10:31:11Z</time></trkpt><trkpt lat="42.73073944088496" lon="12.94213290413989"><ele>676.2</ele><time>2026-04-04T10:31:12Z</time></trkpt><trkpt lat="42.73066673509995" lon="12.942044999560268"><ele>678.8</ele><time>2026-04-04T10:31:13Z</time></trkpt><trkpt lat="42.73058248653291" lon="12.941966450966257"><ele>681.4000000000001</ele><time>2026-04-04T10:31:14Z</time></trkpt><trkpt lat="42.730499156446186" lon="12.941882776350011"><ele>684.0</ele><time>2026-04-04T10:31:15Z</time></trkpt><trkpt lat="42.730412220961405" lon="12.94180045032363"><ele>684.0</ele><time>2026-04-04T10:31:16Z</time></trkpt><trkpt lat="42.73034983411614" lon="12.941750684922795"><ele>684.0</ele><time>2026-04-04T10:31:17Z</time></trkpt><trkpt lat="42.730267964120465" lon="12.941740074805832"><ele>684.0</ele><time>2026-04-04T10:31:19Z</time></trkpt><trkpt lat="42.73020584457518" lon="12.941714502980233"><ele>684.0</ele><time>2026-04-04T10:31:22Z</time></trkpt><trkpt lat="42.7301922016223" lon="12.941883549191068"><ele>684.0</ele><time>2026-04-04T10:31:27Z</time></trkpt><trkpt lat="42.73011040612766" lon="12.941602371624029"><ele>683.6666666666666</ele><time>2026-04-04T10:31:33Z</time></trkpt><trkpt lat="42.730070134778536" lon="12.941525102445578"><ele>683.3333333333333</ele><time>2026-04-04T10:31:35Z</time></trkpt><trkpt lat="42.730008910015044" lon="12.941501137227034"><ele>683.0</ele><time>2026-04-04T10:31:37Z</time></trkpt><trkpt lat="42.72970314923679" lon="12.941726139865072"><ele>683.0</ele><time>2026-04-04T10:31:38Z</time></trkpt><trkpt lat="42.72963129311958" lon="12.941709823565098"><ele>683.0</ele><time>2026-04-04T10:31:39Z</time></trkpt><trkpt lat="42.72954975896722" lon="12.941708175384758"><ele>683.0</ele><time>2026-04-04T10:31:40Z</time></trkpt><trkpt lat="42.729476459296585" lon="12.941739231922996"><ele>683.0</ele><time>2026-04-04T10:31:41Z</time></trkpt><trkpt lat="42.72940385793532" lon="12.941803804855025"><ele>683.0</ele><time>2026-04-04T10:31:43Z</time></trkpt><trkpt lat="42.72952944978676" lon="12.941728551062027"><ele>686.1666666666666</ele><time>2026-04-04T10:32:19Z</time></trkpt><trkpt lat="42.72959673049747" lon="12.941723062622671"><ele>689.3333333333333</ele><time>2026-04-04T10:32:23Z</time></trkpt><trkpt lat="42.72947111438504" lon="12.941786550701323"><ele>692.5</ele><time>2026-04-04T10:32:33Z</time></trkpt><trkpt lat="42.72940417667119" lon="12.941836465193285"><ele>695.6666666666666</ele><time>2026-04-04T10:32:34Z</time></trkpt><trkpt lat="42.729348118260994" lon="12.941901989966098"><ele>698.8333333333334</ele><time>2026-04-04T10:32:36Z</time></trkpt><trkpt lat="42.72928869985523" lon="12.94195958399492"><ele>702.0</ele><time>2026-04-04T10:33:29Z</time></trkpt><trkpt lat="42.72918656943847" lon="12.942046781284871"><ele>703.75</ele><time>2026-04-04T10:33:31Z</time></trkpt><trkpt lat="42.72910588094952" lon="12.942100918351786"><ele>705.5</ele><time>2026-04-04T10:33:32Z</time></trkpt><trkpt lat="42.7289981442828" lon="12.942126686957653"><ele>707.25</ele><time>2026-04-04T10:33:33Z</time></trkpt><trkpt lat="42.728867215989254" lon="12.942128837316684"><ele>709.0</ele><time>2026-04-04T10:33:34Z</time></trkpt><trkpt lat="42.72871935994194" lon="12.942100471705245"><ele>709.0</ele><time>2026-04-04T10:33:35Z</time></trkpt><trkpt lat="42.72859255807073" lon="12.942078834332564"><ele>709.0</ele><time>2026-04-04T10:33:36Z</time></trkpt><trkpt lat="42.72848545596539" lon="12.942115160513916"><ele>709.0</ele><time>2026-04-04T10:33:37Z</time></trkpt><trkpt lat="42.728349305551596" lon="12.942148585468999"><ele>709.0</ele><time>2026-04-04T10:33:38Z</time></trkpt><trkpt lat="42.72821916172899" lon="12.942174686913898"><ele>711.0</ele><time>2026-04-04T10:33:39Z</time></trkpt><trkpt lat="42.72809403247474" lon="12.94222377685404"><ele>713.0</ele><time>2026-04-04T10:33:40Z</time></trkpt><trkpt lat="42.727980059665704" lon="12.94226018980685"><ele>715.0</ele><time>2026-04-04T10:33:41Z</time></trkpt><trkpt lat="42.727897825254146" lon="12.942293338853982"><ele>717.0</ele><time>2026-04-04T10:33:42Z</time></trkpt><trkpt lat="42.72777250694379" lon="12.942371016020903"><ele>717.0</ele><time>2026-04-04T10:33:44Z</time></trkpt><trkpt lat="42.727729228373235" lon="12.942447279071043"><ele>717.0</ele><time>2026-04-04T10:33:45Z</time></trkpt><trkpt lat="42.72768921172822" lon="12.942542188227733"><ele>717.0</ele><time>2026-04-04T10:33:46Z</time></trkpt><trkpt lat="42.72767232428624" lon="12.942640318904013"><ele>717.0</ele><time>2026-04-04T10:33:47Z</time></trkpt><trkpt lat="42.72766609173487" lon="12.942786709391637"><ele>717.0</ele><time>2026-04-04T10:33:48Z</time></trkpt><trkpt lat="42.72765824569935" lon="12.942964830713853"><ele>721.8</ele><time>2026-04-04T10:33:49Z</time></trkpt><trkpt lat="42.72767591141743" lon="12.943112655341567"><ele>726.6</ele><time>2026-04-04T10:33:50Z</time></trkpt><trkpt lat="42.72770197581726" lon="12.943243721701922"><ele>731.4</ele><time>2026-04-04T10:33:51Z</time></trkpt><trkpt lat="42.72771636855394" lon="12.94334885298037"><ele>736.1999999999999</ele><time>2026-04-04T10:33:52Z</time></trkpt><trkpt lat="42.727647445773705" lon="12.943477174961442"><ele>741.0</ele><time>2026-04-04T10:33:54Z</time></trkpt><trkpt lat="42.72758487709535" lon="12.943578093889881"><ele>745.25</ele><time>2026-04-04T10:33:55Z</time></trkpt><trkpt lat="42.72752037539752" lon="12.943698470027382"><ele>749.5</ele><time>2026-04-04T10:33:56Z</time></trkpt><trkpt lat="42.727424507946075" lon="12.943853163164768"><ele>753.75</ele><time>2026-04-04T10:33:57Z</time></trkpt><trkpt lat="42.72734146258652" lon="12.943958042226331"><ele>758.0</ele><time>2026-04-04T10:33:58Z</time></trkpt><trkpt lat="42.72723727449527" lon="12.944072939473914"><ele>758.0</ele><time>2026-04-04T10:33:59Z</time></trkpt><trkpt lat="42.72711561096026" lon="12.944199991117758"><ele>758.0</ele><time>2026-04-04T10:34:00Z</time></trkpt><trkpt lat="42.727005845149705" lon="12.944309129016377"><ele>758.0</ele><time>2026-04-04T10:34:01Z</time></trkpt><trkpt lat="42.726931980531" lon="12.94441609168734"><ele>758.0</ele><time>2026-04-04T10:34:02Z</time></trkpt><trkpt lat="42.726874057755666" lon="12.944549288373691"><ele>761.5</ele><time>2026-04-04T10:34:03Z</time></trkpt><trkpt lat="42.726820590299646" lon="12.944694616232796"><ele>765.0</ele><time>2026-04-04T10:34:04Z</time></trkpt><trkpt lat="42.72677376212884" lon="12.94488788067905"><ele>768.5</ele><time>2026-04-04T10:34:05Z</time></trkpt><trkpt lat="42.72671989445106" lon="12.945051906935191"><ele>772.0</ele><time>2026-04-04T10:34:06Z</time></trkpt><trkpt lat="42.72664128149308" lon="12.945244184448732"><ele>777.0</ele><time>2026-04-04T10:34:07Z</time></trkpt><trkpt lat="42.726534396631735" lon="12.945432254885628"><ele>782.0</ele><time>2026-04-04T10:34:08Z</time></trkpt><trkpt lat="42.72642865957703" lon="12.945616639055226"><ele>787.0</ele><time>2026-04-04T10:34:09Z</time></trkpt><trkpt lat="42.72634290391224" lon="12.945782069625777"><ele>792.75</ele><time>2026-04-04T10:34:10Z</time></trkpt><trkpt lat="42.7262748455713" lon="12.94593683998615"><ele>798.5</ele><time>2026-04-04T10:34:11Z</time></trkpt><trkpt lat="42.72621839447349" lon="12.946069492719893"><ele>804.25</ele><time>2026-04-04T10:34:12Z</time></trkpt><trkpt lat="42.726133543887215" lon="12.946153824143844"><ele>810.0</ele><time>2026-04-04T10:34:13Z</time></trkpt><trkpt lat="42.72601180473929" lon="12.946252487557981"><ele>810.25</ele><time>2026-04-04T10:34:14Z</time></trkpt><trkpt lat="42.72587752726599" lon="12.94632432102012"><ele>810.5</ele><time>2026-04-04T10:34:15Z</time></trkpt><trkpt lat="42.725761562610906" lon="12.946388818853908"><ele>810.75</ele><time>2026-04-04T10:34:16Z</time></trkpt><trkpt lat="42.72562364736542" lon="12.946453134741864"><ele>811.0</ele><time>2026-04-04T10:34:17Z</time></trkpt><trkpt lat="42.72548574793752" lon="12.946519099177513"><ele>811.0</ele><time>2026-04-04T10:34:18Z</time></trkpt><trkpt lat="42.7253559890262" lon="12.946569111925614"><ele>811.0</ele><time>2026-04-04T10:34:19Z</time></trkpt><trkpt lat="42.72527626620623" lon="12.946616047935192"><ele>811.0</ele><time>2026-04-04T10:34:20Z</time></trkpt><trkpt lat="42.725195927164535" lon="12.946704471470156"><ele>811.0</ele><time>2026-04-04T10:34:21Z</time></trkpt><trkpt lat="42.72509888913035" lon="12.946799368815299"><ele>811.0</ele><time>2026-04-04T10:34:22Z</time></trkpt><trkpt lat="42.72499667896455" lon="12.94685342348725"><ele>818.0</ele><time>2026-04-04T10:34:23Z</time></trkpt><trkpt lat="42.72488618817574" lon="12.946852032099665"><ele>825.0</ele><time>2026-04-04T10:34:24Z</time></trkpt><trkpt lat="42.72475936999088" lon="12.946890468649508"><ele>832.0</ele><time>2026-04-04T10:34:25Z</time></trkpt><trkpt lat="42.72461911774284" lon="12.946967713762982"><ele>839.0</ele><time>2026-04-04T10:34:26Z</time></trkpt><trkpt lat="42.72449774529821" lon="12.946997652536917"><ele>840.5</ele><time>2026-04-04T10:34:27Z</time></trkpt><trkpt lat="42.72436364671646" lon="12.94698881569912"><ele>842.0</ele><time>2026-04-04T10:34:28Z</time></trkpt><trkpt lat="42.72425221922901" lon="12.947038253168559"><ele>843.5</ele><time>2026-04-04T10:34:29Z</time></trkpt><trkpt lat="42.72415222019964" lon="12.947121737088672"><ele>845.0</ele><time>2026-04-04T10:34:30Z</time></trkpt><trkpt lat="42.7240533619593" lon="12.947238301592915"><ele>845.0</ele><time>2026-04-04T10:34:31Z</time></trkpt><trkpt lat="42.723976656086144" lon="12.94729805406294"><ele>845.0</ele><time>2026-04-04T10:34:32Z</time></trkpt><trkpt lat="42.72389201050144" lon="12.947330091497522"><ele>845.0</ele><time>2026-04-04T10:34:33Z</time></trkpt><trkpt lat="42.72378987512781" lon="12.947347652679507"><ele>845.0</ele><time>2026-04-04T10:34:34Z</time></trkpt><trkpt lat="42.723674239215256" lon="12.947372715305107"><ele>845.0</ele><time>2026-04-04T10:34:35Z</time></trkpt><trkpt lat="42.723557107626576" lon="12.947408101722585"><ele>848.5</ele><time>2026-04-04T10:34:36Z</time></trkpt><trkpt lat="42.72342801047812" lon="12.947407249901683"><ele>852.0</ele><time>2026-04-04T10:34:37Z</time></trkpt><trkpt lat="42.723289466072025" lon="12.94743021463681"><ele>855.5</ele><time>2026-04-04T10:34:38Z</time></trkpt><trkpt lat="42.72314983655398" lon="12.94744569370307"><ele>859.0</ele><time>2026-04-04T10:34:39Z</time></trkpt><trkpt lat="42.72303777951372" lon="12.947462902743"><ele>859.0</ele><time>2026-04-04T10:34:40Z</time></trkpt><trkpt lat="42.72293093696408" lon="12.947458510879649"><ele>859.0000000000001</ele><time>2026-04-04T10:34:41Z</time></trkpt><trkpt lat="42.722815751692124" lon="12.947462781294188"><ele>859.0000000000001</ele><time>2026-04-04T10:34:42Z</time></trkpt><trkpt lat="42.72271551557233" lon="12.947475195105985"><ele>859.0</ele><time>2026-04-04T10:34:43Z</time></trkpt><trkpt lat="42.72261804414729" lon="12.947487495687904"><ele>859.0</ele><time>2026-04-04T10:34:44Z</time></trkpt><trkpt lat="42.72250666642531" lon="12.947463271318561"><ele>863.0</ele><time>2026-04-04T10:34:45Z</time></trkpt><trkpt lat="42.722393263847515" lon="12.947439090988139"><ele>867.0</ele><time>2026-04-04T10:34:46Z</time></trkpt><trkpt lat="42.72225795765097" lon="12.947430744005409"><ele>871.0</ele><time>2026-04-04T10:34:47Z</time></trkpt><trkpt lat="42.72212435972346" lon="12.947418338990571"><ele>875.0</ele><time>2026-04-04T10:34:48Z</time></trkpt><trkpt lat="42.72198632182" lon="12.947379239272703"><ele>878.75</ele><time>2026-04-04T10:34:49Z</time></trkpt><trkpt lat="42.7218535570081" lon="12.947335776992341"><ele>882.5</ele><time>2026-04-04T10:34:50Z</time></trkpt><trkpt lat="42.721709277263294" lon="12.947298015026021"><ele>886.25</ele><time>2026-04-04T10:34:51Z</time></trkpt><trkpt lat="42.72156932317696" lon="12.947271275284708"><ele>890.0</ele><time>2026-04-04T10:34:52Z</time></trkpt><trkpt lat="42.72145395272879" lon="12.947241784261616"><ele>890.0</ele><time>2026-04-04T10:34:53Z</time></trkpt><trkpt lat="42.72137215060872" lon="12.947183457490475"><ele>890.0</ele><time>2026-04-04T10:34:54Z</time></trkpt><trkpt lat="42.72128700722904" lon="12.947080183159754"><ele>890.0</ele><time>2026-04-04T10:34:55Z</time></trkpt><trkpt lat="42.72119045833336" lon="12.947001195911314"><ele>890.0</ele><time>2026-04-04T10:34:56Z</time></trkpt><trkpt lat="42.72108842991704" lon="12.94699809011788"><ele>890.0</ele><time>2026-04-04T10:34:57Z</time></trkpt><trkpt lat="42.72095115975997" lon="12.946970412665797"><ele>896.8</ele><time>2026-04-04T10:34:58Z</time></trkpt><trkpt lat="42.720852569370955" lon="12.946952298513205"><ele>903.6</ele><time>2026-04-04T10:34:59Z</time></trkpt><trkpt lat="42.72076352533552" lon="12.946914661375212"><ele>910.4000000000001</ele><time>2026-04-04T10:35:00Z</time></trkpt><trkpt lat="42.72066912189989" lon="12.946862090856532"><ele>917.2</ele><time>2026-04-04T10:35:01Z</time></trkpt><trkpt lat="42.72058030942119" lon="12.94680043654628"><ele>924.0</ele><time>2026-04-04T10:35:02Z</time></trkpt><trkpt lat="42.72047011062196" lon="12.946752048005852"><ele>924.0</ele><time>2026-04-04T10:35:03Z</time></trkpt><trkpt lat="42.7203556071049" lon="12.946722370382064"><ele>924.0000000000001</ele><time>2026-04-04T10:35:04Z</time></trkpt><trkpt lat="42.720249073342984" lon="12.946719947282014"><ele>924.0000000000001</ele><time>2026-04-04T10:35:05Z</time></trkpt><trkpt lat="42.72015852220424" lon="12.946669190877918"><ele>924.0</ele><time>2026-04-04T10:35:06Z</time></trkpt><trkpt lat="42.72007118402853" lon="12.946612844723898"><ele>924.0</ele><time>2026-04-04T10:35:07Z</time></trkpt><trkpt lat="42.719948797472995" lon="12.94658182062953"><ele>920.0</ele><time>2026-04-04T10:35:08Z</time></trkpt><trkpt lat="42.719831180435165" lon="12.946535481448457"><ele>916.0000000000001</ele><time>2026-04-04T10:35:09Z</time></trkpt><trkpt lat="42.7197338988177" lon="12.946493733626841"><ele>912.0000000000001</ele><time>2026-04-04T10:35:10Z</time></trkpt><trkpt lat="42.71964716884893" lon="12.946473842283183"><ele>908.0</ele><time>2026-04-04T10:35:11Z</time></trkpt><trkpt lat="42.719570649641156" lon="12.9464307345839"><ele>904.0</ele><time>2026-04-04T10:35:12Z</time></trkpt><trkpt lat="42.71946668656309" lon="12.94639246718477"><ele>907.1666666666666</ele><time>2026-04-04T10:35:13Z</time></trkpt><trkpt lat="42.71934958008129" lon="12.946368958465978"><ele>910.3333333333333</ele><time>2026-04-04T10:35:14Z</time></trkpt><trkpt lat="42.71928062583513" lon="12.946361670535868"><ele>913.5</ele><time>2026-04-04T10:35:15Z</time></trkpt><trkpt lat="42.71920667784729" lon="12.946356122455827"><ele>916.6666666666667</ele><time>2026-04-04T10:35:16Z</time></trkpt><trkpt lat="42.71910321800184" lon="12.946349243678897"><ele>919.8333333333334</ele><time>2026-04-04T10:35:17Z</time></trkpt><trkpt lat="42.71902304412657" lon="12.946336346949847"><ele>923.0</ele><time>2026-04-04T10:35:18Z</time></trkpt><trkpt lat="42.71892517504502" lon="12.946321495003211"><ele>923.0</ele><time>2026-04-04T10:35:19Z</time></trkpt><trkpt lat="42.718798576692116" lon="12.946331930171093"><ele>923.0</ele><time>2026-04-04T10:35:20Z</time></trkpt><trkpt lat="42.718692739808596" lon="12.946348105520435"><ele>923.0</ele><time>2026-04-04T10:35:21Z</time></trkpt><trkpt lat="42.718601853570114" lon="12.946387549914808"><ele>923.0</ele><time>2026-04-04T10:35:22Z</time></trkpt><trkpt lat="42.71845034778973" lon="12.946353402204775"><ele>927.5999999999999</ele><time>2026-04-04T10:35:24Z</time></trkpt><trkpt lat="42.71837613978748" lon="12.94626469420416"><ele>932.1999999999999</ele><time>2026-04-04T10:35:25Z</time></trkpt><trkpt lat="42.71829993310939" lon="12.946222989547616"><ele>936.8</ele><time>2026-04-04T10:35:26Z</time></trkpt><trkpt lat="42.71818647223721" lon="12.946215279630179"><ele>941.4</ele><time>2026-04-04T10:35:27Z</time></trkpt><trkpt lat="42.7180572133987" lon="12.946191301808625"><ele>946.0</ele><time>2026-04-04T10:35:28Z</time></trkpt><trkpt lat="42.7179334993208" lon="12.946171817002703"><ele>946.0</ele><time>2026-04-04T10:35:29Z</time></trkpt><trkpt lat="42.71780603584644" lon="12.946153090803342"><ele>946.0</ele><time>2026-04-04T10:35:30Z</time></trkpt><trkpt lat="42.71767490053843" lon="12.946147302731383"><ele>946.0</ele><time>2026-04-04T10:35:31Z</time></trkpt><trkpt lat="42.717531370762636" lon="12.94611250124985"><ele>946.0</ele><time>2026-04-04T10:35:32Z</time></trkpt><trkpt lat="42.717386713403066" lon="12.94608624723494"><ele>949.0</ele><time>2026-04-04T10:35:33Z</time></trkpt><trkpt lat="42.71727436774857" lon="12.946073391492725"><ele>951.9999999999999</ele><time>2026-04-04T10:35:34Z</time></trkpt><trkpt lat="42.71718604555721" lon="12.946086149590014"><ele>954.9999999999999</ele><time>2026-04-04T10:35:35Z</time></trkpt><trkpt lat="42.71709724878995" lon="12.946094767543629"><ele>958.0</ele><time>2026-04-04T10:35:36Z</time></trkpt><trkpt lat="42.716981652441646" lon="12.946107871367445"><ele>961.0</ele><time>2026-04-04T10:35:37Z</time></trkpt><trkpt lat="42.71686424982373" lon="12.946111163772532"><ele>964.6666666666666</ele><time>2026-04-04T10:35:38Z</time></trkpt><trkpt lat="42.71669700814574" lon="12.94613508735236"><ele>968.3333333333333</ele><time>2026-04-04T10:35:39Z</time></trkpt><trkpt lat="42.71649596714014" lon="12.94613792021584"><ele>972.0</ele><time>2026-04-04T10:35:40Z</time></trkpt><trkpt lat="42.716325728475915" lon="12.94615139289543"><ele>972.0</ele><time>2026-04-04T10:35:41Z</time></trkpt><trkpt lat="42.716188817998486" lon="12.946168468768734"><ele>972.0</ele><time>2026-04-04T10:35:42Z</time></trkpt><trkpt lat="42.71605522620304" lon="12.946183353034547"><ele>972.0</ele><time>2026-04-04T10:35:43Z</time></trkpt><trkpt lat="42.71594742857657" lon="12.946222191631234"><ele>972.0</ele><time>2026-04-04T10:35:44Z</time></trkpt><trkpt lat="42.715845229752524" lon="12.946267370007664"><ele>969.5</ele><time>2026-04-04T10:35:45Z</time></trkpt><trkpt lat="42.71574191144135" lon="12.946348656040122"><ele>967.0</ele><time>2026-04-04T10:35:46Z</time></trkpt><trkpt lat="42.715627593627076" lon="12.946451367693314"><ele>964.5</ele><time>2026-04-04T10:35:47Z</time></trkpt><trkpt lat="42.71552089331408" lon="12.94658324453629"><ele>962.0</ele><time>2026-04-04T10:35:48Z</time></trkpt><trkpt lat="42.71542276642177" lon="12.946725360079082"><ele>966.75</ele><time>2026-04-04T10:35:49Z</time></trkpt><trkpt lat="42.71531871189652" lon="12.946886022730586"><ele>971.5</ele><time>2026-04-04T10:35:50Z</time></trkpt><trkpt lat="42.715242992617505" lon="12.947037047093348"><ele>976.25</ele><time>2026-04-04T10:35:51Z</time></trkpt><trkpt lat="42.71520151525091" lon="12.947155799094414"><ele>981.0</ele><time>2026-04-04T10:35:52Z</time></trkpt><trkpt lat="42.71517414738075" lon="12.947266009263792"><ele>981.0</ele><time>2026-04-04T10:35:53Z</time></trkpt><trkpt lat="42.715121569831275" lon="12.947318661569383"><ele>980.9999999999999</ele><time>2026-04-04T10:35:54Z</time></trkpt><trkpt lat="42.71501935775325" lon="12.947324056193386"><ele>980.9999999999999</ele><time>2026-04-04T10:35:55Z</time></trkpt><trkpt lat="42.71489447686381" lon="12.947289573115272"><ele>981.0</ele><time>2026-04-04T10:35:56Z</time></trkpt><trkpt lat="42.714767067802256" lon="12.947204862138378"><ele>981.0</ele><time>2026-04-04T10:35:57Z</time></trkpt><trkpt lat="42.71461385898198" lon="12.947094295048641"><ele>981.0</ele><time>2026-04-04T10:35:58Z</time></trkpt><trkpt lat="42.71446576160005" lon="12.946991868721362"><ele>981.0</ele><time>2026-04-04T10:35:59Z</time></trkpt><trkpt lat="42.71436201697645" lon="12.946920518268893"><ele>981.0</ele><time>2026-04-04T10:36:00Z</time></trkpt><trkpt lat="42.714267755576195" lon="12.946856255873758"><ele>981.0</ele><time>2026-04-04T10:36:01Z</time></trkpt><trkpt lat="42.71419123562244" lon="12.946845310677226"><ele>982.8333333333334</ele><time>2026-04-04T10:36:02Z</time></trkpt><trkpt lat="42.71411239918148" lon="12.946869508912528"><ele>984.6666666666667</ele><time>2026-04-04T10:36:03Z</time></trkpt><trkpt lat="42.7140410672742" lon="12.946905045288446"><ele>986.5</ele><time>2026-04-04T10:36:04Z</time></trkpt><trkpt lat="42.71396256472053" lon="12.946966789162618"><ele>988.3333333333334</ele><time>2026-04-04T10:36:05Z</time></trkpt><trkpt lat="42.71390424466376" lon="12.947044133671001"><ele>990.1666666666667</ele><time>2026-04-04T10:36:06Z</time></trkpt><trkpt lat="42.71383464081414" lon="12.94716877810529"><ele>992.0</ele><time>2026-04-04T10:36:07Z</time></trkpt><trkpt lat="42.71374711823628" lon="12.947303613421793"><ele>992.0</ele><time>2026-04-04T10:36:08Z</time></trkpt><trkpt lat="42.7136263900275" lon="12.947430902387017"><ele>992.0</ele><time>2026-04-04T10:36:09Z</time></trkpt><trkpt lat="42.71351570118297" lon="12.947533280807528"><ele>992.0</ele><time>2026-04-04T10:36:10Z</time></trkpt><trkpt lat="42.71342732019694" lon="12.947646259493661"><ele>992.0</ele><time>2026-04-04T10:36:11Z</time></trkpt><trkpt lat="42.71336157279991" lon="12.947796540634123"><ele>994.3333333333334</ele><time>2026-04-04T10:36:12Z</time></trkpt><trkpt lat="42.713268005765144" lon="12.947993148613447"><ele>996.6666666666667</ele><time>2026-04-04T10:36:13Z</time></trkpt><trkpt lat="42.71317337174743" lon="12.94817650102087"><ele>999.0</ele><time>2026-04-04T10:36:14Z</time></trkpt><trkpt lat="42.71307547927428" lon="12.94838544831558"><ele>998.3333333333333</ele><time>2026-04-04T10:36:15Z</time></trkpt><trkpt lat="42.71295704233074" lon="12.948610278019128"><ele>997.6666666666666</ele><time>2026-04-04T10:36:16Z</time></trkpt><trkpt lat="42.71282670226011" lon="12.948835067517852"><ele>997.0</ele><time>2026-04-04T10:36:17Z</time></trkpt><trkpt lat="42.71273456864509" lon="12.948994053086167"><ele>997.0</ele><time>2026-04-04T10:36:18Z</time></trkpt><trkpt lat="42.712622870727394" lon="12.949153419415413"><ele>997.0</ele><time>2026-04-04T10:36:19Z</time></trkpt><trkpt lat="42.71250478192193" lon="12.94931944694954"><ele>997.0</ele><time>2026-04-04T10:36:20Z</time></trkpt><trkpt lat="42.71242071431962" lon="12.949469483623101"><ele>1001.3333333333333</ele><time>2026-04-04T10:36:21Z</time></trkpt><trkpt lat="42.712349080255656" lon="12.949622864535668"><ele>1005.6666666666667</ele><time>2026-04-04T10:36:22Z</time></trkpt><trkpt lat="42.71229386402411" lon="12.949804320098023"><ele>1010.0</ele><time>2026-04-04T10:36:23Z</time></trkpt><trkpt lat="42.71224449568365" lon="12.950033047596557"><ele>1011.25</ele><time>2026-04-04T10:36:24Z</time></trkpt><trkpt lat="42.71222791190597" lon="12.950202293910387"><ele>1012.5</ele><time>2026-04-04T10:36:25Z</time></trkpt><trkpt lat="42.712234042112975" lon="12.95035436859246"><ele>1013.75</ele><time>2026-04-04T10:36:26Z</time></trkpt><trkpt lat="42.71225247784496" lon="12.950523011918897"><ele>1015.0</ele><time>2026-04-04T10:36:27Z</time></trkpt><trkpt lat="42.712247842524285" lon="12.95065448633409"><ele>1014.9999999999999</ele><time>2026-04-04T10:36:28Z</time></trkpt><trkpt lat="42.7122312759857" lon="12.950747297876756"><ele>1015.0</ele><time>2026-04-04T10:36:29Z</time></trkpt><trkpt lat="42.71221180800665" lon="12.950875366136366"><ele>1015.0</ele><time>2026-04-04T10:36:30Z</time></trkpt><trkpt lat="42.71216928770492" lon="12.950956790461145"><ele>1015.0</ele><time>2026-04-04T10:36:31Z</time></trkpt><trkpt lat="42.71212653122336" lon="12.951083810888758"><ele>1014.9999999999999</ele><time>2026-04-04T10:36:32Z</time></trkpt><trkpt lat="42.712116917263174" lon="12.951208550185"><ele>1015.0</ele><time>2026-04-04T10:36:33Z</time></trkpt><trkpt lat="42.71211633409699" lon="12.95133254249007"><ele>1014.6666666666666</ele><time>2026-04-04T10:36:34Z</time></trkpt><trkpt lat="42.712141241348654" lon="12.951426702246591"><ele>1014.3333333333333</ele><time>2026-04-04T10:36:35Z</time></trkpt><trkpt lat="42.71220390706173" lon="12.951546201930663"><ele>1014.0</ele><time>2026-04-04T10:36:37Z</time></trkpt><trkpt lat="42.712251016229686" lon="12.951614549312897"><ele>1013.6666666666667</ele><time>2026-04-04T10:36:40Z</time></trkpt><trkpt lat="42.71228111756201" lon="12.951711749185167"><ele>1013.3333333333334</ele><time>2026-04-04T10:36:43Z</time></trkpt><trkpt lat="42.712269762678865" lon="12.95182639517757"><ele>1013.0</ele><time>2026-04-04T10:36:46Z</time></trkpt><trkpt lat="42.7123272625818" lon="12.951872105144718"><ele>1013.0</ele><time>2026-04-04T10:36:51Z</time></trkpt><trkpt lat="42.71240422863724" lon="12.951776946087717"><ele>1013.0</ele><time>2026-04-04T10:36:56Z</time></trkpt><trkpt lat="42.71247757580118" lon="12.951780523770708"><ele>1013.0</ele><time>2026-04-04T10:36:59Z</time></trkpt><trkpt lat="42.71254252104497" lon="12.951721502661192"><ele>1013.0</ele><time>2026-04-04T10:37:02Z</time></trkpt><trkpt lat="42.71263325108197" lon="12.951655575808655"><ele>1013.0</ele><time>2026-04-04T10:37:05Z</time></trkpt><trkpt lat="42.71274391384134" lon="12.951570348166124"><ele>1013.6666666666667</ele><time>2026-04-04T10:37:07Z</time></trkpt><trkpt lat="42.712802807443936" lon="12.951533280934191"><ele>1014.3333333333334</ele><time>2026-04-04T10:37:08Z</time></trkpt><trkpt lat="42.7128689084699" lon="12.951490225243585"><ele>1015.0</ele><time>2026-04-04T10:37:09Z</time></trkpt><trkpt lat="42.71295227367089" lon="12.951428587577176"><ele>1015.6666666666667</ele><time>2026-04-04T10:37:10Z</time></trkpt><trkpt lat="42.71302376686568" lon="12.951396835982397"><ele>1016.3333333333334</ele><time>2026-04-04T10:37:11Z</time></trkpt><trkpt lat="42.71309142003254" lon="12.951397545767977"><ele>1017.0</ele><time>2026-04-04T10:37:12Z</time></trkpt><trkpt lat="42.71320021679323" lon="12.951408311107413"><ele>1017.0</ele><time>2026-04-04T10:37:13Z</time></trkpt><trkpt lat="42.713317069713305" lon="12.951423612790327"><ele>1017.0</ele><time>2026-04-04T10:37:14Z</time></trkpt><trkpt lat="42.713394065273214" lon="12.951410983730751"><ele>1017.0</ele><time>2026-04-04T10:37:15Z</time></trkpt><trkpt lat="42.71345944387701" lon="12.951375752910716"><ele>1017.0</ele><time>2026-04-04T10:37:16Z</time></trkpt><trkpt lat="42.71355158956481" lon="12.95130831537011"><ele>1017.0</ele><time>2026-04-04T10:37:17Z</time></trkpt><trkpt lat="42.71365894521063" lon="12.951165935972638"><ele>1017.25</ele><time>2026-04-04T10:37:18Z</time></trkpt><trkpt lat="42.713765046580846" lon="12.951048228512583"><ele>1017.5</ele><time>2026-04-04T10:37:19Z</time></trkpt><trkpt lat="42.7138560842406" lon="12.950983593603937"><ele>1017.75</ele><time>2026-04-04T10:37:20Z</time></trkpt><trkpt lat="42.713933995876566" lon="12.95094143946207"><ele>1018.0</ele><time>2026-04-04T10:37:21Z</time></trkpt><trkpt lat="42.71403481762699" lon="12.950748393864302"><ele>1019.5</ele><time>2026-04-04T10:37:23Z</time></trkpt><trkpt lat="42.71412141547358" lon="12.950612785947076"><ele>1021.0</ele><time>2026-04-04T10:37:24Z</time></trkpt><trkpt lat="42.71422596579689" lon="12.950532642297587"><ele>1022.5</ele><time>2026-04-04T10:37:25Z</time></trkpt><trkpt lat="42.71434974908235" lon="12.950486473587771"><ele>1024.0</ele><time>2026-04-04T10:37:26Z</time></trkpt><trkpt lat="42.714470868517026" lon="12.950480481327496"><ele>1024.2</ele><time>2026-04-04T10:37:27Z</time></trkpt><trkpt lat="42.714575880653186" lon="12.950482622395262"><ele>1024.4</ele><time>2026-04-04T10:37:28Z</time></trkpt><trkpt lat="42.71467921916981" lon="12.950492616295902"><ele>1024.6</ele><time>2026-04-04T10:37:29Z</time></trkpt><trkpt lat="42.71477555121643" lon="12.95051117049688"><ele>1024.8</ele><time>2026-04-04T10:37:30Z</time></trkpt><trkpt lat="42.71487011916115" lon="12.950523996988172"><ele>1025.0</ele><time>2026-04-04T10:37:31Z</time></trkpt><trkpt lat="42.71498162767397" lon="12.950499596684482"><ele>1025.0</ele><time>2026-04-04T10:37:32Z</time></trkpt><trkpt lat="42.715106113457566" lon="12.950522854002813"><ele>1025.0</ele><time>2026-04-04T10:37:33Z</time></trkpt><trkpt lat="42.71522903346356" lon="12.950542974568506"><ele>1025.0</ele><time>2026-04-04T10:37:34Z</time></trkpt><trkpt lat="42.71533126250239" lon="12.950541938174332"><ele>1025.0</ele><time>2026-04-04T10:37:35Z</time></trkpt><trkpt lat="42.71544004856851" lon="12.950509906525852"><ele>1027.25</ele><time>2026-04-04T10:37:36Z</time></trkpt><trkpt lat="42.715574913593834" lon="12.95048003733707"><ele>1029.5</ele><time>2026-04-04T10:37:37Z</time></trkpt><trkpt lat="42.715705847549366" lon="12.950463505701286"><ele>1031.75</ele><time>2026-04-04T10:37:38Z</time></trkpt><trkpt lat="42.715850057627236" lon="12.950470551810312"><ele>1034.0</ele><time>2026-04-04T10:37:39Z</time></trkpt><trkpt lat="42.715993651203966" lon="12.950493463795693"><ele>1036.5</ele><time>2026-04-04T10:37:40Z</time></trkpt><trkpt lat="42.71611644696355" lon="12.950502538691499"><ele>1039.0</ele><time>2026-04-04T10:37:41Z</time></trkpt><trkpt lat="42.71623778129091" lon="12.950504933184657"><ele>1041.5</ele><time>2026-04-04T10:37:42Z</time></trkpt><trkpt lat="42.716355938296" lon="12.950489136178089"><ele>1044.0</ele><time>2026-04-04T10:37:43Z</time></trkpt><trkpt lat="42.71646976308097" lon="12.950440965637357"><ele>1044.0</ele><time>2026-04-04T10:37:44Z</time></trkpt><trkpt lat="42.71660688941844" lon="12.950432639008417"><ele>1044.0</ele><time>2026-04-04T10:37:45Z</time></trkpt><trkpt lat="42.71674875348777" lon="12.950452974792709"><ele>1044.0</ele><time>2026-04-04T10:37:46Z</time></trkpt><trkpt lat="42.716896617542545" lon="12.950509206682069"><ele>1044.0</ele><time>2026-04-04T10:37:47Z</time></trkpt><trkpt lat="42.71704456952544" lon="12.950596185229218"><ele>1047.5</ele><time>2026-04-04T10:37:48Z</time></trkpt><trkpt lat="42.71716690013272" lon="12.950671833522874"><ele>1051.0</ele><time>2026-04-04T10:37:49Z</time></trkpt><trkpt lat="42.71729506510392" lon="12.950741823137102"><ele>1054.5</ele><time>2026-04-04T10:37:50Z</time></trkpt><trkpt lat="42.71743392707644" lon="12.950785132059977"><ele>1058.0</ele><time>2026-04-04T10:37:51Z</time></trkpt><trkpt lat="42.717557908466624" lon="12.950816343352773"><ele>1058.0</ele><time>2026-04-04T10:37:52Z</time></trkpt><trkpt lat="42.71771455302668" lon="12.95083799784531"><ele>1058.0</ele><time>2026-04-04T10:37:53Z</time></trkpt><trkpt lat="42.717856370444125" lon="12.950872485967142"><ele>1058.0</ele><time>2026-04-04T10:37:54Z</time></trkpt><trkpt lat="42.71798878533169" lon="12.950922473880436"><ele>1058.0</ele><time>2026-04-04T10:37:55Z</time></trkpt><trkpt lat="42.71810737421219" lon="12.950947943988991"><ele>1058.75</ele><time>2026-04-04T10:37:56Z</time></trkpt><trkpt lat="42.71824597752217" lon="12.95096644650564"><ele>1059.5</ele><time>2026-04-04T10:37:57Z</time></trkpt><trkpt lat="42.718389769746246" lon="12.950966071339518"><ele>1060.25</ele><time>2026-04-04T10:37:58Z</time></trkpt><trkpt lat="42.71853174568071" lon="12.950997251817803"><ele>1061.0</ele><time>2026-04-04T10:37:59Z</time></trkpt><trkpt lat="42.718679103770306" lon="12.951024416308544"><ele>1063.25</ele><time>2026-04-04T10:38:00Z</time></trkpt><trkpt lat="42.718833962317944" lon="12.951053165772242"><ele>1065.5</ele><time>2026-04-04T10:38:01Z</time></trkpt><trkpt lat="42.718973934278175" lon="12.951071772155094"><ele>1067.75</ele><time>2026-04-04T10:38:02Z</time></trkpt><trkpt lat="42.719086977559655" lon="12.951050110878562"><ele>1070.0</ele><time>2026-04-04T10:38:03Z</time></trkpt><trkpt lat="42.719196690789154" lon="12.951026173735789"><ele>1070.0</ele><time>2026-04-04T10:38:04Z</time></trkpt><trkpt lat="42.719323785085365" lon="12.951001755300647"><ele>1070.0</ele><time>2026-04-04T10:38:05Z</time></trkpt><trkpt lat="42.71945752618434" lon="12.95091615343086"><ele>1070.0</ele><time>2026-04-04T10:38:06Z</time></trkpt><trkpt lat="42.719562878914765" lon="12.950839222331808"><ele>1070.0</ele><time>2026-04-04T10:38:07Z</time></trkpt><trkpt lat="42.719670258810844" lon="12.950824158298067"><ele>1070.5</ele><time>2026-04-04T10:38:08Z</time></trkpt><trkpt lat="42.71978811064779" lon="12.950835071101919"><ele>1071.0</ele><time>2026-04-04T10:38:09Z</time></trkpt><trkpt lat="42.71990754498401" lon="12.950838549776545"><ele>1071.5</ele><time>2026-04-04T10:38:10Z</time></trkpt><trkpt lat="42.72004013684568" lon="12.950833079880406"><ele>1072.0</ele><time>2026-04-04T10:38:11Z</time></trkpt><trkpt lat="42.7201783382386" lon="12.95083639994669"><ele>1071.25</ele><time>2026-04-04T10:38:12Z</time></trkpt><trkpt lat="42.720311468092646" lon="12.950838447624221"><ele>1070.5</ele><time>2026-04-04T10:38:13Z</time></trkpt><trkpt lat="42.72043841417609" lon="12.9508286332555"><ele>1069.75</ele><time>2026-04-04T10:38:14Z</time></trkpt><trkpt lat="42.720541307260845" lon="12.950839158601179"><ele>1069.0</ele><time>2026-04-04T10:38:15Z</time></trkpt><trkpt lat="42.720646108711044" lon="12.950897843778227"><ele>1068.75</ele><time>2026-04-04T10:38:16Z</time></trkpt><trkpt lat="42.720759958276666" lon="12.950984518324363"><ele>1068.5</ele><time>2026-04-04T10:38:17Z</time></trkpt><trkpt lat="42.72089621489755" lon="12.951077845691565"><ele>1068.25</ele><time>2026-04-04T10:38:18Z</time></trkpt><trkpt lat="42.72102092511484" lon="12.951168889091202"><ele>1068.0</ele><time>2026-04-04T10:38:19Z</time></trkpt><trkpt lat="42.721115248263565" lon="12.951230469367617"><ele>1067.8</ele><time>2026-04-04T10:38:20Z</time></trkpt><trkpt lat="42.72120514219579" lon="12.951291526619883"><ele>1067.6</ele><time>2026-04-04T10:38:21Z</time></trkpt><trkpt lat="42.72129137474684" lon="12.951332393751583"><ele>1067.4</ele><time>2026-04-04T10:38:22Z</time></trkpt><trkpt lat="42.7213825146857" lon="12.951395720945118"><ele>1067.2</ele><time>2026-04-04T10:38:23Z</time></trkpt><trkpt lat="42.721467594010406" lon="12.951440031528714"><ele>1067.0</ele><time>2026-04-04T10:38:24Z</time></trkpt><trkpt lat="42.72153136869076" lon="12.95147834283986"><ele>1067.0</ele><time>2026-04-04T10:38:25Z</time></trkpt><trkpt lat="42.72158977422272" lon="12.951536468763443"><ele>1067.0</ele><time>2026-04-04T10:38:26Z</time></trkpt><trkpt lat="42.72168449960114" lon="12.951616977942543"><ele>1067.0</ele><time>2026-04-04T10:38:27Z</time></trkpt><trkpt lat="42.72180393127698" lon="12.95173274557362"><ele>1067.0</ele><time>2026-04-04T10:38:28Z</time></trkpt><trkpt lat="42.721941031981366" lon="12.951872539033817"><ele>1065.8</ele><time>2026-04-04T10:38:29Z</time></trkpt><trkpt lat="42.7220555750523" lon="12.951968612754044"><ele>1064.6</ele><time>2026-04-04T10:38:30Z</time></trkpt><trkpt lat="42.722153753286605" lon="12.952038948457409"><ele>1063.3999999999999</ele><time>2026-04-04T10:38:31Z</time></trkpt><trkpt lat="42.72224528688334" lon="12.952102485713878"><ele>1062.2</ele><time>2026-04-04T10:38:32Z</time></trkpt><trkpt lat="42.722312806294774" lon="12.952156636465025"><ele>1061.0</ele><time>2026-04-04T10:38:33Z</time></trkpt><trkpt lat="42.72238679299953" lon="12.952209801096357"><ele>1061.0</ele><time>2026-04-04T10:38:34Z</time></trkpt><trkpt lat="42.722470959175276" lon="12.952270109810874"><ele>1061.0</ele><time>2026-04-04T10:38:35Z</time></trkpt><trkpt lat="42.72257033398239" lon="12.952334522904911"><ele>1061.0</ele><time>2026-04-04T10:38:36Z</time></trkpt><trkpt lat="42.72269180689246" lon="12.952394476312481"><ele>1061.0</ele><time>2026-04-04T10:38:37Z</time></trkpt><trkpt lat="42.72282934980858" lon="12.952458082233363"><ele>1060.2</ele><time>2026-04-04T10:38:38Z</time></trkpt><trkpt lat="42.72293541720837" lon="12.952504716148491"><ele>1059.3999999999999</ele><time>2026-04-04T10:38:39Z</time></trkpt><trkpt lat="42.723027895828494" lon="12.952541596737332"><ele>1058.6</ele><time>2026-04-04T10:38:40Z</time></trkpt><trkpt lat="42.72310981773482" lon="12.952558472121245"><ele>1057.8</ele><time>2026-04-04T10:38:41Z</time></trkpt><trkpt lat="42.723216863688826" lon="12.952578493243188"><ele>1057.0</ele><time>2026-04-04T10:38:42Z</time></trkpt><trkpt lat="42.72333083114052" lon="12.952579706346421"><ele>1055.25</ele><time>2026-04-04T10:38:43Z</time></trkpt><trkpt lat="42.72345538765573" lon="12.95254412919141"><ele>1053.5</ele><time>2026-04-04T10:38:44Z</time></trkpt><trkpt lat="42.72359662806435" lon="12.952495386150117"><ele>1051.75</ele><time>2026-04-04T10:38:45Z</time></trkpt><trkpt lat="42.723743046894306" lon="12.952453628097368"><ele>1050.0</ele><time>2026-04-04T10:38:46Z</time></trkpt><trkpt lat="42.72387157129461" lon="12.952426654268008"><ele>1050.0</ele><time>2026-04-04T10:38:47Z</time></trkpt><trkpt lat="42.7240033152927" lon="12.95239863164485"><ele>1050.0</ele><time>2026-04-04T10:38:48Z</time></trkpt><trkpt lat="42.72411782054041" lon="12.952390966464037"><ele>1050.0</ele><time>2026-04-04T10:38:49Z</time></trkpt><trkpt lat="42.72421965556216" lon="12.952406239841341"><ele>1050.0</ele><time>2026-04-04T10:38:50Z</time></trkpt><trkpt lat="42.72428505179546" lon="12.952438327306304"><ele>1050.0</ele><time>2026-04-04T10:38:51Z</time></trkpt><trkpt lat="42.7243980884691" lon="12.952474506604435"><ele>1049.1666666666667</ele><time>2026-04-04T10:38:53Z</time></trkpt><trkpt lat="42.72446753725044" lon="12.952478695507509"><ele>1048.3333333333333</ele><time>2026-04-04T10:38:54Z</time></trkpt><trkpt lat="42.72454066116406" lon="12.95246171941314"><ele>1047.5</ele><time>2026-04-04T10:38:56Z</time></trkpt><trkpt lat="42.724620059904154" lon="12.952469676495435"><ele>1046.6666666666665</ele><time>2026-04-04T10:39:00Z</time></trkpt><trkpt lat="42.724690677698874" lon="12.952490260291393"><ele>1045.8333333333333</ele><time>2026-04-04T10:39:01Z</time></trkpt><trkpt lat="42.7247765198294" lon="12.952529147040073"><ele>1045.0</ele><time>2026-04-04T10:39:02Z</time></trkpt><trkpt lat="42.72487724104755" lon="12.952580605791287"><ele>1044.0</ele><time>2026-04-04T10:39:04Z</time></trkpt><trkpt lat="42.724941821784824" lon="12.952592206902413"><ele>1043.0</ele><time>2026-04-04T10:39:05Z</time></trkpt><trkpt lat="42.725054693564864" lon="12.952633418678788"><ele>1042.0</ele><time>2026-04-04T10:39:06Z</time></trkpt><trkpt lat="42.72514999018884" lon="12.952652616645377"><ele>1041.0</ele><time>2026-04-04T10:39:07Z</time></trkpt><trkpt lat="42.72524772742055" lon="12.952661927961001"><ele>1040.0</ele><time>2026-04-04T10:39:08Z</time></trkpt><trkpt lat="42.72534154339356" lon="12.952665716622835"><ele>1039.4</ele><time>2026-04-04T10:39:09Z</time></trkpt><trkpt lat="42.725436236892165" lon="12.95265584645772"><ele>1038.8</ele><time>2026-04-04T10:39:10Z</time></trkpt><trkpt lat="42.72552482212925" lon="12.952641895860358"><ele>1038.2</ele><time>2026-04-04T10:39:11Z</time></trkpt><trkpt lat="42.72560426644389" lon="12.95262039897648"><ele>1037.6</ele><time>2026-04-04T10:39:12Z</time></trkpt><trkpt lat="42.72569028105843" lon="12.95262090597003"><ele>1037.0</ele><time>2026-04-04T10:39:13Z</time></trkpt><trkpt lat="42.72578999291576" lon="12.952640194089891"><ele>1037.0</ele><time>2026-04-04T10:39:14Z</time></trkpt><trkpt lat="42.72592406030414" lon="12.95269145337029"><ele>1037.0</ele><time>2026-04-04T10:39:15Z</time></trkpt><trkpt lat="42.72604539216991" lon="12.952749587447437"><ele>1037.0</ele><time>2026-04-04T10:39:16Z</time></trkpt><trkpt lat="42.726115003894826" lon="12.952775891501384"><ele>1037.0</ele><time>2026-04-04T10:39:17Z</time></trkpt><trkpt lat="42.72620803429328" lon="12.95277586035079"><ele>1037.0</ele><time>2026-04-04T10:39:18Z</time></trkpt><trkpt lat="42.72630298091483" lon="12.952776685942561"><ele>1037.6</ele><time>2026-04-04T10:39:19Z</time></trkpt><trkpt lat="42.726380817621134" lon="12.95277967728097"><ele>1038.2</ele><time>2026-04-04T10:39:20Z</time></trkpt><trkpt lat="42.72646531875735" lon="12.9528387942049"><ele>1038.8</ele><time>2026-04-04T10:39:21Z</time></trkpt><trkpt lat="42.72657112077727" lon="12.952932964389268"><ele>1039.4</ele><time>2026-04-04T10:39:22Z</time></trkpt><trkpt lat="42.726673911414665" lon="12.953008841065662"><ele>1040.0</ele><time>2026-04-04T10:39:23Z</time></trkpt><trkpt lat="42.72676539496538" lon="12.953016026622333"><ele>1040.0</ele><time>2026-04-04T10:39:24Z</time></trkpt><trkpt lat="42.72683270955488" lon="12.95299052979949"><ele>1040.0</ele><time>2026-04-04T10:39:25Z</time></trkpt><trkpt lat="42.726953560628274" lon="12.952927147736169"><ele>1040.0</ele><time>2026-04-04T10:39:27Z</time></trkpt><trkpt lat="42.727013620115414" lon="12.952880181539083"><ele>1040.0</ele><time>2026-04-04T10:39:28Z</time></trkpt><trkpt lat="42.727067898398374" lon="12.952815996745983"><ele>1040.0</ele><time>2026-04-04T10:39:29Z</time></trkpt><trkpt lat="42.72713173026845" lon="12.952724911410328"><ele>1040.0</ele><time>2026-04-04T10:39:30Z</time></trkpt><trkpt lat="42.727190185591" lon="12.952675013356723"><ele>1039.8333333333335</ele><time>2026-04-04T10:39:31Z</time></trkpt><trkpt lat="42.727266794927004" lon="12.95262856317143"><ele>1039.6666666666667</ele><time>2026-04-04T10:39:32Z</time></trkpt><trkpt lat="42.727368599758144" lon="12.952545657816403"><ele>1039.5</ele><time>2026-04-04T10:39:33Z</time></trkpt><trkpt lat="42.727437393987174" lon="12.95248822762455"><ele>1039.3333333333333</ele><time>2026-04-04T10:39:34Z</time></trkpt><trkpt lat="42.72750213371258" lon="12.952455283189584"><ele>1039.1666666666665</ele><time>2026-04-04T10:39:35Z</time></trkpt><trkpt lat="42.7275682001306" lon="12.952426948105563"><ele>1039.0</ele><time>2026-04-04T10:39:36Z</time></trkpt><trkpt lat="42.72762476058195" lon="12.952371472158756"><ele>1037.75</ele><time>2026-04-04T10:39:38Z</time></trkpt><trkpt lat="42.72773261835452" lon="12.952289629306549"><ele>1036.5</ele><time>2026-04-04T10:39:40Z</time></trkpt><trkpt lat="42.72784866064581" lon="12.95221056466991"><ele>1035.25</ele><time>2026-04-04T10:39:41Z</time></trkpt><trkpt lat="42.72796568525471" lon="12.95214462280228"><ele>1034.0</ele><time>2026-04-04T10:39:42Z</time></trkpt><trkpt lat="42.72808749517373" lon="12.95206932906123"><ele>1034.0</ele><time>2026-04-04T10:39:43Z</time></trkpt><trkpt lat="42.728186221746135" lon="12.951978394091073"><ele>1034.0</ele><time>2026-04-04T10:39:44Z</time></trkpt><trkpt lat="42.72829174496786" lon="12.951859576221196"><ele>1034.0</ele><time>2026-04-04T10:39:45Z</time></trkpt><trkpt lat="42.728390987320616" lon="12.951748197596956"><ele>1034.0</ele><time>2026-04-04T10:39:46Z</time></trkpt><trkpt lat="42.72848464722339" lon="12.95167910597362"><ele>1034.0</ele><time>2026-04-04T10:39:47Z</time></trkpt><trkpt lat="42.72855188185319" lon="12.951617627622916"><ele>1034.0</ele><time>2026-04-04T10:39:48Z</time></trkpt><trkpt lat="42.72866742907207" lon="12.951555803419106"><ele>1034.0</ele><time>2026-04-04T10:39:50Z</time></trkpt><trkpt lat="42.728766467460304" lon="12.951581982098789"><ele>1034.0</ele><time>2026-04-04T10:39:51Z</time></trkpt><trkpt lat="42.72887494533016" lon="12.951598408115093"><ele>1034.0</ele><time>2026-04-04T10:39:52Z</time></trkpt><trkpt lat="42.7289529145223" lon="12.951603744051745"><ele>1034.0</ele><time>2026-04-04T10:39:53Z</time></trkpt><trkpt lat="42.72906958815601" lon="12.95158511051676"><ele>1034.0</ele><time>2026-04-04T10:39:55Z</time></trkpt><trkpt lat="42.729154841757016" lon="12.951610274345915"><ele>1034.0</ele><time>2026-04-04T10:39:57Z</time></trkpt><trkpt lat="42.729173291159974" lon="12.95178054067544"><ele>1034.0</ele><time>2026-04-04T10:39:59Z</time></trkpt><trkpt lat="42.729164649354516" lon="12.951905549696303"><ele>1034.0</ele><time>2026-04-04T10:40:00Z</time></trkpt><trkpt lat="42.72918644213286" lon="12.9520250303264"><ele>1034.0</ele><time>2026-04-04T10:40:01Z</time></trkpt><trkpt lat="42.72923041901504" lon="12.952155693347589"><ele>1034.0</ele><time>2026-04-04T10:40:02Z</time></trkpt><trkpt lat="42.72926810831529" lon="12.952323938234045"><ele>1034.0</ele><time>2026-04-04T10:40:03Z</time></trkpt><trkpt lat="42.729282980851565" lon="12.952437465902644"><ele>1034.0</ele><time>2026-04-04T10:40:04Z</time></trkpt><trkpt lat="42.729306372869175" lon="12.95254684214993"><ele>1034.0</ele><time>2026-04-04T10:40:06Z</time></trkpt><trkpt lat="42.729336749408255" lon="12.952651188588876"><ele>1033.25</ele><time>2026-04-04T10:40:07Z</time></trkpt><trkpt lat="42.72936195000969" lon="12.952762353168081"><ele>1032.5</ele><time>2026-04-04T10:40:08Z</time></trkpt><trkpt lat="42.729390040514424" lon="12.952892144684299"><ele>1031.75</ele><time>2026-04-04T10:40:09Z</time></trkpt><trkpt lat="42.729416585743046" lon="12.95305291198556"><ele>1031.0</ele><time>2026-04-04T10:40:10Z</time></trkpt><trkpt lat="42.72943671933634" lon="12.953247282057934"><ele>1031.5</ele><time>2026-04-04T10:40:11Z</time></trkpt><trkpt lat="42.7294463677856" lon="12.953421433005143"><ele>1032.0</ele><time>2026-04-04T10:40:12Z</time></trkpt><trkpt lat="42.72947283282227" lon="12.95358933293038"><ele>1032.5</ele><time>2026-04-04T10:40:13Z</time></trkpt><trkpt lat="42.7295180495691" lon="12.953766901622739"><ele>1033.0</ele><time>2026-04-04T10:40:14Z</time></trkpt><trkpt lat="42.72956856049251" lon="12.953941966417656"><ele>1033.0</ele><time>2026-04-04T10:40:15Z</time></trkpt><trkpt lat="42.72961864712758" lon="12.954136861499682"><ele>1033.0</ele><time>2026-04-04T10:40:16Z</time></trkpt><trkpt lat="42.729669251933636" lon="12.954324833421712"><ele>1033.0</ele><time>2026-04-04T10:40:17Z</time></trkpt><trkpt lat="42.72970427027959" lon="12.95450247052054"><ele>1033.0</ele><time>2026-04-04T10:40:18Z</time></trkpt><trkpt lat="42.729738330291894" lon="12.954716188633766"><ele>1031.75</ele><time>2026-04-04T10:40:19Z</time></trkpt><trkpt lat="42.729776748185884" lon="12.954930023091112"><ele>1030.5</ele><time>2026-04-04T10:40:20Z</time></trkpt><trkpt lat="42.729804993619155" lon="12.955103959343225"><ele>1029.25</ele><time>2026-04-04T10:40:21Z</time></trkpt><trkpt lat="42.729807912872204" lon="12.955266478405242"><ele>1028.0</ele><time>2026-04-04T10:40:22Z</time></trkpt><trkpt lat="42.72977266036997" lon="12.95541360790827"><ele>1028.0</ele><time>2026-04-04T10:40:23Z</time></trkpt><trkpt lat="42.72970558274958" lon="12.95556842218039"><ele>1028.0</ele><time>2026-04-04T10:40:24Z</time></trkpt><trkpt lat="42.72962427997244" lon="12.955717850518251"><ele>1028.0</ele><time>2026-04-04T10:40:25Z</time></trkpt><trkpt lat="42.72956091766648" lon="12.955891556602118"><ele>1028.0</ele><time>2026-04-04T10:40:26Z</time></trkpt><trkpt lat="42.729525207366294" lon="12.956099324572989"><ele>1028.25</ele><time>2026-04-04T10:40:27Z</time></trkpt><trkpt lat="42.72949059048333" lon="12.956307307340609"><ele>1028.5</ele><time>2026-04-04T10:40:28Z</time></trkpt><trkpt lat="42.729453776064865" lon="12.956500973262822"><ele>1028.75</ele><time>2026-04-04T10:40:29Z</time></trkpt><trkpt lat="42.72942337149565" lon="12.956647652310906"><ele>1029.0</ele><time>2026-04-04T10:40:30Z</time></trkpt><trkpt lat="42.729411666853515" lon="12.956788215216479"><ele>1028.0</ele><time>2026-04-04T10:40:31Z</time></trkpt><trkpt lat="42.729405635646295" lon="12.95694552848988"><ele>1027.0</ele><time>2026-04-04T10:40:32Z</time></trkpt><trkpt lat="42.729380032734674" lon="12.957118473373573"><ele>1026.0</ele><time>2026-04-04T10:40:33Z</time></trkpt><trkpt lat="42.72933855564187" lon="12.95727994782405"><ele>1025.0</ele><time>2026-04-04T10:40:34Z</time></trkpt><trkpt lat="42.72931088440948" lon="12.9574465873566"><ele>1018.75</ele><time>2026-04-04T10:40:35Z</time></trkpt><trkpt lat="42.72929193929202" lon="12.957640612975663"><ele>1012.5</ele><time>2026-04-04T10:40:36Z</time></trkpt><trkpt lat="42.72925996281095" lon="12.957820023757003"><ele>1006.25</ele><time>2026-04-04T10:40:37Z</time></trkpt><trkpt lat="42.72922915772558" lon="12.95797416767967"><ele>1000.0</ele><time>2026-04-04T10:40:38Z</time></trkpt><trkpt lat="42.72919514803005" lon="12.958131776717439"><ele>1000.0</ele><time>2026-04-04T10:40:39Z</time></trkpt><trkpt lat="42.72917850162519" lon="12.958280491200991"><ele>1000.0</ele><time>2026-04-04T10:40:40Z</time></trkpt><trkpt lat="42.729192968158216" lon="12.958434411649685"><ele>1000.0</ele><time>2026-04-04T10:40:41Z</time></trkpt><trkpt lat="42.72923292365156" lon="12.958594911041423"><ele>1000.0</ele><time>2026-04-04T10:40:42Z</time></trkpt><trkpt lat="42.729281214688655" lon="12.958738611117582"><ele>998.0</ele><time>2026-04-04T10:40:43Z</time></trkpt><trkpt lat="42.72930885882507" lon="12.958885080522212"><ele>996.0</ele><time>2026-04-04T10:40:44Z</time></trkpt><trkpt lat="42.7293057036624" lon="12.959069054341192"><ele>994.0</ele><time>2026-04-04T10:40:45Z</time></trkpt><trkpt lat="42.729304016174204" lon="12.959246326719708"><ele>992.0</ele><time>2026-04-04T10:40:46Z</time></trkpt><trkpt lat="42.72931099972251" lon="12.959424961174443"><ele>990.5</ele><time>2026-04-04T10:40:47Z</time></trkpt><trkpt lat="42.72934492339486" lon="12.959600512134177"><ele>989.0</ele><time>2026-04-04T10:40:48Z</time></trkpt><trkpt lat="42.72937532920629" lon="12.959771612422"><ele>987.5</ele><time>2026-04-04T10:40:49Z</time></trkpt><trkpt lat="42.72939745487095" lon="12.959926887203862"><ele>986.0</ele><time>2026-04-04T10:40:50Z</time></trkpt><trkpt lat="42.7293939012584" lon="12.960110278921558"><ele>984.0</ele><time>2026-04-04T10:40:51Z</time></trkpt><trkpt lat="42.72937969459034" lon="12.960319068898599"><ele>982.0</ele><time>2026-04-04T10:40:52Z</time></trkpt><trkpt lat="42.72937972327407" lon="12.960558542135859"><ele>980.0</ele><time>2026-04-04T10:40:53Z</time></trkpt><trkpt lat="42.729399536088984" lon="12.96073019276413"><ele>982.0</ele><time>2026-04-04T10:40:54Z</time></trkpt><trkpt lat="42.72941980578002" lon="12.960903223023058"><ele>984.0</ele><time>2026-04-04T10:40:55Z</time></trkpt><trkpt lat="42.7293995537645" lon="12.961098576192038"><ele>986.0</ele><time>2026-04-04T10:40:56Z</time></trkpt><trkpt lat="42.72934831363091" lon="12.961283787131185"><ele>988.0</ele><time>2026-04-04T10:40:57Z</time></trkpt><trkpt lat="42.729296221144004" lon="12.961429924835116"><ele>988.0</ele><time>2026-04-04T10:40:58Z</time></trkpt><trkpt lat="42.729221157713646" lon="12.961538880951666"><ele>988.0</ele><time>2026-04-04T10:40:59Z</time></trkpt><trkpt lat="42.72911557522009" lon="12.961650491444667"><ele>988.0</ele><time>2026-04-04T10:41:00Z</time></trkpt><trkpt lat="42.72904650206595" lon="12.961743733239931"><ele>988.0</ele><time>2026-04-04T10:41:01Z</time></trkpt><trkpt lat="42.72901257242134" lon="12.961849324674786"><ele>988.0</ele><time>2026-04-04T10:41:02Z</time></trkpt><trkpt lat="42.728995927404384" lon="12.961947336638243"><ele>987.5999999999999</ele><time>2026-04-04T10:41:03Z</time></trkpt><trkpt lat="42.72897663593728" lon="12.962033935042387"><ele>987.1999999999999</ele><time>2026-04-04T10:41:30Z</time></trkpt><trkpt lat="42.729106489609656" lon="12.962087707426392"><ele>986.8</ele><time>2026-04-04T10:41:37Z</time></trkpt><trkpt lat="42.72918357454718" lon="12.96210373681342"><ele>986.4</ele><time>2026-04-04T10:41:38Z</time></trkpt><trkpt lat="42.72925885410803" lon="12.962113988055034"><ele>986.0</ele><time>2026-04-04T10:41:39Z</time></trkpt><trkpt lat="42.72937909158939" lon="12.962079189252501"><ele>989.0000000000001</ele><time>2026-04-04T10:41:41Z</time></trkpt><trkpt lat="42.7294374914032" lon="12.962014761549725"><ele>992.0</ele><time>2026-04-04T10:41:42Z</time></trkpt><trkpt lat="42.729492608789556" lon="12.961958761854948"><ele>995.0</ele><time>2026-04-04T10:41:43Z</time></trkpt><trkpt lat="42.72957167266198" lon="12.96189284151155"><ele>998.0</ele><time>2026-04-04T10:41:44Z</time></trkpt><trkpt lat="42.72962864586707" lon="12.961824431997144"><ele>1001.0000000000001</ele><time>2026-04-04T10:41:45Z</time></trkpt><trkpt lat="42.72969657385094" lon="12.96175649989592"><ele>1004.0</ele><time>2026-04-04T10:41:46Z</time></trkpt><trkpt lat="42.72976046975649" lon="12.961674696414567"><ele>1006.6</ele><time>2026-04-04T10:41:47Z</time></trkpt><trkpt lat="42.729813641615294" lon="12.961558532434633"><ele>1009.2</ele><time>2026-04-04T10:41:48Z</time></trkpt><trkpt lat="42.72987512694654" lon="12.961430100763746"><ele>1011.8000000000001</ele><time>2026-04-04T10:41:49Z</time></trkpt><trkpt lat="42.72993538824148" lon="12.961306787124803"><ele>1014.4000000000001</ele><time>2026-04-04T10:41:50Z</time></trkpt><trkpt lat="42.72998719364544" lon="12.96115811926881"><ele>1017.0</ele><time>2026-04-04T10:41:51Z</time></trkpt><trkpt lat="42.730017863794316" lon="12.961020473911999"><ele>1017.0</ele><time>2026-04-04T10:41:52Z</time></trkpt><trkpt lat="42.73007099349633" lon="12.960890455553669"><ele>1017.0</ele><time>2026-04-04T10:41:53Z</time></trkpt><trkpt lat="42.730135989257754" lon="12.960769392206561"><ele>1017.0</ele><time>2026-04-04T10:41:54Z</time></trkpt><trkpt lat="42.73020164289782" lon="12.960644074379065"><ele>1017.0</ele><time>2026-04-04T10:41:55Z</time></trkpt><trkpt lat="42.73024541763547" lon="12.960490651983834"><ele>1026.5</ele><time>2026-04-04T10:41:56Z</time></trkpt><trkpt lat="42.73028816313688" lon="12.960344770816162"><ele>1036.0</ele><time>2026-04-04T10:41:57Z</time></trkpt><trkpt lat="42.73032510526495" lon="12.960197611905075"><ele>1045.5</ele><time>2026-04-04T10:41:58Z</time></trkpt><trkpt lat="42.73037172441121" lon="12.960059539194766"><ele>1055.0</ele><time>2026-04-04T10:41:59Z</time></trkpt><trkpt lat="42.73042961150349" lon="12.959903375215024"><ele>1055.0</ele><time>2026-04-04T10:42:00Z</time></trkpt><trkpt lat="42.73046839641323" lon="12.959753534720873"><ele>1055.0</ele><time>2026-04-04T10:42:01Z</time></trkpt><trkpt lat="42.73051143501315" lon="12.959602088832096"><ele>1055.0</ele><time>2026-04-04T10:42:02Z</time></trkpt><trkpt lat="42.7305589789572" lon="12.959447561800435"><ele>1055.0</ele><time>2026-04-04T10:42:03Z</time></trkpt><trkpt lat="42.73059581860764" lon="12.959320722444897"><ele>1055.0</ele><time>2026-04-04T10:42:04Z</time></trkpt><trkpt lat="42.73064428619613" lon="12.95920283572951"><ele>1055.0</ele><time>2026-04-04T10:42:05Z</time></trkpt><trkpt lat="42.73070235166451" lon="12.959072780706396"><ele>1055.0</ele><time>2026-04-04T10:42:06Z</time></trkpt><trkpt lat="42.73074488106745" lon="12.95895115775068"><ele>1055.0</ele><time>2026-04-04T10:42:07Z</time></trkpt><trkpt lat="42.730774989280086" lon="12.958846915065124"><ele>1055.0</ele><time>2026-04-04T10:42:08Z</time></trkpt><trkpt lat="42.730803216810955" lon="12.958754981287136"><ele>1054.4</ele><time>2026-04-04T10:42:09Z</time></trkpt><trkpt lat="42.730859502081174" lon="12.958646426828995"><ele>1053.8</ele><time>2026-04-04T10:42:10Z</time></trkpt><trkpt lat="42.73094293463515" lon="12.958543804104282"><ele>1053.2</ele><time>2026-04-04T10:42:11Z</time></trkpt><trkpt lat="42.73101616891876" lon="12.95846015037596"><ele>1052.6</ele><time>2026-04-04T10:42:12Z</time></trkpt><trkpt lat="42.73107387891439" lon="12.95842154796883"><ele>1052.0</ele><time>2026-04-04T10:42:14Z</time></trkpt><trkpt lat="42.73112783521662" lon="12.958503552833504"><ele>1059.0</ele><time>2026-04-04T10:42:16Z</time></trkpt><trkpt lat="42.73111584518057" lon="12.958689529153819"><ele>1066.0</ele><time>2026-04-04T10:42:18Z</time></trkpt><trkpt lat="42.73112063635033" lon="12.958793708750132"><ele>1073.0</ele><time>2026-04-04T10:42:19Z</time></trkpt><trkpt lat="42.73114363576696" lon="12.958884062622975"><ele>1080.0</ele><time>2026-04-04T10:42:20Z</time></trkpt><trkpt lat="42.73119574130103" lon="12.958998205824074"><ele>1087.0</ele><time>2026-04-04T10:42:21Z</time></trkpt><trkpt lat="42.73122932329326" lon="12.959102888659912"><ele>1088.1666666666665</ele><time>2026-04-04T10:42:22Z</time></trkpt><trkpt lat="42.73126313864444" lon="12.959231248107331"><ele>1089.3333333333333</ele><time>2026-04-04T10:42:23Z</time></trkpt><trkpt lat="42.731280761485124" lon="12.95933914064573"><ele>1090.5</ele><time>2026-04-04T10:42:24Z</time></trkpt><trkpt lat="42.73130640979383" lon="12.959463345909668"><ele>1091.6666666666667</ele><time>2026-04-04T10:42:25Z</time></trkpt><trkpt lat="42.73132279271361" lon="12.959559728092971"><ele>1092.8333333333335</ele><time>2026-04-04T10:42:26Z</time></trkpt><trkpt lat="42.7313502403285" lon="12.959675566988192"><ele>1094.0</ele><time>2026-04-04T10:42:27Z</time></trkpt><trkpt lat="42.73137936745653" lon="12.959801289359321"><ele>1094.0</ele><time>2026-04-04T10:42:28Z</time></trkpt><trkpt lat="42.73142280293722" lon="12.959921567984471"><ele>1094.0</ele><time>2026-04-04T10:42:29Z</time></trkpt><trkpt lat="42.73147276874911" lon="12.960048030355319"><ele>1094.0</ele><time>2026-04-04T10:42:30Z</time></trkpt><trkpt lat="42.731524977203726" lon="12.96015877394236"><ele>1094.0</ele><time>2026-04-04T10:42:31Z</time></trkpt><trkpt lat="42.731574435319786" lon="12.96027235191765"><ele>1094.0</ele><time>2026-04-04T10:42:32Z</time></trkpt><trkpt lat="42.73162234699921" lon="12.960392356707873"><ele>1094.2</ele><time>2026-04-04T10:42:33Z</time></trkpt><trkpt lat="42.73167616104804" lon="12.960542415091984"><ele>1094.4</ele><time>2026-04-04T10:42:34Z</time></trkpt><trkpt lat="42.73172179674828" lon="12.960692821457794"><ele>1094.6</ele><time>2026-04-04T10:42:35Z</time></trkpt><trkpt lat="42.73175508603946" lon="12.96081135243926"><ele>1094.8</ele><time>2026-04-04T10:42:36Z</time></trkpt><trkpt lat="42.73178733289641" lon="12.960939168046073"><ele>1095.0</ele><time>2026-04-04T10:42:37Z</time></trkpt><trkpt lat="42.73182293090178" lon="12.961057604956787"><ele>1095.0</ele><time>2026-04-04T10:42:38Z</time></trkpt><trkpt lat="42.7318649536648" lon="12.961166533995073"><ele>1095.0</ele><time>2026-04-04T10:42:39Z</time></trkpt><trkpt lat="42.73191931874104" lon="12.961259233714022"><ele>1095.0</ele><time>2026-04-04T10:42:40Z</time></trkpt><trkpt lat="42.73197881664089" lon="12.961349711106683"><ele>1095.0</ele><time>2026-04-04T10:42:41Z</time></trkpt><trkpt lat="42.732035261042036" lon="12.961433179090436"><ele>1095.0</ele><time>2026-04-04T10:42:42Z</time></trkpt><trkpt lat="42.73209367301209" lon="12.961524217216034"><ele>1095.0</ele><time>2026-04-04T10:42:43Z</time></trkpt><trkpt lat="42.732163510481534" lon="12.961628818958959"><ele>1103.5</ele><time>2026-04-04T10:42:44Z</time></trkpt><trkpt lat="42.732248373932634" lon="12.961750631412643"><ele>1112.0</ele><time>2026-04-04T10:42:45Z</time></trkpt><trkpt lat="42.73232513681943" lon="12.961874707150347"><ele>1120.5</ele><time>2026-04-04T10:42:46Z</time></trkpt><trkpt lat="42.732398228546494" lon="12.961998847163601"><ele>1129.0</ele><time>2026-04-04T10:42:47Z</time></trkpt><trkpt lat="42.732472725008236" lon="12.962119565560068"><ele>1129.0</ele><time>2026-04-04T10:42:48Z</time></trkpt><trkpt lat="42.73255613811379" lon="12.96225687482065"><ele>1129.0</ele><time>2026-04-04T10:42:49Z</time></trkpt><trkpt lat="42.73263959833798" lon="12.962382817750106"><ele>1129.0</ele><time>2026-04-04T10:42:50Z</time></trkpt><trkpt lat="42.73272114469285" lon="12.962522539540148"><ele>1129.0</ele><time>2026-04-04T10:42:51Z</time></trkpt><trkpt lat="42.73279375517684" lon="12.96265158369788"><ele>1134.4</ele><time>2026-04-04T10:42:52Z</time></trkpt><trkpt lat="42.73283307970549" lon="12.962721189691784"><ele>1139.8000000000002</ele><time>2026-04-04T10:42:53Z</time></trkpt><trkpt lat="42.73288723378473" lon="12.962773791227667"><ele>1145.1999999999998</ele><time>2026-04-04T10:42:54Z</time></trkpt><trkpt lat="42.732992784438814" lon="12.96284282068798"><ele>1150.6</ele><time>2026-04-04T10:42:55Z</time></trkpt><trkpt lat="42.733084108547" lon="12.962911505744096"><ele>1156.0</ele><time>2026-04-04T10:42:56Z</time></trkpt><trkpt lat="42.73318008242738" lon="12.9630031958248"><ele>1156.0</ele><time>2026-04-04T10:42:57Z</time></trkpt><trkpt lat="42.73326128475279" lon="12.963095837502651"><ele>1156.0</ele><time>2026-04-04T10:42:58Z</time></trkpt><trkpt lat="42.73331557019734" lon="12.963184448110246"><ele>1156.0</ele><time>2026-04-04T10:42:59Z</time></trkpt><trkpt lat="42.73336664946019" lon="12.963295748396085"><ele>1156.0</ele><time>2026-04-04T10:43:00Z</time></trkpt><trkpt lat="42.73344485969935" lon="12.96337647350678"><ele>1156.0</ele><time>2026-04-04T10:43:01Z</time></trkpt><trkpt lat="42.73354325306184" lon="12.9633970078927"><ele>1158.8333333333333</ele><time>2026-04-04T10:43:03Z</time></trkpt><trkpt lat="42.73362057778062" lon="12.963404135153308"><ele>1161.6666666666665</ele><time>2026-04-04T10:43:04Z</time></trkpt><trkpt lat="42.7337232646767" lon="12.963418947369385"><ele>1164.5</ele><time>2026-04-04T10:43:05Z</time></trkpt><trkpt lat="42.73379159804053" lon="12.963434738465232"><ele>1167.3333333333333</ele><time>2026-04-04T10:43:06Z</time></trkpt><trkpt lat="42.733863025066675" lon="12.963450340078252"><ele>1170.1666666666667</ele><time>2026-04-04T10:43:07Z</time></trkpt><trkpt lat="42.73393557056733" lon="12.963481420200832"><ele>1173.0</ele><time>2026-04-04T10:43:08Z</time></trkpt><trkpt lat="42.73400991161933" lon="12.96354090840037"><ele>1173.0</ele><time>2026-04-04T10:43:09Z</time></trkpt><trkpt lat="42.73408852448873" lon="12.963604473804176"><ele>1173.0</ele><time>2026-04-04T10:43:10Z</time></trkpt><trkpt lat="42.73417064199372" lon="12.963668697141545"><ele>1173.0</ele><time>2026-04-04T10:43:11Z</time></trkpt><trkpt lat="42.73425452935794" lon="12.96374687530253"><ele>1173.0</ele><time>2026-04-04T10:43:12Z</time></trkpt><trkpt lat="42.73431872804817" lon="12.963829153350337"><ele>1173.0</ele><time>2026-04-04T10:43:13Z</time></trkpt><trkpt lat="42.73440228965869" lon="12.96389289344214"><ele>1179.8</ele><time>2026-04-04T10:43:14Z</time></trkpt><trkpt lat="42.734495214408156" lon="12.963976286401733"><ele>1186.6</ele><time>2026-04-04T10:43:15Z</time></trkpt><trkpt lat="42.73458526798233" lon="12.964078986609897"><ele>1193.4</ele><time>2026-04-04T10:43:16Z</time></trkpt><trkpt lat="42.73466815412625" lon="12.964175514197947"><ele>1200.2</ele><time>2026-04-04T10:43:17Z</time></trkpt><trkpt lat="42.7347529625199" lon="12.96425686952066"><ele>1207.0</ele><time>2026-04-04T10:43:18Z</time></trkpt><trkpt lat="42.734841989986656" lon="12.964333409886441"><ele>1207.0</ele><time>2026-04-04T10:43:19Z</time></trkpt><trkpt lat="42.73493168835615" lon="12.96441126527031"><ele>1207.0</ele><time>2026-04-04T10:43:20Z</time></trkpt><trkpt lat="42.73501097561784" lon="12.964486963735686"><ele>1207.0</ele><time>2026-04-04T10:43:21Z</time></trkpt><trkpt lat="42.73504288326814" lon="12.964618011488923"><ele>1207.0</ele><time>2026-04-04T10:43:22Z</time></trkpt><trkpt lat="42.73505806276302" lon="12.96476234734476"><ele>1207.0</ele><time>2026-04-04T10:43:23Z</time></trkpt><trkpt lat="42.73508980093123" lon="12.964883486670923"><ele>1207.0</ele><time>2026-04-04T10:43:24Z</time></trkpt><trkpt lat="42.73513520889449" lon="12.965001847685103"><ele>1207.0</ele><time>2026-04-04T10:43:25Z</time></trkpt><trkpt lat="42.73518963953921" lon="12.965099105693925"><ele>1207.0</ele><time>2026-04-04T10:43:26Z</time></trkpt><trkpt lat="42.73524530838863" lon="12.9651626684018"><ele>1207.0</ele><time>2026-04-04T10:43:27Z</time></trkpt><trkpt lat="42.73533008654604" lon="12.965279549806795"><ele>1207.0</ele><time>2026-04-04T10:43:28Z</time></trkpt><trkpt lat="42.73540049466286" lon="12.965372692128271"><ele>1211.6666666666665</ele><time>2026-04-04T10:43:29Z</time></trkpt><trkpt lat="42.73548708652277" lon="12.965509702298725"><ele>1216.3333333333333</ele><time>2026-04-04T10:43:30Z</time></trkpt><trkpt lat="42.73554826097016" lon="12.965584873539155"><ele>1221.0</ele><time>2026-04-04T10:43:31Z</time></trkpt><trkpt lat="42.73560778491019" lon="12.965635822079737"><ele>1225.6666666666667</ele><time>2026-04-04T10:43:32Z</time></trkpt><trkpt lat="42.735676626948866" lon="12.965661947639218"><ele>1230.3333333333335</ele><time>2026-04-04T10:43:33Z</time></trkpt><trkpt lat="42.73574592233313" lon="12.965671829991878"><ele>1235.0</ele><time>2026-04-04T10:43:34Z</time></trkpt><trkpt lat="42.73584853377943" lon="12.965698079138182"><ele>1235.0</ele><time>2026-04-04T10:43:35Z</time></trkpt><trkpt lat="42.73594535292906" lon="12.965746473779667"><ele>1235.0</ele><time>2026-04-04T10:43:36Z</time></trkpt><trkpt lat="42.735999783814364" lon="12.965838674963159"><ele>1235.0</ele><time>2026-04-04T10:43:37Z</time></trkpt><trkpt lat="42.7360507286528" lon="12.965933362495477"><ele>1235.0</ele><time>2026-04-04T10:43:38Z</time></trkpt><trkpt lat="42.73609591109141" lon="12.965999235094294"><ele>1235.0</ele><time>2026-04-04T10:43:39Z</time></trkpt><trkpt lat="42.73613728005913" lon="12.966079523911754"><ele>1235.0</ele><time>2026-04-04T10:43:41Z</time></trkpt><trkpt lat="42.736242765558416" lon="12.96617685781905"><ele>1238.6666666666667</ele><time>2026-04-04T10:44:27Z</time></trkpt><trkpt lat="42.7363412957696" lon="12.966213762667332"><ele>1242.3333333333335</ele><time>2026-04-04T10:44:29Z</time></trkpt><trkpt lat="42.736361259462605" lon="12.966326870758015"><ele>1246.0</ele><time>2026-04-04T10:44:41Z</time></trkpt><trkpt lat="42.7364283709531" lon="12.966337459752927"><ele>1249.6666666666667</ele><time>2026-04-04T10:44:44Z</time></trkpt><trkpt lat="42.73648824022411" lon="12.966268377121029"><ele>1253.3333333333333</ele><time>2026-04-04T10:44:47Z</time></trkpt><trkpt lat="42.73655356932414" lon="12.966310273011556"><ele>1257.0</ele><time>2026-04-04T10:44:49Z</time></trkpt><trkpt lat="42.73663111139015" lon="12.966354154708657"><ele>1257.0000000000002</ele><time>2026-04-04T10:44:51Z</time></trkpt><trkpt lat="42.7365458607315" lon="12.966372922949683"><ele>1257.0</ele><time>2026-04-04T10:45:37Z</time></trkpt><trkpt lat="42.736494177622376" lon="12.966315617148634"><ele>1257.0</ele><time>2026-04-04T10:45:59Z</time></trkpt><trkpt lat="42.73642733999335" lon="12.966286018810305"><ele>1257.0</ele><time>2026-04-04T10:46:03Z</time></trkpt><trkpt lat="42.73635827095585" lon="12.966257100354946"><ele>1257.0</ele><time>2026-04-04T10:46:05Z</time></trkpt><trkpt lat="42.736296214103575" lon="12.966205083973406"><ele>1257.0000000000002</ele><time>2026-04-04T10:46:14Z</time></trkpt><trkpt lat="42.73623079496167" lon="12.966164740294055"><ele>1257.0</ele><time>2026-04-04T10:46:16Z</time></trkpt><trkpt lat="42.736164737190194" lon="12.966153539819182"><ele>1257.0</ele><time>2026-04-04T10:46:20Z</time></trkpt><trkpt lat="42.73621621150644" lon="12.966288122388445"><ele>1257.0</ele><time>2026-04-04T10:46:36Z</time></trkpt><trkpt lat="42.736234591844095" lon="12.966411496749112"><ele>1257.0</ele><time>2026-04-04T10:46:38Z</time></trkpt><trkpt lat="42.736163755874045" lon="12.966538160075475"><ele>1257.0</ele><time>2026-04-04T10:46:40Z</time></trkpt><trkpt lat="42.73610149511643" lon="12.966629558244353"><ele>1257.0</ele><time>2026-04-04T10:46:42Z</time></trkpt><trkpt lat="42.73600992263393" lon="12.966775738922868"><ele>1256.3333333333333</ele><time>2026-04-04T10:46:44Z</time></trkpt><trkpt lat="42.73594328651158" lon="12.966843504449642"><ele>1255.6666666666667</ele><time>2026-04-04T10:46:45Z</time></trkpt><trkpt lat="42.7358944833448" lon="12.966932676683122"><ele>1255.0</ele><time>2026-04-04T10:46:46Z</time></trkpt><trkpt lat="42.7358636981343" lon="12.967040194529023"><ele>1254.3333333333335</ele><time>2026-04-04T10:46:48Z</time></trkpt><trkpt lat="42.73576351334359" lon="12.967025377219587"><ele>1253.6666666666667</ele><time>2026-04-04T10:46:51Z</time></trkpt><trkpt lat="42.73569722107822" lon="12.967001031388657"><ele>1253.0</ele><time>2026-04-04T10:46:52Z</time></trkpt><trkpt lat="42.73563644891495" lon="12.966957904187966"><ele>1253.0</ele><time>2026-04-04T10:46:53Z</time></trkpt><trkpt lat="42.73553272840632" lon="12.966989301439284"><ele>1253.0</ele><time>2026-04-04T10:46:55Z</time></trkpt><trkpt lat="42.73541146093959" lon="12.967066987201793"><ele>1253.0</ele><time>2026-04-04T10:46:57Z</time></trkpt><trkpt lat="42.73533834676497" lon="12.967081891419244"><ele>1253.0</ele><time>2026-04-04T10:46:58Z</time></trkpt><trkpt lat="42.735234433183045" lon="12.967099000543541"><ele>1253.0</ele><time>2026-04-04T10:46:59Z</time></trkpt><trkpt lat="42.73513685601713" lon="12.967118002174804"><ele>1251.8</ele><time>2026-04-04T10:47:00Z</time></trkpt><trkpt lat="42.73505610787966" lon="12.967139854626279"><ele>1250.6</ele><time>2026-04-04T10:47:01Z</time></trkpt><trkpt lat="42.73496983405934" lon="12.96716109911624"><ele>1249.4</ele><time>2026-04-04T10:47:02Z</time></trkpt><trkpt lat="42.734941161164556" lon="12.96724028958861"><ele>1248.2</ele><time>2026-04-04T10:47:05Z</time></trkpt><trkpt lat="42.73505730819854" lon="12.967297750884896"><ele>1247.0</ele><time>2026-04-04T10:47:07Z</time></trkpt><trkpt lat="42.73515744758301" lon="12.967301843837532"><ele>1248.5</ele><time>2026-04-04T10:47:08Z</time></trkpt><trkpt lat="42.73526643467008" lon="12.967350850304843"><ele>1250.0</ele><time>2026-04-04T10:47:09Z</time></trkpt><trkpt lat="42.7354058563971" lon="12.967411119605577"><ele>1251.5</ele><time>2026-04-04T10:47:10Z</time></trkpt><trkpt lat="42.735566867989625" lon="12.967472982091403"><ele>1253.0</ele><time>2026-04-04T10:47:11Z</time></trkpt><trkpt lat="42.73568939059549" lon="12.967522213547369"><ele>1257.0</ele><time>2026-04-04T10:47:12Z</time></trkpt><trkpt lat="42.73579418459035" lon="12.967575228226787"><ele>1261.0</ele><time>2026-04-04T10:47:13Z</time></trkpt><trkpt lat="42.73589383009367" lon="12.96763654688121"><ele>1265.0</ele><time>2026-04-04T10:47:14Z</time></trkpt><trkpt lat="42.735973757077254" lon="12.967690985160582"><ele>1269.0</ele><time>2026-04-04T10:47:15Z</time></trkpt><trkpt lat="42.73608509408721" lon="12.967745528454861"><ele>1273.0</ele><time>2026-04-04T10:47:16Z</time></trkpt><trkpt lat="42.736218202561574" lon="12.967796316773974"><ele>1274.3333333333333</ele><time>2026-04-04T10:47:17Z</time></trkpt><trkpt lat="42.73637796529527" lon="12.96783785079989"><ele>1275.6666666666667</ele><time>2026-04-04T10:47:18Z</time></trkpt><trkpt lat="42.73652655794323" lon="12.967890887620806"><ele>1277.0</ele><time>2026-04-04T10:47:19Z</time></trkpt><trkpt lat="42.736660686927166" lon="12.967926810229766"><ele>1277.0</ele><time>2026-04-04T10:47:20Z</time></trkpt><trkpt lat="42.736785042239106" lon="12.967975615970039"><ele>1277.0</ele><time>2026-04-04T10:47:21Z</time></trkpt><trkpt lat="42.73690176487009" lon="12.968022450342632"><ele>1277.0</ele><time>2026-04-04T10:47:22Z</time></trkpt><trkpt lat="42.73701664749869" lon="12.968053145666838"><ele>1277.0</ele><time>2026-04-04T10:47:23Z</time></trkpt><trkpt lat="42.73710799645016" lon="12.968068807900766"><ele>1278.2</ele><time>2026-04-04T10:47:24Z</time></trkpt><trkpt lat="42.737174935368245" lon="12.96808185326743"><ele>1279.4</ele><time>2026-04-04T10:47:25Z</time></trkpt><trkpt lat="42.73723288173725" lon="12.967992050321822"><ele>1280.6000000000001</ele><time>2026-04-04T10:47:27Z</time></trkpt><trkpt lat="42.73726516258559" lon="12.967864783487219"><ele>1281.8000000000002</ele><time>2026-04-04T10:47:28Z</time></trkpt><trkpt lat="42.7373094239301" lon="12.967755774656231"><ele>1283.0</ele><time>2026-04-04T10:47:29Z</time></trkpt><trkpt lat="42.737410174672014" lon="12.967627122957479"><ele>1283.0</ele><time>2026-04-04T10:47:31Z</time></trkpt><trkpt lat="42.73746526596426" lon="12.967533131548793"><ele>1283.0</ele><time>2026-04-04T10:47:32Z</time></trkpt><trkpt lat="42.73750839589574" lon="12.967428884431753"><ele>1283.0</ele><time>2026-04-04T10:47:33Z</time></trkpt><trkpt lat="42.73755914758751" lon="12.967284524147907"><ele>1283.0</ele><time>2026-04-04T10:47:34Z</time></trkpt><trkpt lat="42.73762165839095" lon="12.967162326376366"><ele>1283.0</ele><time>2026-04-04T10:47:35Z</time></trkpt><trkpt lat="42.737665083811905" lon="12.967052769159476"><ele>1283.0</ele><time>2026-04-04T10:47:36Z</time></trkpt><trkpt lat="42.73768234295411" lon="12.966953922103961"><ele>1283.0</ele><time>2026-04-04T10:47:37Z</time></trkpt><trkpt lat="42.73769416481329" lon="12.966849501666719"><ele>1283.0</ele><time>2026-04-04T10:47:38Z</time></trkpt><trkpt lat="42.73774748768643" lon="12.966696126129726"><ele>1283.0</ele><time>2026-04-04T10:47:40Z</time></trkpt><trkpt lat="42.737811954118904" lon="12.966621687114106"><ele>1283.0</ele><time>2026-04-04T10:47:41Z</time></trkpt><trkpt lat="42.73788232559362" lon="12.966595958855377"><ele>1283.0</ele><time>2026-04-04T10:47:42Z</time></trkpt><trkpt lat="42.737962207429185" lon="12.966580315542034"><ele>1284.6000000000001</ele><time>2026-04-04T10:47:43Z</time></trkpt><trkpt lat="42.73808148311086" lon="12.96663885870509"><ele>1286.2</ele><time>2026-04-04T10:47:45Z</time></trkpt><trkpt lat="42.73818340510426" lon="12.966695963833596"><ele>1287.8</ele><time>2026-04-04T10:47:46Z</time></trkpt><trkpt lat="42.738281285350496" lon="12.966765670314222"><ele>1289.4</ele><time>2026-04-04T10:47:47Z</time></trkpt><trkpt lat="42.73835355482885" lon="12.966850527297652"><ele>1291.0</ele><time>2026-04-04T10:47:48Z</time></trkpt><trkpt lat="42.73839602519401" lon="12.966936889280015"><ele>1291.4</ele><time>2026-04-04T10:47:49Z</time></trkpt><trkpt lat="42.73850051419603" lon="12.96705963901432"><ele>1291.8</ele><time>2026-04-04T10:47:51Z</time></trkpt><trkpt lat="42.738552752904134" lon="12.967113215570167"><ele>1292.2</ele><time>2026-04-04T10:47:52Z</time></trkpt><trkpt lat="42.7386154524688" lon="12.967183251792385"><ele>1292.6000000000001</ele><time>2026-04-04T10:47:55Z</time></trkpt><trkpt lat="42.738678324031056" lon="12.967340557881753"><ele>1293.0</ele><time>2026-04-04T10:47:58Z</time></trkpt><trkpt lat="42.73871904529674" lon="12.967455907563156"><ele>1293.1666666666667</ele><time>2026-04-04T10:47:59Z</time></trkpt><trkpt lat="42.73876593394734" lon="12.967560866596092"><ele>1293.3333333333333</ele><time>2026-04-04T10:48:00Z</time></trkpt><trkpt lat="42.73882678388439" lon="12.96762442311356"><ele>1293.5</ele><time>2026-04-04T10:48:01Z</time></trkpt><trkpt lat="42.738903379948965" lon="12.967660101049638"><ele>1293.6666666666665</ele><time>2026-04-04T10:48:02Z</time></trkpt><trkpt lat="42.738976648034196" lon="12.967614151482675"><ele>1293.8333333333333</ele><time>2026-04-04T10:48:05Z</time></trkpt><trkpt lat="42.73908366465681" lon="12.967599360846028"><ele>1294.0</ele><time>2026-04-04T10:48:07Z</time></trkpt><trkpt lat="42.73918110183091" lon="12.967589050414126"><ele>1293.8000000000002</ele><time>2026-04-04T10:48:09Z</time></trkpt><trkpt lat="42.7392590013506" lon="12.967520103592886"><ele>1293.6000000000001</ele><time>2026-04-04T10:48:11Z</time></trkpt><trkpt lat="42.73935474059279" lon="12.96745051913187"><ele>1293.4</ele><time>2026-04-04T10:48:13Z</time></trkpt><trkpt lat="42.73943097150765" lon="12.967383236269269"><ele>1293.2</ele><time>2026-04-04T10:48:17Z</time></trkpt><trkpt lat="42.73948678888077" lon="12.967281323359511"><ele>1293.0</ele><time>2026-04-04T10:48:23.999Z</time></trkpt><trkpt lat="42.73955802321094" lon="12.967184579342282"><ele>1292.0</ele><time>2026-04-04T10:48:25.999Z</time></trkpt><trkpt lat="42.7396667719563" lon="12.96716360209244"><ele>1291.0</ele><time>2026-04-04T10:48:28Z</time></trkpt><trkpt lat="42.73973253827432" lon="12.967183674545737"><ele>1290.0</ele><time>2026-04-04T10:48:29Z</time></trkpt><trkpt lat="42.73979712893699" lon="12.967189554830055"><ele>1289.0</ele><time>2026-04-04T10:48:30Z</time></trkpt><trkpt lat="42.739905348870955" lon="12.967236067459961"><ele>1288.0</ele><time>2026-04-04T10:48:32Z</time></trkpt><trkpt lat="42.73999256496492" lon="12.967318602454343"><ele>1288.0</ele><time>2026-04-04T10:48:34Z</time></trkpt><trkpt lat="42.740111596657336" lon="12.96740856263252"><ele>1288.0</ele><time>2026-04-04T10:48:36Z</time></trkpt><trkpt lat="42.74019436652323" lon="12.967476317688545"><ele>1288.0</ele><time>2026-04-04T10:48:38Z</time></trkpt><trkpt lat="42.74028713826392" lon="12.96752485965627"><ele>1288.0</ele><time>2026-04-04T10:48:40Z</time></trkpt><trkpt lat="42.74038575605573" lon="12.967584391097478"><ele>1288.0</ele><time>2026-04-04T10:48:42Z</time></trkpt><trkpt lat="42.74044414316543" lon="12.967621310202766"><ele>1287.5</ele><time>2026-04-04T10:48:43Z</time></trkpt><trkpt lat="42.74057079915258" lon="12.96763232832898"><ele>1287.0</ele><time>2026-04-04T10:48:45Z</time></trkpt><trkpt lat="42.74067874884336" lon="12.967613625252149"><ele>1286.5</ele><time>2026-04-04T10:48:46Z</time></trkpt><trkpt lat="42.7407881675366" lon="12.967562976309356"><ele>1286.0</ele><time>2026-04-04T10:48:47Z</time></trkpt><trkpt lat="42.74090794985198" lon="12.967507143385875"><ele>1286.0</ele><time>2026-04-04T10:48:48Z</time></trkpt><trkpt lat="42.74101925878158" lon="12.967439965852426"><ele>1286.0</ele><time>2026-04-04T10:48:49Z</time></trkpt><trkpt lat="42.74113223882025" lon="12.967396146145731"><ele>1286.0</ele><time>2026-04-04T10:48:50Z</time></trkpt><trkpt lat="42.74124751476014" lon="12.967375937885"><ele>1286.0</ele><time>2026-04-04T10:48:51Z</time></trkpt><trkpt lat="42.741371601240076" lon="12.96737401154534"><ele>1289.25</ele><time>2026-04-04T10:48:52Z</time></trkpt><trkpt lat="42.74151085429914" lon="12.967374222234389"><ele>1292.5</ele><time>2026-04-04T10:48:53Z</time></trkpt><trkpt lat="42.74164327662869" lon="12.967376821820379"><ele>1295.75</ele><time>2026-04-04T10:48:54Z</time></trkpt><trkpt lat="42.74172066443147" lon="12.96740551648787"><ele>1299.0</ele><time>2026-04-04T10:48:55Z</time></trkpt><trkpt lat="42.74180745960579" lon="12.967476495870715"><ele>1297.0</ele><time>2026-04-04T10:48:56Z</time></trkpt><trkpt lat="42.74188733509046" lon="12.967571680174306"><ele>1295.0</ele><time>2026-04-04T10:48:57Z</time></trkpt><trkpt lat="42.741970109266646" lon="12.967673049678305"><ele>1293.0</ele><time>2026-04-04T10:48:58Z</time></trkpt><trkpt lat="42.74203654469217" lon="12.967780230871544"><ele>1291.0</ele><time>2026-04-04T10:48:59Z</time></trkpt><trkpt lat="42.74209470139234" lon="12.967865207820381"><ele>1289.0</ele><time>2026-04-04T10:49:00Z</time></trkpt><trkpt lat="42.74219931800532" lon="12.967978695397708"><ele>1289.0</ele><time>2026-04-04T10:49:02Z</time></trkpt><trkpt lat="42.74227593264543" lon="12.96802084074152"><ele>1289.0</ele><time>2026-04-04T10:49:03Z</time></trkpt><trkpt lat="42.74235062775126" lon="12.96808006340991"><ele>1289.0</ele><time>2026-04-04T10:49:04Z</time></trkpt><trkpt lat="42.74240682687755" lon="12.968148830431236"><ele>1289.0</ele><time>2026-04-04T10:49:05Z</time></trkpt><trkpt lat="42.74247164254167" lon="12.9682374272064"><ele>1289.0</ele><time>2026-04-04T10:49:06Z</time></trkpt><trkpt lat="42.74254694064217" lon="12.968331849173886"><ele>1289.0</ele><time>2026-04-04T10:49:07Z</time></trkpt><trkpt lat="42.742615157811706" lon="12.968399405052779"><ele>1287.2</ele><time>2026-04-04T10:49:08Z</time></trkpt><trkpt lat="42.74269656867249" lon="12.968501794902133"><ele>1285.4</ele><time>2026-04-04T10:49:09Z</time></trkpt><trkpt lat="42.742771267540675" lon="12.96858624047714"><ele>1283.6</ele><time>2026-04-04T10:49:10Z</time></trkpt><trkpt lat="42.74285568051311" lon="12.968675271133538"><ele>1281.8</ele><time>2026-04-04T10:49:11Z</time></trkpt><trkpt lat="42.742951588172986" lon="12.968753610083832"><ele>1280.0</ele><time>2026-04-04T10:49:12Z</time></trkpt><trkpt lat="42.743070833672064" lon="12.968830617420274"><ele>1280.0</ele><time>2026-04-04T10:49:13Z</time></trkpt><trkpt lat="42.74317907291021" lon="12.968915357866493"><ele>1280.0</ele><time>2026-04-04T10:49:14Z</time></trkpt><trkpt lat="42.74327018235017" lon="12.96901380192518"><ele>1280.0</ele><time>2026-04-04T10:49:15Z</time></trkpt><trkpt lat="42.74335049264275" lon="12.969100991376818"><ele>1280.0</ele><time>2026-04-04T10:49:16Z</time></trkpt><trkpt lat="42.74341581166267" lon="12.969163093437235"><ele>1280.0</ele><time>2026-04-04T10:49:17Z</time></trkpt><trkpt lat="42.74352570589889" lon="12.969220870521994"><ele>1282.75</ele><time>2026-04-04T10:49:18Z</time></trkpt><trkpt lat="42.743649262345166" lon="12.969281608904984"><ele>1285.5</ele><time>2026-04-04T10:49:19Z</time></trkpt><trkpt lat="42.74377408149605" lon="12.969382376792655"><ele>1288.25</ele><time>2026-04-04T10:49:20Z</time></trkpt><trkpt lat="42.74388231464501" lon="12.969504572418382"><ele>1291.0</ele><time>2026-04-04T10:49:21Z</time></trkpt><trkpt lat="42.743985468566734" lon="12.969607549344646"><ele>1291.0</ele><time>2026-04-04T10:49:22Z</time></trkpt><trkpt lat="42.74409509867003" lon="12.969691651106483"><ele>1291.0</ele><time>2026-04-04T10:49:23Z</time></trkpt><trkpt lat="42.744198710205545" lon="12.969748742170152"><ele>1291.0</ele><time>2026-04-04T10:49:24Z</time></trkpt><trkpt lat="42.744288955890234" lon="12.969779835195277"><ele>1291.0</ele><time>2026-04-04T10:49:25Z</time></trkpt><trkpt lat="42.744394991774094" lon="12.969785314327558"><ele>1291.0</ele><time>2026-04-04T10:49:26Z</time></trkpt><trkpt lat="42.744491353643426" lon="12.969793053913019"><ele>1293.4</ele><time>2026-04-04T10:49:27Z</time></trkpt><trkpt lat="42.744573500599685" lon="12.969828324641163"><ele>1295.8</ele><time>2026-04-04T10:49:28Z</time></trkpt><trkpt lat="42.74465128788208" lon="12.96985613660284"><ele>1298.2</ele><time>2026-04-04T10:49:29Z</time></trkpt><trkpt lat="42.74478218697487" lon="12.96988875126201"><ele>1300.6000000000001</ele><time>2026-04-04T10:49:31Z</time></trkpt><trkpt lat="42.744847439916846" lon="12.969890673939044"><ele>1303.0</ele><time>2026-04-04T10:49:32Z</time></trkpt><trkpt lat="42.74492779191234" lon="12.969854066877568"><ele>1303.0</ele><time>2026-04-04T10:49:33Z</time></trkpt><trkpt lat="42.74499549883983" lon="12.969783788387799"><ele>1303.0</ele><time>2026-04-04T10:49:34Z</time></trkpt><trkpt lat="42.74509379314524" lon="12.96970778008853"><ele>1303.0</ele><time>2026-04-04T10:49:35Z</time></trkpt><trkpt lat="42.74519530404607" lon="12.969637735780706"><ele>1303.0</ele><time>2026-04-04T10:49:36Z</time></trkpt><trkpt lat="42.7452964098267" lon="12.969589899022749"><ele>1303.0</ele><time>2026-04-04T10:49:37Z</time></trkpt><trkpt lat="42.74539392745936" lon="12.96956993097936"><ele>1303.8333333333333</ele><time>2026-04-04T10:49:38Z</time></trkpt><trkpt lat="42.74545725525617" lon="12.969553449694844"><ele>1304.6666666666665</ele><time>2026-04-04T10:49:39Z</time></trkpt><trkpt lat="42.7455250124937" lon="12.969527599668048"><ele>1305.5</ele><time>2026-04-04T10:49:40Z</time></trkpt><trkpt lat="42.74560265682217" lon="12.969461724946767"><ele>1306.3333333333333</ele><time>2026-04-04T10:49:41Z</time></trkpt><trkpt lat="42.74568004847244" lon="12.969362454585788"><ele>1307.1666666666667</ele><time>2026-04-04T10:49:42Z</time></trkpt><trkpt lat="42.7457421315074" lon="12.969266648863593"><ele>1308.0</ele><time>2026-04-04T10:49:43Z</time></trkpt><trkpt lat="42.7457971411433" lon="12.969156016055944"><ele>1308.0</ele><time>2026-04-04T10:49:44Z</time></trkpt><trkpt lat="42.74585074461818" lon="12.969011567886474"><ele>1308.0</ele><time>2026-04-04T10:49:45Z</time></trkpt><trkpt lat="42.74589878335939" lon="12.968882823382229"><ele>1308.0</ele><time>2026-04-04T10:49:46Z</time></trkpt><trkpt lat="42.74594721619735" lon="12.968786587470447"><ele>1308.0</ele><time>2026-04-04T10:49:47Z</time></trkpt><trkpt lat="42.74599524492498" lon="12.968716384774938"><ele>1308.0</ele><time>2026-04-04T10:49:48Z</time></trkpt><trkpt lat="42.74606224986953" lon="12.968652799293242"><ele>1303.8000000000002</ele><time>2026-04-04T10:49:49Z</time></trkpt><trkpt lat="42.74617186553181" lon="12.968585460042869"><ele>1299.6</ele><time>2026-04-04T10:49:51Z</time></trkpt><trkpt lat="42.746237240986076" lon="12.968551540141302"><ele>1295.4</ele><time>2026-04-04T10:49:52Z</time></trkpt><trkpt lat="42.74630379184525" lon="12.968527570190455"><ele>1291.1999999999998</ele><time>2026-04-04T10:49:53Z</time></trkpt><trkpt lat="42.74643995769993" lon="12.96845154334815"><ele>1287.0</ele><time>2026-04-04T10:49:55Z</time></trkpt><trkpt lat="42.74650023444572" lon="12.968395017921882"><ele>1287.1666666666667</ele><time>2026-04-04T10:49:56Z</time></trkpt><trkpt lat="42.746593207930154" lon="12.968317909952141"><ele>1287.3333333333333</ele><time>2026-04-04T10:49:58Z</time></trkpt><trkpt lat="42.746659767534105" lon="12.968250466717143"><ele>1287.5</ele><time>2026-04-04T10:50:00Z</time></trkpt><trkpt lat="42.746731063160205" lon="12.968203907381126"><ele>1287.6666666666665</ele><time>2026-04-04T10:50:02Z</time></trkpt><trkpt lat="42.74682275914965" lon="12.968170965844951"><ele>1287.8333333333333</ele><time>2026-04-04T10:50:04Z</time></trkpt><trkpt lat="42.746875826234266" lon="12.968122829348186"><ele>1288.0</ele><time>2026-04-04T10:50:06Z</time></trkpt><trkpt lat="42.74695182317856" lon="12.968059797472456"><ele>1288.0</ele><time>2026-04-04T10:50:08Z</time></trkpt><trkpt lat="42.747021224949414" lon="12.968024412205086"><ele>1288.0</ele><time>2026-04-04T10:50:11Z</time></trkpt><trkpt lat="42.7471250517052" lon="12.967931994156261"><ele>1288.0</ele><time>2026-04-04T10:50:24Z</time></trkpt><trkpt lat="42.74721061965771" lon="12.96786571331972"><ele>1288.0</ele><time>2026-04-04T10:50:25Z</time></trkpt><trkpt lat="42.74729549942898" lon="12.96778756699484"><ele>1288.0</ele><time>2026-04-04T10:50:26Z</time></trkpt><trkpt lat="42.74737884936327" lon="12.967700112601822"><ele>1288.0</ele><time>2026-04-04T10:50:27Z</time></trkpt><trkpt lat="42.74744671060826" lon="12.967597654707202"><ele>1288.0</ele><time>2026-04-04T10:50:28Z</time></trkpt><trkpt lat="42.74750456410985" lon="12.967490711720213"><ele>1288.0</ele><time>2026-04-04T10:50:29Z</time></trkpt><trkpt lat="42.74756612927168" lon="12.96738784656913"><ele>1288.0</ele><time>2026-04-04T10:50:30Z</time></trkpt><trkpt lat="42.747625961250236" lon="12.967279082496226"><ele>1288.0</ele><time>2026-04-04T10:50:31Z</time></trkpt><trkpt lat="42.747683506565" lon="12.967179907090237"><ele>1287.25</ele><time>2026-04-04T10:50:32Z</time></trkpt><trkpt lat="42.74775585472354" lon="12.967042482046537"><ele>1286.5</ele><time>2026-04-04T10:50:33Z</time></trkpt><trkpt lat="42.7478485978273" lon="12.9668912894977"><ele>1285.75</ele><time>2026-04-04T10:50:34Z</time></trkpt><trkpt lat="42.74795731722046" lon="12.966728101285653"><ele>1285.0</ele><time>2026-04-04T10:50:35Z</time></trkpt><trkpt lat="42.74806857512525" lon="12.966561413957871"><ele>1288.6666666666665</ele><time>2026-04-04T10:50:36Z</time></trkpt><trkpt lat="42.748163750811564" lon="12.966420857314823"><ele>1292.3333333333333</ele><time>2026-04-04T10:50:37Z</time></trkpt><trkpt lat="42.74826956086853" lon="12.966251042267164"><ele>1296.0</ele><time>2026-04-04T10:50:38Z</time></trkpt><trkpt lat="42.74836755687654" lon="12.966081883075802"><ele>1296.0</ele><time>2026-04-04T10:50:39Z</time></trkpt><trkpt lat="42.74845801227596" lon="12.965934167873188"><ele>1296.0</ele><time>2026-04-04T10:50:40Z</time></trkpt><trkpt lat="42.748561405088445" lon="12.96575921841039"><ele>1296.0</ele><time>2026-04-04T10:50:41Z</time></trkpt><trkpt lat="42.748670444515014" lon="12.96556036138396"><ele>1297.0</ele><time>2026-04-04T10:50:42Z</time></trkpt><trkpt lat="42.74876689883669" lon="12.965392400731208"><ele>1298.0</ele><time>2026-04-04T10:50:43Z</time></trkpt><trkpt lat="42.74886399018334" lon="12.965227839426486"><ele>1299.0</ele><time>2026-04-04T10:50:44Z</time></trkpt><trkpt lat="42.74899474481764" lon="12.964938115218711"><ele>1299.0</ele><time>2026-04-04T10:50:45Z</time></trkpt><trkpt lat="42.74908823139014" lon="12.964737129157877"><ele>1299.0</ele><time>2026-04-04T10:50:46Z</time></trkpt><trkpt lat="42.74918182433204" lon="12.964533957739965"><ele>1299.0</ele><time>2026-04-04T10:50:47Z</time></trkpt><trkpt lat="42.74926752020108" lon="12.964373731980594"><ele>1299.0</ele><time>2026-04-04T10:50:48Z</time></trkpt><trkpt lat="42.749349994716034" lon="12.964198592825669"><ele>1299.0</ele><time>2026-04-04T10:50:49Z</time></trkpt><trkpt lat="42.74942783934538" lon="12.96403713240589"><ele>1299.0</ele><time>2026-04-04T10:50:50Z</time></trkpt><trkpt lat="42.74950033901741" lon="12.963893218925218"><ele>1299.0</ele><time>2026-04-04T10:50:51Z</time></trkpt><trkpt lat="42.74957501161451" lon="12.963745927415545"><ele>1299.25</ele><time>2026-04-04T10:50:52Z</time></trkpt><trkpt lat="42.749649297175075" lon="12.963602689267516"><ele>1299.5</ele><time>2026-04-04T10:50:53Z</time></trkpt><trkpt lat="42.749734649897064" lon="12.963460840463261"><ele>1299.75</ele><time>2026-04-04T10:50:54Z</time></trkpt><trkpt lat="42.74981511331024" lon="12.963315646040536"><ele>1300.0</ele><time>2026-04-04T10:50:55Z</time></trkpt><trkpt lat="42.749895063860336" lon="12.96315241850186"><ele>1305.0</ele><time>2026-04-04T10:50:56Z</time></trkpt><trkpt lat="42.74997559855127" lon="12.962982617166492"><ele>1310.0</ele><time>2026-04-04T10:50:57Z</time></trkpt><trkpt lat="42.75006189547372" lon="12.962804722957104"><ele>1315.0</ele><time>2026-04-04T10:50:58Z</time></trkpt><trkpt lat="42.75015462332342" lon="12.962618658365496"><ele>1316.6666666666665</ele><time>2026-04-04T10:50:59Z</time></trkpt><trkpt lat="42.75025529331322" lon="12.96242421105012"><ele>1318.3333333333333</ele><time>2026-04-04T10:51:00Z</time></trkpt><trkpt lat="42.75034722683491" lon="12.962237155165864"><ele>1320.0</ele><time>2026-04-04T10:51:01Z</time></trkpt><trkpt lat="42.75043273758991" lon="12.962065026223815"><ele>1320.0</ele><time>2026-04-04T10:51:02Z</time></trkpt><trkpt lat="42.75051993324883" lon="12.961891108773694"><ele>1320.0</ele><time>2026-04-04T10:51:03Z</time></trkpt><trkpt lat="42.750613772203394" lon="12.961705079960112"><ele>1320.0</ele><time>2026-04-04T10:51:04Z</time></trkpt><trkpt lat="42.750702761673665" lon="12.96152031719774"><ele>1324.0</ele><time>2026-04-04T10:51:05Z</time></trkpt><trkpt lat="42.750782798111736" lon="12.96135965217513"><ele>1328.0</ele><time>2026-04-04T10:51:06Z</time></trkpt><trkpt lat="42.75084465579845" lon="12.961183112679274"><ele>1332.0</ele><time>2026-04-04T10:51:07Z</time></trkpt><trkpt lat="42.7509145378923" lon="12.96102640906564"><ele>1336.0</ele><time>2026-04-04T10:51:08Z</time></trkpt><trkpt lat="42.750987366376684" lon="12.960875947952534"><ele>1339.0</ele><time>2026-04-04T10:51:09Z</time></trkpt><trkpt lat="42.75104677829147" lon="12.960733725251439"><ele>1342.0</ele><time>2026-04-04T10:51:10Z</time></trkpt><trkpt lat="42.751115425226615" lon="12.96058187303675"><ele>1345.0</ele><time>2026-04-04T10:51:11Z</time></trkpt><trkpt lat="42.7511816225843" lon="12.960451479825581"><ele>1348.0</ele><time>2026-04-04T10:51:12Z</time></trkpt><trkpt lat="42.75126687503924" lon="12.960312903481418"><ele>1348.0</ele><time>2026-04-04T10:51:13Z</time></trkpt><trkpt lat="42.751369869448574" lon="12.960175528163726"><ele>1348.0</ele><time>2026-04-04T10:51:14Z</time></trkpt><trkpt lat="42.75146109036432" lon="12.960051508745114"><ele>1348.0</ele><time>2026-04-04T10:51:15Z</time></trkpt><trkpt lat="42.7515623657533" lon="12.959902149447954"><ele>1348.0</ele><time>2026-04-04T10:51:16Z</time></trkpt><trkpt lat="42.75166770337296" lon="12.95973795673679"><ele>1349.3333333333333</ele><time>2026-04-04T10:51:17Z</time></trkpt><trkpt lat="42.75178532009504" lon="12.959553766659125"><ele>1350.6666666666667</ele><time>2026-04-04T10:51:18Z</time></trkpt><trkpt lat="42.75189028193377" lon="12.959364773607732"><ele>1352.0</ele><time>2026-04-04T10:51:19Z</time></trkpt><trkpt lat="42.751992582986944" lon="12.959173891913672"><ele>1358.6666666666667</ele><time>2026-04-04T10:51:20Z</time></trkpt><trkpt lat="42.75208068222867" lon="12.958984985023172"><ele>1365.3333333333333</ele><time>2026-04-04T10:51:21Z</time></trkpt><trkpt lat="42.75216128504557" lon="12.958802627227742"><ele>1372.0</ele><time>2026-04-04T10:51:22Z</time></trkpt><trkpt lat="42.752250178026905" lon="12.958594663941609"><ele>1372.0</ele><time>2026-04-04T10:51:23Z</time></trkpt><trkpt lat="42.75231824234362" lon="12.958439548202113"><ele>1372.0</ele><time>2026-04-04T10:51:24Z</time></trkpt><trkpt lat="42.7523972890549" lon="12.958273528220733"><ele>1372.0</ele><time>2026-04-04T10:51:25Z</time></trkpt><trkpt lat="42.7524548680953" lon="12.958131174781906"><ele>1372.0</ele><time>2026-04-04T10:51:26Z</time></trkpt><trkpt lat="42.75251430932522" lon="12.958002207553797"><ele>1374.1999999999998</ele><time>2026-04-04T10:51:27Z</time></trkpt><trkpt lat="42.75256303474999" lon="12.957887846556508"><ele>1376.4</ele><time>2026-04-04T10:51:28Z</time></trkpt><trkpt lat="42.752596489454525" lon="12.957811592259274"><ele>1378.6</ele><time>2026-04-04T10:51:29Z</time></trkpt><trkpt lat="42.75264519335552" lon="12.95766742696608"><ele>1380.8000000000002</ele><time>2026-04-04T10:51:31Z</time></trkpt><trkpt lat="42.752690101050845" lon="12.957555913763356"><ele>1383.0</ele><time>2026-04-04T10:51:32Z</time></trkpt><trkpt lat="42.75274967405004" lon="12.957442695212432"><ele>1383.75</ele><time>2026-04-04T10:51:33Z</time></trkpt><trkpt lat="42.752813750294855" lon="12.95732367231184"><ele>1384.5</ele><time>2026-04-04T10:51:34Z</time></trkpt><trkpt lat="42.75286732943987" lon="12.957226312160632"><ele>1385.25</ele><time>2026-04-04T10:51:35Z</time></trkpt><trkpt lat="42.75294351420939" lon="12.957076331914486"><ele>1386.0</ele><time>2026-04-04T10:51:36Z</time></trkpt><trkpt lat="42.75303273182468" lon="12.956875849557099"><ele>1388.25</ele><time>2026-04-04T10:51:37Z</time></trkpt><trkpt lat="42.75311567356709" lon="12.956691734126611"><ele>1390.5</ele><time>2026-04-04T10:51:38Z</time></trkpt><trkpt lat="42.75319530912345" lon="12.956533326512611"><ele>1392.75</ele><time>2026-04-04T10:51:39Z</time></trkpt><trkpt lat="42.75327317806147" lon="12.956372480458821"><ele>1395.0</ele><time>2026-04-04T10:51:40Z</time></trkpt><trkpt lat="42.75332342949561" lon="12.956259571673018"><ele>1395.0</ele><time>2026-04-04T10:51:41Z</time></trkpt><trkpt lat="42.75336264357443" lon="12.956160706754952"><ele>1395.0</ele><time>2026-04-04T10:51:42Z</time></trkpt><trkpt lat="42.753401468156255" lon="12.956072122173916"><ele>1395.0</ele><time>2026-04-04T10:51:43Z</time></trkpt><trkpt lat="42.75342942260458" lon="12.9559919616229"><ele>1395.0</ele><time>2026-04-04T10:51:44Z</time></trkpt><trkpt lat="42.75346045819651" lon="12.955891971676461"><ele>1395.0</ele><time>2026-04-04T10:51:45Z</time></trkpt><trkpt lat="42.75349038510551" lon="12.955794977201265"><ele>1395.0</ele><time>2026-04-04T10:51:46Z</time></trkpt><trkpt lat="42.7535432186056" lon="12.955667747827425"><ele>1392.5</ele><time>2026-04-04T10:51:47Z</time></trkpt><trkpt lat="42.753606472327405" lon="12.955537931181384"><ele>1390.0</ele><time>2026-04-04T10:51:48Z</time></trkpt><trkpt lat="42.753667856412" lon="12.955429436503437"><ele>1387.5</ele><time>2026-04-04T10:51:49Z</time></trkpt><trkpt lat="42.75371098468692" lon="12.955346432696627"><ele>1385.0</ele><time>2026-04-04T10:51:50Z</time></trkpt><trkpt lat="42.75375001458978" lon="12.95527005340837"><ele>1382.5</ele><time>2026-04-04T10:51:51Z</time></trkpt><trkpt lat="42.75380089144035" lon="12.95521716510444"><ele>1380.0</ele><time>2026-04-04T10:51:54Z</time></trkpt><trkpt lat="42.753841193844494" lon="12.955121679052404"><ele>1380.0</ele><time>2026-04-04T10:52:21Z</time></trkpt><trkpt lat="42.753903966323755" lon="12.955041378355086"><ele>1380.0</ele><time>2026-04-04T10:52:23Z</time></trkpt><trkpt lat="42.75392584343932" lon="12.954955059097225"><ele>1380.0</ele><time>2026-04-04T10:52:24Z</time></trkpt><trkpt lat="42.753944135439106" lon="12.95487007584992"><ele>1380.0</ele><time>2026-04-04T10:52:25Z</time></trkpt><trkpt lat="42.75396138544844" lon="12.954769924404166"><ele>1380.0</ele><time>2026-04-04T10:52:27Z</time></trkpt><trkpt lat="42.75399477432171" lon="12.954671594857455"><ele>1380.0</ele><time>2026-04-04T10:52:29Z</time></trkpt><trkpt lat="42.754022530436735" lon="12.9545768919025"><ele>1380.0</ele><time>2026-04-04T10:53:07Z</time></trkpt><trkpt lat="42.75405213414344" lon="12.954494162208533"><ele>1381.6666666666667</ele><time>2026-04-04T10:53:16Z</time></trkpt><trkpt lat="42.75407066588292" lon="12.954388287448687"><ele>1383.3333333333333</ele><time>2026-04-04T10:53:20Z</time></trkpt><trkpt lat="42.75410047961163" lon="12.954301676212255"><ele>1385.0</ele><time>2026-04-04T10:53:23Z</time></trkpt><trkpt lat="42.75414188750683" lon="12.954222818324993"><ele>1386.6666666666665</ele><time>2026-04-04T10:53:31Z</time></trkpt><trkpt lat="42.75408461090013" lon="12.954146147413319"><ele>1388.3333333333333</ele><time>2026-04-04T11:01:34Z</time></trkpt><trkpt lat="42.75402381296173" lon="12.95425459296185"><ele>1390.0</ele><time>2026-04-04T11:01:37Z</time></trkpt><trkpt lat="42.753968177110345" lon="12.95441326153631"><ele>1390.1666666666665</ele><time>2026-04-04T11:01:39Z</time></trkpt><trkpt lat="42.753938068338144" lon="12.954506900951293"><ele>1390.3333333333333</ele><time>2026-04-04T11:01:40Z</time></trkpt><trkpt lat="42.75390956256278" lon="12.954602890634636"><ele>1390.5</ele><time>2026-04-04T11:01:41Z</time></trkpt><trkpt lat="42.753881030471206" lon="12.954701775821293"><ele>1390.6666666666667</ele><time>2026-04-04T11:01:42Z</time></trkpt><trkpt lat="42.75384601219442" lon="12.954824799348545"><ele>1390.8333333333335</ele><time>2026-04-04T11:01:43Z</time></trkpt><trkpt lat="42.75381010480787" lon="12.95493953105204"><ele>1391.0</ele><time>2026-04-04T11:01:44Z</time></trkpt><trkpt lat="42.75377721117889" lon="12.95503497844835"><ele>1389.1666666666667</ele><time>2026-04-04T11:01:45Z</time></trkpt><trkpt lat="42.75375354724102" lon="12.955116993356922"><ele>1387.3333333333335</ele><time>2026-04-04T11:01:46Z</time></trkpt><trkpt lat="42.75372205458165" lon="12.955224618106321"><ele>1385.5</ele><time>2026-04-04T11:01:47Z</time></trkpt><trkpt lat="42.75368064995098" lon="12.955346081841421"><ele>1383.6666666666667</ele><time>2026-04-04T11:01:48Z</time></trkpt><trkpt lat="42.7536495662681" lon="12.955434664219474"><ele>1381.8333333333333</ele><time>2026-04-04T11:01:49Z</time></trkpt><trkpt lat="42.75361154209418" lon="12.955543380959254"><ele>1380.0</ele><time>2026-04-04T11:01:50Z</time></trkpt><trkpt lat="42.7535781627992" lon="12.955645246453921"><ele>1382.5</ele><time>2026-04-04T11:01:51Z</time></trkpt><trkpt lat="42.75353582516032" lon="12.955736206148789"><ele>1385.0</ele><time>2026-04-04T11:01:52Z</time></trkpt><trkpt lat="42.753487904381444" lon="12.955845485507963"><ele>1387.5</ele><time>2026-04-04T11:01:53Z</time></trkpt><trkpt lat="42.75344496780946" lon="12.955955944893374"><ele>1390.0</ele><time>2026-04-04T11:01:54Z</time></trkpt><trkpt lat="42.75340986655469" lon="12.956071305055849"><ele>1392.5</ele><time>2026-04-04T11:01:55Z</time></trkpt><trkpt lat="42.75337614764765" lon="12.956189026550973"><ele>1395.0</ele><time>2026-04-04T11:01:56Z</time></trkpt><trkpt lat="42.75332792157612" lon="12.9563157293664"><ele>1395.0</ele><time>2026-04-04T11:01:57Z</time></trkpt><trkpt lat="42.75327735993134" lon="12.95644318718966"><ele>1395.0</ele><time>2026-04-04T11:01:58Z</time></trkpt><trkpt lat="42.753234874675556" lon="12.95653979544228"><ele>1395.0</ele><time>2026-04-04T11:01:59Z</time></trkpt><trkpt lat="42.75318686621715" lon="12.956637432941866"><ele>1395.0</ele><time>2026-04-04T11:02:00Z</time></trkpt><trkpt lat="42.75313047875445" lon="12.956729048757795"><ele>1395.0</ele><time>2026-04-04T11:02:01Z</time></trkpt><trkpt lat="42.75307449636427" lon="12.956817576438365"><ele>1395.0</ele><time>2026-04-04T11:02:02Z</time></trkpt><trkpt lat="42.75302344108179" lon="12.956891679492754"><ele>1393.2</ele><time>2026-04-04T11:02:03Z</time></trkpt><trkpt lat="42.7529687588621" lon="12.956983507495218"><ele>1391.4</ele><time>2026-04-04T11:02:04Z</time></trkpt><trkpt lat="42.75292127451951" lon="12.957092580510073"><ele>1389.6</ele><time>2026-04-04T11:02:05Z</time></trkpt><trkpt lat="42.75288498218911" lon="12.95717973838863"><ele>1387.8</ele><time>2026-04-04T11:02:06Z</time></trkpt><trkpt lat="42.75281568625434" lon="12.957333438860434"><ele>1386.0</ele><time>2026-04-04T11:02:08Z</time></trkpt><trkpt lat="42.75276871574219" lon="12.957419187194134"><ele>1386.0</ele><time>2026-04-04T11:02:09Z</time></trkpt><trkpt lat="42.752724489228555" lon="12.957495960907478"><ele>1386.0</ele><time>2026-04-04T11:02:10Z</time></trkpt><trkpt lat="42.75267335989338" lon="12.957588875750295"><ele>1386.0</ele><time>2026-04-04T11:02:11Z</time></trkpt><trkpt lat="42.75262812449696" lon="12.957677515915835"><ele>1386.0</ele><time>2026-04-04T11:02:12Z</time></trkpt><trkpt lat="42.75258078980154" lon="12.957788237120052"><ele>1386.0</ele><time>2026-04-04T11:02:13Z</time></trkpt><trkpt lat="42.75253502156811" lon="12.95791266112786"><ele>1386.0</ele><time>2026-04-04T11:02:14Z</time></trkpt><trkpt lat="42.75248669048334" lon="12.95805879325982"><ele>1385.25</ele><time>2026-04-04T11:02:15Z</time></trkpt><trkpt lat="42.752441351180735" lon="12.958206195054796"><ele>1384.5</ele><time>2026-04-04T11:02:16Z</time></trkpt><trkpt lat="42.752381308956636" lon="12.958346237644916"><ele>1383.75</ele><time>2026-04-04T11:02:17Z</time></trkpt><trkpt lat="42.752320188185834" lon="12.958494236571486"><ele>1383.0</ele><time>2026-04-04T11:02:18Z</time></trkpt><trkpt lat="42.75225718541424" lon="12.958637242314325"><ele>1380.25</ele><time>2026-04-04T11:02:19Z</time></trkpt><trkpt lat="42.75219393741328" lon="12.9587805402124"><ele>1377.5</ele><time>2026-04-04T11:02:20Z</time></trkpt><trkpt lat="42.75213436782519" lon="12.958913485914204"><ele>1374.75</ele><time>2026-04-04T11:02:21Z</time></trkpt><trkpt lat="42.75207035066901" lon="12.959065797870666"><ele>1372.0</ele><time>2026-04-04T11:02:22Z</time></trkpt><trkpt lat="42.7519974998669" lon="12.95921684924163"><ele>1369.25</ele><time>2026-04-04T11:02:23Z</time></trkpt><trkpt lat="42.75192589897079" lon="12.959354276420232"><ele>1366.5</ele><time>2026-04-04T11:02:24Z</time></trkpt><trkpt lat="42.751848555413204" lon="12.959499644224326"><ele>1363.75</ele><time>2026-04-04T11:02:25Z</time></trkpt><trkpt lat="42.75177190902118" lon="12.959638365600936"><ele>1361.0</ele><time>2026-04-04T11:02:26Z</time></trkpt><trkpt lat="42.75168710081769" lon="12.959779342143836"><ele>1361.0</ele><time>2026-04-04T11:02:27Z</time></trkpt><trkpt lat="42.75160058474146" lon="12.95991222901972"><ele>1361.0</ele><time>2026-04-04T11:02:28Z</time></trkpt><trkpt lat="42.751514345474284" lon="12.96004569099572"><ele>1361.0</ele><time>2026-04-04T11:02:29Z</time></trkpt><trkpt lat="42.751435948231496" lon="12.960161967297699"><ele>1361.0</ele><time>2026-04-04T11:02:30Z</time></trkpt><trkpt lat="42.75135778693633" lon="12.960271463125345"><ele>1357.75</ele><time>2026-04-04T11:02:31Z</time></trkpt><trkpt lat="42.751289801006145" lon="12.960379167895686"><ele>1354.5</ele><time>2026-04-04T11:02:32Z</time></trkpt><trkpt lat="42.751208082391514" lon="12.960494219764948"><ele>1351.25</ele><time>2026-04-04T11:02:33Z</time></trkpt><trkpt lat="42.75112686166001" lon="12.960616692971069"><ele>1348.0</ele><time>2026-04-04T11:02:34Z</time></trkpt><trkpt lat="42.751047907315005" lon="12.960749864253057"><ele>1345.0</ele><time>2026-04-04T11:02:35Z</time></trkpt><trkpt lat="42.750975660070175" lon="12.960885487585639"><ele>1342.0</ele><time>2026-04-04T11:02:36Z</time></trkpt><trkpt lat="42.75091670041558" lon="12.961017338358547"><ele>1339.0</ele><time>2026-04-04T11:02:37Z</time></trkpt><trkpt lat="42.750858836831824" lon="12.961161979396318"><ele>1336.0</ele><time>2026-04-04T11:02:38Z</time></trkpt><trkpt lat="42.75080408946912" lon="12.96131932678365"><ele>1336.0</ele><time>2026-04-04T11:02:39Z</time></trkpt><trkpt lat="42.75074743766939" lon="12.961467388919433"><ele>1336.0</ele><time>2026-04-04T11:02:40Z</time></trkpt><trkpt lat="42.75066867659455" lon="12.961624299773792"><ele>1336.0</ele><time>2026-04-04T11:02:41Z</time></trkpt><trkpt lat="42.75059265923048" lon="12.9617691117412"><ele>1336.0</ele><time>2026-04-04T11:02:42Z</time></trkpt><trkpt lat="42.750519947657615" lon="12.9619150928444"><ele>1332.0</ele><time>2026-04-04T11:02:43Z</time></trkpt><trkpt lat="42.75045123324996" lon="12.962059943005498"><ele>1328.0</ele><time>2026-04-04T11:02:44Z</time></trkpt><trkpt lat="42.75038163056301" lon="12.962212347646629"><ele>1324.0</ele><time>2026-04-04T11:02:45Z</time></trkpt><trkpt lat="42.750312641455466" lon="12.962358996540647"><ele>1320.0</ele><time>2026-04-04T11:02:46Z</time></trkpt><trkpt lat="42.75023877193532" lon="12.962511774250897"><ele>1318.75</ele><time>2026-04-04T11:02:47Z</time></trkpt><trkpt lat="42.75016132054114" lon="12.962666568006307"><ele>1317.5</ele><time>2026-04-04T11:02:48Z</time></trkpt><trkpt lat="42.75008272987182" lon="12.96282213417887"><ele>1316.25</ele><time>2026-04-04T11:02:49Z</time></trkpt><trkpt lat="42.750001435765626" lon="12.962983489567984"><ele>1315.0</ele><time>2026-04-04T11:02:50Z</time></trkpt><trkpt lat="42.74991775440343" lon="12.963144396102301"><ele>1315.0</ele><time>2026-04-04T11:02:51Z</time></trkpt><trkpt lat="42.74983491070652" lon="12.96330990951725"><ele>1315.0</ele><time>2026-04-04T11:02:52Z</time></trkpt><trkpt lat="42.74974998756222" lon="12.963486467682554"><ele>1315.0</ele><time>2026-04-04T11:02:53Z</time></trkpt><trkpt lat="42.74967098970586" lon="12.963660548720183"><ele>1311.25</ele><time>2026-04-04T11:02:54Z</time></trkpt><trkpt lat="42.7496064219043" lon="12.963835365559346"><ele>1307.5</ele><time>2026-04-04T11:02:55Z</time></trkpt><trkpt lat="42.74954203500048" lon="12.964008832452746"><ele>1303.75</ele><time>2026-04-04T11:02:56Z</time></trkpt><trkpt lat="42.749474276275336" lon="12.964180629969832"><ele>1300.0</ele><time>2026-04-04T11:02:57Z</time></trkpt><trkpt lat="42.749400067270486" lon="12.96436106276006"><ele>1299.75</ele><time>2026-04-04T11:02:58Z</time></trkpt><trkpt lat="42.74931806514691" lon="12.96453969442271"><ele>1299.5</ele><time>2026-04-04T11:02:59Z</time></trkpt><trkpt lat="42.74924834843475" lon="12.964714756837811"><ele>1299.25</ele><time>2026-04-04T11:03:00Z</time></trkpt><trkpt lat="42.74919551849109" lon="12.964889774344842"><ele>1299.0</ele><time>2026-04-04T11:03:01Z</time></trkpt><trkpt lat="42.74914867232853" lon="12.965070888437229"><ele>1296.5</ele><time>2026-04-04T11:03:02Z</time></trkpt><trkpt lat="42.74910500894497" lon="12.965243986746044"><ele>1294.0</ele><time>2026-04-04T11:03:03Z</time></trkpt><trkpt lat="42.74906290269411" lon="12.965433103852375"><ele>1291.5</ele><time>2026-04-04T11:03:04Z</time></trkpt><trkpt lat="42.74903226230047" lon="12.965601788097658"><ele>1289.0</ele><time>2026-04-04T11:03:05Z</time></trkpt><trkpt lat="42.749001969596236" lon="12.965761172653446"><ele>1287.0</ele><time>2026-04-04T11:03:06Z</time></trkpt><trkpt lat="42.74898085074038" lon="12.96589568666247"><ele>1285.0</ele><time>2026-04-04T11:03:07Z</time></trkpt><trkpt lat="42.74895489359864" lon="12.966028144061159"><ele>1283.0</ele><time>2026-04-04T11:03:08Z</time></trkpt><trkpt lat="42.74892745633821" lon="12.96613971156334"><ele>1281.0</ele><time>2026-04-04T11:03:09Z</time></trkpt><trkpt lat="42.74900808831388" lon="12.966171795177498"><ele>1279.0</ele><time>2026-04-04T11:03:14Z</time></trkpt><trkpt lat="42.74906268761779" lon="12.96612218838112"><ele>1277.0</ele><time>2026-04-04T11:03:15Z</time></trkpt><trkpt lat="42.749138984938334" lon="12.965999271197742"><ele>1277.0</ele><time>2026-04-04T11:03:17Z</time></trkpt><trkpt lat="42.749233697491704" lon="12.965866788457275"><ele>1277.0</ele><time>2026-04-04T11:03:19Z</time></trkpt><trkpt lat="42.749280632630885" lon="12.965798059147282"><ele>1277.0</ele><time>2026-04-04T11:03:20Z</time></trkpt><trkpt lat="42.749324602907535" lon="12.965731869082445"><ele>1277.0</ele><time>2026-04-04T11:03:21Z</time></trkpt><trkpt lat="42.74937268822111" lon="12.9656631551382"><ele>1277.0</ele><time>2026-04-04T11:03:22Z</time></trkpt><trkpt lat="42.74943073853532" lon="12.965578638415847"><ele>1277.0</ele><time>2026-04-04T11:03:23Z</time></trkpt><trkpt lat="42.74948232807783" lon="12.96550628674374"><ele>1277.4</ele><time>2026-04-04T11:03:24Z</time></trkpt><trkpt lat="42.74955934341032" lon="12.965381061735453"><ele>1277.8000000000002</ele><time>2026-04-04T11:03:26Z</time></trkpt><trkpt lat="42.7496156463256" lon="12.96529591270645"><ele>1278.2</ele><time>2026-04-04T11:03:27Z</time></trkpt><trkpt lat="42.74968698804199" lon="12.965197474119817"><ele>1278.6000000000001</ele><time>2026-04-04T11:03:28Z</time></trkpt><trkpt lat="42.74975168719498" lon="12.965104887278718"><ele>1279.0</ele><time>2026-04-04T11:03:29Z</time></trkpt><trkpt lat="42.749809773767275" lon="12.96501600262881"><ele>1279.0</ele><time>2026-04-04T11:03:30Z</time></trkpt><trkpt lat="42.7498637846314" lon="12.964942043818217"><ele>1279.0</ele><time>2026-04-04T11:03:31Z</time></trkpt><trkpt lat="42.74992698040096" lon="12.964853500352051"><ele>1279.0</ele><time>2026-04-04T11:03:32Z</time></trkpt><trkpt lat="42.749986476045144" lon="12.964787155156525"><ele>1279.0</ele><time>2026-04-04T11:03:33Z</time></trkpt><trkpt lat="42.75003318725049" lon="12.964726473589016"><ele>1279.0</ele><time>2026-04-04T11:03:34Z</time></trkpt><trkpt lat="42.7500900034586" lon="12.96467256278703"><ele>1279.0</ele><time>2026-04-04T11:03:35Z</time></trkpt><trkpt lat="42.750147070090144" lon="12.964616063792892"><ele>1279.0</ele><time>2026-04-04T11:03:36Z</time></trkpt><trkpt lat="42.75021266453716" lon="12.964555904408613"><ele>1273.3333333333333</ele><time>2026-04-04T11:03:37Z</time></trkpt><trkpt lat="42.75027878501894" lon="12.964489715758342"><ele>1267.6666666666665</ele><time>2026-04-04T11:03:38Z</time></trkpt><trkpt lat="42.750349351292364" lon="12.964430556381195"><ele>1262.0</ele><time>2026-04-04T11:03:39Z</time></trkpt><trkpt lat="42.75042650820141" lon="12.964379019571508"><ele>1256.3333333333333</ele><time>2026-04-04T11:03:40Z</time></trkpt><trkpt lat="42.750511006640494" lon="12.96435660147532"><ele>1250.6666666666667</ele><time>2026-04-04T11:03:41Z</time></trkpt><trkpt lat="42.75058896071082" lon="12.96432162828921"><ele>1245.0</ele><time>2026-04-04T11:03:42Z</time></trkpt><trkpt lat="42.75067436781021" lon="12.964266033555988"><ele>1245.0</ele><time>2026-04-04T11:03:43Z</time></trkpt><trkpt lat="42.750770729153174" lon="12.964199152151407"><ele>1245.0</ele><time>2026-04-04T11:03:44Z</time></trkpt><trkpt lat="42.75085693963798" lon="12.964156904671167"><ele>1245.0</ele><time>2026-04-04T11:03:45Z</time></trkpt><trkpt lat="42.750936988320774" lon="12.96411487629122"><ele>1245.0</ele><time>2026-04-04T11:03:46Z</time></trkpt><trkpt lat="42.75101755219443" lon="12.964080773289792"><ele>1245.0</ele><time>2026-04-04T11:03:47Z</time></trkpt><trkpt lat="42.75109486508287" lon="12.96404691851226"><ele>1244.4</ele><time>2026-04-04T11:03:48Z</time></trkpt><trkpt lat="42.75117986005466" lon="12.964023462431467"><ele>1243.8</ele><time>2026-04-04T11:03:49Z</time></trkpt><trkpt lat="42.75127491786427" lon="12.964024361911202"><ele>1243.2</ele><time>2026-04-04T11:03:50Z</time></trkpt><trkpt lat="42.75137330503565" lon="12.964027225383504"><ele>1242.6</ele><time>2026-04-04T11:03:51Z</time></trkpt><trkpt lat="42.75147702544549" lon="12.964013939930625"><ele>1242.0</ele><time>2026-04-04T11:03:52Z</time></trkpt><trkpt lat="42.7515924461828" lon="12.963991324518156"><ele>1242.0</ele><time>2026-04-04T11:03:53Z</time></trkpt><trkpt lat="42.75169135815763" lon="12.963990626804957"><ele>1242.0</ele><time>2026-04-04T11:03:54Z</time></trkpt><trkpt lat="42.75180143427237" lon="12.963983021125294"><ele>1242.0</ele><time>2026-04-04T11:03:55Z</time></trkpt><trkpt lat="42.75188490560434" lon="12.963992158067315"><ele>1242.0</ele><time>2026-04-04T11:03:56Z</time></trkpt><trkpt lat="42.75197162561337" lon="12.96398336988993"><ele>1242.0</ele><time>2026-04-04T11:03:57Z</time></trkpt><trkpt lat="42.752035622665666" lon="12.963965032137711"><ele>1242.0</ele><time>2026-04-04T11:03:58Z</time></trkpt><trkpt lat="42.752118061977704" lon="12.963934573155193"><ele>1236.4</ele><time>2026-04-04T11:03:59Z</time></trkpt><trkpt lat="42.752194882567146" lon="12.963883370763519"><ele>1230.8000000000002</ele><time>2026-04-04T11:04:00Z</time></trkpt><trkpt lat="42.75227226422597" lon="12.96380326766421"><ele>1225.2</ele><time>2026-04-04T11:04:01Z</time></trkpt><trkpt lat="42.752317289373494" lon="12.96370608222792"><ele>1219.6000000000001</ele><time>2026-04-04T11:04:02Z</time></trkpt><trkpt lat="42.75238211771992" lon="12.963553339170225"><ele>1214.0</ele><time>2026-04-04T11:04:03Z</time></trkpt><trkpt lat="42.752467967039834" lon="12.963398471044526"><ele>1211.25</ele><time>2026-04-04T11:04:04Z</time></trkpt><trkpt lat="42.75255797881428" lon="12.963262551322629"><ele>1208.5</ele><time>2026-04-04T11:04:05Z</time></trkpt><trkpt lat="42.75264332183062" lon="12.963146617918241"><ele>1205.75</ele><time>2026-04-04T11:04:06Z</time></trkpt><trkpt lat="42.75272409708494" lon="12.963028867705066"><ele>1203.0</ele><time>2026-04-04T11:04:07Z</time></trkpt><trkpt lat="42.75280289648622" lon="12.962900296615624"><ele>1203.0</ele><time>2026-04-04T11:04:08Z</time></trkpt><trkpt lat="42.75289322446573" lon="12.962722397774803"><ele>1203.0</ele><time>2026-04-04T11:04:09Z</time></trkpt><trkpt lat="42.752977443144026" lon="12.962552360997503"><ele>1203.0</ele><time>2026-04-04T11:04:10Z</time></trkpt><trkpt lat="42.75304500463406" lon="12.962414611051145"><ele>1203.0</ele><time>2026-04-04T11:04:11Z</time></trkpt><trkpt lat="42.75311120016072" lon="12.96225628804537"><ele>1209.25</ele><time>2026-04-04T11:04:12Z</time></trkpt><trkpt lat="42.753172116063986" lon="12.962127952018177"><ele>1215.5</ele><time>2026-04-04T11:04:13Z</time></trkpt><trkpt lat="42.75323304439367" lon="12.96198015624397"><ele>1221.75</ele><time>2026-04-04T11:04:14Z</time></trkpt><trkpt lat="42.75331702792097" lon="12.961814999899946"><ele>1228.0</ele><time>2026-04-04T11:04:15Z</time></trkpt><trkpt lat="42.753421490886396" lon="12.961631006414084"><ele>1222.5</ele><time>2026-04-04T11:04:16Z</time></trkpt><trkpt lat="42.7535212740463" lon="12.961448091217015"><ele>1217.0</ele><time>2026-04-04T11:04:17Z</time></trkpt><trkpt lat="42.7536146864491" lon="12.961291557753592"><ele>1211.5</ele><time>2026-04-04T11:04:18Z</time></trkpt><trkpt lat="42.753700947771534" lon="12.961175134096813"><ele>1206.0</ele><time>2026-04-04T11:04:19Z</time></trkpt><trkpt lat="42.753772353288646" lon="12.961096422187032"><ele>1206.0</ele><time>2026-04-04T11:04:20Z</time></trkpt><trkpt lat="42.75381197977177" lon="12.961010422982765"><ele>1206.0</ele><time>2026-04-04T11:04:22Z</time></trkpt><trkpt lat="42.753855815257126" lon="12.960946985099868"><ele>1206.0</ele><time>2026-04-04T11:04:32Z</time></trkpt><trkpt lat="42.75390711617443" lon="12.96087950246909"><ele>1206.0</ele><time>2026-04-04T11:05:13Z</time></trkpt><trkpt lat="42.7539624796735" lon="12.960817694058122"><ele>1206.0</ele><time>2026-04-04T11:05:16Z</time></trkpt><trkpt lat="42.75404817693919" lon="12.960657887206608"><ele>1206.0</ele><time>2026-04-04T11:05:18Z</time></trkpt><trkpt lat="42.75411200337943" lon="12.960547298583718"><ele>1207.5</ele><time>2026-04-04T11:05:19Z</time></trkpt><trkpt lat="42.75417886570784" lon="12.960430908181392"><ele>1209.0</ele><time>2026-04-04T11:05:20Z</time></trkpt><trkpt lat="42.75424511432694" lon="12.960310312730757"><ele>1210.5</ele><time>2026-04-04T11:05:21Z</time></trkpt><trkpt lat="42.754334188736266" lon="12.960154338888179"><ele>1212.0</ele><time>2026-04-04T11:05:22Z</time></trkpt><trkpt lat="42.75443175049531" lon="12.960003992424783"><ele>1212.0</ele><time>2026-04-04T11:05:23Z</time></trkpt><trkpt lat="42.75450230716035" lon="12.959885864310225"><ele>1212.0</ele><time>2026-04-04T11:05:24Z</time></trkpt><trkpt lat="42.754565929059986" lon="12.959787475460427"><ele>1212.0</ele><time>2026-04-04T11:05:25Z</time></trkpt><trkpt lat="42.75464380076884" lon="12.95965048907214"><ele>1212.0</ele><time>2026-04-04T11:05:26Z</time></trkpt><trkpt lat="42.75473482177834" lon="12.959525168727035"><ele>1212.0</ele><time>2026-04-04T11:05:27Z</time></trkpt><trkpt lat="42.75483777570172" lon="12.959425333883916"><ele>1212.0</ele><time>2026-04-04T11:05:28Z</time></trkpt><trkpt lat="42.75494355580582" lon="12.959314140364274"><ele>1212.0</ele><time>2026-04-04T11:05:29Z</time></trkpt><trkpt lat="42.75505646034644" lon="12.959187670446425"><ele>1212.0</ele><time>2026-04-04T11:05:30Z</time></trkpt><trkpt lat="42.75516400733743" lon="12.959026564383354"><ele>1202.3333333333333</ele><time>2026-04-04T11:05:31Z</time></trkpt><trkpt lat="42.75528238925786" lon="12.958845592213606"><ele>1192.6666666666665</ele><time>2026-04-04T11:05:32Z</time></trkpt><trkpt lat="42.75538256989839" lon="12.95870508853126"><ele>1183.0</ele><time>2026-04-04T11:05:33Z</time></trkpt><trkpt lat="42.75547219951084" lon="12.95855468700801"><ele>1183.0</ele><time>2026-04-04T11:05:34Z</time></trkpt><trkpt lat="42.755571371404535" lon="12.95837135701096"><ele>1183.0</ele><time>2026-04-04T11:05:35Z</time></trkpt><trkpt lat="42.755676433271006" lon="12.958213604210401"><ele>1183.0</ele><time>2026-04-04T11:05:36Z</time></trkpt><trkpt lat="42.75576733997139" lon="12.958041900721302"><ele>1189.75</ele><time>2026-04-04T11:05:37Z</time></trkpt><trkpt lat="42.755836820935684" lon="12.957876101060084"><ele>1196.5</ele><time>2026-04-04T11:05:38Z</time></trkpt><trkpt lat="42.75589757365711" lon="12.95771988928766"><ele>1203.25</ele><time>2026-04-04T11:05:39Z</time></trkpt><trkpt lat="42.75594271064725" lon="12.957561334098482"><ele>1210.0</ele><time>2026-04-04T11:05:40Z</time></trkpt><trkpt lat="42.756008364663444" lon="12.957368597130804"><ele>1203.25</ele><time>2026-04-04T11:05:41Z</time></trkpt><trkpt lat="42.75608392466952" lon="12.957198808706602"><ele>1196.5</ele><time>2026-04-04T11:05:42Z</time></trkpt><trkpt lat="42.75614978004512" lon="12.957051019898161"><ele>1189.75</ele><time>2026-04-04T11:05:43Z</time></trkpt><trkpt lat="42.75621490625411" lon="12.95688178978144"><ele>1183.0</ele><time>2026-04-04T11:05:44Z</time></trkpt><trkpt lat="42.75628341777947" lon="12.956714536021762"><ele>1191.3333333333333</ele><time>2026-04-04T11:05:45Z</time></trkpt><trkpt lat="42.75635013003669" lon="12.956528567679088"><ele>1199.6666666666667</ele><time>2026-04-04T11:05:46Z</time></trkpt><trkpt lat="42.756420666264006" lon="12.956331654372228"><ele>1208.0</ele><time>2026-04-04T11:05:47Z</time></trkpt><trkpt lat="42.75649576816753" lon="12.956175993807411"><ele>1208.0</ele><time>2026-04-04T11:05:48Z</time></trkpt><trkpt lat="42.756555158136315" lon="12.956034747459015"><ele>1208.0</ele><time>2026-04-04T11:05:49Z</time></trkpt><trkpt lat="42.75661563852925" lon="12.955879084314779"><ele>1208.0</ele><time>2026-04-04T11:05:50Z</time></trkpt><trkpt lat="42.75669395336243" lon="12.955710551599697"><ele>1208.0</ele><time>2026-04-04T11:05:51Z</time></trkpt><trkpt lat="42.75676707754892" lon="12.955532769857683"><ele>1212.6666666666667</ele><time>2026-04-04T11:05:52Z</time></trkpt><trkpt lat="42.756835890128116" lon="12.955334025993176"><ele>1217.3333333333333</ele><time>2026-04-04T11:05:53Z</time></trkpt><trkpt lat="42.75689954728788" lon="12.955130243407824"><ele>1222.0</ele><time>2026-04-04T11:05:54Z</time></trkpt><trkpt lat="42.756964227091025" lon="12.954927413884047"><ele>1209.0</ele><time>2026-04-04T11:05:55Z</time></trkpt><trkpt lat="42.757041727564" lon="12.954723071394431"><ele>1196.0</ele><time>2026-04-04T11:05:56Z</time></trkpt><trkpt lat="42.75711121635266" lon="12.954521398273885"><ele>1183.0</ele><time>2026-04-04T11:05:57Z</time></trkpt><trkpt lat="42.757166401581706" lon="12.954323635110608"><ele>1185.75</ele><time>2026-04-04T11:05:58Z</time></trkpt><trkpt lat="42.757203239513004" lon="12.954140320073098"><ele>1188.5</ele><time>2026-04-04T11:05:59Z</time></trkpt><trkpt lat="42.75723431399347" lon="12.953975563664505"><ele>1191.25</ele><time>2026-04-04T11:06:00Z</time></trkpt><trkpt lat="42.75726336487501" lon="12.953818945195035"><ele>1194.0</ele><time>2026-04-04T11:06:01Z</time></trkpt><trkpt lat="42.75730384067089" lon="12.953665520296179"><ele>1194.0</ele><time>2026-04-04T11:06:02Z</time></trkpt><trkpt lat="42.75734362174911" lon="12.953493064821838"><ele>1194.0</ele><time>2026-04-04T11:06:03Z</time></trkpt><trkpt lat="42.7573909364402" lon="12.953309566923172"><ele>1194.0</ele><time>2026-04-04T11:06:04Z</time></trkpt><trkpt lat="42.75743756738247" lon="12.953126841825446"><ele>1194.0</ele><time>2026-04-04T11:06:05Z</time></trkpt><trkpt lat="42.75748067319204" lon="12.952947976615672"><ele>1196.2</ele><time>2026-04-04T11:06:06Z</time></trkpt><trkpt lat="42.757519978871755" lon="12.952793411835023"><ele>1198.4</ele><time>2026-04-04T11:06:07Z</time></trkpt><trkpt lat="42.757550349149106" lon="12.952659395041412"><ele>1200.6</ele><time>2026-04-04T11:06:08Z</time></trkpt><trkpt lat="42.757587076496755" lon="12.952530269185205"><ele>1202.8</ele><time>2026-04-04T11:06:09Z</time></trkpt><trkpt lat="42.757603400555226" lon="12.952439571251935"><ele>1205.0</ele><time>2026-04-04T11:06:10Z</time></trkpt><trkpt lat="42.757666354207025" lon="12.952411253811942"><ele>1205.0</ele><time>2026-04-04T11:06:12Z</time></trkpt><trkpt lat="42.757686068704174" lon="12.952538927775986"><ele>1205.0</ele><time>2026-04-04T11:06:14Z</time></trkpt><trkpt lat="42.75761434709527" lon="12.952696055420226"><ele>1205.0</ele><time>2026-04-04T11:06:16Z</time></trkpt><trkpt lat="42.757585653470414" lon="12.95287321566473"><ele>1205.0</ele><time>2026-04-04T11:06:17Z</time></trkpt><trkpt lat="42.75757949870846" lon="12.95299273778357"><ele>1205.0</ele><time>2026-04-04T11:06:18Z</time></trkpt><trkpt lat="42.7575842992772" lon="12.953089104361126"><ele>1205.0</ele><time>2026-04-04T11:06:19Z</time></trkpt><trkpt lat="42.75757671300987" lon="12.953203841501088"><ele>1205.0</ele><time>2026-04-04T11:06:20Z</time></trkpt><trkpt lat="42.75757540553003" lon="12.953306121626653"><ele>1205.0</ele><time>2026-04-04T11:06:21Z</time></trkpt><trkpt lat="42.75758176725154" lon="12.953418776267341"><ele>1205.0</ele><time>2026-04-04T11:06:22Z</time></trkpt><trkpt lat="42.7575970691541" lon="12.953527808758272"><ele>1205.0</ele><time>2026-04-04T11:06:23Z</time></trkpt><trkpt lat="42.75762614344774" lon="12.953628263542033"><ele>1202.8</ele><time>2026-04-04T11:06:24Z</time></trkpt><trkpt lat="42.75765704614532" lon="12.953732180589574"><ele>1200.6</ele><time>2026-04-04T11:06:25Z</time></trkpt><trkpt lat="42.75769409950261" lon="12.953861509872135"><ele>1198.4</ele><time>2026-04-04T11:06:26Z</time></trkpt><trkpt lat="42.757719406435584" lon="12.953996673278896"><ele>1196.2</ele><time>2026-04-04T11:06:27Z</time></trkpt><trkpt lat="42.757733037768475" lon="12.954145176031055"><ele>1194.0</ele><time>2026-04-04T11:06:28Z</time></trkpt><trkpt lat="42.75773300360561" lon="12.954266785294429"><ele>1180.4</ele><time>2026-04-04T11:06:29Z</time></trkpt><trkpt lat="42.757739760285524" lon="12.954384441284413"><ele>1166.8000000000002</ele><time>2026-04-04T11:06:30Z</time></trkpt><trkpt lat="42.75775049365143" lon="12.954510925334388"><ele>1153.1999999999998</ele><time>2026-04-04T11:06:31Z</time></trkpt><trkpt lat="42.75776183119711" lon="12.954649842954005"><ele>1139.6</ele><time>2026-04-04T11:06:32Z</time></trkpt><trkpt lat="42.757756919355664" lon="12.954798673675935"><ele>1126.0</ele><time>2026-04-04T11:06:33Z</time></trkpt><trkpt lat="42.75773982353003" lon="12.954944342968762"><ele>1123.0</ele><time>2026-04-04T11:06:34Z</time></trkpt><trkpt lat="42.75772039775714" lon="12.955079622603566"><ele>1120.0</ele><time>2026-04-04T11:06:35Z</time></trkpt><trkpt lat="42.75771094947501" lon="12.955199211434515"><ele>1117.0</ele><time>2026-04-04T11:06:36Z</time></trkpt><trkpt lat="42.75769149041376" lon="12.95530500407276"><ele>1114.0</ele><time>2026-04-04T11:06:37Z</time></trkpt><trkpt lat="42.75765646849419" lon="12.955457138211305"><ele>1111.0</ele><time>2026-04-04T11:06:39Z</time></trkpt><trkpt lat="42.757656323581045" lon="12.955544840465246"><ele>1108.6666666666665</ele><time>2026-04-04T11:06:40Z</time></trkpt><trkpt lat="42.75766483303227" lon="12.955637784023601"><ele>1106.3333333333333</ele><time>2026-04-04T11:06:41Z</time></trkpt><trkpt lat="42.757694972169375" lon="12.955827096956165"><ele>1104.0</ele><time>2026-04-04T11:06:43Z</time></trkpt><trkpt lat="42.7577066392974" lon="12.95591824194338"><ele>1101.6666666666667</ele><time>2026-04-04T11:06:44Z</time></trkpt><trkpt lat="42.75771334297978" lon="12.956004916127462"><ele>1099.3333333333335</ele><time>2026-04-04T11:06:45Z</time></trkpt><trkpt lat="42.75772094799614" lon="12.956107843736302"><ele>1097.0</ele><time>2026-04-04T11:06:46Z</time></trkpt><trkpt lat="42.75774298077113" lon="12.956205269116015"><ele>1097.0</ele><time>2026-04-04T11:06:47Z</time></trkpt><trkpt lat="42.75776672855345" lon="12.956289376768336"><ele>1097.0</ele><time>2026-04-04T11:06:48Z</time></trkpt><trkpt lat="42.75778754513261" lon="12.956395917977318"><ele>1097.0</ele><time>2026-04-04T11:06:49Z</time></trkpt><trkpt lat="42.757805495516614" lon="12.95652925789047"><ele>1097.0</ele><time>2026-04-04T11:06:50Z</time></trkpt><trkpt lat="42.75780126535426" lon="12.956669919255049"><ele>1097.0</ele><time>2026-04-04T11:06:51Z</time></trkpt><trkpt lat="42.75778208460751" lon="12.956842121626854"><ele>1098.6</ele><time>2026-04-04T11:06:52Z</time></trkpt><trkpt lat="42.75776656413185" lon="12.956969100939515"><ele>1100.2</ele><time>2026-04-04T11:06:53Z</time></trkpt><trkpt lat="42.757753117960746" lon="12.957108861547908"><ele>1101.8</ele><time>2026-04-04T11:06:54Z</time></trkpt><trkpt lat="42.75773505955804" lon="12.95726844919069"><ele>1103.4</ele><time>2026-04-04T11:06:55Z</time></trkpt><trkpt lat="42.75770659177475" lon="12.95744134067531"><ele>1105.0</ele><time>2026-04-04T11:06:56Z</time></trkpt><trkpt lat="42.757683088076526" lon="12.957600256243257"><ele>1105.0</ele><time>2026-04-04T11:06:57Z</time></trkpt><trkpt lat="42.75765548098381" lon="12.957772793072209"><ele>1105.0</ele><time>2026-04-04T11:06:58Z</time></trkpt><trkpt lat="42.75761795335469" lon="12.957952098918183"><ele>1105.0</ele><time>2026-04-04T11:06:59Z</time></trkpt><trkpt lat="42.75758077520743" lon="12.958123946977077"><ele>1105.0</ele><time>2026-04-04T11:07:00Z</time></trkpt><trkpt lat="42.75753928775068" lon="12.95830259947674"><ele>1099.75</ele><time>2026-04-04T11:07:01Z</time></trkpt><trkpt lat="42.75750063691092" lon="12.958470685034325"><ele>1094.5</ele><time>2026-04-04T11:07:02Z</time></trkpt><trkpt lat="42.75747028830951" lon="12.958632889440942"><ele>1089.25</ele><time>2026-04-04T11:07:03Z</time></trkpt><trkpt lat="42.757439960928046" lon="12.958826755203894"><ele>1084.0</ele><time>2026-04-04T11:07:04Z</time></trkpt><trkpt lat="42.75739720843894" lon="12.959004899620714"><ele>1084.0</ele><time>2026-04-04T11:07:05Z</time></trkpt><trkpt lat="42.757347457146516" lon="12.95917774355686"><ele>1084.0</ele><time>2026-04-04T11:07:06Z</time></trkpt><trkpt lat="42.757312826298865" lon="12.95935741628809"><ele>1084.0</ele><time>2026-04-04T11:07:07Z</time></trkpt><trkpt lat="42.7572710155864" lon="12.959552068871583"><ele>1084.0</ele><time>2026-04-04T11:07:08Z</time></trkpt><trkpt lat="42.75721300048341" lon="12.959776609739853"><ele>1077.6666666666665</ele><time>2026-04-04T11:07:09Z</time></trkpt><trkpt lat="42.75714908492864" lon="12.959997978537523"><ele>1071.3333333333333</ele><time>2026-04-04T11:07:10Z</time></trkpt><trkpt lat="42.75708859783861" lon="12.96019814467843"><ele>1065.0</ele><time>2026-04-04T11:07:11Z</time></trkpt><trkpt lat="42.757026769676436" lon="12.9604163195335"><ele>1064.6666666666667</ele><time>2026-04-04T11:07:12Z</time></trkpt><trkpt lat="42.756965615350346" lon="12.96064187977855"><ele>1064.3333333333335</ele><time>2026-04-04T11:07:13Z</time></trkpt><trkpt lat="42.756910594270046" lon="12.960834629682532"><ele>1064.0</ele><time>2026-04-04T11:07:14Z</time></trkpt><trkpt lat="42.75684239519124" lon="12.961053015502632"><ele>1064.0</ele><time>2026-04-04T11:07:15Z</time></trkpt><trkpt lat="42.75677165235521" lon="12.961253670173535"><ele>1064.0</ele><time>2026-04-04T11:07:16Z</time></trkpt><trkpt lat="42.75672576061229" lon="12.961417492838054"><ele>1064.0</ele><time>2026-04-04T11:07:17Z</time></trkpt><trkpt lat="42.75669531059091" lon="12.961570105383126"><ele>1064.0</ele><time>2026-04-04T11:07:18Z</time></trkpt><trkpt lat="42.75668552208477" lon="12.96174569002336"><ele>1057.3333333333335</ele><time>2026-04-04T11:07:19Z</time></trkpt><trkpt lat="42.756667623116925" lon="12.96192351429363"><ele>1050.6666666666667</ele><time>2026-04-04T11:07:20Z</time></trkpt><trkpt lat="42.756617598067294" lon="12.962127809125015"><ele>1044.0</ele><time>2026-04-04T11:07:21Z</time></trkpt><trkpt lat="42.75654339937459" lon="12.962339789793994"><ele>1039.0</ele><time>2026-04-04T11:07:22Z</time></trkpt><trkpt lat="42.75648549531442" lon="12.962549230279961"><ele>1034.0</ele><time>2026-04-04T11:07:23Z</time></trkpt><trkpt lat="42.75642890488255" lon="12.962754922296071"><ele>1029.0</ele><time>2026-04-04T11:07:24Z</time></trkpt><trkpt lat="42.75637208032235" lon="12.96297498705654"><ele>1029.0</ele><time>2026-04-04T11:07:25Z</time></trkpt><trkpt lat="42.756326445497976" lon="12.963231401883936"><ele>1029.0</ele><time>2026-04-04T11:07:26Z</time></trkpt><trkpt lat="42.75626915233892" lon="12.963519318747721"><ele>1029.0</ele><time>2026-04-04T11:07:27Z</time></trkpt><trkpt lat="42.75620633437691" lon="12.963803190596435"><ele>1025.0</ele><time>2026-04-04T11:07:28Z</time></trkpt><trkpt lat="42.756159976669004" lon="12.964069836694534"><ele>1021.0</ele><time>2026-04-04T11:07:29Z</time></trkpt><trkpt lat="42.75613878946313" lon="12.964307959107858"><ele>1017.0</ele><time>2026-04-04T11:07:30Z</time></trkpt><trkpt lat="42.756121464680355" lon="12.96450874504705"><ele>1018.6666666666667</ele><time>2026-04-04T11:07:31Z</time></trkpt><trkpt lat="42.75608039084048" lon="12.964720957094064"><ele>1020.3333333333334</ele><time>2026-04-04T11:07:32Z</time></trkpt><trkpt lat="42.7560152037642" lon="12.964947842217603"><ele>1022.0</ele><time>2026-04-04T11:07:33Z</time></trkpt><trkpt lat="42.75594692157515" lon="12.96516606241188"><ele>1017.6666666666667</ele><time>2026-04-04T11:07:34Z</time></trkpt><trkpt lat="42.75587373149488" lon="12.965377431788848"><ele>1013.3333333333333</ele><time>2026-04-04T11:07:35Z</time></trkpt><trkpt lat="42.75578391965392" lon="12.96555821667957"><ele>1009.0</ele><time>2026-04-04T11:07:36Z</time></trkpt><trkpt lat="42.75569737800839" lon="12.965709314707704"><ele>1009.0</ele><time>2026-04-04T11:07:37Z</time></trkpt><trkpt lat="42.755620343661235" lon="12.965861020324123"><ele>1009.0</ele><time>2026-04-04T11:07:38Z</time></trkpt><trkpt lat="42.75554182488302" lon="12.966043721675053"><ele>1009.0</ele><time>2026-04-04T11:07:39Z</time></trkpt><trkpt lat="42.75547192843503" lon="12.966242554758283"><ele>1005.6666666666666</ele><time>2026-04-04T11:07:40Z</time></trkpt><trkpt lat="42.75539975977188" lon="12.966451092195786"><ele>1002.3333333333333</ele><time>2026-04-04T11:07:41Z</time></trkpt><trkpt lat="42.75533313691335" lon="12.966652181275933"><ele>999.0</ele><time>2026-04-04T11:07:42Z</time></trkpt><trkpt lat="42.75523019780142" lon="12.966871254786433"><ele>1000.3333333333333</ele><time>2026-04-04T11:07:43Z</time></trkpt><trkpt lat="42.755138919838366" lon="12.967076575152909"><ele>1001.6666666666666</ele><time>2026-04-04T11:07:44Z</time></trkpt><trkpt lat="42.75519642678758" lon="12.967337397805581"><ele>1003.0</ele><time>2026-04-04T11:07:45Z</time></trkpt><trkpt lat="42.755143511234344" lon="12.967475888280402"><ele>999.75</ele><time>2026-04-04T11:07:46Z</time></trkpt><trkpt lat="42.755099615577244" lon="12.967593539880554"><ele>996.5</ele><time>2026-04-04T11:07:47Z</time></trkpt><trkpt lat="42.75504836086057" lon="12.967731080747088"><ele>993.25</ele><time>2026-04-04T11:07:48Z</time></trkpt><trkpt lat="42.754988355371346" lon="12.967897334458584"><ele>990.0</ele><time>2026-04-04T11:07:49Z</time></trkpt><trkpt lat="42.75492588031836" lon="12.96803287456033"><ele>990.0</ele><time>2026-04-04T11:07:50Z</time></trkpt><trkpt lat="42.75489369947728" lon="12.96814093265108"><ele>990.0</ele><time>2026-04-04T11:07:51Z</time></trkpt><trkpt lat="42.75486257897874" lon="12.968249726587741"><ele>990.0</ele><time>2026-04-04T11:07:53Z</time></trkpt><trkpt lat="42.75481473572247" lon="12.968337872687554"><ele>990.0</ele><time>2026-04-04T11:07:59Z</time></trkpt><trkpt lat="42.7547431346788" lon="12.968463820057378"><ele>990.0</ele><time>2026-04-04T11:13:23Z</time></trkpt><trkpt lat="42.754693313690815" lon="12.968558925738117"><ele>989.25</ele><time>2026-04-04T11:13:25Z</time></trkpt><trkpt lat="42.754606613180435" lon="12.968724432510797"><ele>988.5</ele><time>2026-04-04T11:13:27Z</time></trkpt><trkpt lat="42.75452732811725" lon="12.968888100360314"><ele>987.75</ele><time>2026-04-04T11:13:28Z</time></trkpt><trkpt lat="42.75448132928468" lon="12.969010109443056"><ele>987.0</ele><time>2026-04-04T11:13:29Z</time></trkpt><trkpt lat="42.75444462020823" lon="12.969118847063669"><ele>987.4000000000001</ele><time>2026-04-04T11:13:30Z</time></trkpt><trkpt lat="42.75442587786646" lon="12.969218323979542"><ele>987.8000000000001</ele><time>2026-04-04T11:13:31Z</time></trkpt><trkpt lat="42.7543858951109" lon="12.96932377566935"><ele>988.2</ele><time>2026-04-04T11:13:32Z</time></trkpt><trkpt lat="42.75434705426564" lon="12.969448650603706"><ele>988.6</ele><time>2026-04-04T11:13:33Z</time></trkpt><trkpt lat="42.75431743581879" lon="12.969571489204311"><ele>989.0</ele><time>2026-04-04T11:13:34Z</time></trkpt><trkpt lat="42.75426196545178" lon="12.969678910001502"><ele>987.6</ele><time>2026-04-04T11:13:35Z</time></trkpt><trkpt lat="42.75420738393092" lon="12.969808546068359"><ele>986.2</ele><time>2026-04-04T11:13:36Z</time></trkpt><trkpt lat="42.75415673304993" lon="12.969953699680966"><ele>984.8000000000001</ele><time>2026-04-04T11:13:37Z</time></trkpt><trkpt lat="42.75409334454037" lon="12.970039413068655"><ele>983.4000000000001</ele><time>2026-04-04T11:13:38Z</time></trkpt><trkpt lat="42.75405473745471" lon="12.970113386023039"><ele>982.0</ele><time>2026-04-04T11:13:39Z</time></trkpt><trkpt lat="42.75398028639228" lon="12.970256650799074"><ele>981.0</ele><time>2026-04-04T11:13:41Z</time></trkpt><trkpt lat="42.75393364856921" lon="12.970347789185869"><ele>980.0</ele><time>2026-04-04T11:13:43Z</time></trkpt><trkpt lat="42.7540811487289" lon="12.970583611340011"><ele>979.0</ele><time>2026-04-04T11:13:47Z</time></trkpt><trkpt lat="42.75412953169877" lon="12.97065054380388"><ele>978.0</ele><time>2026-04-04T11:13:48Z</time></trkpt><trkpt lat="42.75417191318889" lon="12.970727831753672"><ele>977.0</ele><time>2026-04-04T11:13:49Z</time></trkpt><trkpt lat="42.754193530985155" lon="12.970815978189982"><ele>978.75</ele><time>2026-04-04T11:13:50Z</time></trkpt><trkpt lat="42.75421834858215" lon="12.970911834775073"><ele>980.5</ele><time>2026-04-04T11:13:51Z</time></trkpt><trkpt lat="42.75423180260678" lon="12.971064648771765"><ele>982.25</ele><time>2026-04-04T11:13:53Z</time></trkpt><trkpt lat="42.754158621204795" lon="12.971211887218608"><ele>984.0</ele><time>2026-04-04T11:13:55Z</time></trkpt><trkpt lat="42.75407450824301" lon="12.971368581461416"><ele>984.0</ele><time>2026-04-04T11:13:57Z</time></trkpt><trkpt lat="42.7540382773456" lon="12.971461577205405"><ele>984.0</ele><time>2026-04-04T11:13:58Z</time></trkpt><trkpt lat="42.75400472176703" lon="12.971564957031724"><ele>984.0</ele><time>2026-04-04T11:13:59Z</time></trkpt><trkpt lat="42.753963528190496" lon="12.97167820483899"><ele>984.0</ele><time>2026-04-04T11:14:00Z</time></trkpt><trkpt lat="42.75393000977707" lon="12.971789396247294"><ele>984.0</ele><time>2026-04-04T11:14:01Z</time></trkpt><trkpt lat="42.753908784827004" lon="12.97190202393486"><ele>984.0</ele><time>2026-04-04T11:14:02Z</time></trkpt><trkpt lat="42.75390633426634" lon="12.972037211758941"><ele>986.8000000000001</ele><time>2026-04-04T11:14:03Z</time></trkpt><trkpt lat="42.75391671080069" lon="12.972155520989476"><ele>989.6000000000001</ele><time>2026-04-04T11:14:04Z</time></trkpt><trkpt lat="42.75393196378149" lon="12.972274355918088"><ele>992.4</ele><time>2026-04-04T11:14:05Z</time></trkpt><trkpt lat="42.75393511160708" lon="12.97240332943804"><ele>995.2</ele><time>2026-04-04T11:14:06Z</time></trkpt><trkpt lat="42.75391074058312" lon="12.972533464757396"><ele>998.0</ele><time>2026-04-04T11:14:07Z</time></trkpt><trkpt lat="42.753920819148796" lon="12.972691414107496"><ele>999.0</ele><time>2026-04-04T11:14:08Z</time></trkpt><trkpt lat="42.75395124850778" lon="12.97286861954013"><ele>1000.0</ele><time>2026-04-04T11:14:09Z</time></trkpt><trkpt lat="42.7539784416994" lon="12.97308469461626"><ele>1001.0</ele><time>2026-04-04T11:14:10Z</time></trkpt><trkpt lat="42.753994485796134" lon="12.973263296280532"><ele>1002.0</ele><time>2026-04-04T11:14:11Z</time></trkpt><trkpt lat="42.753976654207044" lon="12.973416439568236"><ele>1004.25</ele><time>2026-04-04T11:14:12Z</time></trkpt><trkpt lat="42.75392713095303" lon="12.973569114169637"><ele>1006.5</ele><time>2026-04-04T11:14:13Z</time></trkpt><trkpt lat="42.753861587832354" lon="12.973706273410961"><ele>1008.75</ele><time>2026-04-04T11:14:14Z</time></trkpt><trkpt lat="42.75379012054171" lon="12.973847085561506"><ele>1011.0</ele><time>2026-04-04T11:14:15Z</time></trkpt><trkpt lat="42.753748290191076" lon="12.973965983177694"><ele>1011.0</ele><time>2026-04-04T11:14:16Z</time></trkpt><trkpt lat="42.753759496373014" lon="12.974096829857306"><ele>1010.9999999999999</ele><time>2026-04-04T11:14:18Z</time></trkpt><trkpt lat="42.753809387318086" lon="12.974176042683425"><ele>1010.9999999999999</ele><time>2026-04-04T11:14:19Z</time></trkpt><trkpt lat="42.753866033720485" lon="12.974278087056133"><ele>1011.0</ele><time>2026-04-04T11:14:20Z</time></trkpt><trkpt lat="42.75391220269445" lon="12.97441281730379"><ele>1011.0</ele><time>2026-04-04T11:14:21Z</time></trkpt><trkpt lat="42.753944019767154" lon="12.974552405935642"><ele>1011.6666666666666</ele><time>2026-04-04T11:14:22Z</time></trkpt><trkpt lat="42.75396874392592" lon="12.974690734761804"><ele>1012.3333333333333</ele><time>2026-04-04T11:14:23Z</time></trkpt><trkpt lat="42.75399269614397" lon="12.974808236711437"><ele>1013.0</ele><time>2026-04-04T11:14:24Z</time></trkpt><trkpt lat="42.754024233107984" lon="12.974898930830667"><ele>1013.6666666666666</ele><time>2026-04-04T11:14:25Z</time></trkpt><trkpt lat="42.75407277405221" lon="12.97499428222949"><ele>1014.3333333333333</ele><time>2026-04-04T11:14:26Z</time></trkpt><trkpt lat="42.75413472148528" lon="12.975085264794407"><ele>1015.0</ele><time>2026-04-04T11:14:27Z</time></trkpt><trkpt lat="42.754217999334756" lon="12.975198481206107"><ele>1015.0</ele><time>2026-04-04T11:14:28Z</time></trkpt><trkpt lat="42.754307987759354" lon="12.975288746896952"><ele>1015.0</ele><time>2026-04-04T11:14:29Z</time></trkpt><trkpt lat="42.75441846395688" lon="12.975377024489001"><ele>1015.0</ele><time>2026-04-04T11:14:30Z</time></trkpt><trkpt lat="42.754513096532406" lon="12.97547542758552"><ele>1015.0</ele><time>2026-04-04T11:14:31Z</time></trkpt><trkpt lat="42.75460465064878" lon="12.975536270201001"><ele>1015.4999999999999</ele><time>2026-04-04T11:14:32Z</time></trkpt><trkpt lat="42.754703549403445" lon="12.975563767276956"><ele>1016.0</ele><time>2026-04-04T11:14:33Z</time></trkpt><trkpt lat="42.75479955693805" lon="12.975592283105232"><ele>1016.5</ele><time>2026-04-04T11:14:34Z</time></trkpt><trkpt lat="42.754874968213954" lon="12.97562178569202"><ele>1017.0</ele><time>2026-04-04T11:14:35Z</time></trkpt><trkpt lat="42.75494445515044" lon="12.975637513409612"><ele>1017.4999999999999</ele><time>2026-04-04T11:14:36Z</time></trkpt><trkpt lat="42.75503652977393" lon="12.97562204555333"><ele>1018.0</ele><time>2026-04-04T11:14:37Z</time></trkpt><trkpt lat="42.75513803313622" lon="12.97558582711584"><ele>1020.1666666666666</ele><time>2026-04-04T11:14:38Z</time></trkpt><trkpt lat="42.75521925653688" lon="12.97555121328631"><ele>1022.3333333333333</ele><time>2026-04-04T11:14:39Z</time></trkpt><trkpt lat="42.755288587874645" lon="12.975530510734924"><ele>1024.5</ele><time>2026-04-04T11:14:40Z</time></trkpt><trkpt lat="42.75541135044026" lon="12.975582141634218"><ele>1026.6666666666667</ele><time>2026-04-04T11:14:42Z</time></trkpt><trkpt lat="42.755497709682125" lon="12.975559020889287"><ele>1028.8333333333335</ele><time>2026-04-04T11:14:43Z</time></trkpt><trkpt lat="42.75556807057961" lon="12.975529360214093"><ele>1031.0</ele><time>2026-04-04T11:14:44Z</time></trkpt><trkpt lat="42.755641120462094" lon="12.975509806083654"><ele>1031.0</ele><time>2026-04-04T11:14:45Z</time></trkpt><trkpt lat="42.75575216621179" lon="12.975499524670107"><ele>1031.0</ele><time>2026-04-04T11:14:46Z</time></trkpt><trkpt lat="42.755847686624385" lon="12.975506614563313"><ele>1031.0</ele><time>2026-04-04T11:14:47Z</time></trkpt><trkpt lat="42.755972561135955" lon="12.97550630958391"><ele>1031.0</ele><time>2026-04-04T11:14:48Z</time></trkpt><trkpt lat="42.75612411007696" lon="12.975495410597608"><ele>1033.0</ele><time>2026-04-04T11:14:49Z</time></trkpt><trkpt lat="42.75625746752539" lon="12.97551131324638"><ele>1035.0</ele><time>2026-04-04T11:14:50Z</time></trkpt><trkpt lat="42.75636931337095" lon="12.975545658185569"><ele>1037.0</ele><time>2026-04-04T11:14:51Z</time></trkpt><trkpt lat="42.756460102518744" lon="12.975583952931544"><ele>1039.0</ele><time>2026-04-04T11:14:52Z</time></trkpt><trkpt lat="42.75656635898338" lon="12.97561559537868"><ele>1039.0</ele><time>2026-04-04T11:14:53Z</time></trkpt><trkpt lat="42.75668588224317" lon="12.975648228355933"><ele>1039.0</ele><time>2026-04-04T11:14:54Z</time></trkpt><trkpt lat="42.756821999094754" lon="12.975692520836045"><ele>1039.0</ele><time>2026-04-04T11:14:55Z</time></trkpt><trkpt lat="42.75696231504839" lon="12.97574755581024"><ele>1039.0</ele><time>2026-04-04T11:14:56Z</time></trkpt><trkpt lat="42.75707674472493" lon="12.975780815560798"><ele>1040.0</ele><time>2026-04-04T11:14:57Z</time></trkpt><trkpt lat="42.757163633795855" lon="12.97581799950029"><ele>1041.0</ele><time>2026-04-04T11:14:58Z</time></trkpt><trkpt lat="42.75725570314757" lon="12.975900312237124"><ele>1042.0</ele><time>2026-04-04T11:14:59Z</time></trkpt><trkpt lat="42.75733328137015" lon="12.975974199213708"><ele>1043.0</ele><time>2026-04-04T11:15:00Z</time></trkpt><trkpt lat="42.75739639297895" lon="12.976025889203306"><ele>1044.0</ele><time>2026-04-04T11:15:01Z</time></trkpt><trkpt lat="42.7574820072848" lon="12.976091029953048"><ele>1042.8333333333333</ele><time>2026-04-04T11:15:03Z</time></trkpt><trkpt lat="42.75754984228508" lon="12.976045714106254"><ele>1041.6666666666667</ele><time>2026-04-04T11:15:05Z</time></trkpt><trkpt lat="42.75765533391307" lon="12.975945773197973"><ele>1040.5</ele><time>2026-04-04T11:15:07Z</time></trkpt><trkpt lat="42.75770692637199" lon="12.975869255352931"><ele>1039.3333333333335</ele><time>2026-04-04T11:15:08Z</time></trkpt><trkpt lat="42.75773762818667" lon="12.975784333563414"><ele>1038.1666666666667</ele><time>2026-04-04T11:15:09Z</time></trkpt><trkpt lat="42.75777729019781" lon="12.975696466577912"><ele>1037.0</ele><time>2026-04-04T11:15:10Z</time></trkpt><trkpt lat="42.7578357114673" lon="12.975585159715807"><ele>1037.0</ele><time>2026-04-04T11:15:11Z</time></trkpt><trkpt lat="42.757887552099255" lon="12.9754748850027"><ele>1037.0</ele><time>2026-04-04T11:15:12Z</time></trkpt><trkpt lat="42.75795938912419" lon="12.975324147809179"><ele>1037.0</ele><time>2026-04-04T11:15:13Z</time></trkpt><trkpt lat="42.75806335384719" lon="12.975172318279784"><ele>1037.0</ele><time>2026-04-04T11:15:14Z</time></trkpt><trkpt lat="42.75819586801898" lon="12.975055893294623"><ele>1040.0</ele><time>2026-04-04T11:15:15Z</time></trkpt><trkpt lat="42.75832594161622" lon="12.97495263153768"><ele>1043.0</ele><time>2026-04-04T11:15:16Z</time></trkpt><trkpt lat="42.75844762288807" lon="12.97484759748062"><ele>1046.0</ele><time>2026-04-04T11:15:17Z</time></trkpt><trkpt lat="42.75858660753515" lon="12.97473678827902"><ele>1046.75</ele><time>2026-04-04T11:15:18Z</time></trkpt><trkpt lat="42.75871694823193" lon="12.974663962725192"><ele>1047.5</ele><time>2026-04-04T11:15:19Z</time></trkpt><trkpt lat="42.758859739903855" lon="12.974621756227933"><ele>1048.25</ele><time>2026-04-04T11:15:20Z</time></trkpt><trkpt lat="42.7589882305792" lon="12.974609416856401"><ele>1049.0</ele><time>2026-04-04T11:15:21Z</time></trkpt><trkpt lat="42.759102726878396" lon="12.974593689182122"><ele>1049.0</ele><time>2026-04-04T11:15:22Z</time></trkpt><trkpt lat="42.75921400917348" lon="12.974518762684095"><ele>1049.0</ele><time>2026-04-04T11:15:23Z</time></trkpt><trkpt lat="42.75933966787194" lon="12.974384580659232"><ele>1049.0</ele><time>2026-04-04T11:15:24Z</time></trkpt><trkpt lat="42.759452425916486" lon="12.974218372603064"><ele>1052.0</ele><time>2026-04-04T11:15:25Z</time></trkpt><trkpt lat="42.75956284261588" lon="12.974075495679365"><ele>1055.0</ele><time>2026-04-04T11:15:26Z</time></trkpt><trkpt lat="42.75967086865228" lon="12.973971013520272"><ele>1058.0</ele><time>2026-04-04T11:15:27Z</time></trkpt><trkpt lat="42.759801542388395" lon="12.973865652256062"><ele>1061.0</ele><time>2026-04-04T11:15:28Z</time></trkpt><trkpt lat="42.75992775425103" lon="12.973797858559745"><ele>1061.0</ele><time>2026-04-04T11:15:29Z</time></trkpt><trkpt lat="42.76005367605943" lon="12.97377593875506"><ele>1061.0</ele><time>2026-04-04T11:15:30Z</time></trkpt><trkpt lat="42.76017996683282" lon="12.973810080452134"><ele>1061.0</ele><time>2026-04-04T11:15:31Z</time></trkpt><trkpt lat="42.760296129937366" lon="12.9738567869633"><ele>1061.0</ele><time>2026-04-04T11:15:32Z</time></trkpt><trkpt lat="42.76037525262144" lon="12.973872764060948"><ele>1064.0</ele><time>2026-04-04T11:15:33Z</time></trkpt><trkpt lat="42.760440167915775" lon="12.97384138853028"><ele>1067.0</ele><time>2026-04-04T11:15:34Z</time></trkpt><trkpt lat="42.760512042671884" lon="12.97377612263164"><ele>1070.0</ele><time>2026-04-04T11:15:35Z</time></trkpt><trkpt lat="42.76059863375516" lon="12.973702130386279"><ele>1073.0</ele><time>2026-04-04T11:15:36Z</time></trkpt><trkpt lat="42.7607128211543" lon="12.973623367906127"><ele>1076.0</ele><time>2026-04-04T11:15:37Z</time></trkpt><trkpt lat="42.76085107711749" lon="12.973536508971607"><ele>1076.0</ele><time>2026-04-04T11:15:38Z</time></trkpt><trkpt lat="42.76099306464507" lon="12.973467158583855"><ele>1076.0</ele><time>2026-04-04T11:15:39Z</time></trkpt><trkpt lat="42.761154144115764" lon="12.97342628487995"><ele>1076.0</ele><time>2026-04-04T11:15:40Z</time></trkpt><trkpt lat="42.76133883496246" lon="12.973397639579046"><ele>1081.0</ele><time>2026-04-04T11:15:41Z</time></trkpt><trkpt lat="42.761496681806435" lon="12.973401764434945"><ele>1086.0</ele><time>2026-04-04T11:15:42Z</time></trkpt><trkpt lat="42.76165850584328" lon="12.97342111756522"><ele>1091.0</ele><time>2026-04-04T11:15:43Z</time></trkpt><trkpt lat="42.7618047245306" lon="12.973448443071305"><ele>1094.5</ele><time>2026-04-04T11:15:44Z</time></trkpt><trkpt lat="42.761936645332185" lon="12.97346249452227"><ele>1098.0</ele><time>2026-04-04T11:15:45Z</time></trkpt><trkpt lat="42.7620606187588" lon="12.973436943593203"><ele>1101.5</ele><time>2026-04-04T11:15:46Z</time></trkpt><trkpt lat="42.762178568589675" lon="12.973375654733116"><ele>1105.0</ele><time>2026-04-04T11:15:47Z</time></trkpt><trkpt lat="42.76228454385742" lon="12.973290088116716"><ele>1105.0</ele><time>2026-04-04T11:15:48Z</time></trkpt><trkpt lat="42.7623840096078" lon="12.973176828795207"><ele>1105.0</ele><time>2026-04-04T11:15:49Z</time></trkpt><trkpt lat="42.76250754214395" lon="12.973087987214232"><ele>1105.0</ele><time>2026-04-04T11:15:50Z</time></trkpt><trkpt lat="42.76265970346651" lon="12.973052605531802"><ele>1105.0</ele><time>2026-04-04T11:15:51Z</time></trkpt><trkpt lat="42.76280701119219" lon="12.973072555751845"><ele>1107.75</ele><time>2026-04-04T11:15:52Z</time></trkpt><trkpt lat="42.76290808383826" lon="12.97313234052574"><ele>1110.5</ele><time>2026-04-04T11:15:53Z</time></trkpt><trkpt lat="42.76300386273082" lon="12.973189621597665"><ele>1113.25</ele><time>2026-04-04T11:15:54Z</time></trkpt><trkpt lat="42.763133130504585" lon="12.973276010736482"><ele>1116.0</ele><time>2026-04-04T11:15:55Z</time></trkpt><trkpt lat="42.76327667312638" lon="12.973374559751509"><ele>1117.0</ele><time>2026-04-04T11:15:56Z</time></trkpt><trkpt lat="42.763416703689316" lon="12.973431326367283"><ele>1118.0</ele><time>2026-04-04T11:15:57Z</time></trkpt><trkpt lat="42.76356899278704" lon="12.973454036964052"><ele>1119.0</ele><time>2026-04-04T11:15:58Z</time></trkpt><trkpt lat="42.763695581477315" lon="12.973490452228415"><ele>1120.0</ele><time>2026-04-04T11:15:59Z</time></trkpt><trkpt lat="42.76378430771429" lon="12.973555741753637"><ele>1120.5714285714287</ele><time>2026-04-04T11:16:00Z</time></trkpt><trkpt lat="42.76384677858079" lon="12.973621623441911"><ele>1121.142857142857</ele><time>2026-04-04T11:16:01Z</time></trkpt><trkpt lat="42.76391419200089" lon="12.973686921777377"><ele>1121.7142857142858</ele><time>2026-04-04T11:16:02Z</time></trkpt><trkpt lat="42.76396996931949" lon="12.973741019016222"><ele>1122.2857142857142</ele><time>2026-04-04T11:16:03Z</time></trkpt><trkpt lat="42.76404808262836" lon="12.973763020830903"><ele>1122.857142857143</ele><time>2026-04-04T11:16:04Z</time></trkpt><trkpt lat="42.76411146330022" lon="12.973723752537008"><ele>1123.4285714285716</ele><time>2026-04-04T11:16:05Z</time></trkpt><trkpt lat="42.76416343701689" lon="12.97367028661613"><ele>1124.0</ele><time>2026-04-04T11:16:06Z</time></trkpt><trkpt lat="42.764213317146435" lon="12.973608322024882"><ele>1124.0</ele><time>2026-04-04T11:16:07Z</time></trkpt><trkpt lat="42.764251208747844" lon="12.973519697068443"><ele>1124.0</ele><time>2026-04-04T11:16:08Z</time></trkpt><trkpt lat="42.76430439830068" lon="12.973423756199146"><ele>1124.0</ele><time>2026-04-04T11:16:09Z</time></trkpt><trkpt lat="42.764368744576295" lon="12.973359220858052"><ele>1124.0</ele><time>2026-04-04T11:16:10Z</time></trkpt><trkpt lat="42.764450513563396" lon="12.973263222156449"><ele>1124.0</ele><time>2026-04-04T11:16:11Z</time></trkpt><trkpt lat="42.76450921369588" lon="12.973156459309338"><ele>1124.0</ele><time>2026-04-04T11:16:12Z</time></trkpt><trkpt lat="42.76453249250018" lon="12.973071298126197"><ele>1124.8</ele><time>2026-04-04T11:16:13Z</time></trkpt><trkpt lat="42.76461321885624" lon="12.973005817112691"><ele>1125.6000000000001</ele><time>2026-04-04T11:16:14Z</time></trkpt><trkpt lat="42.76472552915491" lon="12.972972452350259"><ele>1126.4</ele><time>2026-04-04T11:16:15Z</time></trkpt><trkpt lat="42.76479404660029" lon="12.972926371423931"><ele>1127.2</ele><time>2026-04-04T11:16:16Z</time></trkpt><trkpt lat="42.76482280143043" lon="12.972827119491763"><ele>1128.0</ele><time>2026-04-04T11:16:17Z</time></trkpt><trkpt lat="42.76483841009328" lon="12.972701713514752"><ele>1128.0</ele><time>2026-04-04T11:16:18Z</time></trkpt><trkpt lat="42.76485457306038" lon="12.972561986045314"><ele>1128.0</ele><time>2026-04-04T11:16:19Z</time></trkpt><trkpt lat="42.76490174514532" lon="12.972446476579316"><ele>1128.0</ele><time>2026-04-04T11:16:20Z</time></trkpt><trkpt lat="42.7649677694604" lon="12.972351256675427"><ele>1128.0</ele><time>2026-04-04T11:16:21Z</time></trkpt><trkpt lat="42.765044422604326" lon="12.972209303948006"><ele>1128.0</ele><time>2026-04-04T11:16:22Z</time></trkpt><trkpt lat="42.7651247255835" lon="12.972023536741004"><ele>1126.6666666666667</ele><time>2026-04-04T11:16:23Z</time></trkpt><trkpt lat="42.76521523633325" lon="12.971855937555754"><ele>1125.3333333333335</ele><time>2026-04-04T11:16:24Z</time></trkpt><trkpt lat="42.76533226973969" lon="12.971671849749875"><ele>1124.0</ele><time>2026-04-04T11:16:25Z</time></trkpt><trkpt lat="42.765414507925975" lon="12.971515384844311"><ele>1127.2</ele><time>2026-04-04T11:16:26Z</time></trkpt><trkpt lat="42.76549270160494" lon="12.971387728885224"><ele>1130.4</ele><time>2026-04-04T11:16:27Z</time></trkpt><trkpt lat="42.76556615874161" lon="12.97127593330796"><ele>1133.6</ele><time>2026-04-04T11:16:28Z</time></trkpt><trkpt lat="42.765643453788385" lon="12.971193634968612"><ele>1136.8</ele><time>2026-04-04T11:16:29Z</time></trkpt><trkpt lat="42.76570521353201" lon="12.971107125284384"><ele>1140.0</ele><time>2026-04-04T11:16:30Z</time></trkpt><trkpt lat="42.76579468426805" lon="12.971016658867883"><ele>1140.0</ele><time>2026-04-04T11:16:31Z</time></trkpt><trkpt lat="42.76588858241091" lon="12.970919349921097"><ele>1140.0</ele><time>2026-04-04T11:16:32Z</time></trkpt><trkpt lat="42.76598245029401" lon="12.970822051698828"><ele>1140.0</ele><time>2026-04-04T11:16:33Z</time></trkpt><trkpt lat="42.76606974765049" lon="12.970699314195567"><ele>1140.0</ele><time>2026-04-04T11:16:34Z</time></trkpt><trkpt lat="42.76614647795807" lon="12.970600172268837"><ele>1138.8333333333333</ele><time>2026-04-04T11:16:35Z</time></trkpt><trkpt lat="42.76619970286289" lon="12.970540373669241"><ele>1137.6666666666667</ele><time>2026-04-04T11:16:36Z</time></trkpt><trkpt lat="42.766264075009985" lon="12.970468661010635"><ele>1136.5</ele><time>2026-04-04T11:16:37Z</time></trkpt><trkpt lat="42.766318168365466" lon="12.970390545855984"><ele>1135.3333333333335</ele><time>2026-04-04T11:16:38Z</time></trkpt><trkpt lat="42.7663498363965" lon="12.97031045730236"><ele>1134.1666666666667</ele><time>2026-04-04T11:16:39Z</time></trkpt><trkpt lat="42.76638500458786" lon="12.970198652038109"><ele>1133.0</ele><time>2026-04-04T11:16:40Z</time></trkpt><trkpt lat="42.76643368752779" lon="12.97008293376142"><ele>1134.6</ele><time>2026-04-04T11:16:41Z</time></trkpt><trkpt lat="42.76648515310644" lon="12.969944369791023"><ele>1136.1999999999998</ele><time>2026-04-04T11:16:42Z</time></trkpt><trkpt lat="42.7665213977326" lon="12.969816160601614"><ele>1137.8</ele><time>2026-04-04T11:16:43Z</time></trkpt><trkpt lat="42.76654844469078" lon="12.969693502124423"><ele>1139.3999999999999</ele><time>2026-04-04T11:16:44Z</time></trkpt><trkpt lat="42.766588609903664" lon="12.969564561907639"><ele>1141.0</ele><time>2026-04-04T11:16:45Z</time></trkpt><trkpt lat="42.76663830036089" lon="12.969434129843817"><ele>1141.0</ele><time>2026-04-04T11:16:46Z</time></trkpt><trkpt lat="42.76669109762899" lon="12.969318759827244"><ele>1141.0</ele><time>2026-04-04T11:16:47Z</time></trkpt><trkpt lat="42.76677143922229" lon="12.96924696339514"><ele>1141.0</ele><time>2026-04-04T11:16:48Z</time></trkpt><trkpt lat="42.76684640429192" lon="12.96924730494126"><ele>1141.0</ele><time>2026-04-04T11:16:49Z</time></trkpt><trkpt lat="42.766912308892785" lon="12.969251894417239"><ele>1141.0</ele><time>2026-04-04T11:16:50Z</time></trkpt><trkpt lat="42.76701176165692" lon="12.969257207736078"><ele>1141.0</ele><time>2026-04-04T11:16:52Z</time></trkpt><trkpt lat="42.76708995397893" lon="12.969222472261254"><ele>1140.75</ele><time>2026-04-04T11:16:53Z</time></trkpt><trkpt lat="42.76720677743958" lon="12.969177309972377"><ele>1140.5</ele><time>2026-04-04T11:16:55Z</time></trkpt><trkpt lat="42.76732145303149" lon="12.969255858976252"><ele>1140.25</ele><time>2026-04-04T11:16:57Z</time></trkpt><trkpt lat="42.767381194755416" lon="12.969393095345636"><ele>1140.0</ele><time>2026-04-04T11:16:58Z</time></trkpt><trkpt lat="42.767438497251916" lon="12.96951327349904"><ele>1140.0</ele><time>2026-04-04T11:16:59Z</time></trkpt><trkpt lat="42.767491466280006" lon="12.969565137473602"><ele>1140.0</ele><time>2026-04-04T11:17:00Z</time></trkpt><trkpt lat="42.767547330425224" lon="12.969621568310831"><ele>1140.0</ele><time>2026-04-04T11:17:01Z</time></trkpt><trkpt lat="42.76764527396395" lon="12.969504828559554"><ele>1140.0</ele><time>2026-04-04T11:17:02Z</time></trkpt><trkpt lat="42.7677466222417" lon="12.969460840127663"><ele>1140.0</ele><time>2026-04-04T11:17:03Z</time></trkpt><trkpt lat="42.767860934319245" lon="12.969434236994033"><ele>1140.0</ele><time>2026-04-04T11:17:04Z</time></trkpt><trkpt lat="42.767965630904975" lon="12.969425018668367"><ele>1140.0</ele><time>2026-04-04T11:17:05Z</time></trkpt><trkpt lat="42.76808038807901" lon="12.96937157244509"><ele>1140.0</ele><time>2026-04-04T11:17:06Z</time></trkpt><trkpt lat="42.76821893844801" lon="12.969315436382567"><ele>1140.0</ele><time>2026-04-04T11:17:07Z</time></trkpt><trkpt lat="42.768371406243176" lon="12.969268366473674"><ele>1140.0</ele><time>2026-04-04T11:17:08Z</time></trkpt><trkpt lat="42.76849965691332" lon="12.969218015458097"><ele>1140.0</ele><time>2026-04-04T11:17:09Z</time></trkpt><trkpt lat="42.76862307582831" lon="12.969155146767902"><ele>1140.0</ele><time>2026-04-04T11:17:10Z</time></trkpt><trkpt lat="42.768725257578126" lon="12.96909905177492"><ele>1140.0</ele><time>2026-04-04T11:17:11Z</time></trkpt><trkpt lat="42.76882515314725" lon="12.969045885493866"><ele>1140.4</ele><time>2026-04-04T11:17:12Z</time></trkpt><trkpt lat="42.76892547043436" lon="12.969036818309515"><ele>1140.8</ele><time>2026-04-04T11:17:13Z</time></trkpt><trkpt lat="42.76901365778798" lon="12.968999188830644"><ele>1141.2</ele><time>2026-04-04T11:17:14Z</time></trkpt><trkpt lat="42.76912243024853" lon="12.968976016739978"><ele>1141.6</ele><time>2026-04-04T11:17:15Z</time></trkpt><trkpt lat="42.76922338532189" lon="12.968995061943792"><ele>1142.0</ele><time>2026-04-04T11:17:16Z</time></trkpt><trkpt lat="42.76931026625932" lon="12.969031523814158"><ele>1142.75</ele><time>2026-04-04T11:17:17Z</time></trkpt><trkpt lat="42.769359091609005" lon="12.969094712210204"><ele>1143.5</ele><time>2026-04-04T11:17:18Z</time></trkpt><trkpt lat="42.76942413748415" lon="12.969222677852137"><ele>1144.25</ele><time>2026-04-04T11:17:19Z</time></trkpt><trkpt lat="42.769507739470754" lon="12.969404544874545"><ele>1145.0</ele><time>2026-04-04T11:17:20Z</time></trkpt><trkpt lat="42.76962474848957" lon="12.969614090271408"><ele>1143.0</ele><time>2026-04-04T11:17:21Z</time></trkpt><trkpt lat="42.76972879302484" lon="12.969790501567145"><ele>1141.0</ele><time>2026-04-04T11:17:22Z</time></trkpt><trkpt lat="42.76982945812484" lon="12.969964107715933"><ele>1139.0</ele><time>2026-04-04T11:17:23Z</time></trkpt><trkpt lat="42.769921663483764" lon="12.970123572881468"><ele>1137.0</ele><time>2026-04-04T11:17:24Z</time></trkpt><trkpt lat="42.7699892316955" lon="12.97029778038074"><ele>1135.0</ele><time>2026-04-04T11:17:25Z</time></trkpt><trkpt lat="42.77004692145767" lon="12.970445797448132"><ele>1133.0</ele><time>2026-04-04T11:17:26Z</time></trkpt><trkpt lat="42.770124551019286" lon="12.97057017678264"><ele>1131.0</ele><time>2026-04-04T11:17:27Z</time></trkpt><trkpt lat="42.770194693139146" lon="12.970693089502083"><ele>1130.75</ele><time>2026-04-04T11:17:28Z</time></trkpt><trkpt lat="42.77025828099689" lon="12.970811965701825"><ele>1130.5</ele><time>2026-04-04T11:17:29Z</time></trkpt><trkpt lat="42.7702848681964" lon="12.970979275611136"><ele>1130.25</ele><time>2026-04-04T11:17:30Z</time></trkpt><trkpt lat="42.77034434421725" lon="12.971180994822056"><ele>1130.0</ele><time>2026-04-04T11:17:31Z</time></trkpt><trkpt lat="42.770372708049294" lon="12.97135981191915"><ele>1130.0</ele><time>2026-04-04T11:17:32Z</time></trkpt><trkpt lat="42.77036548813016" lon="12.971557808699382"><ele>1130.0</ele><time>2026-04-04T11:17:33Z</time></trkpt><trkpt lat="42.77034265424477" lon="12.971810986319767"><ele>1130.0</ele><time>2026-04-04T11:17:34Z</time></trkpt><trkpt lat="42.77033064114246" lon="12.972076656314469"><ele>1132.3333333333335</ele><time>2026-04-04T11:17:35Z</time></trkpt><trkpt lat="42.77030492136722" lon="12.972306872881457"><ele>1134.6666666666667</ele><time>2026-04-04T11:17:36Z</time></trkpt><trkpt lat="42.770276152539736" lon="12.972551059238898"><ele>1137.0</ele><time>2026-04-04T11:17:37Z</time></trkpt><trkpt lat="42.77026600935699" lon="12.972757608823601"><ele>1138.75</ele><time>2026-04-04T11:17:38Z</time></trkpt><trkpt lat="42.77027407960633" lon="12.972903312050917"><ele>1140.5</ele><time>2026-04-04T11:17:39Z</time></trkpt><trkpt lat="42.770315400768666" lon="12.973072916941163"><ele>1142.25</ele><time>2026-04-04T11:17:40Z</time></trkpt><trkpt lat="42.77036422728113" lon="12.973280753986947"><ele>1144.0</ele><time>2026-04-04T11:17:41Z</time></trkpt><trkpt lat="42.770375418842534" lon="12.973479261298378"><ele>1144.0</ele><time>2026-04-04T11:17:42Z</time></trkpt><trkpt lat="42.77038926257089" lon="12.973662921435087"><ele>1144.0</ele><time>2026-04-04T11:17:43Z</time></trkpt><trkpt lat="42.770404304215965" lon="12.973869332730796"><ele>1144.0</ele><time>2026-04-04T11:17:44Z</time></trkpt><trkpt lat="42.77041251329284" lon="12.974050079275498"><ele>1144.0</ele><time>2026-04-04T11:17:45Z</time></trkpt><trkpt lat="42.77042004898553" lon="12.974260659987252"><ele>1143.3333333333333</ele><time>2026-04-04T11:17:46Z</time></trkpt><trkpt lat="42.77042799952764" lon="12.9745223368787"><ele>1142.6666666666667</ele><time>2026-04-04T11:17:47Z</time></trkpt><trkpt lat="42.77046056781925" lon="12.974762004906102"><ele>1142.0</ele><time>2026-04-04T11:17:48Z</time></trkpt><trkpt lat="42.77048711759652" lon="12.974957603346146"><ele>1140.6</ele><time>2026-04-04T11:17:49Z</time></trkpt><trkpt lat="42.77052013490336" lon="12.975103744052081"><ele>1139.2</ele><time>2026-04-04T11:17:50Z</time></trkpt><trkpt lat="42.770555089274794" lon="12.975243288343878"><ele>1137.8</ele><time>2026-04-04T11:17:51Z</time></trkpt><trkpt lat="42.770578817995876" lon="12.975382906036776"><ele>1136.4</ele><time>2026-04-04T11:17:52Z</time></trkpt><trkpt lat="42.77056634955066" lon="12.975543946929397"><ele>1135.0</ele><time>2026-04-04T11:17:53Z</time></trkpt><trkpt lat="42.77056634954283" lon="12.975740161221063"><ele>1132.25</ele><time>2026-04-04T11:17:54Z</time></trkpt><trkpt lat="42.77058297901851" lon="12.975951462889407"><ele>1129.5</ele><time>2026-04-04T11:17:55Z</time></trkpt><trkpt lat="42.770580703498325" lon="12.976162678995625"><ele>1126.75</ele><time>2026-04-04T11:17:56Z</time></trkpt><trkpt lat="42.770582242356106" lon="12.976347076138978"><ele>1124.0</ele><time>2026-04-04T11:17:57Z</time></trkpt><trkpt lat="42.770585643407216" lon="12.976502953707543"><ele>1124.0</ele><time>2026-04-04T11:17:58Z</time></trkpt><trkpt lat="42.770580933214994" lon="12.976678375057242"><ele>1124.0</ele><time>2026-04-04T11:17:59Z</time></trkpt><trkpt lat="42.770551662082084" lon="12.976853100076157"><ele>1124.0</ele><time>2026-04-04T11:18:00Z</time></trkpt><trkpt lat="42.77054374927742" lon="12.97700945404644"><ele>1124.0</ele><time>2026-04-04T11:18:01Z</time></trkpt><trkpt lat="42.77055459609473" lon="12.977186892771634"><ele>1122.0</ele><time>2026-04-04T11:18:02Z</time></trkpt><trkpt lat="42.77057381610065" lon="12.97738714347366"><ele>1120.0</ele><time>2026-04-04T11:18:03Z</time></trkpt><trkpt lat="42.770586936360836" lon="12.977563160578743"><ele>1118.0</ele><time>2026-04-04T11:18:04Z</time></trkpt><trkpt lat="42.77059753502881" lon="12.977737913693563"><ele>1116.0</ele><time>2026-04-04T11:18:05Z</time></trkpt><trkpt lat="42.770609565136546" lon="12.977938359307258"><ele>1114.25</ele><time>2026-04-04T11:18:06Z</time></trkpt><trkpt lat="42.77062252563571" lon="12.978128085383627"><ele>1112.5</ele><time>2026-04-04T11:18:07Z</time></trkpt><trkpt lat="42.770632325095484" lon="12.978302900349371"><ele>1110.75</ele><time>2026-04-04T11:18:08Z</time></trkpt><trkpt lat="42.770644569814245" lon="12.97847813725054"><ele>1109.0</ele><time>2026-04-04T11:18:09Z</time></trkpt><trkpt lat="42.77066100898632" lon="12.978628596598062"><ele>1107.4</ele><time>2026-04-04T11:18:10Z</time></trkpt><trkpt lat="42.77067292272155" lon="12.978769508075562"><ele>1105.8000000000002</ele><time>2026-04-04T11:18:11Z</time></trkpt><trkpt lat="42.77069132254712" lon="12.978911293373795"><ele>1104.1999999999998</ele><time>2026-04-04T11:18:12Z</time></trkpt><trkpt lat="42.77068472144422" lon="12.97901928776654"><ele>1102.6</ele><time>2026-04-04T11:18:13Z</time></trkpt><trkpt lat="42.77068953258602" lon="12.979118017144971"><ele>1101.0</ele><time>2026-04-04T11:18:14Z</time></trkpt><trkpt lat="42.77069234945192" lon="12.9792451402315"><ele>1098.2</ele><time>2026-04-04T11:18:15Z</time></trkpt><trkpt lat="42.77068010824146" lon="12.979363245670637"><ele>1095.3999999999999</ele><time>2026-04-04T11:18:16Z</time></trkpt><trkpt lat="42.770620632981526" lon="12.979531510490252"><ele>1092.6</ele><time>2026-04-04T11:18:18Z</time></trkpt><trkpt lat="42.770593015096026" lon="12.979620407197851"><ele>1089.8</ele><time>2026-04-04T11:18:19Z</time></trkpt><trkpt lat="42.77056487222757" lon="12.979768091243356"><ele>1087.0</ele><time>2026-04-04T11:18:21Z</time></trkpt><trkpt lat="42.770555419192476" lon="12.979857906854187"><ele>1087.0</ele><time>2026-04-04T11:18:22Z</time></trkpt><trkpt lat="42.77054364942903" lon="12.979951847846428"><ele>1087.0</ele><time>2026-04-04T11:18:23Z</time></trkpt><trkpt lat="42.77057399551437" lon="12.980044711580058"><ele>1087.0</ele><time>2026-04-04T11:18:24Z</time></trkpt><trkpt lat="42.77059073564702" lon="12.980144498895832"><ele>1087.0</ele><time>2026-04-04T11:18:25Z</time></trkpt><trkpt lat="42.77061539184728" lon="12.980262772052033"><ele>1087.0</ele><time>2026-04-04T11:18:26Z</time></trkpt><trkpt lat="42.77062112658077" lon="12.980372663326362"><ele>1087.0</ele><time>2026-04-04T11:18:27Z</time></trkpt><trkpt lat="42.77064846671451" lon="12.980508438971274"><ele>1084.6666666666665</ele><time>2026-04-04T11:18:28Z</time></trkpt><trkpt lat="42.77067104331022" lon="12.980626514644667"><ele>1082.3333333333333</ele><time>2026-04-04T11:18:29Z</time></trkpt><trkpt lat="42.770692713356986" lon="12.980740153721019"><ele>1080.0</ele><time>2026-04-04T11:18:30Z</time></trkpt><trkpt lat="42.77071130816428" lon="12.980828707605312"><ele>1077.6666666666667</ele><time>2026-04-04T11:18:31Z</time></trkpt><trkpt lat="42.77074384144895" lon="12.9809298389341"><ele>1075.3333333333335</ele><time>2026-04-04T11:18:32Z</time></trkpt><trkpt lat="42.77078597803289" lon="12.981028832803494"><ele>1073.0</ele><time>2026-04-04T11:18:33Z</time></trkpt><trkpt lat="42.770851936375344" lon="12.981111305898612"><ele>1070.5</ele><time>2026-04-04T11:18:34Z</time></trkpt><trkpt lat="42.770915470834304" lon="12.981193293835792"><ele>1068.0</ele><time>2026-04-04T11:18:35Z</time></trkpt><trkpt lat="42.770988513167396" lon="12.981273171053688"><ele>1065.5</ele><time>2026-04-04T11:18:36Z</time></trkpt><trkpt lat="42.77105763506428" lon="12.981348947245245"><ele>1063.0</ele><time>2026-04-04T11:18:37Z</time></trkpt><trkpt lat="42.77112212801322" lon="12.981375338985126"><ele>1060.5</ele><time>2026-04-04T11:18:38Z</time></trkpt><trkpt lat="42.77120018171984" lon="12.981374549438351"><ele>1058.0</ele><time>2026-04-04T11:18:39Z</time></trkpt><trkpt lat="42.771281322705285" lon="12.981331940845045"><ele>1058.0</ele><time>2026-04-04T11:18:40Z</time></trkpt><trkpt lat="42.77137191801788" lon="12.981297311306863"><ele>1058.0</ele><time>2026-04-04T11:18:41Z</time></trkpt><trkpt lat="42.771465638128966" lon="12.981312762122233"><ele>1058.0</ele><time>2026-04-04T11:18:42Z</time></trkpt><trkpt lat="42.771532794526706" lon="12.981436102878934"><ele>1058.0</ele><time>2026-04-04T11:18:43Z</time></trkpt><trkpt lat="42.77161099333045" lon="12.981587034555695"><ele>1058.0</ele><time>2026-04-04T11:18:44Z</time></trkpt><trkpt lat="42.771658682440176" lon="12.981771914985194"><ele>1055.75</ele><time>2026-04-04T11:18:45Z</time></trkpt><trkpt lat="42.77171757649752" lon="12.981947443430585"><ele>1053.5</ele><time>2026-04-04T11:18:46Z</time></trkpt><trkpt lat="42.77180593736232" lon="12.982119331708574"><ele>1051.25</ele><time>2026-04-04T11:18:47Z</time></trkpt><trkpt lat="42.77187591810532" lon="12.982268173702957"><ele>1049.0</ele><time>2026-04-04T11:18:48Z</time></trkpt><trkpt lat="42.77196843666217" lon="12.982433182993518"><ele>1044.25</ele><time>2026-04-04T11:18:49Z</time></trkpt><trkpt lat="42.77206233938325" lon="12.982574324795712"><ele>1039.5</ele><time>2026-04-04T11:18:50Z</time></trkpt><trkpt lat="42.772145624080984" lon="12.982673968471685"><ele>1034.75</ele><time>2026-04-04T11:18:51Z</time></trkpt><trkpt lat="42.77223017614245" lon="12.982764349186676"><ele>1030.0</ele><time>2026-04-04T11:18:52Z</time></trkpt><trkpt lat="42.77229457848123" lon="12.982880321572242"><ele>1030.0</ele><time>2026-04-04T11:18:53Z</time></trkpt><trkpt lat="42.772368097863705" lon="12.983005199030044"><ele>1030.0</ele><time>2026-04-04T11:18:54Z</time></trkpt><trkpt lat="42.77243100532484" lon="12.983115857869468"><ele>1030.0</ele><time>2026-04-04T11:18:55Z</time></trkpt><trkpt lat="42.77249628569491" lon="12.983184888266276"><ele>1030.0</ele><time>2026-04-04T11:18:56Z</time></trkpt><trkpt lat="42.77255406657169" lon="12.98323378488915"><ele>1030.0</ele><time>2026-04-04T11:18:57Z</time></trkpt><trkpt lat="42.77268023175073" lon="12.983293458775416"><ele>1028.8</ele><time>2026-04-04T11:18:59Z</time></trkpt><trkpt lat="42.772739148484455" lon="12.983391040372743"><ele>1027.6</ele><time>2026-04-04T11:19:01Z</time></trkpt><trkpt lat="42.772713404812684" lon="12.983515000922054"><ele>1026.4</ele><time>2026-04-04T11:19:03Z</time></trkpt><trkpt lat="42.772674532968196" lon="12.98360311048207"><ele>1025.2</ele><time>2026-04-04T11:19:04Z</time></trkpt><trkpt lat="42.772628678077595" lon="12.983722908691977"><ele>1024.0</ele><time>2026-04-04T11:19:05Z</time></trkpt><trkpt lat="42.77259225476106" lon="12.98385200654434"><ele>1023.5</ele><time>2026-04-04T11:19:06Z</time></trkpt><trkpt lat="42.77259281178122" lon="12.98399019822333"><ele>1023.0</ele><time>2026-04-04T11:19:07Z</time></trkpt><trkpt lat="42.772598550468686" lon="12.984148341025483"><ele>1022.5</ele><time>2026-04-04T11:19:08Z</time></trkpt><trkpt lat="42.772586820362456" lon="12.984352706441864"><ele>1022.0</ele><time>2026-04-04T11:19:09Z</time></trkpt><trkpt lat="42.77255936651384" lon="12.984548398614608"><ele>1022.0</ele><time>2026-04-04T11:19:10Z</time></trkpt><trkpt lat="42.772528231364625" lon="12.984760285217916"><ele>1022.0</ele><time>2026-04-04T11:19:11Z</time></trkpt><trkpt lat="42.77250316588884" lon="12.984942930042546"><ele>1022.0</ele><time>2026-04-04T11:19:12Z</time></trkpt><trkpt lat="42.77248135693763" lon="12.985120953787199"><ele>1022.0</ele><time>2026-04-04T11:19:13Z</time></trkpt><trkpt lat="42.77247002396515" lon="12.98532073038115"><ele>1021.5</ele><time>2026-04-04T11:19:14Z</time></trkpt><trkpt lat="42.77248755880225" lon="12.985513680581079"><ele>1021.0</ele><time>2026-04-04T11:19:15Z</time></trkpt><trkpt lat="42.772470970232305" lon="12.985674492002728"><ele>1020.5</ele><time>2026-04-04T11:19:16Z</time></trkpt><trkpt lat="42.77245427984183" lon="12.985851847023538"><ele>1020.0</ele><time>2026-04-04T11:19:17Z</time></trkpt><trkpt lat="42.7724271612596" lon="12.985989372257512"><ele>1019.8</ele><time>2026-04-04T11:19:18Z</time></trkpt><trkpt lat="42.77239725198193" lon="12.986109856362173"><ele>1019.6</ele><time>2026-04-04T11:19:19Z</time></trkpt><trkpt lat="42.77236765881521" lon="12.986224332579136"><ele>1019.4000000000001</ele><time>2026-04-04T11:19:20Z</time></trkpt><trkpt lat="42.77232503176513" lon="12.986366505677294"><ele>1019.2</ele><time>2026-04-04T11:19:21Z</time></trkpt><trkpt lat="42.7722746984444" lon="12.986494727532246"><ele>1019.0</ele><time>2026-04-04T11:19:22Z</time></trkpt><trkpt lat="42.77222178718727" lon="12.986612812493258"><ele>1018.4000000000001</ele><time>2026-04-04T11:19:23Z</time></trkpt><trkpt lat="42.77216740539412" lon="12.986730883003688"><ele>1017.8000000000001</ele><time>2026-04-04T11:19:24Z</time></trkpt><trkpt lat="42.77211816607753" lon="12.986837788442095"><ele>1017.1999999999999</ele><time>2026-04-04T11:19:25Z</time></trkpt><trkpt lat="42.7720635081048" lon="12.98694968259039"><ele>1016.5999999999999</ele><time>2026-04-04T11:19:26Z</time></trkpt><trkpt lat="42.77200704299164" lon="12.987059618727594"><ele>1016.0</ele><time>2026-04-04T11:19:27Z</time></trkpt><trkpt lat="42.771957747436" lon="12.987155326784217"><ele>1016.0</ele><time>2026-04-04T11:19:28Z</time></trkpt><trkpt lat="42.7718981241705" lon="12.987265237600754"><ele>1015.9999999999999</ele><time>2026-04-04T11:19:29Z</time></trkpt><trkpt lat="42.77182122871785" lon="12.987404702174736"><ele>1015.9999999999999</ele><time>2026-04-04T11:19:30Z</time></trkpt><trkpt lat="42.7717528326201" lon="12.987521141098647"><ele>1016.0</ele><time>2026-04-04T11:19:31Z</time></trkpt><trkpt lat="42.77168050862078" lon="12.987629277258344"><ele>1016.0</ele><time>2026-04-04T11:19:32Z</time></trkpt><trkpt lat="42.77161874605789" lon="12.987702793600105"><ele>1010.0</ele><time>2026-04-04T11:19:33Z</time></trkpt><trkpt lat="42.7715581475474" lon="12.987794858926845"><ele>1003.9999999999999</ele><time>2026-04-04T11:19:34Z</time></trkpt><trkpt lat="42.771487648075436" lon="12.98786236988593"><ele>997.9999999999999</ele><time>2026-04-04T11:19:35Z</time></trkpt><trkpt lat="42.77140779435548" lon="12.987963125985136"><ele>992.0</ele><time>2026-04-04T11:19:36Z</time></trkpt><trkpt lat="42.77133846049176" lon="12.988072738830363"><ele>986.0</ele><time>2026-04-04T11:19:37Z</time></trkpt><trkpt lat="42.77124676857455" lon="12.98814243913488"><ele>986.0</ele><time>2026-04-04T11:19:38Z</time></trkpt><trkpt lat="42.7711783285144" lon="12.98825258207842"><ele>986.0</ele><time>2026-04-04T11:19:39Z</time></trkpt><trkpt lat="42.77108686211034" lon="12.98835215755869"><ele>986.0</ele><time>2026-04-04T11:19:40Z</time></trkpt><trkpt lat="42.77098806683752" lon="12.988413783056266"><ele>986.0</ele><time>2026-04-04T11:19:41Z</time></trkpt><trkpt lat="42.770865027885776" lon="12.988495220887229"><ele>980.5</ele><time>2026-04-04T11:19:42Z</time></trkpt><trkpt lat="42.770736734597705" lon="12.988570010219597"><ele>975.0</ele><time>2026-04-04T11:19:43Z</time></trkpt><trkpt lat="42.77061933122307" lon="12.988664013387178"><ele>969.5</ele><time>2026-04-04T11:19:44Z</time></trkpt><trkpt lat="42.77051414117613" lon="12.988694926317907"><ele>964.0</ele><time>2026-04-04T11:19:45Z</time></trkpt><trkpt lat="42.7704089344852" lon="12.988694044850408"><ele>964.0</ele><time>2026-04-04T11:19:46Z</time></trkpt><trkpt lat="42.77031808795101" lon="12.988725331729862"><ele>964.0000000000001</ele><time>2026-04-04T11:19:47Z</time></trkpt><trkpt lat="42.77024025504909" lon="12.988768142345167"><ele>964.0000000000001</ele><time>2026-04-04T11:19:48Z</time></trkpt><trkpt lat="42.770167159393715" lon="12.98886725961894"><ele>964.0</ele><time>2026-04-04T11:19:49Z</time></trkpt><trkpt lat="42.77007993349515" lon="12.988946566451176"><ele>964.0</ele><time>2026-04-04T11:19:50Z</time></trkpt><trkpt lat="42.77000886067719" lon="12.989018276890338"><ele>961.6</ele><time>2026-04-04T11:19:51Z</time></trkpt><trkpt lat="42.76992426882364" lon="12.989076347130524"><ele>959.2</ele><time>2026-04-04T11:19:52Z</time></trkpt><trkpt lat="42.76983920499268" lon="12.989141213849479"><ele>956.8000000000001</ele><time>2026-04-04T11:19:53Z</time></trkpt><trkpt lat="42.76972656447972" lon="12.989196346936799"><ele>954.4000000000001</ele><time>2026-04-04T11:19:54Z</time></trkpt><trkpt lat="42.76961938479132" lon="12.989276167869773"><ele>952.0</ele><time>2026-04-04T11:19:55Z</time></trkpt><trkpt lat="42.76951572932676" lon="12.989345307981141"><ele>950.3333333333333</ele><time>2026-04-04T11:19:56Z</time></trkpt><trkpt lat="42.76942463137687" lon="12.989398250956702"><ele>948.6666666666666</ele><time>2026-04-04T11:19:57Z</time></trkpt><trkpt lat="42.76933851925498" lon="12.989456439875642"><ele>947.0</ele><time>2026-04-04T11:19:58Z</time></trkpt><trkpt lat="42.76926988061975" lon="12.989502879188095"><ele>945.3333333333333</ele><time>2026-04-04T11:19:59Z</time></trkpt><trkpt lat="42.76919750768601" lon="12.989554732485807"><ele>943.6666666666666</ele><time>2026-04-04T11:20:00Z</time></trkpt><trkpt lat="42.76913961008762" lon="12.989610726269715"><ele>942.0</ele><time>2026-04-04T11:20:01Z</time></trkpt><trkpt lat="42.76914850371776" lon="12.98970137118873"><ele>940.4000000000001</ele><time>2026-04-04T11:20:03Z</time></trkpt><trkpt lat="42.76920287447867" lon="12.98980316262496"><ele>938.8000000000001</ele><time>2026-04-04T11:20:05Z</time></trkpt><trkpt lat="42.769215186850786" lon="12.990006230327575"><ele>937.2</ele><time>2026-04-04T11:20:07Z</time></trkpt><trkpt lat="42.76919663118326" lon="12.990091872552256"><ele>935.6</ele><time>2026-04-04T11:20:08Z</time></trkpt><trkpt lat="42.76917467162705" lon="12.99017835004492"><ele>934.0</ele><time>2026-04-04T11:20:09Z</time></trkpt><trkpt lat="42.769156011690754" lon="12.990342010157681"><ele>933.2</ele><time>2026-04-04T11:20:11Z</time></trkpt><trkpt lat="42.769229389079065" lon="12.990441238222841"><ele>932.4000000000001</ele><time>2026-04-04T11:20:12Z</time></trkpt><trkpt lat="42.769314852668764" lon="12.990531989602468"><ele>931.6</ele><time>2026-04-04T11:20:13Z</time></trkpt><trkpt lat="42.76938704704584" lon="12.990598734670643"><ele>930.8</ele><time>2026-04-04T11:20:14Z</time></trkpt><trkpt lat="42.76945583969642" lon="12.990672178887259"><ele>930.0</ele><time>2026-04-04T11:20:15Z</time></trkpt><trkpt lat="42.76958968027838" lon="12.990766486077469"><ele>925.75</ele><time>2026-04-04T11:20:16Z</time></trkpt><trkpt lat="42.76972619308195" lon="12.990874244368777"><ele>921.5</ele><time>2026-04-04T11:20:17Z</time></trkpt><trkpt lat="42.769823901617904" lon="12.990974130432088"><ele>917.25</ele><time>2026-04-04T11:20:18Z</time></trkpt><trkpt lat="42.769917940637825" lon="12.991089730338254"><ele>913.0</ele><time>2026-04-04T11:20:19Z</time></trkpt><trkpt lat="42.76999070713591" lon="12.9911792678891"><ele>912.9999999999999</ele><time>2026-04-04T11:20:20Z</time></trkpt><trkpt lat="42.7700450112166" lon="12.9912252599606"><ele>913.0</ele><time>2026-04-04T11:20:21Z</time></trkpt><trkpt lat="42.770105832796" lon="12.991271939522559"><ele>912.9999999999999</ele><time>2026-04-04T11:20:23Z</time></trkpt><trkpt lat="42.770114089055795" lon="12.991371367542236"><ele>912.9999999999999</ele><time>2026-04-04T11:20:26Z</time></trkpt><trkpt lat="42.77002546716957" lon="12.9913964662025"><ele>913.0</ele><time>2026-04-04T11:20:30Z</time></trkpt><trkpt lat="42.76994705508334" lon="12.991395791397245"><ele>912.9999999999999</ele><time>2026-04-04T11:20:48Z</time></trkpt><trkpt lat="42.76988379462351" lon="12.99140235660474"><ele>912.9999999999999</ele><time>2026-04-04T11:20:51Z</time></trkpt><trkpt lat="42.769802080111276" lon="12.991394861760831"><ele>913.0</ele><time>2026-04-04T11:20:55Z</time></trkpt><trkpt lat="42.76973131330863" lon="12.99140661998216"><ele>913.0</ele><time>2026-04-04T11:20:58Z</time></trkpt><trkpt lat="42.769642122400974" lon="12.991398185890443"><ele>913.0</ele><time>2026-04-04T11:21:02Z</time></trkpt><trkpt lat="42.769555547603055" lon="12.991399888867225"><ele>913.0</ele><time>2026-04-04T11:21:04Z</time></trkpt><trkpt lat="42.769425710766164" lon="12.991407637111962"><ele>913.0</ele><time>2026-04-04T11:21:06Z</time></trkpt><trkpt lat="42.769335747633725" lon="12.99139666490519"><ele>912.9999999999999</ele><time>2026-04-04T11:21:08Z</time></trkpt><trkpt lat="42.76927045407383" lon="12.991379805604677"><ele>913.0</ele><time>2026-04-04T11:21:11Z</time></trkpt><trkpt lat="42.76918404762296" lon="12.991399322228851"><ele>913.0</ele><time>2026-04-04T11:21:15Z</time></trkpt><trkpt lat="42.769115442683926" lon="12.991376758540321"><ele>913.0</ele><time>2026-04-04T11:21:18Z</time></trkpt><trkpt lat="42.76924262731624" lon="12.991381394109764"><ele>912.9999999999999</ele><time>2026-04-04T11:21:49Z</time></trkpt><trkpt lat="42.76930734360123" lon="12.991390688745371"><ele>913.0</ele><time>2026-04-04T11:21:50Z</time></trkpt><trkpt lat="42.769443685183944" lon="12.991398594914815"><ele>913.0</ele><time>2026-04-04T11:21:52Z</time></trkpt><trkpt lat="42.76954273769051" lon="12.991398989898043"><ele>913.0</ele><time>2026-04-04T11:21:53Z</time></trkpt><trkpt lat="42.769705231074745" lon="12.991396776997721"><ele>913.0</ele><time>2026-04-04T11:21:54Z</time></trkpt><trkpt lat="42.769854875312426" lon="12.991406113566729"><ele>913.0</ele><time>2026-04-04T11:21:55Z</time></trkpt><trkpt lat="42.76993882037641" lon="12.991406544803814"><ele>912.9999999999999</ele><time>2026-04-04T11:21:56Z</time></trkpt><trkpt lat="42.77004229556457" lon="12.991419992117104"><ele>913.0</ele><time>2026-04-04T11:21:58Z</time></trkpt><trkpt lat="42.77010573117817" lon="12.991420502210577"><ele>913.0</ele><time>2026-04-04T11:22:00Z</time></trkpt><trkpt lat="42.77017759352709" lon="12.991417776262509"><ele>913.0</ele><time>2026-04-04T11:22:03Z</time></trkpt><trkpt lat="42.77010702341534" lon="12.99130071617512"><ele>912.9999999999999</ele><time>2026-04-04T11:22:30Z</time></trkpt><trkpt lat="42.77005037443015" lon="12.991225588909401"><ele>913.0</ele><time>2026-04-04T11:22:31Z</time></trkpt><trkpt lat="42.76998519961827" lon="12.991158690351503"><ele>913.0</ele><time>2026-04-04T11:22:32Z</time></trkpt><trkpt lat="42.76990790385054" lon="12.991016370203969"><ele>913.0</ele><time>2026-04-04T11:22:33Z</time></trkpt><trkpt lat="42.76981769662257" lon="12.990909018254927"><ele>913.0</ele><time>2026-04-04T11:22:34Z</time></trkpt><trkpt lat="42.769718222438236" lon="12.990819229323662"><ele>913.0</ele><time>2026-04-04T11:22:35Z</time></trkpt><trkpt lat="42.76958289967192" lon="12.99070899555228"><ele>915.0</ele><time>2026-04-04T11:22:36Z</time></trkpt><trkpt lat="42.76943009071507" lon="12.990620362814614"><ele>917.0</ele><time>2026-04-04T11:22:37Z</time></trkpt><trkpt lat="42.76935591303264" lon="12.990537479442475"><ele>919.0</ele><time>2026-04-04T11:22:38Z</time></trkpt><trkpt lat="42.76927215780267" lon="12.990430313064467"><ele>921.0</ele><time>2026-04-04T11:22:40Z</time></trkpt><trkpt lat="42.769218239086364" lon="12.99034925120407"><ele>921.0</ele><time>2026-04-04T11:22:41Z</time></trkpt><trkpt lat="42.76916816655499" lon="12.990284777634399"><ele>921.0</ele><time>2026-04-04T11:22:42Z</time></trkpt><trkpt lat="42.7692205038095" lon="12.990149776051176"><ele>921.0</ele><time>2026-04-04T11:22:44Z</time></trkpt><trkpt lat="42.769232744885066" lon="12.990055246759827"><ele>921.0</ele><time>2026-04-04T11:22:45Z</time></trkpt><trkpt lat="42.769252090814355" lon="12.989939144023646"><ele>921.0</ele><time>2026-04-04T11:22:46Z</time></trkpt><trkpt lat="42.769243847575844" lon="12.989831111047307"><ele>921.0</ele><time>2026-04-04T11:22:47Z</time></trkpt><trkpt lat="42.76922416608883" lon="12.989733999456647"><ele>923.5999999999999</ele><time>2026-04-04T11:22:48Z</time></trkpt><trkpt lat="42.769181442771675" lon="12.989627888595773"><ele>926.1999999999999</ele><time>2026-04-04T11:22:50Z</time></trkpt><trkpt lat="42.76918566998054" lon="12.989510454791708"><ele>928.8000000000001</ele><time>2026-04-04T11:22:54Z</time></trkpt><trkpt lat="42.769352619335116" lon="12.989474913048948"><ele>931.4000000000001</ele><time>2026-04-04T11:22:55Z</time></trkpt><trkpt lat="42.76941968162061" lon="12.989432919781398"><ele>934.0</ele><time>2026-04-04T11:22:56Z</time></trkpt><trkpt lat="42.76948991108378" lon="12.989374249567387"><ele>936.0</ele><time>2026-04-04T11:22:57Z</time></trkpt><trkpt lat="42.76957842650312" lon="12.989318522781282"><ele>938.0</ele><time>2026-04-04T11:22:58Z</time></trkpt><trkpt lat="42.769684550612546" lon="12.989248657711894"><ele>940.0</ele><time>2026-04-04T11:22:59Z</time></trkpt><trkpt lat="42.7698107944045" lon="12.989202349227563"><ele>942.0</ele><time>2026-04-04T11:23:00Z</time></trkpt><trkpt lat="42.76991446344388" lon="12.989129639918534"><ele>944.0</ele><time>2026-04-04T11:23:01Z</time></trkpt><trkpt lat="42.76998542848148" lon="12.989077435066845"><ele>946.0</ele><time>2026-04-04T11:23:02Z</time></trkpt><trkpt lat="42.770059367861954" lon="12.98899160946232"><ele>948.0</ele><time>2026-04-04T11:23:03Z</time></trkpt><trkpt lat="42.77014286298528" lon="12.988920580109845"><ele>950.0</ele><time>2026-04-04T11:23:04Z</time></trkpt><trkpt lat="42.770234076395354" lon="12.988832516358563"><ele>952.0</ele><time>2026-04-04T11:23:05Z</time></trkpt><trkpt lat="42.77030784138966" lon="12.98875401695"><ele>954.4000000000001</ele><time>2026-04-04T11:23:06Z</time></trkpt><trkpt lat="42.77039482243395" lon="12.988741294393828"><ele>956.8000000000001</ele><time>2026-04-04T11:23:07Z</time></trkpt><trkpt lat="42.77048372517043" lon="12.98875356711311"><ele>959.2</ele><time>2026-04-04T11:23:08Z</time></trkpt><trkpt lat="42.77058333678498" lon="12.98871285894496"><ele>961.6</ele><time>2026-04-04T11:23:09Z</time></trkpt><trkpt lat="42.77068303421574" lon="12.988644982992128"><ele>964.0</ele><time>2026-04-04T11:23:10Z</time></trkpt><trkpt lat="42.770809116205825" lon="12.988576688966775"><ele>964.0</ele><time>2026-04-04T11:23:11Z</time></trkpt><trkpt lat="42.77095215625411" lon="12.988467712524992"><ele>964.0</ele><time>2026-04-04T11:23:12Z</time></trkpt><trkpt lat="42.77105602149278" lon="12.988396590523228"><ele>964.0</ele><time>2026-04-04T11:23:13Z</time></trkpt><trkpt lat="42.77113708514776" lon="12.988332266336585"><ele>964.0</ele><time>2026-04-04T11:23:14Z</time></trkpt><trkpt lat="42.77122837971534" lon="12.98822340468244"><ele>969.5</ele><time>2026-04-04T11:23:15Z</time></trkpt><trkpt lat="42.77132349864768" lon="12.988096812460432"><ele>975.0</ele><time>2026-04-04T11:23:16Z</time></trkpt><trkpt lat="42.77142880851748" lon="12.987976298856475"><ele>980.5</ele><time>2026-04-04T11:23:17Z</time></trkpt><trkpt lat="42.77152676934087" lon="12.987864028280264"><ele>986.0</ele><time>2026-04-04T11:23:18Z</time></trkpt><trkpt lat="42.77160282296211" lon="12.987757556322727"><ele>986.0</ele><time>2026-04-04T11:23:19Z</time></trkpt><trkpt lat="42.77167693323611" lon="12.987663237206515"><ele>986.0</ele><time>2026-04-04T11:23:20Z</time></trkpt><trkpt lat="42.771748550088766" lon="12.987572189888287"><ele>986.0</ele><time>2026-04-04T11:23:21Z</time></trkpt><trkpt lat="42.771829393383975" lon="12.987455399039568"><ele>986.0</ele><time>2026-04-04T11:23:22Z</time></trkpt><trkpt lat="42.77191158675895" lon="12.987296752426188"><ele>996.0</ele><time>2026-04-04T11:23:23Z</time></trkpt><trkpt lat="42.77200496764311" lon="12.987111049670121"><ele>1006.0</ele><time>2026-04-04T11:23:24Z</time></trkpt><trkpt lat="42.772106064770014" lon="12.986913114894069"><ele>1016.0</ele><time>2026-04-04T11:23:25Z</time></trkpt><trkpt lat="42.77220640517714" lon="12.98671439359985"><ele>1017.0</ele><time>2026-04-04T11:23:26Z</time></trkpt><trkpt lat="42.77230649435513" lon="12.986495313094528"><ele>1018.0</ele><time>2026-04-04T11:23:27Z</time></trkpt><trkpt lat="42.77238940167047" lon="12.986277779608498"><ele>1019.0</ele><time>2026-04-04T11:23:28Z</time></trkpt><trkpt lat="42.77243231101606" lon="12.98608569662542"><ele>1019.0</ele><time>2026-04-04T11:23:29Z</time></trkpt><trkpt lat="42.77246985162297" lon="12.985923491962616"><ele>1019.0</ele><time>2026-04-04T11:23:30Z</time></trkpt><trkpt lat="42.772498054696364" lon="12.985751119469082"><ele>1019.0</ele><time>2026-04-04T11:23:31Z</time></trkpt><trkpt lat="42.772509758699655" lon="12.9855856700234"><ele>1019.0</ele><time>2026-04-04T11:23:32Z</time></trkpt><trkpt lat="42.77251029717207" lon="12.985437378348974"><ele>1019.2</ele><time>2026-04-04T11:23:33Z</time></trkpt><trkpt lat="42.772503904809106" lon="12.985271197077873"><ele>1019.4000000000001</ele><time>2026-04-04T11:23:34Z</time></trkpt><trkpt lat="42.7725164639006" lon="12.985104737320881"><ele>1019.6</ele><time>2026-04-04T11:23:35Z</time></trkpt><trkpt lat="42.772533271026255" lon="12.984970657002995"><ele>1019.8</ele><time>2026-04-04T11:23:36Z</time></trkpt><trkpt lat="42.77253654704502" lon="12.984847117252233"><ele>1020.0</ele><time>2026-04-04T11:23:37Z</time></trkpt><trkpt lat="42.772558913629496" lon="12.98468074362423"><ele>1020.3333333333334</ele><time>2026-04-04T11:23:38Z</time></trkpt><trkpt lat="42.77257993573291" lon="12.98452914280187"><ele>1020.6666666666667</ele><time>2026-04-04T11:23:39Z</time></trkpt><trkpt lat="42.77259796195743" lon="12.984417797955647"><ele>1021.0</ele><time>2026-04-04T11:23:40Z</time></trkpt><trkpt lat="42.77262366230885" lon="12.984319910036586"><ele>1021.3333333333334</ele><time>2026-04-04T11:23:42Z</time></trkpt><trkpt lat="42.77259688590445" lon="12.984425413405738"><ele>1021.6666666666667</ele><time>2026-04-04T11:23:56Z</time></trkpt><trkpt lat="42.77258516973554" lon="12.984510049974741"><ele>1022.0</ele><time>2026-04-04T11:23:57Z</time></trkpt><trkpt lat="42.77258179072836" lon="12.984619669012915"><ele>1022.0000000000001</ele><time>2026-04-04T11:23:58Z</time></trkpt><trkpt lat="42.77254568383322" lon="12.984746332522587"><ele>1022.0</ele><time>2026-04-04T11:23:59Z</time></trkpt><trkpt lat="42.772530753337236" lon="12.984854243542872"><ele>1022.0</ele><time>2026-04-04T11:24:00Z</time></trkpt><trkpt lat="42.772518741889165" lon="12.984941857811114"><ele>1022.0</ele><time>2026-04-04T11:24:01Z</time></trkpt><trkpt lat="42.772490094090095" lon="12.98504586895623"><ele>1022.0000000000001</ele><time>2026-04-04T11:24:02Z</time></trkpt><trkpt lat="42.772477548206844" lon="12.985175808201914"><ele>1022.0</ele><time>2026-04-04T11:24:03Z</time></trkpt><trkpt lat="42.772481125242855" lon="12.985321839290108"><ele>1021.5</ele><time>2026-04-04T11:24:04Z</time></trkpt><trkpt lat="42.77248523659751" lon="12.985495847082065"><ele>1021.0</ele><time>2026-04-04T11:24:05Z</time></trkpt><trkpt lat="42.772470599586015" lon="12.985680390842562"><ele>1020.5</ele><time>2026-04-04T11:24:06Z</time></trkpt><trkpt lat="42.77245534925122" lon="12.985841887020179"><ele>1020.0</ele><time>2026-04-04T11:24:07Z</time></trkpt><trkpt lat="42.772428684462106" lon="12.985982815044212"><ele>1019.75</ele><time>2026-04-04T11:24:08Z</time></trkpt><trkpt lat="42.77239385892976" lon="12.98612298180931"><ele>1019.5</ele><time>2026-04-04T11:24:09Z</time></trkpt><trkpt lat="42.77235214936544" lon="12.986284328158725"><ele>1019.25</ele><time>2026-04-04T11:24:10Z</time></trkpt><trkpt lat="42.772298231197524" lon="12.98643638595774"><ele>1019.0</ele><time>2026-04-04T11:24:11Z</time></trkpt><trkpt lat="42.77222708032914" lon="12.986601320320451"><ele>1018.25</ele><time>2026-04-04T11:24:12Z</time></trkpt><trkpt lat="42.772144417182155" lon="12.986780793627368"><ele>1017.5</ele><time>2026-04-04T11:24:13Z</time></trkpt><trkpt lat="42.77206509506002" lon="12.986946419092046"><ele>1016.75</ele><time>2026-04-04T11:24:14Z</time></trkpt><trkpt lat="42.77199091871045" lon="12.987090924265214"><ele>1016.0</ele><time>2026-04-04T11:24:15Z</time></trkpt><trkpt lat="42.771918226742784" lon="12.987228212883965"><ele>1010.0</ele><time>2026-04-04T11:24:16Z</time></trkpt><trkpt lat="42.771838473517306" lon="12.987373998005856"><ele>1004.0</ele><time>2026-04-04T11:24:17Z</time></trkpt><trkpt lat="42.7717619223681" lon="12.987506564921015"><ele>998.0</ele><time>2026-04-04T11:24:18Z</time></trkpt><trkpt lat="42.77168779594155" lon="12.987648452925356"><ele>992.0</ele><time>2026-04-04T11:24:19Z</time></trkpt><trkpt lat="42.77160363224617" lon="12.987720658012654"><ele>990.8</ele><time>2026-04-04T11:24:20Z</time></trkpt><trkpt lat="42.771537062879" lon="12.98782584500336"><ele>989.6</ele><time>2026-04-04T11:24:21Z</time></trkpt><trkpt lat="42.771450371986276" lon="12.987909403318639"><ele>988.3999999999999</ele><time>2026-04-04T11:24:22Z</time></trkpt><trkpt lat="42.77137330002443" lon="12.988003598205575"><ele>987.1999999999999</ele><time>2026-04-04T11:24:23Z</time></trkpt><trkpt lat="42.77129148289502" lon="12.98809456371943"><ele>986.0</ele><time>2026-04-04T11:24:24Z</time></trkpt><trkpt lat="42.77122439358717" lon="12.988196704448868"><ele>986.0</ele><time>2026-04-04T11:24:25Z</time></trkpt><trkpt lat="42.771143892080204" lon="12.988281418829704"><ele>985.9999999999999</ele><time>2026-04-04T11:24:26Z</time></trkpt><trkpt lat="42.77106716965298" lon="12.988363121392267"><ele>985.9999999999999</ele><time>2026-04-04T11:24:27Z</time></trkpt><trkpt lat="42.77098039783661" lon="12.98841951112234"><ele>986.0</ele><time>2026-04-04T11:24:28Z</time></trkpt><trkpt lat="42.77087271779583" lon="12.98849018269736"><ele>986.0</ele><time>2026-04-04T11:24:29Z</time></trkpt><trkpt lat="42.77078004583458" lon="12.988567243910015"><ele>981.5999999999999</ele><time>2026-04-04T11:24:30Z</time></trkpt><trkpt lat="42.77068450148135" lon="12.988618340841299"><ele>977.1999999999999</ele><time>2026-04-04T11:24:31Z</time></trkpt><trkpt lat="42.77058606628065" lon="12.988679196761323"><ele>972.8000000000001</ele><time>2026-04-04T11:24:32Z</time></trkpt><trkpt lat="42.77049044611913" lon="12.988703896138716"><ele>968.4000000000001</ele><time>2026-04-04T11:24:33Z</time></trkpt><trkpt lat="42.7704129296239" lon="12.98869291543625"><ele>964.0</ele><time>2026-04-04T11:24:34Z</time></trkpt><trkpt lat="42.770349092626915" lon="12.988733010313416"><ele>963.9999999999999</ele><time>2026-04-04T11:24:35Z</time></trkpt><trkpt lat="42.770280971972525" lon="12.988740435126653"><ele>964.0</ele><time>2026-04-04T11:24:36Z</time></trkpt><trkpt lat="42.770209568241505" lon="12.988796621016714"><ele>964.0</ele><time>2026-04-04T11:24:37Z</time></trkpt><trkpt lat="42.77013106279481" lon="12.98887626484656"><ele>964.0</ele><time>2026-04-04T11:24:38Z</time></trkpt><trkpt lat="42.770070361003704" lon="12.988952376683573"><ele>963.9999999999999</ele><time>2026-04-04T11:24:39Z</time></trkpt><trkpt lat="42.770006992660285" lon="12.989021085417308"><ele>964.0</ele><time>2026-04-04T11:24:40Z</time></trkpt><trkpt lat="42.76992769325686" lon="12.989073489668927"><ele>961.0</ele><time>2026-04-04T11:24:41Z</time></trkpt><trkpt lat="42.76985580744127" lon="12.989128998282737"><ele>958.0</ele><time>2026-04-04T11:24:42Z</time></trkpt><trkpt lat="42.769735654061634" lon="12.989191302757769"><ele>955.0</ele><time>2026-04-04T11:24:43Z</time></trkpt><trkpt lat="42.76957140503441" lon="12.989288134450907"><ele>952.0</ele><time>2026-04-04T11:24:44Z</time></trkpt><trkpt lat="42.76943020164703" lon="12.989392587141044"><ele>948.4000000000001</ele><time>2026-04-04T11:24:45Z</time></trkpt><trkpt lat="42.76931334703814" lon="12.989473629180646"><ele>944.8000000000001</ele><time>2026-04-04T11:24:46Z</time></trkpt><trkpt lat="42.76922268700142" lon="12.989534554085658"><ele>941.2</ele><time>2026-04-04T11:24:47Z</time></trkpt><trkpt lat="42.76915145642305" lon="12.98959873548761"><ele>937.6</ele><time>2026-04-04T11:24:48Z</time></trkpt><trkpt lat="42.76911588944102" lon="12.98967133183722"><ele>934.0</ele><time>2026-04-04T11:24:49Z</time></trkpt><trkpt lat="42.76918626765201" lon="12.989743055007821"><ele>934.0</ele><time>2026-04-04T11:24:51Z</time></trkpt><trkpt lat="42.76921366712207" lon="12.989822718441951"><ele>934.0000000000001</ele><time>2026-04-04T11:24:52Z</time></trkpt><trkpt lat="42.769212377887946" lon="12.990030218795814"><ele>934.0000000000001</ele><time>2026-04-04T11:24:54Z</time></trkpt><trkpt lat="42.76919606366441" lon="12.990158209029854"><ele>934.0</ele><time>2026-04-04T11:24:55Z</time></trkpt><trkpt lat="42.769147950819075" lon="12.990253907658433"><ele>934.0</ele><time>2026-04-04T11:24:56Z</time></trkpt><trkpt lat="42.7691698720932" lon="12.99035181167196"><ele>933.2</ele><time>2026-04-04T11:24:57Z</time></trkpt><trkpt lat="42.76922185512086" lon="12.990427274197959"><ele>932.4000000000001</ele><time>2026-04-04T11:24:58Z</time></trkpt><trkpt lat="42.76930288458418" lon="12.99053097352095"><ele>931.6</ele><time>2026-04-04T11:24:59Z</time></trkpt><trkpt lat="42.76940069978011" lon="12.990628262460746"><ele>930.8</ele><time>2026-04-04T11:25:00Z</time></trkpt><trkpt lat="42.76951682339928" lon="12.99069397674483"><ele>930.0</ele><time>2026-04-04T11:25:01Z</time></trkpt><trkpt lat="42.76965662537017" lon="12.990817311406909"><ele>925.75</ele><time>2026-04-04T11:25:02Z</time></trkpt><trkpt lat="42.76980114933725" lon="12.990945510925513"><ele>921.5</ele><time>2026-04-04T11:25:03Z</time></trkpt><trkpt lat="42.769896952279005" lon="12.991063904637903"><ele>917.25</ele><time>2026-04-04T11:25:04Z</time></trkpt><trkpt lat="42.7699916177591" lon="12.99118038838722"><ele>913.0</ele><time>2026-04-04T11:25:05Z</time></trkpt><trkpt lat="42.77007854619004" lon="12.99127143822003"><ele>913.0</ele><time>2026-04-04T11:25:06Z</time></trkpt><trkpt lat="42.77013663634859" lon="12.991366699181494"><ele>913.0</ele><time>2026-04-04T11:25:08Z</time></trkpt><trkpt lat="42.77000507536723" lon="12.991375719235993"><ele>913.0</ele><time>2026-04-04T11:25:11Z</time></trkpt><trkpt lat="42.76988562812403" lon="12.991373237934516"><ele>913.0</ele><time>2026-04-04T11:25:12Z</time></trkpt><trkpt lat="42.76978692555289" lon="12.991369846612132"><ele>913.0</ele><time>2026-04-04T11:25:13Z</time></trkpt><trkpt lat="42.76970816825297" lon="12.99136712330381"><ele>913.0</ele><time>2026-04-04T11:26:58Z</time></trkpt><trkpt lat="42.7698368620422" lon="12.991374339491943"><ele>913.0</ele><time>2026-04-04T11:27:06Z</time></trkpt><trkpt lat="42.769978105699735" lon="12.991376415347434"><ele>913.0</ele><time>2026-04-04T11:27:07Z</time></trkpt><trkpt lat="42.77012689644389" lon="12.991377807599267"><ele>913.0</ele><time>2026-04-04T11:27:08Z</time></trkpt><trkpt lat="42.77023675227209" lon="12.991395219515372"><ele>911.25</ele><time>2026-04-04T11:27:09Z</time></trkpt><trkpt lat="42.77025730880271" lon="12.991599404859858"><ele>909.5</ele><time>2026-04-04T11:27:10Z</time></trkpt><trkpt lat="42.77032532528902" lon="12.99173522181583"><ele>907.75</ele><time>2026-04-04T11:27:11Z</time></trkpt><trkpt lat="42.7704281809692" lon="12.991843725550144"><ele>906.0</ele><time>2026-04-04T11:27:12Z</time></trkpt><trkpt lat="42.77056141118467" lon="12.991941937155364"><ele>906.0</ele><time>2026-04-04T11:27:13Z</time></trkpt><trkpt lat="42.770706287572494" lon="12.99202865971844"><ele>906.0</ele><time>2026-04-04T11:27:14Z</time></trkpt><trkpt lat="42.77084181276722" lon="12.992100329756934"><ele>906.0</ele><time>2026-04-04T11:27:15Z</time></trkpt><trkpt lat="42.77097461944773" lon="12.992152921459244"><ele>906.0</ele><time>2026-04-04T11:27:16Z</time></trkpt><trkpt lat="42.77110687439558" lon="12.99217968782292"><ele>906.75</ele><time>2026-04-04T11:27:17Z</time></trkpt><trkpt lat="42.77124542741598" lon="12.992189594275239"><ele>907.5</ele><time>2026-04-04T11:27:18Z</time></trkpt><trkpt lat="42.77140462410692" lon="12.992182140208138"><ele>908.25</ele><time>2026-04-04T11:27:19Z</time></trkpt><trkpt lat="42.7715505555753" lon="12.992177530839902"><ele>909.0</ele><time>2026-04-04T11:27:20Z</time></trkpt><trkpt lat="42.77166414615695" lon="12.992183629501591"><ele>909.0</ele><time>2026-04-04T11:27:21Z</time></trkpt><trkpt lat="42.771755169845726" lon="12.992227894015697"><ele>909.0</ele><time>2026-04-04T11:27:22Z</time></trkpt><trkpt lat="42.7718531906004" lon="12.992247503528036"><ele>909.0</ele><time>2026-04-04T11:27:23Z</time></trkpt><trkpt lat="42.77192692524948" lon="12.992280647906377"><ele>909.0</ele><time>2026-04-04T11:27:24Z</time></trkpt><trkpt lat="42.7719995409969" lon="12.992305654313656"><ele>909.0</ele><time>2026-04-04T11:27:25Z</time></trkpt><trkpt lat="42.77206722558062" lon="12.992313114007802"><ele>909.0</ele><time>2026-04-04T11:27:26Z</time></trkpt><trkpt lat="42.77215115203431" lon="12.99232586789153"><ele>909.8000000000001</ele><time>2026-04-04T11:27:27Z</time></trkpt><trkpt lat="42.772255034308714" lon="12.992334892310563"><ele>910.6000000000001</ele><time>2026-04-04T11:27:28Z</time></trkpt><trkpt lat="42.77236575456913" lon="12.992319192397577"><ele>911.4</ele><time>2026-04-04T11:27:29Z</time></trkpt><trkpt lat="42.77246937488476" lon="12.992291656527525"><ele>912.2</ele><time>2026-04-04T11:27:30Z</time></trkpt><trkpt lat="42.772564706067854" lon="12.992254028645553"><ele>913.0</ele><time>2026-04-04T11:27:31Z</time></trkpt><trkpt lat="42.77266534370504" lon="12.992266659662171"><ele>914.8</ele><time>2026-04-04T11:27:32Z</time></trkpt><trkpt lat="42.77276996684769" lon="12.99233830990197"><ele>916.5999999999999</ele><time>2026-04-04T11:27:33Z</time></trkpt><trkpt lat="42.7728872195421" lon="12.99234092186912"><ele>918.4000000000001</ele><time>2026-04-04T11:27:34Z</time></trkpt><trkpt lat="42.7729888604154" lon="12.992364139726053"><ele>920.2</ele><time>2026-04-04T11:27:35Z</time></trkpt><trkpt lat="42.77307458074943" lon="12.992404288782378"><ele>922.0</ele><time>2026-04-04T11:27:36Z</time></trkpt><trkpt lat="42.773151202984195" lon="12.992418910387304"><ele>918.0</ele><time>2026-04-04T11:27:37Z</time></trkpt><trkpt lat="42.773210120474246" lon="12.992531380177502"><ele>914.0</ele><time>2026-04-04T11:27:38Z</time></trkpt><trkpt lat="42.773216806605106" lon="12.992665948013325"><ele>910.0</ele><time>2026-04-04T11:27:39Z</time></trkpt><trkpt lat="42.77324973849979" lon="12.99281458394124"><ele>906.0</ele><time>2026-04-04T11:27:40Z</time></trkpt><trkpt lat="42.77328820832384" lon="12.99295877049334"><ele>902.0</ele><time>2026-04-04T11:27:41Z</time></trkpt><trkpt lat="42.7733438922055" lon="12.993106947364408"><ele>902.0</ele><time>2026-04-04T11:27:42Z</time></trkpt><trkpt lat="42.77343671288697" lon="12.993231664469409"><ele>902.0</ele><time>2026-04-04T11:27:43Z</time></trkpt><trkpt lat="42.773553379176875" lon="12.9933423681394"><ele>902.0</ele><time>2026-04-04T11:27:44Z</time></trkpt><trkpt lat="42.77368495772713" lon="12.993443094299503"><ele>902.0</ele><time>2026-04-04T11:27:45Z</time></trkpt><trkpt lat="42.77380246663728" lon="12.993532437463912"><ele>896.75</ele><time>2026-04-04T11:27:46Z</time></trkpt><trkpt lat="42.77391779020541" lon="12.993599506498198"><ele>891.5</ele><time>2026-04-04T11:27:47Z</time></trkpt><trkpt lat="42.77403404949505" lon="12.993639682681046"><ele>886.25</ele><time>2026-04-04T11:27:48Z</time></trkpt><trkpt lat="42.7741383525161" lon="12.993661561906503"><ele>881.0</ele><time>2026-04-04T11:27:49Z</time></trkpt><trkpt lat="42.77424019484768" lon="12.9936601970492"><ele>881.0</ele><time>2026-04-04T11:27:50Z</time></trkpt><trkpt lat="42.77434060369887" lon="12.993623284273509"><ele>881.0</ele><time>2026-04-04T11:27:51Z</time></trkpt><trkpt lat="42.77444728946219" lon="12.99357439879754"><ele>881.0</ele><time>2026-04-04T11:27:52Z</time></trkpt><trkpt lat="42.774561266052544" lon="12.993534359420016"><ele>881.0</ele><time>2026-04-04T11:27:53Z</time></trkpt><trkpt lat="42.7746714727101" lon="12.993483290026422"><ele>879.25</ele><time>2026-04-04T11:27:54Z</time></trkpt><trkpt lat="42.77477625860754" lon="12.993437496867013"><ele>877.5</ele><time>2026-04-04T11:27:55Z</time></trkpt><trkpt lat="42.77488887135404" lon="12.99342820040046"><ele>875.75</ele><time>2026-04-04T11:27:56Z</time></trkpt><trkpt lat="42.77500256429504" lon="12.993438899677596"><ele>874.0</ele><time>2026-04-04T11:27:57Z</time></trkpt><trkpt lat="42.77511780336117" lon="12.993454961115457"><ele>872.5</ele><time>2026-04-04T11:27:58Z</time></trkpt><trkpt lat="42.7752425845669" lon="12.993460952222138"><ele>871.0</ele><time>2026-04-04T11:27:59Z</time></trkpt><trkpt lat="42.775371492608954" lon="12.993487594857111"><ele>869.5</ele><time>2026-04-04T11:28:00Z</time></trkpt><trkpt lat="42.77550742752997" lon="12.993530667685864"><ele>868.0</ele><time>2026-04-04T11:28:01Z</time></trkpt><trkpt lat="42.77564590984535" lon="12.993561612870886"><ele>868.0</ele><time>2026-04-04T11:28:02Z</time></trkpt><trkpt lat="42.77578961356173" lon="12.993588368483973"><ele>868.0</ele><time>2026-04-04T11:28:03Z</time></trkpt><trkpt lat="42.775913363646026" lon="12.993607530410618"><ele>868.0</ele><time>2026-04-04T11:28:04Z</time></trkpt><trkpt lat="42.77602754766521" lon="12.993637456036115"><ele>868.0</ele><time>2026-04-04T11:28:05Z</time></trkpt><trkpt lat="42.776128584879444" lon="12.993648834698577"><ele>865.8</ele><time>2026-04-04T11:28:06Z</time></trkpt><trkpt lat="42.77622639335429" lon="12.993640790780892"><ele>863.5999999999999</ele><time>2026-04-04T11:28:07Z</time></trkpt><trkpt lat="42.776320239419036" lon="12.993624307102337"><ele>861.4000000000001</ele><time>2026-04-04T11:28:08Z</time></trkpt><trkpt lat="42.776405043553055" lon="12.993580060942184"><ele>859.2</ele><time>2026-04-04T11:28:09Z</time></trkpt><trkpt lat="42.776472690774874" lon="12.993525719031686"><ele>857.0</ele><time>2026-04-04T11:28:10Z</time></trkpt><trkpt lat="42.77654657252988" lon="12.993451247254246"><ele>857.0000000000001</ele><time>2026-04-04T11:28:12Z</time></trkpt><trkpt lat="42.77664299049724" lon="12.993373022543176"><ele>857.0</ele><time>2026-04-04T11:28:14Z</time></trkpt><trkpt lat="42.77658785132301" lon="12.993415649270734"><ele>857.0</ele><time>2026-04-04T11:28:30Z</time></trkpt><trkpt lat="42.776509759349345" lon="12.99349255549577"><ele>857.0</ele><time>2026-04-04T11:28:36Z</time></trkpt><trkpt lat="42.77644607688934" lon="12.993541451438238"><ele>857.0000000000001</ele><time>2026-04-04T11:28:37Z</time></trkpt><trkpt lat="42.776384893670574" lon="12.993585120835345"><ele>857.0</ele><time>2026-04-04T11:28:38Z</time></trkpt><trkpt lat="42.776345806004805" lon="12.99366177503565"><ele>857.0000000000001</ele><time>2026-04-04T11:28:40Z</time></trkpt><trkpt lat="42.77629414495233" lon="12.99375808889685"><ele>857.0</ele><time>2026-04-04T11:28:42Z</time></trkpt><trkpt lat="42.77622522834777" lon="12.993845670859645"><ele>857.0</ele><time>2026-04-04T11:28:44Z</time></trkpt><trkpt lat="42.776185920098186" lon="12.993936646919623"><ele>857.0</ele><time>2026-04-04T11:28:47Z</time></trkpt><trkpt lat="42.776141288089505" lon="12.994015188663496"><ele>857.0000000000001</ele><time>2026-04-04T11:28:50Z</time></trkpt><trkpt lat="42.77610331191959" lon="12.994120308807355"><ele>857.0</ele><time>2026-04-04T11:28:52Z</time></trkpt><trkpt lat="42.77607314455324" lon="12.994199147879817"><ele>854.1666666666667</ele><time>2026-04-04T11:28:54Z</time></trkpt><trkpt lat="42.776065532220215" lon="12.99430010832692"><ele>851.3333333333334</ele><time>2026-04-04T11:28:56Z</time></trkpt><trkpt lat="42.77609370567923" lon="12.994456250695057"><ele>848.5</ele><time>2026-04-04T11:28:58Z</time></trkpt><trkpt lat="42.77606991924139" lon="12.99457616702548"><ele>845.6666666666667</ele><time>2026-04-04T11:29:00Z</time></trkpt><trkpt lat="42.776031675497215" lon="12.994686396772977"><ele>842.8333333333334</ele><time>2026-04-04T11:29:02Z</time></trkpt><trkpt lat="42.77605009448649" lon="12.994784238814251"><ele>840.0</ele><time>2026-04-04T11:29:04Z</time></trkpt><trkpt lat="42.776139703933666" lon="12.994883761726216"><ele>836.5</ele><time>2026-04-04T11:29:06Z</time></trkpt><trkpt lat="42.77619657066474" lon="12.995018563151877"><ele>833.0</ele><time>2026-04-04T11:29:08Z</time></trkpt><trkpt lat="42.776186269597645" lon="12.99515652875941"><ele>829.5</ele><time>2026-04-04T11:29:11Z</time></trkpt><trkpt lat="42.77612710360904" lon="12.995272221578777"><ele>826.0</ele><time>2026-04-04T11:29:12Z</time></trkpt><trkpt lat="42.776041757042236" lon="12.995420110788588"><ele>825.75</ele><time>2026-04-04T11:29:13Z</time></trkpt><trkpt lat="42.776005026872774" lon="12.995582038897359"><ele>825.5</ele><time>2026-04-04T11:29:14Z</time></trkpt><trkpt lat="42.77599064016269" lon="12.995752292977803"><ele>825.25</ele><time>2026-04-04T11:29:15Z</time></trkpt><trkpt lat="42.77599952396466" lon="12.995890906056461"><ele>825.0</ele><time>2026-04-04T11:29:16Z</time></trkpt><trkpt lat="42.77604399081018" lon="12.996026189227809"><ele>825.0</ele><time>2026-04-04T11:29:17Z</time></trkpt><trkpt lat="42.77606357273907" lon="12.996151858709407"><ele>825.0</ele><time>2026-04-04T11:29:18Z</time></trkpt><trkpt lat="42.77612775156707" lon="12.996218628246714"><ele>825.0</ele><time>2026-04-04T11:29:19Z</time></trkpt><trkpt lat="42.776214596160536" lon="12.99629302162365"><ele>825.0</ele><time>2026-04-04T11:29:20Z</time></trkpt><trkpt lat="42.776356392008296" lon="12.996364297820465"><ele>825.0</ele><time>2026-04-04T11:29:21Z</time></trkpt><trkpt lat="42.77646509037624" lon="12.996480835291859"><ele>825.0</ele><time>2026-04-04T11:29:22Z</time></trkpt><trkpt lat="42.77652891769809" lon="12.996564294896457"><ele>825.0</ele><time>2026-04-04T11:29:23Z</time></trkpt><trkpt lat="42.77656175962926" lon="12.996642939964733"><ele>825.0</ele><time>2026-04-04T11:29:24Z</time></trkpt><trkpt lat="42.77657432651931" lon="12.99684035835248"><ele>825.0</ele><time>2026-04-04T11:29:26Z</time></trkpt><trkpt lat="42.77655834294442" lon="12.99693664808639"><ele>825.0</ele><time>2026-04-04T11:29:28Z</time></trkpt><trkpt lat="42.776503269191565" lon="12.996990938709457"><ele>825.0</ele><time>2026-04-04T11:29:32Z</time></trkpt><trkpt lat="42.776450294205645" lon="12.997073689982347"><ele>824.75</ele><time>2026-04-04T11:29:34Z</time></trkpt><trkpt lat="42.77640492443194" lon="12.997144561278658"><ele>824.5</ele><time>2026-04-04T11:29:37Z</time></trkpt><trkpt lat="42.7763914171077" lon="12.997049171605205"><ele>824.25</ele><time>2026-04-04T11:29:38Z</time></trkpt><trkpt lat="42.776435267513314" lon="12.996964321864441"><ele>824.0</ele><time>2026-04-04T11:29:40Z</time></trkpt><trkpt lat="42.77629092297982" lon="12.997322640870312"><ele>824.0</ele><time>2026-04-04T11:29:49Z</time></trkpt><trkpt lat="42.77633431312342" lon="12.997431720317072"><ele>824.0</ele><time>2026-04-04T11:29:50Z</time></trkpt><trkpt lat="42.77643701357935" lon="12.997547231513161"><ele>824.0</ele><time>2026-04-04T11:29:51Z</time></trkpt><trkpt lat="42.776532619788796" lon="12.9976208388591"><ele>824.0</ele><time>2026-04-04T11:29:52Z</time></trkpt><trkpt lat="42.77658643363631" lon="12.99768302262264"><ele>824.0</ele><time>2026-04-04T11:29:54Z</time></trkpt><trkpt lat="42.77664351690802" lon="12.997757188898861"><ele>823.5714285714286</ele><time>2026-04-04T11:29:58Z</time></trkpt><trkpt lat="42.77669993932482" lon="12.997800498541018"><ele>823.1428571428571</ele><time>2026-04-04T11:30:02Z</time></trkpt><trkpt lat="42.776751568103435" lon="12.997858275445276"><ele>822.7142857142858</ele><time>2026-04-04T11:30:06Z</time></trkpt><trkpt lat="42.77681482272712" lon="12.997966345620101"><ele>822.2857142857142</ele><time>2026-04-04T11:30:08Z</time></trkpt><trkpt lat="42.776848272778885" lon="12.998054172266803"><ele>821.8571428571429</ele><time>2026-04-04T11:30:09Z</time></trkpt><trkpt lat="42.77686791046795" lon="12.998141805037495"><ele>821.4285714285714</ele><time>2026-04-04T11:30:10Z</time></trkpt><trkpt lat="42.776893264876875" lon="12.998233243269222"><ele>821.0</ele><time>2026-04-04T11:30:11Z</time></trkpt><trkpt lat="42.77692973554654" lon="12.998336943436476"><ele>821.0</ele><time>2026-04-04T11:30:12Z</time></trkpt><trkpt lat="42.77697399106902" lon="12.998485854300249"><ele>821.0</ele><time>2026-04-04T11:30:14Z</time></trkpt><trkpt lat="42.77700060396115" lon="12.99859297664387"><ele>821.0</ele><time>2026-04-04T11:30:16Z</time></trkpt><trkpt lat="42.777083855140255" lon="12.998707294207351"><ele>821.0</ele><time>2026-04-04T11:30:18Z</time></trkpt><trkpt lat="42.77717959770823" lon="12.99882374444506"><ele>821.0</ele><time>2026-04-04T11:30:20Z</time></trkpt><trkpt lat="42.77722169703793" lon="12.998888539014022"><ele>821.0000000000001</ele><time>2026-04-04T11:30:21Z</time></trkpt><trkpt lat="42.77727675614178" lon="12.998961720476428"><ele>821.0</ele><time>2026-04-04T11:30:22Z</time></trkpt><trkpt lat="42.77732503380683" lon="12.999035734229105"><ele>821.0</ele><time>2026-04-04T11:30:23Z</time></trkpt><trkpt lat="42.77736516281095" lon="12.999115389115888"><ele>821.0</ele><time>2026-04-04T11:30:24Z</time></trkpt><trkpt lat="42.77739245925362" lon="12.999197935871488"><ele>821.0</ele><time>2026-04-04T11:30:25Z</time></trkpt><trkpt lat="42.77741260245994" lon="12.999280669590089"><ele>821.0000000000001</ele><time>2026-04-04T11:30:26Z</time></trkpt><trkpt lat="42.77743022727262" lon="12.999365909207182"><ele>821.0</ele><time>2026-04-04T11:30:27Z</time></trkpt><trkpt lat="42.77744163884686" lon="12.999544453040226"><ele>820.1666666666667</ele><time>2026-04-04T11:30:29Z</time></trkpt><trkpt lat="42.7774377224961" lon="12.999707922897596"><ele>819.3333333333334</ele><time>2026-04-04T11:30:31Z</time></trkpt><trkpt lat="42.77740745720545" lon="12.999850991200693"><ele>818.5</ele><time>2026-04-04T11:30:33Z</time></trkpt><trkpt lat="42.77738938091264" lon="12.999940842418889"><ele>817.6666666666667</ele><time>2026-04-04T11:30:35Z</time></trkpt><trkpt lat="42.77735701185194" lon="13.000035296915312"><ele>816.8333333333334</ele><time>2026-04-04T11:30:38Z</time></trkpt><trkpt lat="42.77732061746071" lon="13.00010971720223"><ele>816.0</ele><time>2026-04-04T11:30:41Z</time></trkpt><trkpt lat="42.77730582595144" lon="13.000198788718892"><ele>816.0</ele><time>2026-04-04T11:30:46Z</time></trkpt><trkpt lat="42.77740187215102" lon="13.000176054508083"><ele>816.0</ele><time>2026-04-04T11:30:50Z</time></trkpt><trkpt lat="42.77739918983453" lon="13.000039333509017"><ele>816.0</ele><time>2026-04-04T11:30:51Z</time></trkpt><trkpt lat="42.77738908013607" lon="12.999951729403906"><ele>816.0</ele><time>2026-04-04T11:30:52Z</time></trkpt><trkpt lat="42.77741038456617" lon="12.999796221163304"><ele>816.0</ele><time>2026-04-04T11:30:54Z</time></trkpt><trkpt lat="42.777428436127" lon="12.999680142835532"><ele>816.0</ele><time>2026-04-04T11:30:56Z</time></trkpt><trkpt lat="42.77742301152573" lon="12.999545019178669"><ele>816.0</ele><time>2026-04-04T11:30:58Z</time></trkpt><trkpt lat="42.7773879186796" lon="12.999360746447277"><ele>816.0</ele><time>2026-04-04T11:31:00Z</time></trkpt><trkpt lat="42.77735820495686" lon="12.999242849572285"><ele>816.0</ele><time>2026-04-04T11:31:01Z</time></trkpt><trkpt lat="42.77732580731565" lon="12.999143934378646"><ele>816.0</ele><time>2026-04-04T11:31:02Z</time></trkpt><trkpt lat="42.7772819480065" lon="12.999046210459532"><ele>817.0</ele><time>2026-04-04T11:31:03Z</time></trkpt><trkpt lat="42.777227859820535" lon="12.998938464902091"><ele>818.0</ele><time>2026-04-04T11:31:04Z</time></trkpt><trkpt lat="42.77716435018813" lon="12.998817424768191"><ele>819.0</ele><time>2026-04-04T11:31:05Z</time></trkpt><trkpt lat="42.777104616599" lon="12.998706272386173"><ele>820.0</ele><time>2026-04-04T11:31:06Z</time></trkpt><trkpt lat="42.777048412174864" lon="12.998610741439466"><ele>821.0</ele><time>2026-04-04T11:31:07Z</time></trkpt><trkpt lat="42.77700707522885" lon="12.998540573368174"><ele>821.0</ele><time>2026-04-04T11:31:08Z</time></trkpt><trkpt lat="42.77692789272525" lon="12.998431713637835"><ele>821.0</ele><time>2026-04-04T11:31:10Z</time></trkpt><trkpt lat="42.77685194951238" lon="12.998347129045884"><ele>821.0</ele><time>2026-04-04T11:31:11Z</time></trkpt><trkpt lat="42.77677818722838" lon="12.99826863822416"><ele>821.0</ele><time>2026-04-04T11:31:12Z</time></trkpt><trkpt lat="42.776714753865974" lon="12.998211385015917"><ele>821.0</ele><time>2026-04-04T11:31:13Z</time></trkpt><trkpt lat="42.77664818578123" lon="12.998155379243231"><ele>819.0000000000001</ele><time>2026-04-04T11:31:14Z</time></trkpt><trkpt lat="42.776572818160645" lon="12.998093062249264"><ele>817.0</ele><time>2026-04-04T11:31:15Z</time></trkpt><trkpt lat="42.776507571047155" lon="12.99803436779149"><ele>815.0</ele><time>2026-04-04T11:31:16Z</time></trkpt><trkpt lat="42.776430309852216" lon="12.997959005269205"><ele>813.0</ele><time>2026-04-04T11:31:17Z</time></trkpt><trkpt lat="42.7763695105385" lon="12.99791673724532"><ele>811.0000000000001</ele><time>2026-04-04T11:31:19Z</time></trkpt><trkpt lat="42.776314077336934" lon="12.99785874751244"><ele>809.0</ele><time>2026-04-04T11:31:43Z</time></trkpt><trkpt lat="42.776250038110845" lon="12.997829088413752"><ele>809.0000000000001</ele><time>2026-04-04T11:31:47Z</time></trkpt><trkpt lat="42.776200936390595" lon="12.997732024865343"><ele>809.0</ele><time>2026-04-04T11:31:49Z</time></trkpt><trkpt lat="42.77616086052015" lon="12.997601858839829"><ele>809.0</ele><time>2026-04-04T11:31:51Z</time></trkpt><trkpt lat="42.776133557332386" lon="12.997511889645383"><ele>809.0</ele><time>2026-04-04T11:31:53Z</time></trkpt><trkpt lat="42.77611812625179" lon="12.997420262567518"><ele>809.0000000000001</ele><time>2026-04-04T11:31:56Z</time></trkpt><trkpt lat="42.776111630542346" lon="12.997319753441316"><ele>809.0</ele><time>2026-04-04T11:31:59Z</time></trkpt><trkpt lat="42.7761068308159" lon="12.997223950119714"><ele>811.5000000000001</ele><time>2026-04-04T11:32:02Z</time></trkpt><trkpt lat="42.77614453708243" lon="12.997136952898023"><ele>814.0</ele><time>2026-04-04T11:32:04Z</time></trkpt><trkpt lat="42.77624030732392" lon="12.99700952417317"><ele>816.5</ele><time>2026-04-04T11:32:06Z</time></trkpt><trkpt lat="42.77629066619198" lon="12.99693916217037"><ele>819.0</ele><time>2026-04-04T11:32:08Z</time></trkpt><trkpt lat="42.776355866513775" lon="12.996925268623004"><ele>821.5000000000001</ele><time>2026-04-04T11:32:10Z</time></trkpt><trkpt lat="42.776437156378144" lon="12.996969790905851"><ele>824.0</ele><time>2026-04-04T11:32:12Z</time></trkpt><trkpt lat="42.776528166878606" lon="12.99697156363146"><ele>824.0000000000001</ele><time>2026-04-04T11:32:14Z</time></trkpt><trkpt lat="42.77656770212043" lon="12.997064956689137"><ele>824.0</ele><time>2026-04-04T11:32:16Z</time></trkpt><trkpt lat="42.776550888451695" lon="12.99721237978722"><ele>824.0</ele><time>2026-04-04T11:32:18Z</time></trkpt><trkpt lat="42.77659172920514" lon="12.997309740538398"><ele>824.0</ele><time>2026-04-04T11:32:20Z</time></trkpt><trkpt lat="42.77662996200887" lon="12.997385428458886"><ele>824.0000000000001</ele><time>2026-04-04T11:32:21Z</time></trkpt><trkpt lat="42.77665147080713" lon="12.997469371757676"><ele>824.0</ele><time>2026-04-04T11:32:22Z</time></trkpt><trkpt lat="42.776706479715344" lon="12.997587085977417"><ele>826.0</ele><time>2026-04-04T11:32:24Z</time></trkpt><trkpt lat="42.77676683415399" lon="12.997664439003877"><ele>828.0</ele><time>2026-04-04T11:32:25Z</time></trkpt><trkpt lat="42.77682953209341" lon="12.997718278637658"><ele>830.0</ele><time>2026-04-04T11:32:26Z</time></trkpt><trkpt lat="42.77688342899295" lon="12.997782072038735"><ele>832.0</ele><time>2026-04-04T11:32:27Z</time></trkpt><trkpt lat="42.77694005209704" lon="12.99789018875602"><ele>834.0</ele><time>2026-04-04T11:32:28Z</time></trkpt><trkpt lat="42.77701081727174" lon="12.998033957384441"><ele>834.0</ele><time>2026-04-04T11:32:29Z</time></trkpt><trkpt lat="42.77706960428804" lon="12.99816148845806"><ele>834.0</ele><time>2026-04-04T11:32:30Z</time></trkpt><trkpt lat="42.777102683233714" lon="12.99824088937543"><ele>834.0</ele><time>2026-04-04T11:32:31Z</time></trkpt><trkpt lat="42.77713853936905" lon="12.998336921724698"><ele>834.0</ele><time>2026-04-04T11:32:32Z</time></trkpt><trkpt lat="42.777198908864946" lon="12.998447261508376"><ele>834.0</ele><time>2026-04-04T11:32:33Z</time></trkpt><trkpt lat="42.777275280023154" lon="12.998559393632457"><ele>830.75</ele><time>2026-04-04T11:32:34Z</time></trkpt><trkpt lat="42.7773561147263" lon="12.99868104305399"><ele>827.5</ele><time>2026-04-04T11:32:35Z</time></trkpt><trkpt lat="42.77745584684425" lon="12.99881008008565"><ele>824.25</ele><time>2026-04-04T11:32:36Z</time></trkpt><trkpt lat="42.77755522106395" lon="12.998934768092345"><ele>821.0</ele><time>2026-04-04T11:32:37Z</time></trkpt><trkpt lat="42.777623458072796" lon="12.999034244080324"><ele>821.0</ele><time>2026-04-04T11:32:38Z</time></trkpt><trkpt lat="42.77767543484387" lon="12.99916025699173"><ele>821.0</ele><time>2026-04-04T11:32:39Z</time></trkpt><trkpt lat="42.77770490490536" lon="12.999308749563227"><ele>821.0</ele><time>2026-04-04T11:32:40Z</time></trkpt><trkpt lat="42.77771196371247" lon="12.999471400687156"><ele>821.0</ele><time>2026-04-04T11:32:41Z</time></trkpt><trkpt lat="42.777707368702714" lon="12.999611229654839"><ele>821.0</ele><time>2026-04-04T11:32:42Z</time></trkpt><trkpt lat="42.77769773979826" lon="12.999729854046864"><ele>820.1666666666667</ele><time>2026-04-04T11:32:43Z</time></trkpt><trkpt lat="42.77767865588189" lon="12.999852909018081"><ele>819.3333333333334</ele><time>2026-04-04T11:32:44Z</time></trkpt><trkpt lat="42.777640847995805" lon="12.999983562966307"><ele>818.5</ele><time>2026-04-04T11:32:45Z</time></trkpt><trkpt lat="42.7776043294628" lon="13.00009159174624"><ele>817.6666666666667</ele><time>2026-04-04T11:32:46Z</time></trkpt><trkpt lat="42.7775782173857" lon="13.00018395496155"><ele>816.8333333333334</ele><time>2026-04-04T11:32:47Z</time></trkpt><trkpt lat="42.77756127097317" lon="13.00028717679105"><ele>816.0</ele><time>2026-04-04T11:32:48Z</time></trkpt><trkpt lat="42.7775543839893" lon="13.000373413487136"><ele>816.0</ele><time>2026-04-04T11:32:50Z</time></trkpt><trkpt lat="42.77755015942541" lon="13.000465318811386"><ele>816.0</ele><time>2026-04-04T11:33:01Z</time></trkpt><trkpt lat="42.777591254298805" lon="13.00053206509885"><ele>816.0</ele><time>2026-04-04T11:33:26Z</time></trkpt><trkpt lat="42.777645076936345" lon="13.000583828949969"><ele>816.0</ele><time>2026-04-04T11:33:43Z</time></trkpt><trkpt lat="42.77763528467677" lon="13.000683069606492"><ele>816.0</ele><time>2026-04-04T11:33:54Z</time></trkpt><trkpt lat="42.77762380046093" lon="13.000799890052013"><ele>816.0</ele><time>2026-04-04T11:34:00Z</time></trkpt><trkpt lat="42.77766421770857" lon="13.000874415271765"><ele>816.0</ele><time>2026-04-04T11:34:01Z</time></trkpt><trkpt lat="42.777702003724826" lon="13.001022955092438"><ele>814.8333333333334</ele><time>2026-04-04T11:34:03Z</time></trkpt><trkpt lat="42.77770150129367" lon="13.001110795764626"><ele>813.6666666666667</ele><time>2026-04-04T11:34:04Z</time></trkpt><trkpt lat="42.7776958388719" lon="13.00125849203379"><ele>812.5</ele><time>2026-04-04T11:34:06Z</time></trkpt><trkpt lat="42.77771138443194" lon="13.001355406783285"><ele>811.3333333333334</ele><time>2026-04-04T11:34:09Z</time></trkpt><trkpt lat="42.77768539392765" lon="13.001254178473914"><ele>810.1666666666667</ele><time>2026-04-04T11:42:37.999Z</time></trkpt><trkpt lat="42.777673108142395" lon="13.001160603499136"><ele>809.0</ele><time>2026-04-04T11:42:39.999Z</time></trkpt><trkpt lat="42.777657142493325" lon="13.001035281965295"><ele>809.0000000000001</ele><time>2026-04-04T11:42:42.999Z</time></trkpt><trkpt lat="42.77765415349811" lon="13.000947902948012"><ele>809.0</ele><time>2026-04-04T11:42:45Z</time></trkpt><trkpt lat="42.77764671351708" lon="13.000860789486257"><ele>809.0</ele><time>2026-04-04T11:42:47Z</time></trkpt><trkpt lat="42.77763945286255" lon="13.000750121654896"><ele>809.0</ele><time>2026-04-04T11:43:09Z</time></trkpt><trkpt lat="42.77769594046724" lon="13.000688005397738"><ele>809.0000000000001</ele><time>2026-04-04T11:46:58Z</time></trkpt><trkpt lat="42.777617094189836" lon="13.000769467638547"><ele>809.0</ele><time>2026-04-04T11:49:25Z</time></trkpt><trkpt lat="42.7776427579059" lon="13.00058827963299"><ele>810.75</ele><time>2026-04-04T11:52:29Z</time></trkpt><trkpt lat="42.77759133570851" lon="13.000530808073211"><ele>812.5</ele><time>2026-04-04T11:53:13Z</time></trkpt><trkpt lat="42.77753138545412" lon="13.00046488720361"><ele>814.25</ele><time>2026-04-04T11:53:16Z</time></trkpt><trkpt lat="42.77758393351217" lon="13.000519056806986"><ele>816.0</ele><time>2026-04-04T11:53:54Z</time></trkpt><trkpt lat="42.77767421668335" lon="12.999328845098772"><ele>816.0</ele><time>2026-04-04T12:01:25Z</time></trkpt><trkpt lat="42.77765494362806" lon="12.999171280702328"><ele>816.0</ele><time>2026-04-04T12:01:26Z</time></trkpt><trkpt lat="42.77762341498966" lon="12.999043364527967"><ele>816.0</ele><time>2026-04-04T12:01:27Z</time></trkpt><trkpt lat="42.777586255216725" lon="12.998943877919976"><ele>816.0</ele><time>2026-04-04T12:01:28Z</time></trkpt><trkpt lat="42.77752155925965" lon="12.998854162626156"><ele>816.0</ele><time>2026-04-04T12:01:29Z</time></trkpt><trkpt lat="42.77742362206934" lon="12.998764365617818"><ele>817.6666666666667</ele><time>2026-04-04T12:01:30Z</time></trkpt><trkpt lat="42.77731886055188" lon="12.998641399943372"><ele>819.3333333333334</ele><time>2026-04-04T12:01:31Z</time></trkpt><trkpt lat="42.77722019777329" lon="12.998483845819191"><ele>821.0</ele><time>2026-04-04T12:01:32Z</time></trkpt><trkpt lat="42.77711789607349" lon="12.998287447045044"><ele>818.0</ele><time>2026-04-04T12:01:33Z</time></trkpt><trkpt lat="42.777029536445866" lon="12.99809808199777"><ele>815.0</ele><time>2026-04-04T12:01:34Z</time></trkpt><trkpt lat="42.77694931140881" lon="12.997921484406417"><ele>812.0</ele><time>2026-04-04T12:01:35Z</time></trkpt><trkpt lat="42.77686894769431" lon="12.99777921087195"><ele>809.0</ele><time>2026-04-04T12:01:36.001Z</time></trkpt><trkpt lat="42.776798049959524" lon="12.997685100646102"><ele>809.0000000000001</ele><time>2026-04-04T12:01:37.001Z</time></trkpt><trkpt lat="42.77673531991894" lon="12.997611323462607"><ele>809.0</ele><time>2026-04-04T12:01:38.001Z</time></trkpt><trkpt lat="42.776687222548084" lon="12.997545353490038"><ele>809.0</ele><time>2026-04-04T12:01:39.001Z</time></trkpt><trkpt lat="42.776637577110286" lon="12.997465083338025"><ele>809.0</ele><time>2026-04-04T12:01:40.001Z</time></trkpt><trkpt lat="42.776612675504396" lon="12.997365556567477"><ele>809.0000000000001</ele><time>2026-04-04T12:01:41.001Z</time></trkpt><trkpt lat="42.77657352732789" lon="12.997223850261182"><ele>809.0</ele><time>2026-04-04T12:01:43.001Z</time></trkpt><trkpt lat="42.77654295646228" lon="12.997105795370725"><ele>812.75</ele><time>2026-04-04T12:01:45.001Z</time></trkpt><trkpt lat="42.776565706531585" lon="12.996984626941261"><ele>816.5</ele><time>2026-04-04T12:01:47.001Z</time></trkpt><trkpt lat="42.77652355718608" lon="12.996917126774543"><ele>820.25</ele><time>2026-04-04T12:02:13.001Z</time></trkpt><trkpt lat="42.77649125158206" lon="12.99681763035087"><ele>824.0</ele><time>2026-04-04T12:02:23.001Z</time></trkpt><trkpt lat="42.77322888147131" lon="12.9969358997613"><ele>815.8333333333334</ele><time>2026-04-04T12:05:25.001Z</time></trkpt><trkpt lat="42.77311709467262" lon="12.997018957022238"><ele>807.6666666666667</ele><time>2026-04-04T12:05:27.001Z</time></trkpt><trkpt lat="42.77303179797096" lon="12.997081708890098"><ele>799.5</ele><time>2026-04-04T12:05:29.001Z</time></trkpt><trkpt lat="42.77298402416282" lon="12.997144743964759"><ele>791.3333333333333</ele><time>2026-04-04T12:05:30.001Z</time></trkpt><trkpt lat="42.77294133658701" lon="12.997228833354745"><ele>783.1666666666666</ele><time>2026-04-04T12:05:31.001Z</time></trkpt><trkpt lat="42.77292163781825" lon="12.997330555350288"><ele>775.0</ele><time>2026-04-04T12:05:32.001Z</time></trkpt><trkpt lat="42.77287838508831" lon="12.997470507927902"><ele>772.4</ele><time>2026-04-04T12:05:33.001Z</time></trkpt><trkpt lat="42.77285080386081" lon="12.997614782007487"><ele>769.8</ele><time>2026-04-04T12:05:34.001Z</time></trkpt><trkpt lat="42.77280380847947" lon="12.99771181497061"><ele>767.2</ele><time>2026-04-04T12:05:35.001Z</time></trkpt><trkpt lat="42.772770879644106" lon="12.997818362804981"><ele>764.6</ele><time>2026-04-04T12:05:36.001Z</time></trkpt><trkpt lat="42.772736850207814" lon="12.997915637539883"><ele>762.0</ele><time>2026-04-04T12:05:37.001Z</time></trkpt><trkpt lat="42.77268184495203" lon="12.998053424266429"><ele>762.0</ele><time>2026-04-04T12:05:38.001Z</time></trkpt><trkpt lat="42.772667285666806" lon="12.998158835261597"><ele>762.0</ele><time>2026-04-04T12:05:39.001Z</time></trkpt><trkpt lat="42.77269263999614" lon="12.998269364423978"><ele>762.0</ele><time>2026-04-04T12:05:40.001Z</time></trkpt><trkpt lat="42.77267595692218" lon="12.998370785273924"><ele>762.0</ele><time>2026-04-04T12:05:41.001Z</time></trkpt><trkpt lat="42.772627618711496" lon="12.99845579100846"><ele>762.0</ele><time>2026-04-04T12:05:42.001Z</time></trkpt><trkpt lat="42.772582340616644" lon="12.998548714462798"><ele>762.0</ele><time>2026-04-04T12:05:43.001Z</time></trkpt><trkpt lat="42.772512935621684" lon="12.998652062901675"><ele>757.6</ele><time>2026-04-04T12:05:45.001Z</time></trkpt><trkpt lat="42.772466052531996" lon="12.9987336761698"><ele>753.2</ele><time>2026-04-04T12:05:48.001Z</time></trkpt><trkpt lat="42.77255877157584" lon="12.998930170344375"><ele>748.8</ele><time>2026-04-04T12:05:50.001Z</time></trkpt><trkpt lat="42.772521723485596" lon="12.999052356889662"><ele>744.4</ele><time>2026-04-04T12:05:52.001Z</time></trkpt><trkpt lat="42.77246343259736" lon="12.999118527525173"><ele>740.0</ele><time>2026-04-04T12:05:53.001Z</time></trkpt><trkpt lat="42.772389190840016" lon="12.999155659998241"><ele>691.0</ele><time>2026-04-04T12:05:55.001Z</time></trkpt><trkpt lat="42.77436283823091" lon="13.001670848130006"><ele>691.0</ele><time>2026-04-04T12:07:25.001Z</time></trkpt><trkpt lat="42.77441518819913" lon="13.001748550561748"><ele>691.0</ele><time>2026-04-04T12:07:26.001Z</time></trkpt><trkpt lat="42.77445835184142" lon="13.001870074515208"><ele>691.0</ele><time>2026-04-04T12:07:27.001Z</time></trkpt><trkpt lat="42.7745012507443" lon="13.002004234137694"><ele>691.0</ele><time>2026-04-04T12:07:28.001Z</time></trkpt><trkpt lat="42.77453548230747" lon="13.002098513136023"><ele>691.0</ele><time>2026-04-04T12:07:29.001Z</time></trkpt><trkpt lat="42.77458873254615" lon="13.002222097248525"><ele>691.0</ele><time>2026-04-04T12:07:30.001Z</time></trkpt><trkpt lat="42.77463149378303" lon="13.00232059893504"><ele>691.0</ele><time>2026-04-04T12:07:31.001Z</time></trkpt><trkpt lat="42.77468776103309" lon="13.002408543618545"><ele>691.0</ele><time>2026-04-04T12:07:32.001Z</time></trkpt><trkpt lat="42.77472855191319" lon="13.002478551448162"><ele>691.0</ele><time>2026-04-04T12:07:33.001Z</time></trkpt><trkpt lat="42.77479254111385" lon="13.002601248615244"><ele>691.0</ele><time>2026-04-04T12:07:35.001Z</time></trkpt><trkpt lat="42.77482470519201" lon="13.00267664860277"><ele>691.0</ele><time>2026-04-04T12:07:36.001Z</time></trkpt><trkpt lat="42.77486622655508" lon="13.002772613164643"><ele>691.0</ele><time>2026-04-04T12:07:38.001Z</time></trkpt><trkpt lat="42.77484937654367" lon="13.002669701777538"><ele>691.0</ele><time>2026-04-04T12:07:55.001Z</time></trkpt><trkpt lat="42.77476887638333" lon="13.002556837963176"><ele>691.0</ele><time>2026-04-04T12:07:57.001Z</time></trkpt><trkpt lat="42.77468739413208" lon="13.002414488463316"><ele>691.0</ele><time>2026-04-04T12:07:58.001Z</time></trkpt><trkpt lat="42.77462382778711" lon="13.002284950751571"><ele>691.0</ele><time>2026-04-04T12:07:59.001Z</time></trkpt><trkpt lat="42.77455570305116" lon="13.002144097972552"><ele>691.0</ele><time>2026-04-04T12:08:00.001Z</time></trkpt><trkpt lat="42.77450685377458" lon="13.002043888269945"><ele>691.0</ele><time>2026-04-04T12:08:01.001Z</time></trkpt><trkpt lat="42.774438745596235" lon="13.001892592074109"><ele>691.0</ele><time>2026-04-04T12:08:03.001Z</time></trkpt><trkpt lat="42.774401661968696" lon="13.001804681154802"><ele>691.0</ele><time>2026-04-04T12:08:04.001Z</time></trkpt><trkpt lat="42.77436404068278" lon="13.001713155846344"><ele>691.0</ele><time>2026-04-04T12:08:05.001Z</time></trkpt><trkpt lat="42.77432813300555" lon="13.001609247398157"><ele>692.5</ele><time>2026-04-04T12:08:06.001Z</time></trkpt><trkpt lat="42.77429200511796" lon="13.001482029254602"><ele>694.0</ele><time>2026-04-04T12:08:07.001Z</time></trkpt><trkpt lat="42.77424941508762" lon="13.001338053114202"><ele>695.5</ele><time>2026-04-04T12:08:08.001Z</time></trkpt><trkpt lat="42.77419462554456" lon="13.00118637606842"><ele>697.0</ele><time>2026-04-04T12:08:09.001Z</time></trkpt><trkpt lat="42.77414969696779" lon="13.001046943887317"><ele>697.0</ele><time>2026-04-04T12:08:10.001Z</time></trkpt><trkpt lat="42.77410581541575" lon="13.000889025124245"><ele>697.0</ele><time>2026-04-04T12:08:11.001Z</time></trkpt><trkpt lat="42.774076169166996" lon="13.000712355685682"><ele>697.0</ele><time>2026-04-04T12:08:12.001Z</time></trkpt><trkpt lat="42.77404861877065" lon="13.000523675399311"><ele>697.0</ele><time>2026-04-04T12:08:13.001Z</time></trkpt><trkpt lat="42.77403500742092" lon="13.000407638191623"><ele>701.2</ele><time>2026-04-04T12:08:14.001Z</time></trkpt><trkpt lat="42.773974729665746" lon="13.000340419517412"><ele>705.4000000000001</ele><time>2026-04-04T12:08:16.001Z</time></trkpt><trkpt lat="42.77390780978921" lon="13.000335118602258"><ele>709.5999999999999</ele><time>2026-04-04T12:08:17.001Z</time></trkpt><trkpt lat="42.773813082926736" lon="13.000321392023377"><ele>713.8</ele><time>2026-04-04T12:08:18.001Z</time></trkpt><trkpt lat="42.77368829544153" lon="13.000289211485809"><ele>718.0</ele><time>2026-04-04T12:08:19.001Z</time></trkpt><trkpt lat="42.77357329209341" lon="13.000236721718892"><ele>718.0</ele><time>2026-04-04T12:08:20.001Z</time></trkpt><trkpt lat="42.77345826546769" lon="13.000159751312486"><ele>718.0</ele><time>2026-04-04T12:08:21.001Z</time></trkpt><trkpt lat="42.77336089351723" lon="13.0001038082645"><ele>718.0</ele><time>2026-04-04T12:08:22.001Z</time></trkpt><trkpt lat="42.773286333817055" lon="13.000081857297094"><ele>718.0</ele><time>2026-04-04T12:08:23.001Z</time></trkpt><trkpt lat="42.77242649761107" lon="12.999228456456226"><ele>717.0</ele><time>2026-04-04T12:09:25.001Z</time></trkpt><trkpt lat="42.77237598116093" lon="12.999161773514263"><ele>716.0</ele><time>2026-04-04T12:09:28.001Z</time></trkpt><trkpt lat="42.77227730986865" lon="12.999186889473581"><ele>715.0</ele><time>2026-04-04T12:09:30.001Z</time></trkpt><trkpt lat="42.77218760726787" lon="12.999208484362763"><ele>714.0</ele><time>2026-04-04T12:09:31.001Z</time></trkpt><trkpt lat="42.77209239525096" lon="12.99918946667008"><ele>713.0</ele><time>2026-04-04T12:09:32.001Z</time></trkpt><trkpt lat="42.77200599960504" lon="12.999173378452081"><ele>712.0</ele><time>2026-04-04T12:09:33.001Z</time></trkpt><trkpt lat="42.77190956897334" lon="12.999140002849611"><ele>714.0</ele><time>2026-04-04T12:09:34.001Z</time></trkpt><trkpt lat="42.77181669167314" lon="12.999094365280923"><ele>716.0</ele><time>2026-04-04T12:09:35.001Z</time></trkpt><trkpt lat="42.77173428855109" lon="12.999056749802428"><ele>718.0</ele><time>2026-04-04T12:09:36.001Z</time></trkpt><trkpt lat="42.771633974136996" lon="12.99901110927548"><ele>720.0</ele><time>2026-04-04T12:09:37.001Z</time></trkpt><trkpt lat="42.77153554301669" lon="12.998963623130974"><ele>722.0</ele><time>2026-04-04T12:09:38.001Z</time></trkpt><trkpt lat="42.771453021953846" lon="12.998931022371353"><ele>722.0</ele><time>2026-04-04T12:09:39.001Z</time></trkpt><trkpt lat="42.77135390700317" lon="12.998888374557376"><ele>722.0</ele><time>2026-04-04T12:09:40.001Z</time></trkpt><trkpt lat="42.77127268218843" lon="12.998852332369326"><ele>722.0</ele><time>2026-04-04T12:09:41.001Z</time></trkpt><trkpt lat="42.771207579663795" lon="12.998836643591916"><ele>722.0</ele><time>2026-04-04T12:09:42.001Z</time></trkpt><trkpt lat="42.77112879506046" lon="12.998812538487893"><ele>722.0</ele><time>2026-04-04T12:09:43.001Z</time></trkpt><trkpt lat="42.771045921086404" lon="12.998797416996231"><ele>722.0</ele><time>2026-04-04T12:09:44.001Z</time></trkpt><trkpt lat="42.77095568822437" lon="12.998801589188208"><ele>718.4000000000001</ele><time>2026-04-04T12:09:45.001Z</time></trkpt><trkpt lat="42.770846544089785" lon="12.998803655235545"><ele>714.8000000000001</ele><time>2026-04-04T12:09:46.001Z</time></trkpt><trkpt lat="42.77074808518323" lon="12.998806867060733"><ele>711.2</ele><time>2026-04-04T12:09:47.001Z</time></trkpt><trkpt lat="42.770649135756415" lon="12.99881356036688"><ele>707.6</ele><time>2026-04-04T12:09:48.001Z</time></trkpt><trkpt lat="42.770538069090705" lon="12.998819975961307"><ele>704.0</ele><time>2026-04-04T12:09:49.001Z</time></trkpt><trkpt lat="42.770430734657474" lon="12.99882009769048"><ele>704.0</ele><time>2026-04-04T12:09:50.001Z</time></trkpt><trkpt lat="42.77032889416084" lon="12.998805034800311"><ele>704.0</ele><time>2026-04-04T12:09:51.001Z</time></trkpt><trkpt lat="42.770219992578525" lon="12.998778162915764"><ele>704.0</ele><time>2026-04-04T12:09:52.001Z</time></trkpt><trkpt lat="42.77012639852705" lon="12.998739750063372"><ele>704.0</ele><time>2026-04-04T12:09:53.001Z</time></trkpt><trkpt lat="42.77002209961476" lon="12.99867716560276"><ele>704.0</ele><time>2026-04-04T12:09:54.001Z</time></trkpt><trkpt lat="42.769936954999736" lon="12.998606861046289"><ele>705.4000000000001</ele><time>2026-04-04T12:09:55.001Z</time></trkpt><trkpt lat="42.76985897893968" lon="12.998544679668937"><ele>706.8</ele><time>2026-04-04T12:09:56.001Z</time></trkpt><trkpt lat="42.76979478446374" lon="12.998497827421414"><ele>708.2</ele><time>2026-04-04T12:09:57.001Z</time></trkpt><trkpt lat="42.76970242920049" lon="12.99843188450936"><ele>709.5999999999999</ele><time>2026-04-04T12:09:58.001Z</time></trkpt><trkpt lat="42.76961841950515" lon="12.998362872978628"><ele>711.0</ele><time>2026-04-04T12:09:59.001Z</time></trkpt><trkpt lat="42.76953511899331" lon="12.998312203852121"><ele>711.0</ele><time>2026-04-04T12:10:00.001Z</time></trkpt><trkpt lat="42.769431162173376" lon="12.998280515710015"><ele>711.0</ele><time>2026-04-04T12:10:01.001Z</time></trkpt><trkpt lat="42.76934587450742" lon="12.99827479520783"><ele>711.0</ele><time>2026-04-04T12:10:02.001Z</time></trkpt><trkpt lat="42.769280336646176" lon="12.99829982423068"><ele>711.0</ele><time>2026-04-04T12:10:03.001Z</time></trkpt><trkpt lat="42.76919710235112" lon="12.9983734976332"><ele>711.0</ele><time>2026-04-04T12:10:04.001Z</time></trkpt><trkpt lat="42.76912914595645" lon="12.998472225666434"><ele>702.1999999999999</ele><time>2026-04-04T12:10:05.001Z</time></trkpt><trkpt lat="42.76904482375516" lon="12.998568474500614"><ele>693.4</ele><time>2026-04-04T12:10:06.001Z</time></trkpt><trkpt lat="42.768960036764" lon="12.998610669539069"><ele>684.6</ele><time>2026-04-04T12:10:07.001Z</time></trkpt><trkpt lat="42.76886706440522" lon="12.99861395723636"><ele>675.8</ele><time>2026-04-04T12:10:08.001Z</time></trkpt><trkpt lat="42.7687493938519" lon="12.998624293567493"><ele>667.0</ele><time>2026-04-04T12:10:09.001Z</time></trkpt><trkpt lat="42.76863646549959" lon="12.998646646265769"><ele>667.0</ele><time>2026-04-04T12:10:10.001Z</time></trkpt><trkpt lat="42.76852814999387" lon="12.998693453934857"><ele>667.0</ele><time>2026-04-04T12:10:11.001Z</time></trkpt><trkpt lat="42.768443690349926" lon="12.998761246913318"><ele>667.0</ele><time>2026-04-04T12:10:12.001Z</time></trkpt><trkpt lat="42.76836424004659" lon="12.998830382478657"><ele>667.0</ele><time>2026-04-04T12:10:13.001Z</time></trkpt><trkpt lat="42.768295149182066" lon="12.998878901932024"><ele>667.0</ele><time>2026-04-04T12:10:14.001Z</time></trkpt><trkpt lat="42.76822363799975" lon="12.998881999839238"><ele>664.6</ele><time>2026-04-04T12:10:15.001Z</time></trkpt><trkpt lat="42.76814944428009" lon="12.998832409340121"><ele>662.2</ele><time>2026-04-04T12:10:16.001Z</time></trkpt><trkpt lat="42.7680584727204" lon="12.998777929011922"><ele>659.8</ele><time>2026-04-04T12:10:17.001Z</time></trkpt><trkpt lat="42.76794134263849" lon="12.998767109228853"><ele>657.4</ele><time>2026-04-04T12:10:18.001Z</time></trkpt><trkpt lat="42.76780299470949" lon="12.998779645482145"><ele>655.0</ele><time>2026-04-04T12:10:19.001Z</time></trkpt><trkpt lat="42.76765536124466" lon="12.998799421212732"><ele>651.5</ele><time>2026-04-04T12:10:20.001Z</time></trkpt><trkpt lat="42.7675266658116" lon="12.998828237317921"><ele>648.0</ele><time>2026-04-04T12:10:21.001Z</time></trkpt><trkpt lat="42.76739878043116" lon="12.998865522311782"><ele>644.5</ele><time>2026-04-04T12:10:22.001Z</time></trkpt><trkpt lat="42.76726679231229" lon="12.998893272710752"><ele>641.0</ele><time>2026-04-04T12:10:23.001Z</time></trkpt><trkpt lat="42.76713090959358" lon="12.998914932018149"><ele>564.0</ele><time>2026-04-04T12:10:24.001Z</time></trkpt><trkpt lat="42.761493125590256" lon="12.999809685497823"><ele>564.0</ele><time>2026-04-04T12:11:25.001Z</time></trkpt><trkpt lat="42.76136209750729" lon="12.999821685908076"><ele>564.0</ele><time>2026-04-04T12:11:26.001Z</time></trkpt><trkpt lat="42.76124083642405" lon="12.999837844686558"><ele>564.0</ele><time>2026-04-04T12:11:27.001Z</time></trkpt><trkpt lat="42.76111598105889" lon="12.99986198427605"><ele>564.0</ele><time>2026-04-04T12:11:28.001Z</time></trkpt><trkpt lat="42.76097165285496" lon="12.999924610395036"><ele>563.0</ele><time>2026-04-04T12:11:29.001Z</time></trkpt><trkpt lat="42.76083634978261" lon="12.999981429506098"><ele>562.0</ele><time>2026-04-04T12:11:30.001Z</time></trkpt><trkpt lat="42.76072079319137" lon="13.000034573461072"><ele>561.0</ele><time>2026-04-04T12:11:31.001Z</time></trkpt><trkpt lat="42.760623517928785" lon="13.00008061162606"><ele>560.0</ele><time>2026-04-04T12:11:32.001Z</time></trkpt><trkpt lat="42.76053758091955" lon="13.0001161520252"><ele>560.0</ele><time>2026-04-04T12:11:33.001Z</time></trkpt><trkpt lat="42.76044063578989" lon="13.000142320235831"><ele>560.0</ele><time>2026-04-04T12:11:34.001Z</time></trkpt><trkpt lat="42.760361685655354" lon="13.000144008041312"><ele>560.0</ele><time>2026-04-04T12:11:35.001Z</time></trkpt><trkpt lat="42.760291878525344" lon="13.000127522746928"><ele>560.0</ele><time>2026-04-04T12:11:36.001Z</time></trkpt><trkpt lat="42.76019370269424" lon="13.00008522390731"><ele>560.0</ele><time>2026-04-04T12:11:38.001Z</time></trkpt><trkpt lat="42.76015983033428" lon="13.000189241963694"><ele>560.0</ele><time>2026-04-04T12:11:41.001Z</time></trkpt><trkpt lat="42.76020780930512" lon="13.000256069472556"><ele>560.0</ele><time>2026-04-04T12:11:43.001Z</time></trkpt><trkpt lat="42.76029785435746" lon="13.000289227423682"><ele>560.0</ele><time>2026-04-04T12:11:44.001Z</time></trkpt><trkpt lat="42.7604067915692" lon="13.000312747783441"><ele>560.0</ele><time>2026-04-04T12:11:45.001Z</time></trkpt><trkpt lat="42.7605169305751" lon="13.000336841490943"><ele>560.0</ele><time>2026-04-04T12:11:46.001Z</time></trkpt><trkpt lat="42.760634780355495" lon="13.000337374170456"><ele>560.0</ele><time>2026-04-04T12:11:47Z</time></trkpt><trkpt lat="42.76073750256116" lon="13.000314411402174"><ele>560.0</ele><time>2026-04-04T12:11:48Z</time></trkpt><trkpt lat="42.76080764835916" lon="13.000319265785425"><ele>560.0</ele><time>2026-04-04T12:11:49Z</time></trkpt><trkpt lat="42.76088325086537" lon="13.000343088705929"><ele>560.0</ele><time>2026-04-04T12:11:50Z</time></trkpt><trkpt lat="42.76095116151714" lon="13.000385789588158"><ele>560.0</ele><time>2026-04-04T12:11:51Z</time></trkpt><trkpt lat="42.76101598721853" lon="13.000472763024584"><ele>560.0</ele><time>2026-04-04T12:11:53Z</time></trkpt><trkpt lat="42.761061871385465" lon="13.000586509037284"><ele>560.0</ele><time>2026-04-04T12:11:56Z</time></trkpt><trkpt lat="42.76110232910395" lon="13.000706132816337"><ele>560.6666666666666</ele><time>2026-04-04T12:11:59Z</time></trkpt><trkpt lat="42.7611716984775" lon="13.000757287219324"><ele>561.3333333333333</ele><time>2026-04-04T12:12:00Z</time></trkpt><trkpt lat="42.76125897685187" lon="13.000797416300887"><ele>562.0</ele><time>2026-04-04T12:12:01Z</time></trkpt><trkpt lat="42.761348522060764" lon="13.000845232405295"><ele>562.6666666666666</ele><time>2026-04-04T12:12:02Z</time></trkpt><trkpt lat="42.76142914158826" lon="13.000917731405846"><ele>563.3333333333334</ele><time>2026-04-04T12:12:03Z</time></trkpt><trkpt lat="42.76149788368631" lon="13.00098203516512"><ele>564.0</ele><time>2026-04-04T12:12:04Z</time></trkpt><trkpt lat="42.76155880447995" lon="13.001050622058157"><ele>562.6</ele><time>2026-04-04T12:12:05Z</time></trkpt><trkpt lat="42.761622467346434" lon="13.001146540960203"><ele>561.2</ele><time>2026-04-04T12:12:06Z</time></trkpt><trkpt lat="42.76169922805904" lon="13.001252314522063"><ele>559.8000000000001</ele><time>2026-04-04T12:12:07Z</time></trkpt><trkpt lat="42.76178005803252" lon="13.001360433722216"><ele>558.4</ele><time>2026-04-04T12:12:08Z</time></trkpt><trkpt lat="42.76184654727738" lon="13.001460290892519"><ele>557.0</ele><time>2026-04-04T12:12:09Z</time></trkpt><trkpt lat="42.761893068282426" lon="13.001531758141585"><ele>557.0</ele><time>2026-04-04T12:12:10Z</time></trkpt><trkpt lat="42.76194583979778" lon="13.00159046561471"><ele>557.0</ele><time>2026-04-04T12:12:11Z</time></trkpt><trkpt lat="42.762005439000205" lon="13.001620375225608"><ele>557.0</ele><time>2026-04-04T12:12:12Z</time></trkpt><trkpt lat="42.76213170248953" lon="13.001679035985907"><ele>557.0</ele><time>2026-04-04T12:12:14Z</time></trkpt><trkpt lat="42.76222112939039" lon="13.001773164280115"><ele>557.0</ele><time>2026-04-04T12:12:15Z</time></trkpt><trkpt lat="42.76228074196905" lon="13.001863096843085"><ele>552.2</ele><time>2026-04-04T12:12:16Z</time></trkpt><trkpt lat="42.76233094305626" lon="13.001973266105626"><ele>547.4000000000001</ele><time>2026-04-04T12:12:17Z</time></trkpt><trkpt lat="42.762385371596" lon="13.002083975921458"><ele>542.5999999999999</ele><time>2026-04-04T12:12:18Z</time></trkpt><trkpt lat="42.76243792769084" lon="13.002169413908794"><ele>537.8</ele><time>2026-04-04T12:12:19Z</time></trkpt><trkpt lat="42.76249490157533" lon="13.002258045176335"><ele>533.0</ele><time>2026-04-04T12:12:20Z</time></trkpt><trkpt lat="42.762561084960225" lon="13.002355561702744"><ele>533.0</ele><time>2026-04-04T12:12:21Z</time></trkpt><trkpt lat="42.76261537627215" lon="13.002409094790972"><ele>533.0</ele><time>2026-04-04T12:12:22Z</time></trkpt><trkpt lat="42.762691625661496" lon="13.002490041350995"><ele>533.0</ele><time>2026-04-04T12:12:24Z</time></trkpt><trkpt lat="42.76592330366723" lon="13.002854836854803"><ele>532.0</ele><time>2026-04-04T12:13:25.001Z</time></trkpt><trkpt lat="42.766000008500384" lon="13.002878399988269"><ele>531.0</ele><time>2026-04-04T12:13:44Z</time></trkpt><trkpt lat="42.76606369910801" lon="13.002891555961083"><ele>530.0</ele><time>2026-04-04T12:13:45Z</time></trkpt><trkpt lat="42.76616312744593" lon="13.002888202852272"><ele>529.0</ele><time>2026-04-04T12:13:47Z</time></trkpt><trkpt lat="42.76620777563285" lon="13.00301069426937"><ele>528.0</ele><time>2026-04-04T12:13:49Z</time></trkpt><trkpt lat="42.76619912049169" lon="13.003111391827636"><ele>527.0</ele><time>2026-04-04T12:13:51Z</time></trkpt><trkpt lat="42.766257075442745" lon="13.003057877327485"><ele>527.0</ele><time>2026-04-04T12:14:02Z</time></trkpt><trkpt lat="42.76633486439152" lon="13.003026987386034"><ele>527.0</ele><time>2026-04-04T12:14:10Z</time></trkpt><trkpt lat="42.7723440352932" lon="13.008542851274964"><ele>526.75</ele><time>2026-04-04T12:15:25Z</time></trkpt><trkpt lat="42.7724803414975" lon="13.008528494804274"><ele>526.5</ele><time>2026-04-04T12:15:26Z</time></trkpt><trkpt lat="42.77262451604052" lon="13.00851747735491"><ele>526.25</ele><time>2026-04-04T12:15:27Z</time></trkpt><trkpt lat="42.77276630446819" lon="13.008512199268312"><ele>526.0</ele><time>2026-04-04T12:15:28Z</time></trkpt><trkpt lat="42.7729139748712" lon="13.0085367675104"><ele>525.25</ele><time>2026-04-04T12:15:29Z</time></trkpt><trkpt lat="42.77304586922008" lon="13.008581701350057"><ele>524.5</ele><time>2026-04-04T12:15:30Z</time></trkpt><trkpt lat="42.773185305176405" lon="13.008641026026016"><ele>523.75</ele><time>2026-04-04T12:15:31Z</time></trkpt><trkpt lat="42.77332791078407" lon="13.008692342191544"><ele>523.0</ele><time>2026-04-04T12:15:32Z</time></trkpt><trkpt lat="42.773459703959624" lon="13.008728778262807"><ele>522.5</ele><time>2026-04-04T12:15:33Z</time></trkpt><trkpt lat="42.77358821269905" lon="13.008773593189417"><ele>522.0</ele><time>2026-04-04T12:15:34Z</time></trkpt><trkpt lat="42.773701619590824" lon="13.008811863134508"><ele>521.5</ele><time>2026-04-04T12:15:35Z</time></trkpt><trkpt lat="42.7738019010291" lon="13.008866525299181"><ele>521.0</ele><time>2026-04-04T12:15:36Z</time></trkpt><trkpt lat="42.773902167300434" lon="13.008930952799593"><ele>521.0</ele><time>2026-04-04T12:15:37Z</time></trkpt><trkpt lat="42.774011083738415" lon="13.008990257800091"><ele>521.0</ele><time>2026-04-04T12:15:38Z</time></trkpt><trkpt lat="42.77413459948071" lon="13.009065424801287"><ele>521.0</ele><time>2026-04-04T12:15:39Z</time></trkpt><trkpt lat="42.77425600409985" lon="13.009145309871165"><ele>521.0</ele><time>2026-04-04T12:15:40Z</time></trkpt><trkpt lat="42.77435890514754" lon="13.00922301598797"><ele>520.75</ele><time>2026-04-04T12:15:41Z</time></trkpt><trkpt lat="42.77444598871567" lon="13.00930064148053"><ele>520.5</ele><time>2026-04-04T12:15:42Z</time></trkpt><trkpt lat="42.77451688163374" lon="13.009423249459795"><ele>520.25</ele><time>2026-04-04T12:15:43Z</time></trkpt><trkpt lat="42.774544964392156" lon="13.009583332189791"><ele>520.0</ele><time>2026-04-04T12:15:44Z</time></trkpt><trkpt lat="42.77450172541534" lon="13.009750634937847"><ele>520.0</ele><time>2026-04-04T12:15:45Z</time></trkpt><trkpt lat="42.77448129780178" lon="13.009939971660021"><ele>520.0</ele><time>2026-04-04T12:15:46Z</time></trkpt><trkpt lat="42.77443638443661" lon="13.010111497061727"><ele>520.0</ele><time>2026-04-04T12:15:47Z</time></trkpt><trkpt lat="42.77439861712491" lon="13.010266096077741"><ele>520.0</ele><time>2026-04-04T12:15:48Z</time></trkpt><trkpt lat="42.77436816912298" lon="13.01040531638722"><ele>523.5</ele><time>2026-04-04T12:15:49Z</time></trkpt><trkpt lat="42.77434026509258" lon="13.010553829532277"><ele>527.0</ele><time>2026-04-04T12:15:50Z</time></trkpt><trkpt lat="42.77431037839289" lon="13.010716155703216"><ele>530.5</ele><time>2026-04-04T12:15:51Z</time></trkpt><trkpt lat="42.774279429768995" lon="13.010880713302553"><ele>534.0</ele><time>2026-04-04T12:15:52Z</time></trkpt><trkpt lat="42.7742407716517" lon="13.011077892630256"><ele>534.0</ele><time>2026-04-04T12:15:53Z</time></trkpt><trkpt lat="42.774194469295914" lon="13.011289906497316"><ele>534.0</ele><time>2026-04-04T12:15:54Z</time></trkpt><trkpt lat="42.774154484501494" lon="13.011466485868814"><ele>534.0</ele><time>2026-04-04T12:15:55Z</time></trkpt><trkpt lat="42.77411695431282" lon="13.01164993195685"><ele>534.0</ele><time>2026-04-04T12:15:56Z</time></trkpt><trkpt lat="42.774090104667316" lon="13.011851576247084"><ele>532.6666666666666</ele><time>2026-04-04T12:15:57Z</time></trkpt><trkpt lat="42.77407702616214" lon="13.012060748831484"><ele>531.3333333333333</ele><time>2026-04-04T12:15:58Z</time></trkpt><trkpt lat="42.77408624087304" lon="13.012280395810764"><ele>530.0</ele><time>2026-04-04T12:15:59Z</time></trkpt><trkpt lat="42.7741131450332" lon="13.012507361431632"><ele>529.6666666666666</ele><time>2026-04-04T12:16:00Z</time></trkpt><trkpt lat="42.77415375549155" lon="13.012730111931592"><ele>529.3333333333334</ele><time>2026-04-04T12:16:01Z</time></trkpt><trkpt lat="42.774209798811874" lon="13.012971266868183"><ele>529.0</ele><time>2026-04-04T12:16:02Z</time></trkpt><trkpt lat="42.77426586526907" lon="13.013190561400668"><ele>532.3333333333334</ele><time>2026-04-04T12:16:03Z</time></trkpt><trkpt lat="42.774320502238325" lon="13.013410748233614"><ele>535.6666666666666</ele><time>2026-04-04T12:16:04Z</time></trkpt><trkpt lat="42.77438949076144" lon="13.013621776207252"><ele>539.0</ele><time>2026-04-04T12:16:05Z</time></trkpt><trkpt lat="42.77448594601495" lon="13.01382431803567"><ele>532.0</ele><time>2026-04-04T12:16:06Z</time></trkpt><trkpt lat="42.7745861228634" lon="13.01405309144135"><ele>525.0</ele><time>2026-04-04T12:16:07Z</time></trkpt><trkpt lat="42.774730960974374" lon="13.01432150610929"><ele>518.0</ele><time>2026-04-04T12:16:08Z</time></trkpt><trkpt lat="42.77489139091757" lon="13.014611535153993"><ele>518.0</ele><time>2026-04-04T12:16:09Z</time></trkpt><trkpt lat="42.77504754247633" lon="13.014919351352376"><ele>518.0</ele><time>2026-04-04T12:16:10Z</time></trkpt><trkpt lat="42.77516490712461" lon="13.015193010526248"><ele>516.5</ele><time>2026-04-04T12:16:11Z</time></trkpt><trkpt lat="42.775269793752386" lon="13.01544464932285"><ele>515.0</ele><time>2026-04-04T12:16:12Z</time></trkpt><trkpt lat="42.77539048836739" lon="13.015725956262681"><ele>515.3333333333333</ele><time>2026-04-04T12:16:13Z</time></trkpt><trkpt lat="42.77550342552169" lon="13.01598290336617"><ele>515.6666666666666</ele><time>2026-04-04T12:16:14Z</time></trkpt><trkpt lat="42.77562482737586" lon="13.016172396727065"><ele>516.0</ele><time>2026-04-04T12:16:15Z</time></trkpt><trkpt lat="42.775744823768036" lon="13.016324488461168"><ele>516.0</ele><time>2026-04-04T12:16:16Z</time></trkpt><trkpt lat="42.77589188087867" lon="13.016434278450847"><ele>516.0</ele><time>2026-04-04T12:16:17Z</time></trkpt><trkpt lat="42.776060903553024" lon="13.016509632694508"><ele>516.0</ele><time>2026-04-04T12:16:18Z</time></trkpt><trkpt lat="42.77624132512208" lon="13.016565043004567"><ele>515.3333333333334</ele><time>2026-04-04T12:16:19Z</time></trkpt><trkpt lat="42.77644127150853" lon="13.016580595124651"><ele>514.6666666666667</ele><time>2026-04-04T12:16:20Z</time></trkpt><trkpt lat="42.776619023973424" lon="13.016578073334964"><ele>514.0</ele><time>2026-04-04T12:16:21Z</time></trkpt><trkpt lat="42.776758217148725" lon="13.016567041381002"><ele>514.0</ele><time>2026-04-04T12:16:22Z</time></trkpt><trkpt lat="42.77688274575716" lon="13.016547213020132"><ele>514.0</ele><time>2026-04-04T12:16:23Z</time></trkpt><trkpt lat="42.77699706997604" lon="13.016524187993767"><ele>514.0</ele><time>2026-04-04T12:16:24Z</time></trkpt><trkpt lat="42.78574496544106" lon="13.022848592800129"><ele>515.6666666666667</ele><time>2026-04-04T12:17:25Z</time></trkpt><trkpt lat="42.78574304706869" lon="13.023034063028721"><ele>517.3333333333334</ele><time>2026-04-04T12:17:26Z</time></trkpt><trkpt lat="42.785739875455306" lon="13.023274048939863"><ele>519.0</ele><time>2026-04-04T12:17:27Z</time></trkpt><trkpt lat="42.78575278795116" lon="13.023538005834466"><ele>519.5</ele><time>2026-04-04T12:17:28Z</time></trkpt><trkpt lat="42.78573366656474" lon="13.023768673609318"><ele>520.0</ele><time>2026-04-04T12:17:29Z</time></trkpt><trkpt lat="42.785736127927265" lon="13.023948410402136"><ele>520.5</ele><time>2026-04-04T12:17:30Z</time></trkpt><trkpt lat="42.78574075367639" lon="13.024106682970581"><ele>521.0</ele><time>2026-04-04T12:17:31Z</time></trkpt><trkpt lat="42.785745239986" lon="13.02426018457074"><ele>521.0</ele><time>2026-04-04T12:17:32Z</time></trkpt><trkpt lat="42.78574957129435" lon="13.024408382741996"><ele>521.0</ele><time>2026-04-04T12:17:33Z</time></trkpt><trkpt lat="42.78576578464148" lon="13.024547603552593"><ele>521.0</ele><time>2026-04-04T12:17:34Z</time></trkpt><trkpt lat="42.78576449800781" lon="13.024685406118053"><ele>521.0</ele><time>2026-04-04T12:17:35Z</time></trkpt><trkpt lat="42.78576082297678" lon="13.024780009078842"><ele>521.0</ele><time>2026-04-04T12:17:36Z</time></trkpt><trkpt lat="42.78573129501779" lon="13.024935711264856"><ele>521.0</ele><time>2026-04-04T12:17:38Z</time></trkpt><trkpt lat="42.78570380830437" lon="13.025023016619373"><ele>514.0</ele><time>2026-04-04T12:17:41Z</time></trkpt><trkpt lat="42.7857483933086" lon="13.025121791964061"><ele>514.0</ele><time>2026-04-04T12:17:44Z</time></trkpt><trkpt lat="42.78575519121831" lon="13.02521032776163"><ele>514.0</ele><time>2026-04-04T12:17:49Z</time></trkpt><trkpt lat="42.78564412573392" lon="13.025205153184059"><ele>514.0</ele><time>2026-04-04T12:20:12Z</time></trkpt></trkseg><trkseg><trkpt lat="42.7856440328823" lon="13.02510431741543"><ele>515.75</ele><time>2026-04-04T13:07:13Z</time></trkpt><trkpt lat="42.78565529201661" lon="13.02495155440163"><ele>517.5</ele><time>2026-04-04T13:07:15Z</time></trkpt><trkpt lat="42.785653148941456" lon="13.02474198545743"><ele>519.25</ele><time>2026-04-04T13:07:17Z</time></trkpt><trkpt lat="42.785663788998036" lon="13.024619814551986"><ele>521.0</ele><time>2026-04-04T13:07:19Z</time></trkpt><trkpt lat="42.78572146428918" lon="13.024500497587619"><ele>521.0</ele><time>2026-04-04T13:07:21Z</time></trkpt><trkpt lat="42.7857482867452" lon="13.024395211602736"><ele>521.0</ele><time>2026-04-04T13:07:22Z</time></trkpt><trkpt lat="42.785767033013144" lon="13.024251196230633"><ele>521.0</ele><time>2026-04-04T13:07:23Z</time></trkpt><trkpt lat="42.785767399186994" lon="13.02407698031751"><ele>521.0</ele><time>2026-04-04T13:07:24Z</time></trkpt><trkpt lat="42.78575478604397" lon="13.023892403150253"><ele>521.25</ele><time>2026-04-04T13:07:25Z</time></trkpt><trkpt lat="42.78575153061913" lon="13.023729460789182"><ele>521.5</ele><time>2026-04-04T13:07:26Z</time></trkpt><trkpt lat="42.78575917799543" lon="13.023565782035082"><ele>521.75</ele><time>2026-04-04T13:07:27Z</time></trkpt><trkpt lat="42.78576628924178" lon="13.023396913269735"><ele>522.0</ele><time>2026-04-04T13:07:28Z</time></trkpt><trkpt lat="42.78576649522085" lon="13.023232941497481"><ele>521.4</ele><time>2026-04-04T13:07:29Z</time></trkpt><trkpt lat="42.78576746564686" lon="13.023107333913027"><ele>520.8000000000001</ele><time>2026-04-04T13:07:30Z</time></trkpt><trkpt lat="42.78576529354562" lon="13.022984444077997"><ele>520.2</ele><time>2026-04-04T13:07:31Z</time></trkpt><trkpt lat="42.785784881718136" lon="13.022865960973364"><ele>519.6</ele><time>2026-04-04T13:07:32Z</time></trkpt><trkpt lat="42.78577584295653" lon="13.02271017780936"><ele>519.0</ele><time>2026-04-04T13:07:33Z</time></trkpt><trkpt lat="42.78576487573975" lon="13.022537763660175"><ele>519.0</ele><time>2026-04-04T13:07:34Z</time></trkpt><trkpt lat="42.78574680724231" lon="13.022373219998222"><ele>519.0</ele><time>2026-04-04T13:07:35Z</time></trkpt><trkpt lat="42.78572233897005" lon="13.022160749298493"><ele>519.0</ele><time>2026-04-04T13:07:36Z</time></trkpt><trkpt lat="42.78570732201933" lon="13.0219775225326"><ele>519.0</ele><time>2026-04-04T13:07:37Z</time></trkpt><trkpt lat="42.78569215427127" lon="13.021790206064582"><ele>516.5</ele><time>2026-04-04T13:07:38Z</time></trkpt><trkpt lat="42.78567624101283" lon="13.021603325637482"><ele>514.0</ele><time>2026-04-04T13:07:39Z</time></trkpt><trkpt lat="42.78566822232089" lon="13.021414600145093"><ele>511.5</ele><time>2026-04-04T13:07:40Z</time></trkpt><trkpt lat="42.78567492094071" lon="13.021237866191136"><ele>509.0</ele><time>2026-04-04T13:07:41Z</time></trkpt><trkpt lat="42.785753750269016" lon="13.021076591071218"><ele>509.0</ele><time>2026-04-04T13:07:42Z</time></trkpt><trkpt lat="42.78584676737967" lon="13.020922856795236"><ele>509.0</ele><time>2026-04-04T13:07:43Z</time></trkpt><trkpt lat="42.78596184320786" lon="13.020799963800522"><ele>509.0</ele><time>2026-04-04T13:07:44Z</time></trkpt><trkpt lat="42.78607490345333" lon="13.020665449972356"><ele>509.0</ele><time>2026-04-04T13:07:45Z</time></trkpt><trkpt lat="42.78618082642323" lon="13.02054344846105"><ele>507.5</ele><time>2026-04-04T13:07:46Z</time></trkpt><trkpt lat="42.78627586261712" lon="13.020489530105692"><ele>506.0</ele><time>2026-04-04T13:07:47Z</time></trkpt><trkpt lat="42.78640954898039" lon="13.020480821807517"><ele>504.5</ele><time>2026-04-04T13:07:48Z</time></trkpt><trkpt lat="42.786569989540546" lon="13.020504177143087"><ele>503.0</ele><time>2026-04-04T13:07:49Z</time></trkpt><trkpt lat="42.786736958099524" lon="13.020558404671712"><ele>502.3333333333333</ele><time>2026-04-04T13:07:50Z</time></trkpt><trkpt lat="42.78689577773026" lon="13.020557105374262"><ele>501.66666666666663</ele><time>2026-04-04T13:07:51Z</time></trkpt><trkpt lat="42.78705395274708" lon="13.020560927389164"><ele>501.0</ele><time>2026-04-04T13:07:52Z</time></trkpt><trkpt lat="42.78721995776976" lon="13.0205825076544"><ele>501.0</ele><time>2026-04-04T13:07:53Z</time></trkpt><trkpt lat="42.787398451936625" lon="13.020576658140158"><ele>501.0</ele><time>2026-04-04T13:07:54Z</time></trkpt><trkpt lat="42.787574194495214" lon="13.02055458943963"><ele>501.0</ele><time>2026-04-04T13:07:55Z</time></trkpt><trkpt lat="42.787744799864235" lon="13.020487437478856"><ele>500.66666666666663</ele><time>2026-04-04T13:07:56Z</time></trkpt><trkpt lat="42.78792100079427" lon="13.020446686384247"><ele>500.3333333333333</ele><time>2026-04-04T13:07:57Z</time></trkpt><trkpt lat="42.78807134240037" lon="13.020410946031712"><ele>500.0</ele><time>2026-04-04T13:07:58Z</time></trkpt><trkpt lat="42.78822057244569" lon="13.020386657352686"><ele>500.0</ele><time>2026-04-04T13:07:59Z</time></trkpt><trkpt lat="42.7883685466107" lon="13.02036275010263"><ele>500.0</ele><time>2026-04-04T13:08:00Z</time></trkpt><trkpt lat="42.78851553987346" lon="13.020325245354432"><ele>500.0</ele><time>2026-04-04T13:08:01Z</time></trkpt><trkpt lat="42.78866548380709" lon="13.02026375612481"><ele>505.0</ele><time>2026-04-04T13:08:02Z</time></trkpt><trkpt lat="42.78880650569071" lon="13.020129892126262"><ele>510.0</ele><time>2026-04-04T13:08:03Z</time></trkpt><trkpt lat="42.788943272963714" lon="13.019963193919283"><ele>515.0</ele><time>2026-04-04T13:08:04Z</time></trkpt><trkpt lat="42.78906481131015" lon="13.019789575779201"><ele>515.0</ele><time>2026-04-04T13:08:05Z</time></trkpt><trkpt lat="42.78914009994936" lon="13.01957261972185"><ele>515.0</ele><time>2026-04-04T13:08:06Z</time></trkpt><trkpt lat="42.7892002248323" lon="13.019339940114518"><ele>515.0</ele><time>2026-04-04T13:08:07Z</time></trkpt><trkpt lat="42.78921874647574" lon="13.019107385526002"><ele>514.6666666666666</ele><time>2026-04-04T13:08:08Z</time></trkpt><trkpt lat="42.7892066449399" lon="13.018856838543288"><ele>514.3333333333334</ele><time>2026-04-04T13:08:09Z</time></trkpt><trkpt lat="42.78916701537076" lon="13.01862133043994"><ele>514.0</ele><time>2026-04-04T13:08:10Z</time></trkpt><trkpt lat="42.789116082489784" lon="13.018379450654109"><ele>512.5</ele><time>2026-04-04T13:08:11Z</time></trkpt><trkpt lat="42.78907624918318" lon="13.018166936951006"><ele>511.0</ele><time>2026-04-04T13:08:12Z</time></trkpt><trkpt lat="42.7890439866184" lon="13.017978050357213"><ele>509.5</ele><time>2026-04-04T13:08:13Z</time></trkpt><trkpt lat="42.78900788677109" lon="13.017797461904928"><ele>508.0</ele><time>2026-04-04T13:08:14Z</time></trkpt><trkpt lat="42.78895361923958" lon="13.017629890646656"><ele>506.79999999999995</ele><time>2026-04-04T13:08:15Z</time></trkpt><trkpt lat="42.788927938622116" lon="13.017465818087672"><ele>505.59999999999997</ele><time>2026-04-04T13:08:16Z</time></trkpt><trkpt lat="42.788904102857344" lon="13.017323090745949"><ele>504.40000000000003</ele><time>2026-04-04T13:08:17Z</time></trkpt><trkpt lat="42.788893527343404" lon="13.017181621366865"><ele>503.20000000000005</ele><time>2026-04-04T13:08:18Z</time></trkpt><trkpt lat="42.788890312354" lon="13.017054163898397"><ele>502.0</ele><time>2026-04-04T13:08:19Z</time></trkpt><trkpt lat="42.788886315151636" lon="13.016937301573757"><ele>502.00000000000006</ele><time>2026-04-04T13:08:20Z</time></trkpt><trkpt lat="42.78888606852179" lon="13.01680689473854"><ele>502.0</ele><time>2026-04-04T13:08:21Z</time></trkpt><trkpt lat="42.78888996672821" lon="13.016660908921356"><ele>502.0</ele><time>2026-04-04T13:08:22Z</time></trkpt><trkpt lat="42.78889946776367" lon="13.016541437312334"><ele>502.0</ele><time>2026-04-04T13:08:23Z</time></trkpt><trkpt lat="42.78891279009038" lon="13.016444450521977"><ele>502.00000000000006</ele><time>2026-04-04T13:08:24Z</time></trkpt><trkpt lat="42.78892715920719" lon="13.016359718652476"><ele>502.0</ele><time>2026-04-04T13:08:25Z</time></trkpt><trkpt lat="42.78894269312469" lon="13.016273069053737"><ele>501.25</ele><time>2026-04-04T13:08:26Z</time></trkpt><trkpt lat="42.78895226187658" lon="13.016150195232571"><ele>500.5</ele><time>2026-04-04T13:08:28Z</time></trkpt><trkpt lat="42.788999396463055" lon="13.016078613176058"><ele>499.75</ele><time>2026-04-04T13:08:37Z</time></trkpt><trkpt lat="42.78886734583201" lon="13.016290731458458"><ele>499.0</ele><time>2026-04-04T13:08:50Z</time></trkpt><trkpt lat="42.788844159774435" lon="13.016519129881518"><ele>499.6</ele><time>2026-04-04T13:08:51Z</time></trkpt><trkpt lat="42.788833476851515" lon="13.016701520154431"><ele>500.2</ele><time>2026-04-04T13:08:52Z</time></trkpt><trkpt lat="42.788831299601725" lon="13.016820009387535"><ele>500.80000000000007</ele><time>2026-04-04T13:08:53Z</time></trkpt><trkpt lat="42.78883860403412" lon="13.01691688154822"><ele>501.40000000000003</ele><time>2026-04-04T13:08:54Z</time></trkpt><trkpt lat="42.788855800684416" lon="13.017019909662867"><ele>502.0</ele><time>2026-04-04T13:08:56Z</time></trkpt><trkpt lat="42.78899201671792" lon="13.016915748472732"><ele>502.00000000000006</ele><time>2026-04-04T13:08:59Z</time></trkpt><trkpt lat="42.789032617799094" lon="13.016764866506348"><ele>502.0</ele><time>2026-04-04T13:09:01Z</time></trkpt><trkpt lat="42.78910003392619" lon="13.016712573227933"><ele>502.0</ele><time>2026-04-04T13:09:26Z</time></trkpt><trkpt lat="42.78916634762736" lon="13.016717485009348"><ele>502.0</ele><time>2026-04-04T13:09:38Z</time></trkpt><trkpt lat="42.789246525881566" lon="13.016747066025834"><ele>502.00000000000006</ele><time>2026-04-04T13:09:47Z</time></trkpt><trkpt lat="42.78932800575092" lon="13.016749832362732"><ele>502.0</ele><time>2026-04-04T13:09:51Z</time></trkpt><trkpt lat="42.78943367337812" lon="13.016818215950162"><ele>504.00000000000006</ele><time>2026-04-04T13:09:55Z</time></trkpt><trkpt lat="42.78948010414693" lon="13.016878032889611"><ele>506.0</ele><time>2026-04-04T13:09:56Z</time></trkpt><trkpt lat="42.78954600575968" lon="13.01693397475847"><ele>508.0</ele><time>2026-04-04T13:09:58Z</time></trkpt><trkpt lat="42.7896053997015" lon="13.016966005580432"><ele>510.0</ele><time>2026-04-04T13:10:39Z</time></trkpt><trkpt lat="42.78965664234077" lon="13.017051846740198"><ele>512.0</ele><time>2026-04-04T13:10:42Z</time></trkpt><trkpt lat="42.789782191365106" lon="13.01710424834115"><ele>514.0</ele><time>2026-04-04T13:10:44Z</time></trkpt><trkpt lat="42.789859890357775" lon="13.017109176213827"><ele>514.0</ele><time>2026-04-04T13:10:45Z</time></trkpt><trkpt lat="42.78998006220634" lon="13.017105843201861"><ele>514.0</ele><time>2026-04-04T13:10:47Z</time></trkpt><trkpt lat="42.79004452487751" lon="13.017120857002048"><ele>514.0</ele><time>2026-04-04T13:10:49Z</time></trkpt><trkpt lat="42.79010828314562" lon="13.017232703333912"><ele>514.0</ele><time>2026-04-04T13:10:51Z</time></trkpt><trkpt lat="42.790161614056274" lon="13.017292050636618"><ele>514.0</ele><time>2026-04-04T13:10:52Z</time></trkpt><trkpt lat="42.7902128834457" lon="13.017389157610092"><ele>514.0</ele><time>2026-04-04T13:10:54Z</time></trkpt><trkpt lat="42.790272930954565" lon="13.017472512484028"><ele>519.2</ele><time>2026-04-04T13:10:55Z</time></trkpt><trkpt lat="42.79032751102503" lon="13.01752813625814"><ele>524.4</ele><time>2026-04-04T13:10:56Z</time></trkpt><trkpt lat="42.790422495390764" lon="13.017550912897345"><ele>529.6</ele><time>2026-04-04T13:10:58Z</time></trkpt><trkpt lat="42.79053569215668" lon="13.01761155577927"><ele>534.8</ele><time>2026-04-04T13:11:00Z</time></trkpt><trkpt lat="42.79060981734973" lon="13.01766492462122"><ele>540.0</ele><time>2026-04-04T13:11:02Z</time></trkpt><trkpt lat="42.7904965685902" lon="13.017617279142524"><ele>540.0</ele><time>2026-04-04T13:11:20Z</time></trkpt><trkpt lat="42.79043916015904" lon="13.017551652138632"><ele>540.0</ele><time>2026-04-04T13:11:21Z</time></trkpt><trkpt lat="42.790338253297506" lon="13.017521608014063"><ele>540.0</ele><time>2026-04-04T13:11:23Z</time></trkpt><trkpt lat="42.790204245786015" lon="13.017447958766187"><ele>540.0</ele><time>2026-04-04T13:11:25Z</time></trkpt><trkpt lat="42.790118945321026" lon="13.017397382390898"><ele>540.0</ele><time>2026-04-04T13:11:26Z</time></trkpt><trkpt lat="42.79004640653658" lon="13.017363504224724"><ele>534.8</ele><time>2026-04-04T13:11:27Z</time></trkpt><trkpt lat="42.78998609841722" lon="13.017326582722532"><ele>529.6</ele><time>2026-04-04T13:11:28Z</time></trkpt><trkpt lat="42.78991431453957" lon="13.01729602256632"><ele>524.4</ele><time>2026-04-04T13:11:29Z</time></trkpt><trkpt lat="42.78977646806911" lon="13.017200141627214"><ele>519.2</ele><time>2026-04-04T13:11:31Z</time></trkpt><trkpt lat="42.789679786972144" lon="13.017116344830798"><ele>514.0</ele><time>2026-04-04T13:11:33Z</time></trkpt><trkpt lat="42.78960269897088" lon="13.017054577630226"><ele>514.0</ele><time>2026-04-04T13:11:35Z</time></trkpt><trkpt lat="42.78964085657227" lon="13.016984129308048"><ele>514.0</ele><time>2026-04-04T13:11:44Z</time></trkpt><trkpt lat="42.789704548350905" lon="13.017004693300954"><ele>514.0</ele><time>2026-04-04T13:11:48Z</time></trkpt><trkpt lat="42.78978285869687" lon="13.017012384896601"><ele>514.0</ele><time>2026-04-04T13:11:52Z</time></trkpt><trkpt lat="42.78987523392665" lon="13.017017322745822"><ele>514.0</ele><time>2026-04-04T13:11:54Z</time></trkpt><trkpt lat="42.78996338185985" lon="13.017011097423486"><ele>514.0</ele><time>2026-04-04T13:11:56Z</time></trkpt><trkpt lat="42.790051485119314" lon="13.017031541100483"><ele>514.0</ele><time>2026-04-04T13:11:58Z</time></trkpt><trkpt lat="42.79014315887938" lon="13.017065845269196"><ele>514.0</ele><time>2026-04-04T13:12:00Z</time></trkpt><trkpt lat="42.79023104648253" lon="13.017164437475577"><ele>514.0</ele><time>2026-04-04T13:12:02Z</time></trkpt><trkpt lat="42.79027917092333" lon="13.017223894111442"><ele>514.0</ele><time>2026-04-04T13:12:03Z</time></trkpt><trkpt lat="42.790348074370534" lon="13.01729082855732"><ele>514.0</ele><time>2026-04-04T13:12:05Z</time></trkpt><trkpt lat="42.790414776517615" lon="13.017340051920245"><ele>514.0</ele><time>2026-04-04T13:12:08Z</time></trkpt><trkpt lat="42.79049207122124" lon="13.017364828071559"><ele>517.3333333333334</ele><time>2026-04-04T13:12:10Z</time></trkpt><trkpt lat="42.79056699212913" lon="13.017356162670387"><ele>520.6666666666667</ele><time>2026-04-04T13:12:13Z</time></trkpt><trkpt lat="42.790609220630934" lon="13.017250039546438"><ele>524.0</ele><time>2026-04-04T13:12:16Z</time></trkpt><trkpt lat="42.79069672056469" lon="13.0172618985102"><ele>527.3333333333334</ele><time>2026-04-04T13:12:18Z</time></trkpt><trkpt lat="42.790773019460026" lon="13.01724519689809"><ele>530.6666666666666</ele><time>2026-04-04T13:12:19Z</time></trkpt><trkpt lat="42.79086113061104" lon="13.017243210479402"><ele>534.0</ele><time>2026-04-04T13:12:21Z</time></trkpt><trkpt lat="42.79098489948183" lon="13.017286546342339"><ele>541.5</ele><time>2026-04-04T13:12:23Z</time></trkpt><trkpt lat="42.79109401751722" lon="13.017320304961821"><ele>549.0</ele><time>2026-04-04T13:12:25Z</time></trkpt><trkpt lat="42.79118464838743" lon="13.017355186788455"><ele>556.5</ele><time>2026-04-04T13:12:27Z</time></trkpt><trkpt lat="42.79127363735612" lon="13.017334839909555"><ele>564.0</ele><time>2026-04-04T13:12:29Z</time></trkpt><trkpt lat="42.79134552716801" lon="13.017340048497188"><ele>571.5</ele><time>2026-04-04T13:12:30Z</time></trkpt><trkpt lat="42.79141982945913" lon="13.01729582061903"><ele>579.0</ele><time>2026-04-04T13:13:12Z</time></trkpt><trkpt lat="42.791494844315146" lon="13.017246547256873"><ele>579.0</ele><time>2026-04-04T13:13:15Z</time></trkpt><trkpt lat="42.79150891289281" lon="13.017121077016693"><ele>579.0</ele><time>2026-04-04T13:13:17Z</time></trkpt><trkpt lat="42.79153236169553" lon="13.016992488192777"><ele>579.0</ele><time>2026-04-04T13:13:19Z</time></trkpt><trkpt lat="42.79152845349147" lon="13.016904025290692"><ele>579.0</ele><time>2026-04-04T13:13:21Z</time></trkpt><trkpt lat="42.79149821350043" lon="13.01681628346338"><ele>579.0</ele><time>2026-04-04T13:13:39Z</time></trkpt><trkpt lat="42.79147717277828" lon="13.016721201550364"><ele>579.0</ele><time>2026-04-04T13:13:53Z</time></trkpt><trkpt lat="42.791489178601104" lon="13.016627947502998"><ele>577.8333333333334</ele><time>2026-04-04T13:13:57Z</time></trkpt><trkpt lat="42.79147126025153" lon="13.016502737755092"><ele>576.6666666666666</ele><time>2026-04-04T13:14:00Z</time></trkpt><trkpt lat="42.79144630318833" lon="13.016416363293215"><ele>575.5</ele><time>2026-04-04T13:14:02Z</time></trkpt><trkpt lat="42.7913910029613" lon="13.01632876825104"><ele>574.3333333333333</ele><time>2026-04-04T13:14:04Z</time></trkpt><trkpt lat="42.7913763521149" lon="13.01619470532744"><ele>573.1666666666666</ele><time>2026-04-04T13:14:06Z</time></trkpt><trkpt lat="42.79137480753317" lon="13.016101379486305"><ele>572.0</ele><time>2026-04-04T13:14:08Z</time></trkpt><trkpt lat="42.79138012413213" lon="13.015986666909338"><ele>572.0</ele><time>2026-04-04T13:14:15Z</time></trkpt><trkpt lat="42.791419281988425" lon="13.015890491577604"><ele>572.0</ele><time>2026-04-04T13:14:17Z</time></trkpt><trkpt lat="42.79143974539361" lon="13.015806709414115"><ele>572.0</ele><time>2026-04-04T13:14:19Z</time></trkpt><trkpt lat="42.79150360193293" lon="13.015758653406682"><ele>572.0</ele><time>2026-04-04T13:14:21Z</time></trkpt><trkpt lat="42.79156785737361" lon="13.015746029160402"><ele>572.0</ele><time>2026-04-04T13:14:40Z</time></trkpt><trkpt lat="42.79165077895614" lon="13.01576466878862"><ele>572.0</ele><time>2026-04-04T13:15:16Z</time></trkpt><trkpt lat="42.79173620873954" lon="13.015732688310418"><ele>572.0</ele><time>2026-04-04T13:15:20Z</time></trkpt><trkpt lat="42.79179949052432" lon="13.015745642653787"><ele>572.0</ele><time>2026-04-04T13:15:22Z</time></trkpt><trkpt lat="42.79187180020039" lon="13.015772741056246"><ele>572.0</ele><time>2026-04-04T13:15:25Z</time></trkpt><trkpt lat="42.79191960744493" lon="13.015705431535691"><ele>572.0</ele><time>2026-04-04T13:16:02Z</time></trkpt><trkpt lat="42.79192970982669" lon="13.015809109587583"><ele>572.0</ele><time>2026-04-04T13:16:09Z</time></trkpt><trkpt lat="42.791869621804146" lon="13.015891201188092"><ele>572.0</ele><time>2026-04-04T13:16:11Z</time></trkpt><trkpt lat="42.7918107723994" lon="13.015968771085431"><ele>577.0</ele><time>2026-04-04T13:16:13Z</time></trkpt><trkpt lat="42.791883035827055" lon="13.015977657486838"><ele>582.0</ele><time>2026-04-04T13:16:17Z</time></trkpt><trkpt lat="42.79196024171585" lon="13.015934211028371"><ele>587.0</ele><time>2026-04-04T13:16:19Z</time></trkpt><trkpt lat="42.79206921256707" lon="13.015885420934984"><ele>592.0</ele><time>2026-04-04T13:16:21Z</time></trkpt><trkpt lat="42.792128644948846" lon="13.015831869730082"><ele>597.0</ele><time>2026-04-04T13:16:24Z</time></trkpt><trkpt lat="42.79220286412825" lon="13.015771557570531"><ele>602.0</ele><time>2026-04-04T13:16:26Z</time></trkpt><trkpt lat="42.79227587032865" lon="13.015733027550462"><ele>602.0</ele><time>2026-04-04T13:19:12Z</time></trkpt><trkpt lat="42.79232863770637" lon="13.015668344727015"><ele>602.0</ele><time>2026-04-04T13:19:42Z</time></trkpt><trkpt lat="42.79240171974384" lon="13.015627439661834"><ele>602.0</ele><time>2026-04-04T13:22:42Z</time></trkpt><trkpt lat="42.792326160659805" lon="13.01572128472428"><ele>602.0</ele><time>2026-04-04T13:32:21Z</time></trkpt><trkpt lat="42.79226265316917" lon="13.015753321286706"><ele>602.0</ele><time>2026-04-04T13:32:39Z</time></trkpt><trkpt lat="42.79219828309937" lon="13.01581324112065"><ele>602.0</ele><time>2026-04-04T13:32:42Z</time></trkpt><trkpt lat="42.79213469042009" lon="13.015858526809415"><ele>605.5</ele><time>2026-04-04T13:32:44Z</time></trkpt><trkpt lat="42.792070531703125" lon="13.015916059549822"><ele>609.0</ele><time>2026-04-04T13:32:46Z</time></trkpt><trkpt lat="42.79199828850683" lon="13.015926044995895"><ele>612.5</ele><time>2026-04-04T13:32:48Z</time></trkpt><trkpt lat="42.79191407570451" lon="13.01596707664371"><ele>616.0</ele><time>2026-04-04T13:32:50Z</time></trkpt><trkpt lat="42.79184762824725" lon="13.016010176954891"><ele>619.5</ele><time>2026-04-04T13:32:52Z</time></trkpt><trkpt lat="42.79183613892454" lon="13.015920829822026"><ele>623.0</ele><time>2026-04-04T13:32:56Z</time></trkpt><trkpt lat="42.79190887671275" lon="13.015863706964284"><ele>620.0</ele><time>2026-04-04T13:32:58Z</time></trkpt><trkpt lat="42.79195717035144" lon="13.015804711378218"><ele>617.0</ele><time>2026-04-04T13:33:00Z</time></trkpt><trkpt lat="42.79196978242708" lon="13.015715570482014"><ele>614.0</ele><time>2026-04-04T13:33:05Z</time></trkpt><trkpt lat="42.79188978555609" lon="13.015766022725522"><ele>611.0</ele><time>2026-04-04T13:33:08Z</time></trkpt><trkpt lat="42.79180670231839" lon="13.015744325339856"><ele>608.0</ele><time>2026-04-04T13:33:12Z</time></trkpt><trkpt lat="42.79174037280935" lon="13.015761458607555"><ele>605.0</ele><time>2026-04-04T13:33:15Z</time></trkpt><trkpt lat="42.791670705246524" lon="13.015771158259195"><ele>602.0</ele><time>2026-04-04T13:33:18Z</time></trkpt><trkpt lat="42.79160640731107" lon="13.015766828542226"><ele>597.7142857142857</ele><time>2026-04-04T13:33:21Z</time></trkpt><trkpt lat="42.79153643577213" lon="13.01576639912717"><ele>593.4285714285714</ele><time>2026-04-04T13:33:24Z</time></trkpt><trkpt lat="42.79145989268524" lon="13.015844374423986"><ele>589.1428571428571</ele><time>2026-04-04T13:33:28Z</time></trkpt><trkpt lat="42.791424016629286" lon="13.015937263070153"><ele>584.8571428571429</ele><time>2026-04-04T13:33:32Z</time></trkpt><trkpt lat="42.79138659006929" lon="13.016008052567367"><ele>580.5714285714286</ele><time>2026-04-04T13:33:35Z</time></trkpt><trkpt lat="42.791392941363796" lon="13.016110264518726"><ele>576.2857142857142</ele><time>2026-04-04T13:33:38Z</time></trkpt><trkpt lat="42.79140970361658" lon="13.016195237790471"><ele>572.0</ele><time>2026-04-04T13:33:41Z</time></trkpt><trkpt lat="42.79140879989875" lon="13.016288750634784"><ele>571.9999999999999</ele><time>2026-04-04T13:33:43Z</time></trkpt><trkpt lat="42.79143767679748" lon="13.016366383132326"><ele>572.0</ele><time>2026-04-04T13:33:46Z</time></trkpt><trkpt lat="42.7914749623094" lon="13.016438084780587"><ele>572.0</ele><time>2026-04-04T13:33:51Z</time></trkpt><trkpt lat="42.79149635781504" lon="13.016523592947769"><ele>572.0</ele><time>2026-04-04T13:33:58Z</time></trkpt><trkpt lat="42.791516095117636" lon="13.016614066977306"><ele>572.0</ele><time>2026-04-04T13:34:01Z</time></trkpt><trkpt lat="42.79150261877881" lon="13.016730142043485"><ele>571.9999999999999</ele><time>2026-04-04T13:34:04Z</time></trkpt><trkpt lat="42.791506808193105" lon="13.0168218396428"><ele>572.0</ele><time>2026-04-04T13:34:07Z</time></trkpt><trkpt lat="42.79153841644886" lon="13.016932893745453"><ele>573.1666666666666</ele><time>2026-04-04T13:34:11Z</time></trkpt><trkpt lat="42.791509729258756" lon="13.017029619665903"><ele>574.3333333333333</ele><time>2026-04-04T13:34:13Z</time></trkpt><trkpt lat="42.79150093632817" lon="13.017118219053794"><ele>575.5</ele><time>2026-04-04T13:34:15Z</time></trkpt><trkpt lat="42.791484591409336" lon="13.017229648199464"><ele>576.6666666666666</ele><time>2026-04-04T13:34:17Z</time></trkpt><trkpt lat="42.791454285751826" lon="13.017323147607856"><ele>577.8333333333334</ele><time>2026-04-04T13:34:19Z</time></trkpt><trkpt lat="42.7913733064617" lon="13.01732341573856"><ele>579.0</ele><time>2026-04-04T13:34:28Z</time></trkpt><trkpt lat="42.79130035750106" lon="13.017339624463279"><ele>579.0</ele><time>2026-04-04T13:34:30Z</time></trkpt><trkpt lat="42.791196349666706" lon="13.01732321053578"><ele>579.0</ele><time>2026-04-04T13:34:32Z</time></trkpt><trkpt lat="42.79111867146693" lon="13.017333897126152"><ele>579.0</ele><time>2026-04-04T13:34:34Z</time></trkpt><trkpt lat="42.791048083134385" lon="13.01729053098349"><ele>579.0</ele><time>2026-04-04T13:34:36Z</time></trkpt><trkpt lat="42.79094974196532" lon="13.017271146544275"><ele>579.0</ele><time>2026-04-04T13:34:38Z</time></trkpt><trkpt lat="42.790842419467545" lon="13.017246119385446"><ele>571.5</ele><time>2026-04-04T13:34:40Z</time></trkpt><trkpt lat="42.79075987976676" lon="13.017253105902961"><ele>564.0</ele><time>2026-04-04T13:34:42Z</time></trkpt><trkpt lat="42.79066628944938" lon="13.017275177086509"><ele>556.5</ele><time>2026-04-04T13:34:44Z</time></trkpt><trkpt lat="42.79060321140266" lon="13.017325613860695"><ele>549.0</ele><time>2026-04-04T13:34:47Z</time></trkpt><trkpt lat="42.790516197915856" lon="13.017377133708038"><ele>541.5</ele><time>2026-04-04T13:34:52Z</time></trkpt><trkpt lat="42.790452453237094" lon="13.01736335255375"><ele>534.0</ele><time>2026-04-04T13:34:54Z</time></trkpt><trkpt lat="42.79039218526987" lon="13.017331556051017"><ele>534.0</ele><time>2026-04-04T13:34:56Z</time></trkpt><trkpt lat="42.79033727133674" lon="13.017271778499506"><ele>534.0</ele><time>2026-04-04T13:34:59Z</time></trkpt><trkpt lat="42.79027502125692" lon="13.01721757653387"><ele>534.0</ele><time>2026-04-04T13:35:01Z</time></trkpt><trkpt lat="42.79021599814184" lon="13.017135247689618"><ele>534.0</ele><time>2026-04-04T13:35:03Z</time></trkpt><trkpt lat="42.790153530881376" lon="13.017066031129735"><ele>534.0</ele><time>2026-04-04T13:35:05Z</time></trkpt><trkpt lat="42.79007811087066" lon="13.017034529360966"><ele>534.0</ele><time>2026-04-04T13:35:07Z</time></trkpt><trkpt lat="42.78998716168967" lon="13.017026177203704"><ele>530.6666666666666</ele><time>2026-04-04T13:35:09Z</time></trkpt><trkpt lat="42.78990760478535" lon="13.017019887261124"><ele>527.3333333333334</ele><time>2026-04-04T13:35:11Z</time></trkpt><trkpt lat="42.78982109900087" lon="13.017023874409967"><ele>524.0</ele><time>2026-04-04T13:35:13Z</time></trkpt><trkpt lat="42.7897530194566" lon="13.017009706742389"><ele>520.6666666666667</ele><time>2026-04-04T13:35:15Z</time></trkpt><trkpt lat="42.78968599948472" lon="13.016978397210304"><ele>517.3333333333334</ele><time>2026-04-04T13:35:19Z</time></trkpt><trkpt lat="42.78960013718992" lon="13.016983354686591"><ele>514.0</ele><time>2026-04-04T13:35:22Z</time></trkpt><trkpt lat="42.78952413168386" lon="13.016902475095563"><ele>514.0</ele><time>2026-04-04T13:35:24Z</time></trkpt><trkpt lat="42.78946529574777" lon="13.016860022564412"><ele>514.0</ele><time>2026-04-04T13:35:26Z</time></trkpt><trkpt lat="42.78940841199354" lon="13.016815734054665"><ele>514.0</ele><time>2026-04-04T13:35:28Z</time></trkpt><trkpt lat="42.789342121618596" lon="13.016781805308222"><ele>514.0</ele><time>2026-04-04T13:35:30Z</time></trkpt><trkpt lat="42.7892774326267" lon="13.016773503347778"><ele>514.0</ele><time>2026-04-04T13:35:32Z</time></trkpt><trkpt lat="42.789210571653605" lon="13.01675733635759"><ele>514.0</ele><time>2026-04-04T13:35:34Z</time></trkpt><trkpt lat="42.78912219145886" lon="13.016739652417593"><ele>514.0</ele><time>2026-04-04T13:35:38Z</time></trkpt><trkpt lat="42.78905265683333" lon="13.016785248085247"><ele>502.0</ele><time>2026-04-04T13:35:41Z</time></trkpt><trkpt lat="42.789012103036136" lon="13.01689174030945"><ele>502.0</ele><time>2026-04-04T13:35:43Z</time></trkpt><trkpt lat="42.788968795477786" lon="13.016996899941194"><ele>502.0</ele><time>2026-04-04T13:35:45Z</time></trkpt></trkseg></trk></gpx>